<?xml version="1.0" encoding="UTF-8" standalone="no" ?>
<gpx xmlns="http://www.topografix.com/GPX/1/1" xmlns:xsi="http://www.w3.org/2001/XMLSchema-instance" xsi:schemaLocation="http://www.topografix.com/GPX/1/1 http://www.topografix.com/GPX/1/1/gpx.xsd" version="1.1" creator="VisuGPX - https://www.visugpx.com">
  <metadata>
    <name>Pornichet 20/12/2020</name>
    <desc><![CDATA[Sortie VTT du dimanche 20 décembre 2020]]></desc>
  </metadata>
  <trk>
    <name><![CDATA[Pornichet Cyclisme]]></name>
    <trkseg>
      <trkpt lat="47.26419" lon="-2.31533">
        <ele>10.9</ele>
        <time>2020-12-20T08:17:08.000Z</time>
      </trkpt>
      <trkpt lat="47.26419" lon="-2.31547">
        <ele>10.5</ele>
        <time>2020-12-20T08:17:11.000Z</time>
      </trkpt>
      <trkpt lat="47.26419" lon="-2.31553">
        <ele>0.60000002384186</ele>
        <time>2020-12-20T08:17:12.000Z</time>
      </trkpt>
      <trkpt lat="47.26419" lon="-2.31558">
        <ele>0.60000002384186</ele>
        <time>2020-12-20T08:17:13.000Z</time>
      </trkpt>
      <trkpt lat="47.26418" lon="-2.31593">
        <ele>0.60000002384186</ele>
        <time>2020-12-20T08:17:20.000Z</time>
      </trkpt>
      <trkpt lat="47.26418" lon="-2.31627">
        <ele>0.60000002384186</ele>
        <time>2020-12-20T08:17:27.000Z</time>
      </trkpt>
      <trkpt lat="47.26418" lon="-2.31633">
        <ele>0.60000002384186</ele>
        <time>2020-12-20T08:17:29.000Z</time>
      </trkpt>
      <trkpt lat="47.26414" lon="-2.31635">
        <ele>0.60000002384186</ele>
        <time>2020-12-20T08:17:31.000Z</time>
      </trkpt>
      <trkpt lat="47.26407" lon="-2.31639">
        <ele>0.60000002384186</ele>
        <time>2020-12-20T08:17:34.000Z</time>
      </trkpt>
      <trkpt lat="47.26398" lon="-2.31643">
        <ele>0.60000002384186</ele>
        <time>2020-12-20T08:17:37.000Z</time>
      </trkpt>
      <trkpt lat="47.26376" lon="-2.31654">
        <ele>0.60000002384186</ele>
        <time>2020-12-20T08:17:44.000Z</time>
      </trkpt>
      <trkpt lat="47.26356" lon="-2.31664">
        <ele>0.20000000298023</ele>
        <time>2020-12-20T08:17:50.000Z</time>
      </trkpt>
      <trkpt lat="47.26353" lon="-2.31666">
        <ele>-0.20000000298023</ele>
        <time>2020-12-20T08:17:51.000Z</time>
      </trkpt>
      <trkpt lat="47.2635" lon="-2.31668">
        <ele>-0.60000002384186</ele>
        <time>2020-12-20T08:17:52.000Z</time>
      </trkpt>
      <trkpt lat="47.26348" lon="-2.31671">
        <ele>-1.2000000476837</ele>
        <time>2020-12-20T08:17:53.000Z</time>
      </trkpt>
      <trkpt lat="47.26346" lon="-2.31675">
        <ele>-1.6000000238419</ele>
        <time>2020-12-20T08:17:54.000Z</time>
      </trkpt>
      <trkpt lat="47.26344" lon="-2.31678">
        <ele>-1.6000000238419</ele>
        <time>2020-12-20T08:17:55.000Z</time>
      </trkpt>
      <trkpt lat="47.2634" lon="-2.31684">
        <ele>-1.6000000238419</ele>
        <time>2020-12-20T08:17:57.000Z</time>
      </trkpt>
      <trkpt lat="47.2633" lon="-2.31692">
        <ele>-1.6000000238419</ele>
        <time>2020-12-20T08:18:00.000Z</time>
      </trkpt>
      <trkpt lat="47.26323" lon="-2.31697">
        <ele>-2.4000000953674</ele>
        <time>2020-12-20T08:18:01.000Z</time>
      </trkpt>
      <trkpt lat="47.2632" lon="-2.317">
        <ele>-2.7999999523163</ele>
        <time>2020-12-20T08:18:03.000Z</time>
      </trkpt>
      <trkpt lat="47.26318" lon="-2.31704">
        <ele>-3.2000000476837</ele>
        <time>2020-12-20T08:18:04.000Z</time>
      </trkpt>
      <trkpt lat="47.26318" lon="-2.31708">
        <ele>-3.5999999046326</ele>
        <time>2020-12-20T08:18:05.000Z</time>
      </trkpt>
      <trkpt lat="47.2632" lon="-2.3173">
        <ele>-3.5999999046326</ele>
        <time>2020-12-20T08:18:10.000Z</time>
      </trkpt>
      <trkpt lat="47.26322" lon="-2.31752">
        <ele>-3.5999999046326</ele>
        <time>2020-12-20T08:18:15.000Z</time>
      </trkpt>
      <trkpt lat="47.26323" lon="-2.31777">
        <ele>-3.5999999046326</ele>
        <time>2020-12-20T08:18:21.000Z</time>
      </trkpt>
      <trkpt lat="47.26322" lon="-2.31802">
        <ele>-3.5999999046326</ele>
        <time>2020-12-20T08:18:27.000Z</time>
      </trkpt>
      <trkpt lat="47.2632" lon="-2.31829">
        <ele>-3.5999999046326</ele>
        <time>2020-12-20T08:18:34.000Z</time>
      </trkpt>
      <trkpt lat="47.2632" lon="-2.31836">
        <ele>-4</ele>
        <time>2020-12-20T08:18:36.000Z</time>
      </trkpt>
      <trkpt lat="47.2632" lon="-2.3184">
        <ele>-4.4000000953674</ele>
        <time>2020-12-20T08:18:37.000Z</time>
      </trkpt>
      <trkpt lat="47.26319" lon="-2.31843">
        <ele>-4.8000001907349</ele>
        <time>2020-12-20T08:18:38.000Z</time>
      </trkpt>
      <trkpt lat="47.26319" lon="-2.31846">
        <ele>-5.1999998092651</ele>
        <time>2020-12-20T08:18:39.000Z</time>
      </trkpt>
      <trkpt lat="47.26318" lon="-2.31849">
        <ele>-5.5999999046326</ele>
        <time>2020-12-20T08:18:40.000Z</time>
      </trkpt>
      <trkpt lat="47.26311" lon="-2.3186">
        <ele>-5.5999999046326</ele>
        <time>2020-12-20T08:18:45.000Z</time>
      </trkpt>
      <trkpt lat="47.26301" lon="-2.31875">
        <ele>-5.5999999046326</ele>
        <time>2020-12-20T08:18:51.000Z</time>
      </trkpt>
      <trkpt lat="47.26287" lon="-2.31899">
        <ele>-5.5999999046326</ele>
        <time>2020-12-20T08:18:58.000Z</time>
      </trkpt>
      <trkpt lat="47.26276" lon="-2.3192">
        <ele>-5.5999999046326</ele>
        <time>2020-12-20T08:19:04.000Z</time>
      </trkpt>
      <trkpt lat="47.2627" lon="-2.31932">
        <ele>-5.5999999046326</ele>
        <time>2020-12-20T08:19:08.000Z</time>
      </trkpt>
      <trkpt lat="47.26266" lon="-2.31934">
        <ele>-5.5999999046326</ele>
        <time>2020-12-20T08:19:10.000Z</time>
      </trkpt>
      <trkpt lat="47.26258" lon="-2.31942">
        <ele>-5.5999999046326</ele>
        <time>2020-12-20T08:19:15.000Z</time>
      </trkpt>
      <trkpt lat="47.26254" lon="-2.31946">
        <ele>-5.5999999046326</ele>
        <time>2020-12-20T08:19:17.000Z</time>
      </trkpt>
      <trkpt lat="47.26245" lon="-2.31956">
        <ele>-5.5999999046326</ele>
        <time>2020-12-20T08:19:21.000Z</time>
      </trkpt>
      <trkpt lat="47.26235" lon="-2.31968">
        <ele>-5.5999999046326</ele>
        <time>2020-12-20T08:19:26.000Z</time>
      </trkpt>
      <trkpt lat="47.26235" lon="-2.31971">
        <ele>-5.5999999046326</ele>
        <time>2020-12-20T08:19:27.000Z</time>
      </trkpt>
      <trkpt lat="47.26233" lon="-2.31981">
        <ele>-5.5999999046326</ele>
        <time>2020-12-20T08:19:31.000Z</time>
      </trkpt>
      <trkpt lat="47.26232" lon="-2.31983">
        <ele>-5.5999999046326</ele>
        <time>2020-12-20T08:19:32.000Z</time>
      </trkpt>
      <trkpt lat="47.26229" lon="-2.31985">
        <ele>-5.5999999046326</ele>
        <time>2020-12-20T08:19:34.000Z</time>
      </trkpt>
      <trkpt lat="47.26226" lon="-2.31986">
        <ele>-5.5999999046326</ele>
        <time>2020-12-20T08:19:36.000Z</time>
      </trkpt>
      <trkpt lat="47.26223" lon="-2.31986">
        <ele>-5.5999999046326</ele>
        <time>2020-12-20T08:19:38.000Z</time>
      </trkpt>
      <trkpt lat="47.26213" lon="-2.31985">
        <ele>-5.5999999046326</ele>
        <time>2020-12-20T08:19:42.000Z</time>
      </trkpt>
      <trkpt lat="47.26199" lon="-2.31992">
        <ele>-5.5999999046326</ele>
        <time>2020-12-20T08:19:47.000Z</time>
      </trkpt>
      <trkpt lat="47.26185" lon="-2.32009">
        <ele>-5.5999999046326</ele>
        <time>2020-12-20T08:19:52.000Z</time>
      </trkpt>
      <trkpt lat="47.26179" lon="-2.32024">
        <ele>-5.5999999046326</ele>
        <time>2020-12-20T08:19:55.000Z</time>
      </trkpt>
      <trkpt lat="47.26177" lon="-2.32034">
        <ele>-5.5999999046326</ele>
        <time>2020-12-20T08:19:57.000Z</time>
      </trkpt>
      <trkpt lat="47.26164" lon="-2.32073">
        <ele>-5.5999999046326</ele>
        <time>2020-12-20T08:20:05.000Z</time>
      </trkpt>
      <trkpt lat="47.26155" lon="-2.32104">
        <ele>-5.5999999046326</ele>
        <time>2020-12-20T08:20:11.000Z</time>
      </trkpt>
      <trkpt lat="47.26145" lon="-2.32138">
        <ele>-5.5999999046326</ele>
        <time>2020-12-20T08:20:18.000Z</time>
      </trkpt>
      <trkpt lat="47.26133" lon="-2.32165">
        <ele>-5.5999999046326</ele>
        <time>2020-12-20T08:20:25.000Z</time>
      </trkpt>
      <trkpt lat="47.26121" lon="-2.32187">
        <ele>-5.5999999046326</ele>
        <time>2020-12-20T08:20:31.000Z</time>
      </trkpt>
      <trkpt lat="47.26104" lon="-2.32209">
        <ele>-5.5999999046326</ele>
        <time>2020-12-20T08:20:37.000Z</time>
      </trkpt>
      <trkpt lat="47.26085" lon="-2.32231">
        <ele>-5.5999999046326</ele>
        <time>2020-12-20T08:20:43.000Z</time>
      </trkpt>
      <trkpt lat="47.26058" lon="-2.32259">
        <ele>-5.5999999046326</ele>
        <time>2020-12-20T08:20:51.000Z</time>
      </trkpt>
      <trkpt lat="47.26044" lon="-2.32275">
        <ele>-5.5999999046326</ele>
        <time>2020-12-20T08:20:55.000Z</time>
      </trkpt>
      <trkpt lat="47.26032" lon="-2.32291">
        <ele>-5.5999999046326</ele>
        <time>2020-12-20T08:20:59.000Z</time>
      </trkpt>
      <trkpt lat="47.26003" lon="-2.32328">
        <ele>-5.5999999046326</ele>
        <time>2020-12-20T08:21:08.000Z</time>
      </trkpt>
      <trkpt lat="47.25984" lon="-2.32349">
        <ele>-5.5999999046326</ele>
        <time>2020-12-20T08:21:14.000Z</time>
      </trkpt>
      <trkpt lat="47.25965" lon="-2.32374">
        <ele>-5.5999999046326</ele>
        <time>2020-12-20T08:21:21.000Z</time>
      </trkpt>
      <trkpt lat="47.25943" lon="-2.32403">
        <ele>-5.5999999046326</ele>
        <time>2020-12-20T08:21:29.000Z</time>
      </trkpt>
      <trkpt lat="47.25927" lon="-2.32425">
        <ele>-5.5999999046326</ele>
        <time>2020-12-20T08:21:35.000Z</time>
      </trkpt>
      <trkpt lat="47.25913" lon="-2.32453">
        <ele>-5.5999999046326</ele>
        <time>2020-12-20T08:21:42.000Z</time>
      </trkpt>
      <trkpt lat="47.25898" lon="-2.32458">
        <ele>-5.5999999046326</ele>
        <time>2020-12-20T08:21:46.000Z</time>
      </trkpt>
      <trkpt lat="47.25866" lon="-2.32461">
        <ele>-5.5999999046326</ele>
        <time>2020-12-20T08:21:54.000Z</time>
      </trkpt>
      <trkpt lat="47.25854" lon="-2.32458">
        <ele>-5.5999999046326</ele>
        <time>2020-12-20T08:21:57.000Z</time>
      </trkpt>
      <trkpt lat="47.25838" lon="-2.32452">
        <ele>-5.5999999046326</ele>
        <time>2020-12-20T08:22:01.000Z</time>
      </trkpt>
      <trkpt lat="47.25818" lon="-2.32448">
        <ele>-5.5999999046326</ele>
        <time>2020-12-20T08:22:07.000Z</time>
      </trkpt>
      <trkpt lat="47.25803" lon="-2.32445">
        <ele>-5.5999999046326</ele>
        <time>2020-12-20T08:22:12.000Z</time>
      </trkpt>
      <trkpt lat="47.25792" lon="-2.32425">
        <ele>-5.5999999046326</ele>
        <time>2020-12-20T08:22:17.000Z</time>
      </trkpt>
      <trkpt lat="47.25782" lon="-2.32417">
        <ele>-5.5999999046326</ele>
        <time>2020-12-20T08:22:20.000Z</time>
      </trkpt>
      <trkpt lat="47.25777" lon="-2.32417">
        <ele>-5.5999999046326</ele>
        <time>2020-12-20T08:22:21.000Z</time>
      </trkpt>
      <trkpt lat="47.25749" lon="-2.32418">
        <ele>-5.5999999046326</ele>
        <time>2020-12-20T08:22:27.000Z</time>
      </trkpt>
      <trkpt lat="47.25713" lon="-2.32417">
        <ele>-5.5999999046326</ele>
        <time>2020-12-20T08:22:35.000Z</time>
      </trkpt>
      <trkpt lat="47.25687" lon="-2.32422">
        <ele>-5.5999999046326</ele>
        <time>2020-12-20T08:22:42.000Z</time>
      </trkpt>
      <trkpt lat="47.25684" lon="-2.32433">
        <ele>-5.5999999046326</ele>
        <time>2020-12-20T08:22:44.000Z</time>
      </trkpt>
      <trkpt lat="47.25684" lon="-2.32439">
        <ele>-5.5999999046326</ele>
        <time>2020-12-20T08:22:45.000Z</time>
      </trkpt>
      <trkpt lat="47.25689" lon="-2.32456">
        <ele>-5.5999999046326</ele>
        <time>2020-12-20T08:22:48.000Z</time>
      </trkpt>
      <trkpt lat="47.25692" lon="-2.32466">
        <ele>-5.5999999046326</ele>
        <time>2020-12-20T08:22:50.000Z</time>
      </trkpt>
      <trkpt lat="47.25702" lon="-2.32496">
        <ele>-5.5999999046326</ele>
        <time>2020-12-20T08:22:56.000Z</time>
      </trkpt>
      <trkpt lat="47.25712" lon="-2.32537">
        <ele>-5.5999999046326</ele>
        <time>2020-12-20T08:23:05.000Z</time>
      </trkpt>
      <trkpt lat="47.25712" lon="-2.32541">
        <ele>-5.1999998092651</ele>
        <time>2020-12-20T08:23:06.000Z</time>
      </trkpt>
      <trkpt lat="47.25713" lon="-2.32545">
        <ele>-4.8000001907349</ele>
        <time>2020-12-20T08:23:07.000Z</time>
      </trkpt>
      <trkpt lat="47.25713" lon="-2.32549">
        <ele>-4.4000000953674</ele>
        <time>2020-12-20T08:23:08.000Z</time>
      </trkpt>
      <trkpt lat="47.25714" lon="-2.32553">
        <ele>-4</ele>
        <time>2020-12-20T08:23:09.000Z</time>
      </trkpt>
      <trkpt lat="47.25715" lon="-2.32558">
        <ele>-3.5999999046326</ele>
        <time>2020-12-20T08:23:10.000Z</time>
      </trkpt>
      <trkpt lat="47.25721" lon="-2.3258">
        <ele>-3.5999999046326</ele>
        <time>2020-12-20T08:23:15.000Z</time>
      </trkpt>
      <trkpt lat="47.25725" lon="-2.326">
        <ele>-3.5999999046326</ele>
        <time>2020-12-20T08:23:21.000Z</time>
      </trkpt>
      <trkpt lat="47.25725" lon="-2.32609">
        <ele>-3.5999999046326</ele>
        <time>2020-12-20T08:23:24.000Z</time>
      </trkpt>
      <trkpt lat="47.25721" lon="-2.32614">
        <ele>-3.5999999046326</ele>
        <time>2020-12-20T08:23:26.000Z</time>
      </trkpt>
      <trkpt lat="47.25717" lon="-2.32618">
        <ele>-3.5999999046326</ele>
        <time>2020-12-20T08:23:28.000Z</time>
      </trkpt>
      <trkpt lat="47.25705" lon="-2.32623">
        <ele>-3.5999999046326</ele>
        <time>2020-12-20T08:23:31.000Z</time>
      </trkpt>
      <trkpt lat="47.25701" lon="-2.32625">
        <ele>-3.5999999046326</ele>
        <time>2020-12-20T08:23:32.000Z</time>
      </trkpt>
      <trkpt lat="47.25697" lon="-2.32627">
        <ele>-3.2000000476837</ele>
        <time>2020-12-20T08:23:33.000Z</time>
      </trkpt>
      <trkpt lat="47.25693" lon="-2.32629">
        <ele>-2.7999999523163</ele>
        <time>2020-12-20T08:23:34.000Z</time>
      </trkpt>
      <trkpt lat="47.2569" lon="-2.32631">
        <ele>-2.4000000953674</ele>
        <time>2020-12-20T08:23:35.000Z</time>
      </trkpt>
      <trkpt lat="47.25686" lon="-2.32633">
        <ele>-2</ele>
        <time>2020-12-20T08:23:36.000Z</time>
      </trkpt>
      <trkpt lat="47.25683" lon="-2.32634">
        <ele>-1.6000000238419</ele>
        <time>2020-12-20T08:23:37.000Z</time>
      </trkpt>
      <trkpt lat="47.25675" lon="-2.32637">
        <ele>-1.6000000238419</ele>
        <time>2020-12-20T08:23:39.000Z</time>
      </trkpt>
      <trkpt lat="47.25646" lon="-2.32649">
        <ele>-1.6000000238419</ele>
        <time>2020-12-20T08:23:47.000Z</time>
      </trkpt>
      <trkpt lat="47.25638" lon="-2.32653">
        <ele>-1.2000000476837</ele>
        <time>2020-12-20T08:23:49.000Z</time>
      </trkpt>
      <trkpt lat="47.25635" lon="-2.32654">
        <ele>-0.60000002384186</ele>
        <time>2020-12-20T08:23:50.000Z</time>
      </trkpt>
      <trkpt lat="47.25631" lon="-2.32656">
        <ele>-0.20000000298023</ele>
        <time>2020-12-20T08:23:51.000Z</time>
      </trkpt>
      <trkpt lat="47.25628" lon="-2.32658">
        <ele>0.20000000298023</ele>
        <time>2020-12-20T08:23:52.000Z</time>
      </trkpt>
      <trkpt lat="47.25624" lon="-2.3266">
        <ele>0.60000002384186</ele>
        <time>2020-12-20T08:23:53.000Z</time>
      </trkpt>
      <trkpt lat="47.2562" lon="-2.32661">
        <ele>0.60000002384186</ele>
        <time>2020-12-20T08:23:54.000Z</time>
      </trkpt>
      <trkpt lat="47.25585" lon="-2.32678">
        <ele>0.60000002384186</ele>
        <time>2020-12-20T08:24:02.000Z</time>
      </trkpt>
      <trkpt lat="47.25555" lon="-2.32691">
        <ele>0.60000002384186</ele>
        <time>2020-12-20T08:24:09.000Z</time>
      </trkpt>
      <trkpt lat="47.25528" lon="-2.32701">
        <ele>0.60000002384186</ele>
        <time>2020-12-20T08:24:15.000Z</time>
      </trkpt>
      <trkpt lat="47.25519" lon="-2.32703">
        <ele>0.60000002384186</ele>
        <time>2020-12-20T08:24:17.000Z</time>
      </trkpt>
      <trkpt lat="47.25487" lon="-2.32708">
        <ele>0.60000002384186</ele>
        <time>2020-12-20T08:24:24.000Z</time>
      </trkpt>
      <trkpt lat="47.25473" lon="-2.32724">
        <ele>0.60000002384186</ele>
        <time>2020-12-20T08:24:28.000Z</time>
      </trkpt>
      <trkpt lat="47.25469" lon="-2.32728">
        <ele>0.60000002384186</ele>
        <time>2020-12-20T08:24:29.000Z</time>
      </trkpt>
      <trkpt lat="47.25441" lon="-2.32769">
        <ele>0.60000002384186</ele>
        <time>2020-12-20T08:24:38.000Z</time>
      </trkpt>
      <trkpt lat="47.25435" lon="-2.32787">
        <ele>0.60000002384186</ele>
        <time>2020-12-20T08:24:42.000Z</time>
      </trkpt>
      <trkpt lat="47.25424" lon="-2.32803">
        <ele>0.60000002384186</ele>
        <time>2020-12-20T08:24:46.000Z</time>
      </trkpt>
      <trkpt lat="47.25421" lon="-2.32808">
        <ele>0.60000002384186</ele>
        <time>2020-12-20T08:24:47.000Z</time>
      </trkpt>
      <trkpt lat="47.25394" lon="-2.32839">
        <ele>0.60000002384186</ele>
        <time>2020-12-20T08:24:54.000Z</time>
      </trkpt>
      <trkpt lat="47.25359" lon="-2.32877">
        <ele>0.60000002384186</ele>
        <time>2020-12-20T08:25:03.000Z</time>
      </trkpt>
      <trkpt lat="47.25319" lon="-2.32912">
        <ele>0.60000002384186</ele>
        <time>2020-12-20T08:25:13.000Z</time>
      </trkpt>
      <trkpt lat="47.25309" lon="-2.32926">
        <ele>0.60000002384186</ele>
        <time>2020-12-20T08:25:16.000Z</time>
      </trkpt>
      <trkpt lat="47.25307" lon="-2.32939">
        <ele>0.60000002384186</ele>
        <time>2020-12-20T08:25:18.000Z</time>
      </trkpt>
      <trkpt lat="47.25312" lon="-2.32963">
        <ele>0.60000002384186</ele>
        <time>2020-12-20T08:25:22.000Z</time>
      </trkpt>
      <trkpt lat="47.25315" lon="-2.32968">
        <ele>0.60000002384186</ele>
        <time>2020-12-20T08:25:23.000Z</time>
      </trkpt>
      <trkpt lat="47.25323" lon="-2.32991">
        <ele>0.60000002384186</ele>
        <time>2020-12-20T08:25:27.000Z</time>
      </trkpt>
      <trkpt lat="47.25339" lon="-2.33029">
        <ele>0.60000002384186</ele>
        <time>2020-12-20T08:25:34.000Z</time>
      </trkpt>
      <trkpt lat="47.25354" lon="-2.33066">
        <ele>0.60000002384186</ele>
        <time>2020-12-20T08:25:41.000Z</time>
      </trkpt>
      <trkpt lat="47.25363" lon="-2.33096">
        <ele>0.20000000298023</ele>
        <time>2020-12-20T08:25:47.000Z</time>
      </trkpt>
      <trkpt lat="47.25365" lon="-2.331">
        <ele>-0.20000000298023</ele>
        <time>2020-12-20T08:25:48.000Z</time>
      </trkpt>
      <trkpt lat="47.25366" lon="-2.33103">
        <ele>-0.60000002384186</ele>
        <time>2020-12-20T08:25:49.000Z</time>
      </trkpt>
      <trkpt lat="47.25367" lon="-2.33105">
        <ele>-1</ele>
        <time>2020-12-20T08:25:50.000Z</time>
      </trkpt>
      <trkpt lat="47.25367" lon="-2.33107">
        <ele>-1.3999999761581</ele>
        <time>2020-12-20T08:25:51.000Z</time>
      </trkpt>
      <trkpt lat="47.25367" lon="-2.33108">
        <ele>-1.3999999761581</ele>
        <time>2020-12-20T08:25:52.000Z</time>
      </trkpt>
      <trkpt lat="47.25367" lon="-2.33108">
        <ele>-1.3999999761581</ele>
        <time>2020-12-20T08:25:54.000Z</time>
      </trkpt>
      <trkpt lat="47.25373" lon="-2.3311">
        <ele>6.5999999046326</ele>
        <time>2020-12-20T08:39:32.000Z</time>
      </trkpt>
      <trkpt lat="47.25374" lon="-2.33112">
        <ele>6.5999999046326</ele>
        <time>2020-12-20T08:39:33.000Z</time>
      </trkpt>
      <trkpt lat="47.2538" lon="-2.3313">
        <ele>6.5999999046326</ele>
        <time>2020-12-20T08:39:40.000Z</time>
      </trkpt>
      <trkpt lat="47.2538" lon="-2.33134">
        <ele>6.5999999046326</ele>
        <time>2020-12-20T08:39:41.000Z</time>
      </trkpt>
      <trkpt lat="47.25378" lon="-2.33147">
        <ele>6.5999999046326</ele>
        <time>2020-12-20T08:39:44.000Z</time>
      </trkpt>
      <trkpt lat="47.25369" lon="-2.33169">
        <ele>6.5999999046326</ele>
        <time>2020-12-20T08:39:49.000Z</time>
      </trkpt>
      <trkpt lat="47.25366" lon="-2.33173">
        <ele>6.5999999046326</ele>
        <time>2020-12-20T08:39:50.000Z</time>
      </trkpt>
      <trkpt lat="47.25363" lon="-2.33177">
        <ele>6.5999999046326</ele>
        <time>2020-12-20T08:39:51.000Z</time>
      </trkpt>
      <trkpt lat="47.25347" lon="-2.33198">
        <ele>6.5999999046326</ele>
        <time>2020-12-20T08:39:56.000Z</time>
      </trkpt>
      <trkpt lat="47.25337" lon="-2.33211">
        <ele>7</ele>
        <time>2020-12-20T08:39:59.000Z</time>
      </trkpt>
      <trkpt lat="47.25334" lon="-2.33215">
        <ele>7.4000000953674</ele>
        <time>2020-12-20T08:40:00.000Z</time>
      </trkpt>
      <trkpt lat="47.25331" lon="-2.33219">
        <ele>7.8000001907349</ele>
        <time>2020-12-20T08:40:01.000Z</time>
      </trkpt>
      <trkpt lat="47.25329" lon="-2.33223">
        <ele>8.3999996185303</ele>
        <time>2020-12-20T08:40:02.000Z</time>
      </trkpt>
      <trkpt lat="47.25326" lon="-2.33227">
        <ele>8.8000001907349</ele>
        <time>2020-12-20T08:40:03.000Z</time>
      </trkpt>
      <trkpt lat="47.2532" lon="-2.33233">
        <ele>8.8000001907349</ele>
        <time>2020-12-20T08:40:06.000Z</time>
      </trkpt>
      <trkpt lat="47.25318" lon="-2.33233">
        <ele>8.8000001907349</ele>
        <time>2020-12-20T08:40:07.000Z</time>
      </trkpt>
      <trkpt lat="47.2531" lon="-2.33225">
        <ele>8.8000001907349</ele>
        <time>2020-12-20T08:40:12.000Z</time>
      </trkpt>
      <trkpt lat="47.253" lon="-2.33209">
        <ele>8.8000001907349</ele>
        <time>2020-12-20T08:40:19.000Z</time>
      </trkpt>
      <trkpt lat="47.25289" lon="-2.33188">
        <ele>8.8000001907349</ele>
        <time>2020-12-20T08:40:27.000Z</time>
      </trkpt>
      <trkpt lat="47.25282" lon="-2.3317">
        <ele>8.8000001907349</ele>
        <time>2020-12-20T08:40:34.000Z</time>
      </trkpt>
      <trkpt lat="47.25273" lon="-2.33155">
        <ele>8.8000001907349</ele>
        <time>2020-12-20T08:40:40.000Z</time>
      </trkpt>
      <trkpt lat="47.25261" lon="-2.33137">
        <ele>8.8000001907349</ele>
        <time>2020-12-20T08:40:48.000Z</time>
      </trkpt>
      <trkpt lat="47.2525" lon="-2.33117">
        <ele>8.8000001907349</ele>
        <time>2020-12-20T08:40:55.000Z</time>
      </trkpt>
      <trkpt lat="47.25237" lon="-2.33096">
        <ele>8.8000001907349</ele>
        <time>2020-12-20T08:41:02.000Z</time>
      </trkpt>
      <trkpt lat="47.25226" lon="-2.33076">
        <ele>8.8000001907349</ele>
        <time>2020-12-20T08:41:10.000Z</time>
      </trkpt>
      <trkpt lat="47.25218" lon="-2.33062">
        <ele>8.8000001907349</ele>
        <time>2020-12-20T08:41:16.000Z</time>
      </trkpt>
      <trkpt lat="47.25208" lon="-2.33041">
        <ele>8.8000001907349</ele>
        <time>2020-12-20T08:41:24.000Z</time>
      </trkpt>
      <trkpt lat="47.25206" lon="-2.3303">
        <ele>8.8000001907349</ele>
        <time>2020-12-20T08:41:31.000Z</time>
      </trkpt>
      <trkpt lat="47.25205" lon="-2.3303">
        <ele>8.8000001907349</ele>
        <time>2020-12-20T08:41:41.000Z</time>
      </trkpt>
      <trkpt lat="47.25202" lon="-2.3303">
        <ele>8.8000001907349</ele>
        <time>2020-12-20T08:41:43.000Z</time>
      </trkpt>
      <trkpt lat="47.25189" lon="-2.33045">
        <ele>8.8000001907349</ele>
        <time>2020-12-20T08:41:48.000Z</time>
      </trkpt>
      <trkpt lat="47.25165" lon="-2.33069">
        <ele>8.8000001907349</ele>
        <time>2020-12-20T08:41:54.000Z</time>
      </trkpt>
      <trkpt lat="47.25148" lon="-2.33079">
        <ele>8.8000001907349</ele>
        <time>2020-12-20T08:41:58.000Z</time>
      </trkpt>
      <trkpt lat="47.25139" lon="-2.33082">
        <ele>8.8000001907349</ele>
        <time>2020-12-20T08:42:00.000Z</time>
      </trkpt>
      <trkpt lat="47.25116" lon="-2.33086">
        <ele>8.8000001907349</ele>
        <time>2020-12-20T08:42:06.000Z</time>
      </trkpt>
      <trkpt lat="47.25111" lon="-2.33078">
        <ele>9.1999998092651</ele>
        <time>2020-12-20T08:42:08.000Z</time>
      </trkpt>
      <trkpt lat="47.25111" lon="-2.33075">
        <ele>9.6000003814697</ele>
        <time>2020-12-20T08:42:09.000Z</time>
      </trkpt>
      <trkpt lat="47.25111" lon="-2.33071">
        <ele>10</ele>
        <time>2020-12-20T08:42:10.000Z</time>
      </trkpt>
      <trkpt lat="47.25112" lon="-2.33066">
        <ele>10.39999961853</ele>
        <time>2020-12-20T08:42:11.000Z</time>
      </trkpt>
      <trkpt lat="47.25115" lon="-2.3306">
        <ele>10.800000190735</ele>
        <time>2020-12-20T08:42:12.000Z</time>
      </trkpt>
      <trkpt lat="47.25117" lon="-2.33056">
        <ele>10.800000190735</ele>
        <time>2020-12-20T08:42:13.000Z</time>
      </trkpt>
      <trkpt lat="47.25121" lon="-2.33051">
        <ele>10.800000190735</ele>
        <time>2020-12-20T08:42:14.000Z</time>
      </trkpt>
      <trkpt lat="47.25134" lon="-2.33022">
        <ele>10.800000190735</ele>
        <time>2020-12-20T08:42:19.000Z</time>
      </trkpt>
      <trkpt lat="47.25133" lon="-2.32999">
        <ele>10.800000190735</ele>
        <time>2020-12-20T08:42:22.000Z</time>
      </trkpt>
      <trkpt lat="47.25124" lon="-2.32983">
        <ele>10.800000190735</ele>
        <time>2020-12-20T08:42:25.000Z</time>
      </trkpt>
      <trkpt lat="47.2512" lon="-2.32978">
        <ele>10.800000190735</ele>
        <time>2020-12-20T08:42:26.000Z</time>
      </trkpt>
      <trkpt lat="47.25096" lon="-2.32938">
        <ele>10.800000190735</ele>
        <time>2020-12-20T08:42:34.000Z</time>
      </trkpt>
      <trkpt lat="47.25093" lon="-2.32933">
        <ele>10.800000190735</ele>
        <time>2020-12-20T08:42:35.000Z</time>
      </trkpt>
      <trkpt lat="47.25087" lon="-2.32917">
        <ele>10.800000190735</ele>
        <time>2020-12-20T08:42:38.000Z</time>
      </trkpt>
      <trkpt lat="47.25086" lon="-2.32902">
        <ele>10.800000190735</ele>
        <time>2020-12-20T08:42:41.000Z</time>
      </trkpt>
      <trkpt lat="47.25085" lon="-2.32899">
        <ele>10.800000190735</ele>
        <time>2020-12-20T08:42:42.000Z</time>
      </trkpt>
      <trkpt lat="47.25081" lon="-2.32891">
        <ele>10.800000190735</ele>
        <time>2020-12-20T08:42:46.000Z</time>
      </trkpt>
      <trkpt lat="47.2508" lon="-2.32888">
        <ele>10.800000190735</ele>
        <time>2020-12-20T08:42:47.000Z</time>
      </trkpt>
      <trkpt lat="47.2508" lon="-2.32865">
        <ele>10.800000190735</ele>
        <time>2020-12-20T08:42:53.000Z</time>
      </trkpt>
      <trkpt lat="47.25079" lon="-2.32857">
        <ele>10.800000190735</ele>
        <time>2020-12-20T08:42:55.000Z</time>
      </trkpt>
      <trkpt lat="47.25076" lon="-2.32851">
        <ele>10.800000190735</ele>
        <time>2020-12-20T08:42:57.000Z</time>
      </trkpt>
      <trkpt lat="47.25059" lon="-2.32826">
        <ele>10.800000190735</ele>
        <time>2020-12-20T08:43:02.000Z</time>
      </trkpt>
      <trkpt lat="47.2505" lon="-2.32801">
        <ele>10.800000190735</ele>
        <time>2020-12-20T08:43:06.000Z</time>
      </trkpt>
      <trkpt lat="47.25046" lon="-2.3279">
        <ele>10.800000190735</ele>
        <time>2020-12-20T08:43:08.000Z</time>
      </trkpt>
      <trkpt lat="47.25036" lon="-2.32771">
        <ele>10.800000190735</ele>
        <time>2020-12-20T08:43:12.000Z</time>
      </trkpt>
      <trkpt lat="47.25029" lon="-2.32755">
        <ele>10.800000190735</ele>
        <time>2020-12-20T08:43:17.000Z</time>
      </trkpt>
      <trkpt lat="47.25029" lon="-2.32751">
        <ele>10.800000190735</ele>
        <time>2020-12-20T08:43:18.000Z</time>
      </trkpt>
      <trkpt lat="47.25032" lon="-2.32745">
        <ele>10.800000190735</ele>
        <time>2020-12-20T08:43:20.000Z</time>
      </trkpt>
      <trkpt lat="47.25038" lon="-2.3274">
        <ele>10.800000190735</ele>
        <time>2020-12-20T08:43:22.000Z</time>
      </trkpt>
      <trkpt lat="47.25051" lon="-2.32728">
        <ele>10.800000190735</ele>
        <time>2020-12-20T08:43:26.000Z</time>
      </trkpt>
      <trkpt lat="47.25065" lon="-2.32718">
        <ele>10.800000190735</ele>
        <time>2020-12-20T08:43:30.000Z</time>
      </trkpt>
      <trkpt lat="47.25072" lon="-2.32713">
        <ele>10.800000190735</ele>
        <time>2020-12-20T08:43:32.000Z</time>
      </trkpt>
      <trkpt lat="47.25083" lon="-2.32706">
        <ele>11.199999809265</ele>
        <time>2020-12-20T08:43:35.000Z</time>
      </trkpt>
      <trkpt lat="47.25087" lon="-2.32703">
        <ele>11.60000038147</ele>
        <time>2020-12-20T08:43:36.000Z</time>
      </trkpt>
      <trkpt lat="47.2509" lon="-2.327">
        <ele>12</ele>
        <time>2020-12-20T08:43:37.000Z</time>
      </trkpt>
      <trkpt lat="47.2509" lon="-2.32695">
        <ele>12.39999961853</ele>
        <time>2020-12-20T08:43:38.000Z</time>
      </trkpt>
      <trkpt lat="47.2509" lon="-2.3269">
        <ele>12.800000190735</ele>
        <time>2020-12-20T08:43:39.000Z</time>
      </trkpt>
      <trkpt lat="47.25085" lon="-2.32677">
        <ele>12.800000190735</ele>
        <time>2020-12-20T08:43:42.000Z</time>
      </trkpt>
      <trkpt lat="47.25082" lon="-2.32673">
        <ele>12.800000190735</ele>
        <time>2020-12-20T08:43:43.000Z</time>
      </trkpt>
      <trkpt lat="47.25067" lon="-2.32642">
        <ele>12.800000190735</ele>
        <time>2020-12-20T08:43:49.000Z</time>
      </trkpt>
      <trkpt lat="47.25062" lon="-2.32631">
        <ele>13.39999961853</ele>
        <time>2020-12-20T08:43:51.000Z</time>
      </trkpt>
      <trkpt lat="47.25059" lon="-2.32626">
        <ele>13.800000190735</ele>
        <time>2020-12-20T08:43:52.000Z</time>
      </trkpt>
      <trkpt lat="47.25057" lon="-2.3262">
        <ele>14.199999809265</ele>
        <time>2020-12-20T08:43:53.000Z</time>
      </trkpt>
      <trkpt lat="47.25055" lon="-2.32615">
        <ele>14.60000038147</ele>
        <time>2020-12-20T08:43:54.000Z</time>
      </trkpt>
      <trkpt lat="47.25052" lon="-2.3261">
        <ele>15</ele>
        <time>2020-12-20T08:43:55.000Z</time>
      </trkpt>
      <trkpt lat="47.25045" lon="-2.32596">
        <ele>15</ele>
        <time>2020-12-20T08:43:58.000Z</time>
      </trkpt>
      <trkpt lat="47.25033" lon="-2.32565">
        <ele>15.39999961853</ele>
        <time>2020-12-20T08:44:04.000Z</time>
      </trkpt>
      <trkpt lat="47.25031" lon="-2.3256">
        <ele>15.800000190735</ele>
        <time>2020-12-20T08:44:05.000Z</time>
      </trkpt>
      <trkpt lat="47.2503" lon="-2.32555">
        <ele>16.200000762939</ele>
        <time>2020-12-20T08:44:06.000Z</time>
      </trkpt>
      <trkpt lat="47.25029" lon="-2.32549">
        <ele>16.60000038147</ele>
        <time>2020-12-20T08:44:07.000Z</time>
      </trkpt>
      <trkpt lat="47.25029" lon="-2.32543">
        <ele>17</ele>
        <time>2020-12-20T08:44:08.000Z</time>
      </trkpt>
      <trkpt lat="47.2503" lon="-2.32532">
        <ele>17</ele>
        <time>2020-12-20T08:44:10.000Z</time>
      </trkpt>
      <trkpt lat="47.25039" lon="-2.32513">
        <ele>17</ele>
        <time>2020-12-20T08:44:15.000Z</time>
      </trkpt>
      <trkpt lat="47.25048" lon="-2.32505">
        <ele>17.39999961853</ele>
        <time>2020-12-20T08:44:18.000Z</time>
      </trkpt>
      <trkpt lat="47.25052" lon="-2.32503">
        <ele>17.799999237061</ele>
        <time>2020-12-20T08:44:19.000Z</time>
      </trkpt>
      <trkpt lat="47.25055" lon="-2.32502">
        <ele>18.200000762939</ele>
        <time>2020-12-20T08:44:20.000Z</time>
      </trkpt>
      <trkpt lat="47.25059" lon="-2.325">
        <ele>18.60000038147</ele>
        <time>2020-12-20T08:44:21.000Z</time>
      </trkpt>
      <trkpt lat="47.25062" lon="-2.32499">
        <ele>19.200000762939</ele>
        <time>2020-12-20T08:44:22.000Z</time>
      </trkpt>
      <trkpt lat="47.25085" lon="-2.32489">
        <ele>19.200000762939</ele>
        <time>2020-12-20T08:44:28.000Z</time>
      </trkpt>
      <trkpt lat="47.25089" lon="-2.32487">
        <ele>19.200000762939</ele>
        <time>2020-12-20T08:44:29.000Z</time>
      </trkpt>
      <trkpt lat="47.25094" lon="-2.32485">
        <ele>19.200000762939</ele>
        <time>2020-12-20T08:44:30.000Z</time>
      </trkpt>
      <trkpt lat="47.25104" lon="-2.32472">
        <ele>19.200000762939</ele>
        <time>2020-12-20T08:44:33.000Z</time>
      </trkpt>
      <trkpt lat="47.25107" lon="-2.3246">
        <ele>19.60000038147</ele>
        <time>2020-12-20T08:44:35.000Z</time>
      </trkpt>
      <trkpt lat="47.25108" lon="-2.32453">
        <ele>20</ele>
        <time>2020-12-20T08:44:36.000Z</time>
      </trkpt>
      <trkpt lat="47.25108" lon="-2.32447">
        <ele>20.39999961853</ele>
        <time>2020-12-20T08:44:37.000Z</time>
      </trkpt>
      <trkpt lat="47.25108" lon="-2.3244">
        <ele>20.799999237061</ele>
        <time>2020-12-20T08:44:38.000Z</time>
      </trkpt>
      <trkpt lat="47.25108" lon="-2.32434">
        <ele>21.200000762939</ele>
        <time>2020-12-20T08:44:39.000Z</time>
      </trkpt>
      <trkpt lat="47.25108" lon="-2.32403">
        <ele>21.200000762939</ele>
        <time>2020-12-20T08:44:44.000Z</time>
      </trkpt>
      <trkpt lat="47.25107" lon="-2.32383">
        <ele>21.200000762939</ele>
        <time>2020-12-20T08:44:47.000Z</time>
      </trkpt>
      <trkpt lat="47.25108" lon="-2.32366">
        <ele>21.60000038147</ele>
        <time>2020-12-20T08:44:50.000Z</time>
      </trkpt>
      <trkpt lat="47.25109" lon="-2.3236">
        <ele>22</ele>
        <time>2020-12-20T08:44:51.000Z</time>
      </trkpt>
      <trkpt lat="47.2511" lon="-2.32354">
        <ele>22.39999961853</ele>
        <time>2020-12-20T08:44:52.000Z</time>
      </trkpt>
      <trkpt lat="47.25111" lon="-2.32349">
        <ele>22.799999237061</ele>
        <time>2020-12-20T08:44:53.000Z</time>
      </trkpt>
      <trkpt lat="47.25113" lon="-2.32344">
        <ele>23.200000762939</ele>
        <time>2020-12-20T08:44:54.000Z</time>
      </trkpt>
      <trkpt lat="47.25116" lon="-2.32335">
        <ele>23.200000762939</ele>
        <time>2020-12-20T08:44:56.000Z</time>
      </trkpt>
      <trkpt lat="47.25125" lon="-2.32313">
        <ele>23.200000762939</ele>
        <time>2020-12-20T08:45:02.000Z</time>
      </trkpt>
      <trkpt lat="47.25127" lon="-2.3231">
        <ele>23.60000038147</ele>
        <time>2020-12-20T08:45:03.000Z</time>
      </trkpt>
      <trkpt lat="47.25129" lon="-2.32308">
        <ele>24.60000038147</ele>
        <time>2020-12-20T08:45:04.000Z</time>
      </trkpt>
      <trkpt lat="47.25131" lon="-2.32305">
        <ele>25</ele>
        <time>2020-12-20T08:45:05.000Z</time>
      </trkpt>
      <trkpt lat="47.25133" lon="-2.32302">
        <ele>25.39999961853</ele>
        <time>2020-12-20T08:45:06.000Z</time>
      </trkpt>
      <trkpt lat="47.25136" lon="-2.32294">
        <ele>25.39999961853</ele>
        <time>2020-12-20T08:45:08.000Z</time>
      </trkpt>
      <trkpt lat="47.25135" lon="-2.32274">
        <ele>25.39999961853</ele>
        <time>2020-12-20T08:45:12.000Z</time>
      </trkpt>
      <trkpt lat="47.25133" lon="-2.32264">
        <ele>25.39999961853</ele>
        <time>2020-12-20T08:45:14.000Z</time>
      </trkpt>
      <trkpt lat="47.25131" lon="-2.32232">
        <ele>25.799999237061</ele>
        <time>2020-12-20T08:45:20.000Z</time>
      </trkpt>
      <trkpt lat="47.2513" lon="-2.32227">
        <ele>26.200000762939</ele>
        <time>2020-12-20T08:45:21.000Z</time>
      </trkpt>
      <trkpt lat="47.2513" lon="-2.32222">
        <ele>26.60000038147</ele>
        <time>2020-12-20T08:45:22.000Z</time>
      </trkpt>
      <trkpt lat="47.2513" lon="-2.32217">
        <ele>27</ele>
        <time>2020-12-20T08:45:23.000Z</time>
      </trkpt>
      <trkpt lat="47.25129" lon="-2.32211">
        <ele>27.39999961853</ele>
        <time>2020-12-20T08:45:24.000Z</time>
      </trkpt>
      <trkpt lat="47.25128" lon="-2.32196">
        <ele>27.39999961853</ele>
        <time>2020-12-20T08:45:27.000Z</time>
      </trkpt>
      <trkpt lat="47.25126" lon="-2.32157">
        <ele>27.39999961853</ele>
        <time>2020-12-20T08:45:34.000Z</time>
      </trkpt>
      <trkpt lat="47.25123" lon="-2.3212">
        <ele>27.39999961853</ele>
        <time>2020-12-20T08:45:41.000Z</time>
      </trkpt>
      <trkpt lat="47.25121" lon="-2.32081">
        <ele>27.39999961853</ele>
        <time>2020-12-20T08:45:48.000Z</time>
      </trkpt>
      <trkpt lat="47.25118" lon="-2.32043">
        <ele>27.39999961853</ele>
        <time>2020-12-20T08:45:55.000Z</time>
      </trkpt>
      <trkpt lat="47.25117" lon="-2.32016">
        <ele>27.39999961853</ele>
        <time>2020-12-20T08:46:00.000Z</time>
      </trkpt>
      <trkpt lat="47.2511" lon="-2.3198">
        <ele>27.39999961853</ele>
        <time>2020-12-20T08:46:07.000Z</time>
      </trkpt>
      <trkpt lat="47.25108" lon="-2.31958">
        <ele>27.39999961853</ele>
        <time>2020-12-20T08:46:11.000Z</time>
      </trkpt>
      <trkpt lat="47.25104" lon="-2.31914">
        <ele>27.39999961853</ele>
        <time>2020-12-20T08:46:19.000Z</time>
      </trkpt>
      <trkpt lat="47.25099" lon="-2.31879">
        <ele>27.39999961853</ele>
        <time>2020-12-20T08:46:25.000Z</time>
      </trkpt>
      <trkpt lat="47.2509" lon="-2.31825">
        <ele>27.39999961853</ele>
        <time>2020-12-20T08:46:34.000Z</time>
      </trkpt>
      <trkpt lat="47.25089" lon="-2.31819">
        <ele>27.799999237061</ele>
        <time>2020-12-20T08:46:35.000Z</time>
      </trkpt>
      <trkpt lat="47.25087" lon="-2.31813">
        <ele>28.200000762939</ele>
        <time>2020-12-20T08:46:36.000Z</time>
      </trkpt>
      <trkpt lat="47.25086" lon="-2.31808">
        <ele>28.60000038147</ele>
        <time>2020-12-20T08:46:37.000Z</time>
      </trkpt>
      <trkpt lat="47.25085" lon="-2.31802">
        <ele>29</ele>
        <time>2020-12-20T08:46:38.000Z</time>
      </trkpt>
      <trkpt lat="47.25083" lon="-2.31796">
        <ele>29.39999961853</ele>
        <time>2020-12-20T08:46:39.000Z</time>
      </trkpt>
      <trkpt lat="47.25079" lon="-2.31779">
        <ele>29.39999961853</ele>
        <time>2020-12-20T08:46:42.000Z</time>
      </trkpt>
      <trkpt lat="47.25066" lon="-2.31726">
        <ele>29.39999961853</ele>
        <time>2020-12-20T08:46:51.000Z</time>
      </trkpt>
      <trkpt lat="47.2506" lon="-2.31703">
        <ele>29.39999961853</ele>
        <time>2020-12-20T08:46:55.000Z</time>
      </trkpt>
      <trkpt lat="47.25059" lon="-2.31692">
        <ele>29.39999961853</ele>
        <time>2020-12-20T08:46:57.000Z</time>
      </trkpt>
      <trkpt lat="47.25052" lon="-2.31665">
        <ele>29.39999961853</ele>
        <time>2020-12-20T08:47:03.000Z</time>
      </trkpt>
      <trkpt lat="47.25043" lon="-2.31651">
        <ele>29.39999961853</ele>
        <time>2020-12-20T08:47:07.000Z</time>
      </trkpt>
      <trkpt lat="47.25034" lon="-2.31655">
        <ele>29.39999961853</ele>
        <time>2020-12-20T08:47:10.000Z</time>
      </trkpt>
      <trkpt lat="47.25025" lon="-2.31666">
        <ele>29.39999961853</ele>
        <time>2020-12-20T08:47:13.000Z</time>
      </trkpt>
      <trkpt lat="47.25015" lon="-2.31676">
        <ele>29.39999961853</ele>
        <time>2020-12-20T08:47:16.000Z</time>
      </trkpt>
      <trkpt lat="47.2499" lon="-2.31699">
        <ele>29.39999961853</ele>
        <time>2020-12-20T08:47:23.000Z</time>
      </trkpt>
      <trkpt lat="47.24962" lon="-2.31729">
        <ele>29.39999961853</ele>
        <time>2020-12-20T08:47:31.000Z</time>
      </trkpt>
      <trkpt lat="47.24933" lon="-2.31754">
        <ele>29.39999961853</ele>
        <time>2020-12-20T08:47:38.000Z</time>
      </trkpt>
      <trkpt lat="47.24925" lon="-2.31761">
        <ele>29.39999961853</ele>
        <time>2020-12-20T08:47:40.000Z</time>
      </trkpt>
      <trkpt lat="47.24908" lon="-2.31775">
        <ele>29.39999961853</ele>
        <time>2020-12-20T08:47:44.000Z</time>
      </trkpt>
      <trkpt lat="47.24879" lon="-2.31799">
        <ele>29.39999961853</ele>
        <time>2020-12-20T08:47:51.000Z</time>
      </trkpt>
      <trkpt lat="47.24875" lon="-2.31803">
        <ele>29.39999961853</ele>
        <time>2020-12-20T08:47:52.000Z</time>
      </trkpt>
      <trkpt lat="47.24844" lon="-2.31834">
        <ele>29.39999961853</ele>
        <time>2020-12-20T08:48:00.000Z</time>
      </trkpt>
      <trkpt lat="47.24816" lon="-2.31858">
        <ele>29.39999961853</ele>
        <time>2020-12-20T08:48:07.000Z</time>
      </trkpt>
      <trkpt lat="47.24812" lon="-2.31861">
        <ele>29.39999961853</ele>
        <time>2020-12-20T08:48:08.000Z</time>
      </trkpt>
      <trkpt lat="47.24798" lon="-2.31863">
        <ele>29.39999961853</ele>
        <time>2020-12-20T08:48:11.000Z</time>
      </trkpt>
      <trkpt lat="47.24783" lon="-2.3185">
        <ele>29.39999961853</ele>
        <time>2020-12-20T08:48:15.000Z</time>
      </trkpt>
      <trkpt lat="47.2476" lon="-2.31815">
        <ele>29.39999961853</ele>
        <time>2020-12-20T08:48:22.000Z</time>
      </trkpt>
      <trkpt lat="47.24734" lon="-2.31776">
        <ele>29.39999961853</ele>
        <time>2020-12-20T08:48:30.000Z</time>
      </trkpt>
      <trkpt lat="47.24725" lon="-2.31763">
        <ele>29.39999961853</ele>
        <time>2020-12-20T08:48:33.000Z</time>
      </trkpt>
      <trkpt lat="47.24713" lon="-2.31742">
        <ele>29.39999961853</ele>
        <time>2020-12-20T08:48:37.000Z</time>
      </trkpt>
      <trkpt lat="47.24687" lon="-2.31701">
        <ele>29.39999961853</ele>
        <time>2020-12-20T08:48:45.000Z</time>
      </trkpt>
      <trkpt lat="47.24671" lon="-2.31677">
        <ele>29.39999961853</ele>
        <time>2020-12-20T08:48:50.000Z</time>
      </trkpt>
      <trkpt lat="47.24645" lon="-2.31638">
        <ele>29.39999961853</ele>
        <time>2020-12-20T08:48:58.000Z</time>
      </trkpt>
      <trkpt lat="47.24621" lon="-2.31601">
        <ele>29.39999961853</ele>
        <time>2020-12-20T08:49:06.000Z</time>
      </trkpt>
      <trkpt lat="47.24603" lon="-2.31573">
        <ele>29.39999961853</ele>
        <time>2020-12-20T08:49:12.000Z</time>
      </trkpt>
      <trkpt lat="47.24592" lon="-2.31536">
        <ele>29.39999961853</ele>
        <time>2020-12-20T08:49:18.000Z</time>
      </trkpt>
      <trkpt lat="47.2459" lon="-2.31496">
        <ele>29.39999961853</ele>
        <time>2020-12-20T08:49:24.000Z</time>
      </trkpt>
      <trkpt lat="47.24584" lon="-2.31436">
        <ele>29.39999961853</ele>
        <time>2020-12-20T08:49:33.000Z</time>
      </trkpt>
      <trkpt lat="47.24582" lon="-2.31408">
        <ele>29.39999961853</ele>
        <time>2020-12-20T08:49:37.000Z</time>
      </trkpt>
      <trkpt lat="47.24582" lon="-2.31397">
        <ele>29.39999961853</ele>
        <time>2020-12-20T08:49:39.000Z</time>
      </trkpt>
      <trkpt lat="47.24576" lon="-2.31389">
        <ele>29.39999961853</ele>
        <time>2020-12-20T08:49:43.000Z</time>
      </trkpt>
      <trkpt lat="47.24573" lon="-2.31389">
        <ele>29.39999961853</ele>
        <time>2020-12-20T08:49:44.000Z</time>
      </trkpt>
      <trkpt lat="47.2455" lon="-2.31391">
        <ele>29.39999961853</ele>
        <time>2020-12-20T08:49:50.000Z</time>
      </trkpt>
      <trkpt lat="47.24532" lon="-2.31383">
        <ele>29.39999961853</ele>
        <time>2020-12-20T08:49:55.000Z</time>
      </trkpt>
      <trkpt lat="47.24516" lon="-2.3137">
        <ele>29.39999961853</ele>
        <time>2020-12-20T08:49:59.000Z</time>
      </trkpt>
      <trkpt lat="47.24505" lon="-2.31356">
        <ele>29</ele>
        <time>2020-12-20T08:50:02.000Z</time>
      </trkpt>
      <trkpt lat="47.24502" lon="-2.3135">
        <ele>28.39999961853</ele>
        <time>2020-12-20T08:50:03.000Z</time>
      </trkpt>
      <trkpt lat="47.245" lon="-2.31345">
        <ele>28</ele>
        <time>2020-12-20T08:50:04.000Z</time>
      </trkpt>
      <trkpt lat="47.24498" lon="-2.31339">
        <ele>27.60000038147</ele>
        <time>2020-12-20T08:50:05.000Z</time>
      </trkpt>
      <trkpt lat="47.24496" lon="-2.31335">
        <ele>27.200000762939</ele>
        <time>2020-12-20T08:50:06.000Z</time>
      </trkpt>
      <trkpt lat="47.24494" lon="-2.31328">
        <ele>26.60000038147</ele>
        <time>2020-12-20T08:50:08.000Z</time>
      </trkpt>
      <trkpt lat="47.24493" lon="-2.31325">
        <ele>26.200000762939</ele>
        <time>2020-12-20T08:50:09.000Z</time>
      </trkpt>
      <trkpt lat="47.24492" lon="-2.31323">
        <ele>25.799999237061</ele>
        <time>2020-12-20T08:50:10.000Z</time>
      </trkpt>
      <trkpt lat="47.2449" lon="-2.31321">
        <ele>25.39999961853</ele>
        <time>2020-12-20T08:50:11.000Z</time>
      </trkpt>
      <trkpt lat="47.2449" lon="-2.3132">
        <ele>24.799999237061</ele>
        <time>2020-12-20T08:50:12.000Z</time>
      </trkpt>
      <trkpt lat="47.24489" lon="-2.31319">
        <ele>24.799999237061</ele>
        <time>2020-12-20T08:50:14.000Z</time>
      </trkpt>
      <trkpt lat="47.24484" lon="-2.31307">
        <ele>24.799999237061</ele>
        <time>2020-12-20T08:50:18.000Z</time>
      </trkpt>
      <trkpt lat="47.24467" lon="-2.31273">
        <ele>24.799999237061</ele>
        <time>2020-12-20T08:50:23.000Z</time>
      </trkpt>
      <trkpt lat="47.24458" lon="-2.31255">
        <ele>24.799999237061</ele>
        <time>2020-12-20T08:50:26.000Z</time>
      </trkpt>
      <trkpt lat="47.24454" lon="-2.31243">
        <ele>24.799999237061</ele>
        <time>2020-12-20T08:50:28.000Z</time>
      </trkpt>
      <trkpt lat="47.24445" lon="-2.31223">
        <ele>24.39999961853</ele>
        <time>2020-12-20T08:50:32.000Z</time>
      </trkpt>
      <trkpt lat="47.24441" lon="-2.31222">
        <ele>24</ele>
        <time>2020-12-20T08:50:33.000Z</time>
      </trkpt>
      <trkpt lat="47.24438" lon="-2.31222">
        <ele>23.60000038147</ele>
        <time>2020-12-20T08:50:34.000Z</time>
      </trkpt>
      <trkpt lat="47.24435" lon="-2.31223">
        <ele>23.200000762939</ele>
        <time>2020-12-20T08:50:35.000Z</time>
      </trkpt>
      <trkpt lat="47.24431" lon="-2.31225">
        <ele>22.60000038147</ele>
        <time>2020-12-20T08:50:36.000Z</time>
      </trkpt>
      <trkpt lat="47.24428" lon="-2.31224">
        <ele>22.200000762939</ele>
        <time>2020-12-20T08:50:37.000Z</time>
      </trkpt>
      <trkpt lat="47.24426" lon="-2.31221">
        <ele>21.60000038147</ele>
        <time>2020-12-20T08:50:38.000Z</time>
      </trkpt>
      <trkpt lat="47.24424" lon="-2.31216">
        <ele>21</ele>
        <time>2020-12-20T08:50:39.000Z</time>
      </trkpt>
      <trkpt lat="47.24422" lon="-2.31212">
        <ele>20.60000038147</ele>
        <time>2020-12-20T08:50:40.000Z</time>
      </trkpt>
      <trkpt lat="47.24416" lon="-2.31195">
        <ele>20.60000038147</ele>
        <time>2020-12-20T08:50:44.000Z</time>
      </trkpt>
      <trkpt lat="47.24413" lon="-2.31185">
        <ele>21</ele>
        <time>2020-12-20T08:50:49.000Z</time>
      </trkpt>
      <trkpt lat="47.24411" lon="-2.31183">
        <ele>21.39999961853</ele>
        <time>2020-12-20T08:50:50.000Z</time>
      </trkpt>
      <trkpt lat="47.24408" lon="-2.31181">
        <ele>22.39999961853</ele>
        <time>2020-12-20T08:50:51.000Z</time>
      </trkpt>
      <trkpt lat="47.24403" lon="-2.31178">
        <ele>22.799999237061</ele>
        <time>2020-12-20T08:50:52.000Z</time>
      </trkpt>
      <trkpt lat="47.24397" lon="-2.31175">
        <ele>22.799999237061</ele>
        <time>2020-12-20T08:50:54.000Z</time>
      </trkpt>
      <trkpt lat="47.24383" lon="-2.31162">
        <ele>22.799999237061</ele>
        <time>2020-12-20T08:50:59.000Z</time>
      </trkpt>
      <trkpt lat="47.24372" lon="-2.31143">
        <ele>22.799999237061</ele>
        <time>2020-12-20T08:51:05.000Z</time>
      </trkpt>
      <trkpt lat="47.24363" lon="-2.31129">
        <ele>22.799999237061</ele>
        <time>2020-12-20T08:51:10.000Z</time>
      </trkpt>
      <trkpt lat="47.24356" lon="-2.31103">
        <ele>22.799999237061</ele>
        <time>2020-12-20T08:51:16.000Z</time>
      </trkpt>
      <trkpt lat="47.2435" lon="-2.31088">
        <ele>22.799999237061</ele>
        <time>2020-12-20T08:51:20.000Z</time>
      </trkpt>
      <trkpt lat="47.24345" lon="-2.31073">
        <ele>23.200000762939</ele>
        <time>2020-12-20T08:51:24.000Z</time>
      </trkpt>
      <trkpt lat="47.24344" lon="-2.3107">
        <ele>23.60000038147</ele>
        <time>2020-12-20T08:51:25.000Z</time>
      </trkpt>
      <trkpt lat="47.24342" lon="-2.31066">
        <ele>24</ele>
        <time>2020-12-20T08:51:26.000Z</time>
      </trkpt>
      <trkpt lat="47.24341" lon="-2.31062">
        <ele>24.39999961853</ele>
        <time>2020-12-20T08:51:27.000Z</time>
      </trkpt>
      <trkpt lat="47.24339" lon="-2.31059">
        <ele>24.799999237061</ele>
        <time>2020-12-20T08:51:28.000Z</time>
      </trkpt>
      <trkpt lat="47.24335" lon="-2.31053">
        <ele>24.799999237061</ele>
        <time>2020-12-20T08:51:31.000Z</time>
      </trkpt>
      <trkpt lat="47.24318" lon="-2.31041">
        <ele>24.799999237061</ele>
        <time>2020-12-20T08:51:36.000Z</time>
      </trkpt>
      <trkpt lat="47.24313" lon="-2.31039">
        <ele>24.799999237061</ele>
        <time>2020-12-20T08:51:37.000Z</time>
      </trkpt>
      <trkpt lat="47.24294" lon="-2.31034">
        <ele>24.799999237061</ele>
        <time>2020-12-20T08:51:41.000Z</time>
      </trkpt>
      <trkpt lat="47.24289" lon="-2.31034">
        <ele>24.39999961853</ele>
        <time>2020-12-20T08:51:42.000Z</time>
      </trkpt>
      <trkpt lat="47.24285" lon="-2.31034">
        <ele>24</ele>
        <time>2020-12-20T08:51:43.000Z</time>
      </trkpt>
      <trkpt lat="47.24282" lon="-2.31033">
        <ele>23.60000038147</ele>
        <time>2020-12-20T08:51:44.000Z</time>
      </trkpt>
      <trkpt lat="47.24279" lon="-2.3103">
        <ele>23.200000762939</ele>
        <time>2020-12-20T08:51:45.000Z</time>
      </trkpt>
      <trkpt lat="47.24278" lon="-2.31025">
        <ele>22.799999237061</ele>
        <time>2020-12-20T08:51:46.000Z</time>
      </trkpt>
      <trkpt lat="47.24281" lon="-2.31006">
        <ele>22.799999237061</ele>
        <time>2020-12-20T08:51:50.000Z</time>
      </trkpt>
      <trkpt lat="47.24287" lon="-2.30969">
        <ele>22.799999237061</ele>
        <time>2020-12-20T08:51:57.000Z</time>
      </trkpt>
      <trkpt lat="47.24289" lon="-2.30957">
        <ele>23.200000762939</ele>
        <time>2020-12-20T08:52:00.000Z</time>
      </trkpt>
      <trkpt lat="47.2429" lon="-2.30953">
        <ele>23.60000038147</ele>
        <time>2020-12-20T08:52:01.000Z</time>
      </trkpt>
      <trkpt lat="47.2429" lon="-2.30949">
        <ele>24</ele>
        <time>2020-12-20T08:52:02.000Z</time>
      </trkpt>
      <trkpt lat="47.24291" lon="-2.30945">
        <ele>24.39999961853</ele>
        <time>2020-12-20T08:52:03.000Z</time>
      </trkpt>
      <trkpt lat="47.24292" lon="-2.30941">
        <ele>24.799999237061</ele>
        <time>2020-12-20T08:52:04.000Z</time>
      </trkpt>
      <trkpt lat="47.24295" lon="-2.30924">
        <ele>25.200000762939</ele>
        <time>2020-12-20T08:52:09.000Z</time>
      </trkpt>
      <trkpt lat="47.24295" lon="-2.30921">
        <ele>25.60000038147</ele>
        <time>2020-12-20T08:52:10.000Z</time>
      </trkpt>
      <trkpt lat="47.24294" lon="-2.30919">
        <ele>26</ele>
        <time>2020-12-20T08:52:11.000Z</time>
      </trkpt>
      <trkpt lat="47.24293" lon="-2.30915">
        <ele>26.39999961853</ele>
        <time>2020-12-20T08:52:12.000Z</time>
      </trkpt>
      <trkpt lat="47.24292" lon="-2.30912">
        <ele>27</ele>
        <time>2020-12-20T08:52:13.000Z</time>
      </trkpt>
      <trkpt lat="47.24288" lon="-2.30892">
        <ele>27</ele>
        <time>2020-12-20T08:52:19.000Z</time>
      </trkpt>
      <trkpt lat="47.24287" lon="-2.30862">
        <ele>27</ele>
        <time>2020-12-20T08:52:25.000Z</time>
      </trkpt>
      <trkpt lat="47.24287" lon="-2.30859">
        <ele>27.39999961853</ele>
        <time>2020-12-20T08:52:26.000Z</time>
      </trkpt>
      <trkpt lat="47.24287" lon="-2.30854">
        <ele>27.799999237061</ele>
        <time>2020-12-20T08:52:27.000Z</time>
      </trkpt>
      <trkpt lat="47.24288" lon="-2.3085">
        <ele>28.60000038147</ele>
        <time>2020-12-20T08:52:28.000Z</time>
      </trkpt>
      <trkpt lat="47.24289" lon="-2.30846">
        <ele>29</ele>
        <time>2020-12-20T08:52:29.000Z</time>
      </trkpt>
      <trkpt lat="47.2429" lon="-2.30842">
        <ele>29</ele>
        <time>2020-12-20T08:52:30.000Z</time>
      </trkpt>
      <trkpt lat="47.24303" lon="-2.30814">
        <ele>29</ele>
        <time>2020-12-20T08:52:37.000Z</time>
      </trkpt>
      <trkpt lat="47.24309" lon="-2.30808">
        <ele>29.39999961853</ele>
        <time>2020-12-20T08:52:39.000Z</time>
      </trkpt>
      <trkpt lat="47.24312" lon="-2.30806">
        <ele>29.799999237061</ele>
        <time>2020-12-20T08:52:40.000Z</time>
      </trkpt>
      <trkpt lat="47.24316" lon="-2.30804">
        <ele>30.200000762939</ele>
        <time>2020-12-20T08:52:41.000Z</time>
      </trkpt>
      <trkpt lat="47.24319" lon="-2.30802">
        <ele>30.60000038147</ele>
        <time>2020-12-20T08:52:42.000Z</time>
      </trkpt>
      <trkpt lat="47.24322" lon="-2.308">
        <ele>31</ele>
        <time>2020-12-20T08:52:43.000Z</time>
      </trkpt>
      <trkpt lat="47.24344" lon="-2.30793">
        <ele>31</ele>
        <time>2020-12-20T08:52:49.000Z</time>
      </trkpt>
      <trkpt lat="47.24365" lon="-2.30784">
        <ele>31.39999961853</ele>
        <time>2020-12-20T08:52:55.000Z</time>
      </trkpt>
      <trkpt lat="47.24367" lon="-2.30782">
        <ele>31.799999237061</ele>
        <time>2020-12-20T08:52:56.000Z</time>
      </trkpt>
      <trkpt lat="47.2437" lon="-2.3078">
        <ele>32.200000762939</ele>
        <time>2020-12-20T08:52:57.000Z</time>
      </trkpt>
      <trkpt lat="47.24373" lon="-2.30777">
        <ele>32.799999237061</ele>
        <time>2020-12-20T08:52:58.000Z</time>
      </trkpt>
      <trkpt lat="47.24375" lon="-2.30773">
        <ele>33.200000762939</ele>
        <time>2020-12-20T08:52:59.000Z</time>
      </trkpt>
      <trkpt lat="47.24379" lon="-2.30767">
        <ele>33.200000762939</ele>
        <time>2020-12-20T08:53:01.000Z</time>
      </trkpt>
      <trkpt lat="47.24385" lon="-2.30755">
        <ele>33.599998474121</ele>
        <time>2020-12-20T08:53:05.000Z</time>
      </trkpt>
      <trkpt lat="47.24387" lon="-2.30753">
        <ele>34</ele>
        <time>2020-12-20T08:53:06.000Z</time>
      </trkpt>
      <trkpt lat="47.24389" lon="-2.30751">
        <ele>34.400001525879</ele>
        <time>2020-12-20T08:53:07.000Z</time>
      </trkpt>
      <trkpt lat="47.24391" lon="-2.3075">
        <ele>35</ele>
        <time>2020-12-20T08:53:08.000Z</time>
      </trkpt>
      <trkpt lat="47.24393" lon="-2.30747">
        <ele>35.400001525879</ele>
        <time>2020-12-20T08:53:09.000Z</time>
      </trkpt>
      <trkpt lat="47.24398" lon="-2.3073">
        <ele>35.400001525879</ele>
        <time>2020-12-20T08:53:13.000Z</time>
      </trkpt>
      <trkpt lat="47.244" lon="-2.30707">
        <ele>35.400001525879</ele>
        <time>2020-12-20T08:53:18.000Z</time>
      </trkpt>
      <trkpt lat="47.24408" lon="-2.30675">
        <ele>35.400001525879</ele>
        <time>2020-12-20T08:53:24.000Z</time>
      </trkpt>
      <trkpt lat="47.24418" lon="-2.30644">
        <ele>35.400001525879</ele>
        <time>2020-12-20T08:53:30.000Z</time>
      </trkpt>
      <trkpt lat="47.24427" lon="-2.30618">
        <ele>35.400001525879</ele>
        <time>2020-12-20T08:53:36.000Z</time>
      </trkpt>
      <trkpt lat="47.24444" lon="-2.30596">
        <ele>35.400001525879</ele>
        <time>2020-12-20T08:53:42.000Z</time>
      </trkpt>
      <trkpt lat="47.24458" lon="-2.30571">
        <ele>35.400001525879</ele>
        <time>2020-12-20T08:53:46.000Z</time>
      </trkpt>
      <trkpt lat="47.24469" lon="-2.30549">
        <ele>35.400001525879</ele>
        <time>2020-12-20T08:53:50.000Z</time>
      </trkpt>
      <trkpt lat="47.24468" lon="-2.30547">
        <ele>35</ele>
        <time>2020-12-20T08:53:51.000Z</time>
      </trkpt>
      <trkpt lat="47.24465" lon="-2.30546">
        <ele>34.599998474121</ele>
        <time>2020-12-20T08:53:52.000Z</time>
      </trkpt>
      <trkpt lat="47.24462" lon="-2.30548">
        <ele>34.200000762939</ele>
        <time>2020-12-20T08:53:53.000Z</time>
      </trkpt>
      <trkpt lat="47.24459" lon="-2.30552">
        <ele>33.599998474121</ele>
        <time>2020-12-20T08:53:54.000Z</time>
      </trkpt>
      <trkpt lat="47.24455" lon="-2.30555">
        <ele>33.200000762939</ele>
        <time>2020-12-20T08:53:55.000Z</time>
      </trkpt>
      <trkpt lat="47.2444" lon="-2.30569">
        <ele>33.200000762939</ele>
        <time>2020-12-20T08:53:59.000Z</time>
      </trkpt>
      <trkpt lat="47.24422" lon="-2.30584">
        <ele>32.799999237061</ele>
        <time>2020-12-20T08:54:03.000Z</time>
      </trkpt>
      <trkpt lat="47.24416" lon="-2.30586">
        <ele>32.400001525879</ele>
        <time>2020-12-20T08:54:04.000Z</time>
      </trkpt>
      <trkpt lat="47.24412" lon="-2.30587">
        <ele>32</ele>
        <time>2020-12-20T08:54:05.000Z</time>
      </trkpt>
      <trkpt lat="47.24407" lon="-2.30587">
        <ele>31.60000038147</ele>
        <time>2020-12-20T08:54:06.000Z</time>
      </trkpt>
      <trkpt lat="47.24403" lon="-2.30587">
        <ele>31.200000762939</ele>
        <time>2020-12-20T08:54:07.000Z</time>
      </trkpt>
      <trkpt lat="47.24383" lon="-2.30573">
        <ele>30.799999237061</ele>
        <time>2020-12-20T08:54:11.000Z</time>
      </trkpt>
      <trkpt lat="47.24379" lon="-2.30568">
        <ele>30.200000762939</ele>
        <time>2020-12-20T08:54:12.000Z</time>
      </trkpt>
      <trkpt lat="47.24377" lon="-2.30561">
        <ele>29.799999237061</ele>
        <time>2020-12-20T08:54:13.000Z</time>
      </trkpt>
      <trkpt lat="47.24375" lon="-2.30554">
        <ele>29.39999961853</ele>
        <time>2020-12-20T08:54:14.000Z</time>
      </trkpt>
      <trkpt lat="47.24374" lon="-2.30546">
        <ele>29</ele>
        <time>2020-12-20T08:54:15.000Z</time>
      </trkpt>
      <trkpt lat="47.2437" lon="-2.30522">
        <ele>29</ele>
        <time>2020-12-20T08:54:18.000Z</time>
      </trkpt>
      <trkpt lat="47.2437" lon="-2.30517">
        <ele>29</ele>
        <time>2020-12-20T08:54:19.000Z</time>
      </trkpt>
      <trkpt lat="47.24372" lon="-2.30505">
        <ele>29.39999961853</ele>
        <time>2020-12-20T08:54:21.000Z</time>
      </trkpt>
      <trkpt lat="47.24374" lon="-2.305">
        <ele>29.799999237061</ele>
        <time>2020-12-20T08:54:22.000Z</time>
      </trkpt>
      <trkpt lat="47.24375" lon="-2.30495">
        <ele>30.200000762939</ele>
        <time>2020-12-20T08:54:23.000Z</time>
      </trkpt>
      <trkpt lat="47.24377" lon="-2.30489">
        <ele>30.60000038147</ele>
        <time>2020-12-20T08:54:24.000Z</time>
      </trkpt>
      <trkpt lat="47.24379" lon="-2.30483">
        <ele>31.200000762939</ele>
        <time>2020-12-20T08:54:25.000Z</time>
      </trkpt>
      <trkpt lat="47.24382" lon="-2.30471">
        <ele>31.60000038147</ele>
        <time>2020-12-20T08:54:27.000Z</time>
      </trkpt>
      <trkpt lat="47.24383" lon="-2.30465">
        <ele>32</ele>
        <time>2020-12-20T08:54:28.000Z</time>
      </trkpt>
      <trkpt lat="47.24383" lon="-2.3046">
        <ele>32.400001525879</ele>
        <time>2020-12-20T08:54:29.000Z</time>
      </trkpt>
      <trkpt lat="47.24382" lon="-2.30456">
        <ele>32.799999237061</ele>
        <time>2020-12-20T08:54:30.000Z</time>
      </trkpt>
      <trkpt lat="47.24382" lon="-2.30452">
        <ele>33.200000762939</ele>
        <time>2020-12-20T08:54:31.000Z</time>
      </trkpt>
      <trkpt lat="47.2438" lon="-2.3045">
        <ele>33.200000762939</ele>
        <time>2020-12-20T08:54:32.000Z</time>
      </trkpt>
      <trkpt lat="47.24374" lon="-2.30449">
        <ele>33.200000762939</ele>
        <time>2020-12-20T08:54:34.000Z</time>
      </trkpt>
      <trkpt lat="47.24368" lon="-2.3045">
        <ele>33.599998474121</ele>
        <time>2020-12-20T08:54:36.000Z</time>
      </trkpt>
      <trkpt lat="47.24365" lon="-2.30451">
        <ele>34</ele>
        <time>2020-12-20T08:54:37.000Z</time>
      </trkpt>
      <trkpt lat="47.24362" lon="-2.30451">
        <ele>34.400001525879</ele>
        <time>2020-12-20T08:54:38.000Z</time>
      </trkpt>
      <trkpt lat="47.24358" lon="-2.30451">
        <ele>34.799999237061</ele>
        <time>2020-12-20T08:54:39.000Z</time>
      </trkpt>
      <trkpt lat="47.24355" lon="-2.30449">
        <ele>35.400001525879</ele>
        <time>2020-12-20T08:54:40.000Z</time>
      </trkpt>
      <trkpt lat="47.24329" lon="-2.30435">
        <ele>35.400001525879</ele>
        <time>2020-12-20T08:54:47.000Z</time>
      </trkpt>
      <trkpt lat="47.24313" lon="-2.30427">
        <ele>35.400001525879</ele>
        <time>2020-12-20T08:54:52.000Z</time>
      </trkpt>
      <trkpt lat="47.24311" lon="-2.30425">
        <ele>35.799999237061</ele>
        <time>2020-12-20T08:54:53.000Z</time>
      </trkpt>
      <trkpt lat="47.24308" lon="-2.30424">
        <ele>36.200000762939</ele>
        <time>2020-12-20T08:54:54.000Z</time>
      </trkpt>
      <trkpt lat="47.24306" lon="-2.30421">
        <ele>36.599998474121</ele>
        <time>2020-12-20T08:54:55.000Z</time>
      </trkpt>
      <trkpt lat="47.24303" lon="-2.30419">
        <ele>37</ele>
        <time>2020-12-20T08:54:56.000Z</time>
      </trkpt>
      <trkpt lat="47.243" lon="-2.30417">
        <ele>37.400001525879</ele>
        <time>2020-12-20T08:54:57.000Z</time>
      </trkpt>
      <trkpt lat="47.24297" lon="-2.30414">
        <ele>37.400001525879</ele>
        <time>2020-12-20T08:54:58.000Z</time>
      </trkpt>
      <trkpt lat="47.24271" lon="-2.30379">
        <ele>37.400001525879</ele>
        <time>2020-12-20T08:55:05.000Z</time>
      </trkpt>
      <trkpt lat="47.24252" lon="-2.3035">
        <ele>37.400001525879</ele>
        <time>2020-12-20T08:55:11.000Z</time>
      </trkpt>
      <trkpt lat="47.24232" lon="-2.30324">
        <ele>37.400001525879</ele>
        <time>2020-12-20T08:55:17.000Z</time>
      </trkpt>
      <trkpt lat="47.2421" lon="-2.30329">
        <ele>36.799999237061</ele>
        <time>2020-12-20T08:55:22.000Z</time>
      </trkpt>
      <trkpt lat="47.24206" lon="-2.30329">
        <ele>36.400001525879</ele>
        <time>2020-12-20T08:55:23.000Z</time>
      </trkpt>
      <trkpt lat="47.24203" lon="-2.30326">
        <ele>36</ele>
        <time>2020-12-20T08:55:24.000Z</time>
      </trkpt>
      <trkpt lat="47.24201" lon="-2.30321">
        <ele>35.400001525879</ele>
        <time>2020-12-20T08:55:25.000Z</time>
      </trkpt>
      <trkpt lat="47.24199" lon="-2.30315">
        <ele>35</ele>
        <time>2020-12-20T08:55:26.000Z</time>
      </trkpt>
      <trkpt lat="47.24198" lon="-2.30308">
        <ele>34.400001525879</ele>
        <time>2020-12-20T08:55:27.000Z</time>
      </trkpt>
      <trkpt lat="47.24196" lon="-2.30299">
        <ele>33.799999237061</ele>
        <time>2020-12-20T08:55:28.000Z</time>
      </trkpt>
      <trkpt lat="47.24195" lon="-2.30292">
        <ele>33.400001525879</ele>
        <time>2020-12-20T08:55:29.000Z</time>
      </trkpt>
      <trkpt lat="47.24194" lon="-2.30284">
        <ele>32.799999237061</ele>
        <time>2020-12-20T08:55:30.000Z</time>
      </trkpt>
      <trkpt lat="47.24191" lon="-2.30254">
        <ele>32.799999237061</ele>
        <time>2020-12-20T08:55:34.000Z</time>
      </trkpt>
      <trkpt lat="47.24192" lon="-2.30248">
        <ele>32.799999237061</ele>
        <time>2020-12-20T08:55:35.000Z</time>
      </trkpt>
      <trkpt lat="47.24192" lon="-2.30237">
        <ele>32.799999237061</ele>
        <time>2020-12-20T08:55:38.000Z</time>
      </trkpt>
      <trkpt lat="47.24191" lon="-2.30236">
        <ele>32.799999237061</ele>
        <time>2020-12-20T08:55:39.000Z</time>
      </trkpt>
      <trkpt lat="47.24189" lon="-2.30238">
        <ele>32.799999237061</ele>
        <time>2020-12-20T08:55:40.000Z</time>
      </trkpt>
      <trkpt lat="47.24188" lon="-2.3024">
        <ele>32.799999237061</ele>
        <time>2020-12-20T08:55:41.000Z</time>
      </trkpt>
      <trkpt lat="47.24175" lon="-2.30246">
        <ele>32.799999237061</ele>
        <time>2020-12-20T08:55:45.000Z</time>
      </trkpt>
      <trkpt lat="47.24172" lon="-2.30246">
        <ele>32.799999237061</ele>
        <time>2020-12-20T08:55:46.000Z</time>
      </trkpt>
      <trkpt lat="47.24166" lon="-2.30244">
        <ele>32.799999237061</ele>
        <time>2020-12-20T08:55:48.000Z</time>
      </trkpt>
      <trkpt lat="47.24164" lon="-2.3024">
        <ele>32.799999237061</ele>
        <time>2020-12-20T08:55:49.000Z</time>
      </trkpt>
      <trkpt lat="47.24154" lon="-2.30218">
        <ele>32.799999237061</ele>
        <time>2020-12-20T08:55:54.000Z</time>
      </trkpt>
      <trkpt lat="47.24146" lon="-2.30188">
        <ele>32.799999237061</ele>
        <time>2020-12-20T08:56:01.000Z</time>
      </trkpt>
      <trkpt lat="47.2414" lon="-2.30171">
        <ele>33.200000762939</ele>
        <time>2020-12-20T08:56:06.000Z</time>
      </trkpt>
      <trkpt lat="47.24138" lon="-2.30169">
        <ele>33.799999237061</ele>
        <time>2020-12-20T08:56:07.000Z</time>
      </trkpt>
      <trkpt lat="47.24137" lon="-2.30168">
        <ele>34.200000762939</ele>
        <time>2020-12-20T08:56:08.000Z</time>
      </trkpt>
      <trkpt lat="47.24136" lon="-2.30167">
        <ele>34.599998474121</ele>
        <time>2020-12-20T08:56:09.000Z</time>
      </trkpt>
      <trkpt lat="47.24136" lon="-2.30166">
        <ele>35.200000762939</ele>
        <time>2020-12-20T08:56:10.000Z</time>
      </trkpt>
      <trkpt lat="47.24135" lon="-2.30165">
        <ele>36.200000762939</ele>
        <time>2020-12-20T08:56:11.000Z</time>
      </trkpt>
      <trkpt lat="47.24134" lon="-2.30165">
        <ele>36.799999237061</ele>
        <time>2020-12-20T08:56:12.000Z</time>
      </trkpt>
      <trkpt lat="47.24132" lon="-2.30163">
        <ele>37.200000762939</ele>
        <time>2020-12-20T08:56:13.000Z</time>
      </trkpt>
      <trkpt lat="47.24126" lon="-2.30165">
        <ele>37.200000762939</ele>
        <time>2020-12-20T08:59:11.000Z</time>
      </trkpt>
      <trkpt lat="47.24122" lon="-2.30168">
        <ele>37.599998474121</ele>
        <time>2020-12-20T08:59:13.000Z</time>
      </trkpt>
      <trkpt lat="47.2412" lon="-2.30169">
        <ele>38</ele>
        <time>2020-12-20T08:59:14.000Z</time>
      </trkpt>
      <trkpt lat="47.24118" lon="-2.30169">
        <ele>38.400001525879</ele>
        <time>2020-12-20T08:59:15.000Z</time>
      </trkpt>
      <trkpt lat="47.24115" lon="-2.30168">
        <ele>38.799999237061</ele>
        <time>2020-12-20T08:59:16.000Z</time>
      </trkpt>
      <trkpt lat="47.24112" lon="-2.30167">
        <ele>39.200000762939</ele>
        <time>2020-12-20T08:59:17.000Z</time>
      </trkpt>
      <trkpt lat="47.24109" lon="-2.30168">
        <ele>39.200000762939</ele>
        <time>2020-12-20T08:59:18.000Z</time>
      </trkpt>
      <trkpt lat="47.2409" lon="-2.30174">
        <ele>39.200000762939</ele>
        <time>2020-12-20T08:59:23.000Z</time>
      </trkpt>
      <trkpt lat="47.24072" lon="-2.3018">
        <ele>39.200000762939</ele>
        <time>2020-12-20T08:59:28.000Z</time>
      </trkpt>
      <trkpt lat="47.24056" lon="-2.30189">
        <ele>39.799999237061</ele>
        <time>2020-12-20T08:59:33.000Z</time>
      </trkpt>
      <trkpt lat="47.24053" lon="-2.30191">
        <ele>40.200000762939</ele>
        <time>2020-12-20T08:59:34.000Z</time>
      </trkpt>
      <trkpt lat="47.2405" lon="-2.30192">
        <ele>40.599998474121</ele>
        <time>2020-12-20T08:59:35.000Z</time>
      </trkpt>
      <trkpt lat="47.24048" lon="-2.30194">
        <ele>41</ele>
        <time>2020-12-20T08:59:36.000Z</time>
      </trkpt>
      <trkpt lat="47.24044" lon="-2.30194">
        <ele>41.400001525879</ele>
        <time>2020-12-20T08:59:37.000Z</time>
      </trkpt>
      <trkpt lat="47.24039" lon="-2.30191">
        <ele>41.400001525879</ele>
        <time>2020-12-20T08:59:39.000Z</time>
      </trkpt>
      <trkpt lat="47.24036" lon="-2.30189">
        <ele>41.400001525879</ele>
        <time>2020-12-20T08:59:40.000Z</time>
      </trkpt>
      <trkpt lat="47.24023" lon="-2.30176">
        <ele>41.400001525879</ele>
        <time>2020-12-20T08:59:46.000Z</time>
      </trkpt>
      <trkpt lat="47.2402" lon="-2.30175">
        <ele>41.400001525879</ele>
        <time>2020-12-20T08:59:47.000Z</time>
      </trkpt>
      <trkpt lat="47.24011" lon="-2.30171">
        <ele>41.400001525879</ele>
        <time>2020-12-20T08:59:50.000Z</time>
      </trkpt>
      <trkpt lat="47.23992" lon="-2.30157">
        <ele>41.400001525879</ele>
        <time>2020-12-20T08:59:55.000Z</time>
      </trkpt>
      <trkpt lat="47.23974" lon="-2.30145">
        <ele>41.400001525879</ele>
        <time>2020-12-20T09:00:00.000Z</time>
      </trkpt>
      <trkpt lat="47.23951" lon="-2.30145">
        <ele>41.400001525879</ele>
        <time>2020-12-20T09:00:05.000Z</time>
      </trkpt>
      <trkpt lat="47.23936" lon="-2.30146">
        <ele>41</ele>
        <time>2020-12-20T09:00:08.000Z</time>
      </trkpt>
      <trkpt lat="47.23931" lon="-2.30146">
        <ele>40.599998474121</ele>
        <time>2020-12-20T09:00:09.000Z</time>
      </trkpt>
      <trkpt lat="47.23926" lon="-2.30145">
        <ele>40.200000762939</ele>
        <time>2020-12-20T09:00:10.000Z</time>
      </trkpt>
      <trkpt lat="47.23922" lon="-2.30143">
        <ele>39.599998474121</ele>
        <time>2020-12-20T09:00:11.000Z</time>
      </trkpt>
      <trkpt lat="47.23919" lon="-2.30139">
        <ele>39.200000762939</ele>
        <time>2020-12-20T09:00:12.000Z</time>
      </trkpt>
      <trkpt lat="47.23911" lon="-2.30129">
        <ele>39.200000762939</ele>
        <time>2020-12-20T09:00:15.000Z</time>
      </trkpt>
      <trkpt lat="47.23909" lon="-2.30119">
        <ele>39.200000762939</ele>
        <time>2020-12-20T09:00:17.000Z</time>
      </trkpt>
      <trkpt lat="47.23909" lon="-2.30115">
        <ele>39.200000762939</ele>
        <time>2020-12-20T09:00:18.000Z</time>
      </trkpt>
      <trkpt lat="47.23906" lon="-2.30099">
        <ele>39.200000762939</ele>
        <time>2020-12-20T09:00:23.000Z</time>
      </trkpt>
      <trkpt lat="47.23901" lon="-2.30095">
        <ele>39.200000762939</ele>
        <time>2020-12-20T09:00:25.000Z</time>
      </trkpt>
      <trkpt lat="47.23888" lon="-2.30086">
        <ele>39.200000762939</ele>
        <time>2020-12-20T09:00:28.000Z</time>
      </trkpt>
      <trkpt lat="47.23863" lon="-2.30067">
        <ele>39.200000762939</ele>
        <time>2020-12-20T09:00:34.000Z</time>
      </trkpt>
      <trkpt lat="47.2385" lon="-2.30049">
        <ele>39.200000762939</ele>
        <time>2020-12-20T09:00:39.000Z</time>
      </trkpt>
      <trkpt lat="47.23845" lon="-2.30018">
        <ele>39.200000762939</ele>
        <time>2020-12-20T09:00:45.000Z</time>
      </trkpt>
      <trkpt lat="47.23842" lon="-2.29998">
        <ele>39.200000762939</ele>
        <time>2020-12-20T09:00:50.000Z</time>
      </trkpt>
      <trkpt lat="47.2384" lon="-2.29994">
        <ele>39.599998474121</ele>
        <time>2020-12-20T09:00:51.000Z</time>
      </trkpt>
      <trkpt lat="47.2384" lon="-2.29989">
        <ele>40.200000762939</ele>
        <time>2020-12-20T09:00:52.000Z</time>
      </trkpt>
      <trkpt lat="47.23839" lon="-2.29984">
        <ele>40.599998474121</ele>
        <time>2020-12-20T09:00:53.000Z</time>
      </trkpt>
      <trkpt lat="47.23838" lon="-2.2998">
        <ele>41</ele>
        <time>2020-12-20T09:00:54.000Z</time>
      </trkpt>
      <trkpt lat="47.23837" lon="-2.29975">
        <ele>41.400001525879</ele>
        <time>2020-12-20T09:00:55.000Z</time>
      </trkpt>
      <trkpt lat="47.23835" lon="-2.2996">
        <ele>41.400001525879</ele>
        <time>2020-12-20T09:00:58.000Z</time>
      </trkpt>
      <trkpt lat="47.23829" lon="-2.2993">
        <ele>41.400001525879</ele>
        <time>2020-12-20T09:01:04.000Z</time>
      </trkpt>
      <trkpt lat="47.23825" lon="-2.29907">
        <ele>42.200000762939</ele>
        <time>2020-12-20T09:01:08.000Z</time>
      </trkpt>
      <trkpt lat="47.23824" lon="-2.29902">
        <ele>42.599998474121</ele>
        <time>2020-12-20T09:01:09.000Z</time>
      </trkpt>
      <trkpt lat="47.23823" lon="-2.29896">
        <ele>43.200000762939</ele>
        <time>2020-12-20T09:01:10.000Z</time>
      </trkpt>
      <trkpt lat="47.23822" lon="-2.29891">
        <ele>43.599998474121</ele>
        <time>2020-12-20T09:01:11.000Z</time>
      </trkpt>
      <trkpt lat="47.23821" lon="-2.29885">
        <ele>43.599998474121</ele>
        <time>2020-12-20T09:01:12.000Z</time>
      </trkpt>
      <trkpt lat="47.23814" lon="-2.29847">
        <ele>43.599998474121</ele>
        <time>2020-12-20T09:01:18.000Z</time>
      </trkpt>
      <trkpt lat="47.23812" lon="-2.29813">
        <ele>43.599998474121</ele>
        <time>2020-12-20T09:01:24.000Z</time>
      </trkpt>
      <trkpt lat="47.23812" lon="-2.29791">
        <ele>43.599998474121</ele>
        <time>2020-12-20T09:01:29.000Z</time>
      </trkpt>
      <trkpt lat="47.23813" lon="-2.29748">
        <ele>43.599998474121</ele>
        <time>2020-12-20T09:01:37.000Z</time>
      </trkpt>
      <trkpt lat="47.23813" lon="-2.29711">
        <ele>43.599998474121</ele>
        <time>2020-12-20T09:01:44.000Z</time>
      </trkpt>
      <trkpt lat="47.23815" lon="-2.29688">
        <ele>43.599998474121</ele>
        <time>2020-12-20T09:01:50.000Z</time>
      </trkpt>
      <trkpt lat="47.23817" lon="-2.29654">
        <ele>43.599998474121</ele>
        <time>2020-12-20T09:01:57.000Z</time>
      </trkpt>
      <trkpt lat="47.23817" lon="-2.29619">
        <ele>43.599998474121</ele>
        <time>2020-12-20T09:02:04.000Z</time>
      </trkpt>
      <trkpt lat="47.23817" lon="-2.29601">
        <ele>43.599998474121</ele>
        <time>2020-12-20T09:02:10.000Z</time>
      </trkpt>
      <trkpt lat="47.2382" lon="-2.29572">
        <ele>43.599998474121</ele>
        <time>2020-12-20T09:02:17.000Z</time>
      </trkpt>
      <trkpt lat="47.2382" lon="-2.29539">
        <ele>43.599998474121</ele>
        <time>2020-12-20T09:02:24.000Z</time>
      </trkpt>
      <trkpt lat="47.23822" lon="-2.295">
        <ele>43.599998474121</ele>
        <time>2020-12-20T09:02:31.000Z</time>
      </trkpt>
      <trkpt lat="47.23821" lon="-2.29479">
        <ele>43.599998474121</ele>
        <time>2020-12-20T09:02:35.000Z</time>
      </trkpt>
      <trkpt lat="47.23821" lon="-2.29443">
        <ele>43.599998474121</ele>
        <time>2020-12-20T09:02:43.000Z</time>
      </trkpt>
      <trkpt lat="47.23825" lon="-2.29427">
        <ele>43.599998474121</ele>
        <time>2020-12-20T09:02:48.000Z</time>
      </trkpt>
      <trkpt lat="47.23836" lon="-2.29406">
        <ele>43.599998474121</ele>
        <time>2020-12-20T09:02:53.000Z</time>
      </trkpt>
      <trkpt lat="47.23849" lon="-2.29379">
        <ele>43.599998474121</ele>
        <time>2020-12-20T09:02:59.000Z</time>
      </trkpt>
      <trkpt lat="47.23865" lon="-2.29345">
        <ele>43.599998474121</ele>
        <time>2020-12-20T09:03:06.000Z</time>
      </trkpt>
      <trkpt lat="47.23877" lon="-2.2933">
        <ele>43.599998474121</ele>
        <time>2020-12-20T09:03:11.000Z</time>
      </trkpt>
      <trkpt lat="47.23895" lon="-2.29329">
        <ele>43.599998474121</ele>
        <time>2020-12-20T09:03:16.000Z</time>
      </trkpt>
      <trkpt lat="47.23909" lon="-2.29332">
        <ele>43.599998474121</ele>
        <time>2020-12-20T09:03:21.000Z</time>
      </trkpt>
      <trkpt lat="47.23912" lon="-2.29338">
        <ele>43.599998474121</ele>
        <time>2020-12-20T09:03:23.000Z</time>
      </trkpt>
      <trkpt lat="47.23914" lon="-2.29342">
        <ele>43.599998474121</ele>
        <time>2020-12-20T09:03:24.000Z</time>
      </trkpt>
      <trkpt lat="47.23926" lon="-2.29365">
        <ele>43.599998474121</ele>
        <time>2020-12-20T09:03:29.000Z</time>
      </trkpt>
      <trkpt lat="47.23939" lon="-2.29391">
        <ele>43.599998474121</ele>
        <time>2020-12-20T09:03:35.000Z</time>
      </trkpt>
      <trkpt lat="47.23954" lon="-2.2942">
        <ele>43.599998474121</ele>
        <time>2020-12-20T09:03:42.000Z</time>
      </trkpt>
      <trkpt lat="47.23969" lon="-2.29449">
        <ele>43.599998474121</ele>
        <time>2020-12-20T09:03:48.000Z</time>
      </trkpt>
      <trkpt lat="47.23979" lon="-2.29471">
        <ele>44</ele>
        <time>2020-12-20T09:03:52.000Z</time>
      </trkpt>
      <trkpt lat="47.23982" lon="-2.29476">
        <ele>44.400001525879</ele>
        <time>2020-12-20T09:03:53.000Z</time>
      </trkpt>
      <trkpt lat="47.23984" lon="-2.29481">
        <ele>44.799999237061</ele>
        <time>2020-12-20T09:03:54.000Z</time>
      </trkpt>
      <trkpt lat="47.23987" lon="-2.29486">
        <ele>45.200000762939</ele>
        <time>2020-12-20T09:03:55.000Z</time>
      </trkpt>
      <trkpt lat="47.23989" lon="-2.29491">
        <ele>45.599998474121</ele>
        <time>2020-12-20T09:03:56.000Z</time>
      </trkpt>
      <trkpt lat="47.23995" lon="-2.29511">
        <ele>45.599998474121</ele>
        <time>2020-12-20T09:04:00.000Z</time>
      </trkpt>
      <trkpt lat="47.23995" lon="-2.29517">
        <ele>45.599998474121</ele>
        <time>2020-12-20T09:04:01.000Z</time>
      </trkpt>
      <trkpt lat="47.23998" lon="-2.29549">
        <ele>45.599998474121</ele>
        <time>2020-12-20T09:04:06.000Z</time>
      </trkpt>
      <trkpt lat="47.24001" lon="-2.29586">
        <ele>45.599998474121</ele>
        <time>2020-12-20T09:04:12.000Z</time>
      </trkpt>
      <trkpt lat="47.24003" lon="-2.2961">
        <ele>45.599998474121</ele>
        <time>2020-12-20T09:04:16.000Z</time>
      </trkpt>
      <trkpt lat="47.24004" lon="-2.29623">
        <ele>45.599998474121</ele>
        <time>2020-12-20T09:04:18.000Z</time>
      </trkpt>
      <trkpt lat="47.24009" lon="-2.29668">
        <ele>45.599998474121</ele>
        <time>2020-12-20T09:04:25.000Z</time>
      </trkpt>
      <trkpt lat="47.24011" lon="-2.29709">
        <ele>45.599998474121</ele>
        <time>2020-12-20T09:04:31.000Z</time>
      </trkpt>
      <trkpt lat="47.24014" lon="-2.29745">
        <ele>45.599998474121</ele>
        <time>2020-12-20T09:04:37.000Z</time>
      </trkpt>
      <trkpt lat="47.24015" lon="-2.29774">
        <ele>45.599998474121</ele>
        <time>2020-12-20T09:04:43.000Z</time>
      </trkpt>
      <trkpt lat="47.24015" lon="-2.29789">
        <ele>45.599998474121</ele>
        <time>2020-12-20T09:04:49.000Z</time>
      </trkpt>
      <trkpt lat="47.24014" lon="-2.29796">
        <ele>45.599998474121</ele>
        <time>2020-12-20T09:04:54.000Z</time>
      </trkpt>
      <trkpt lat="47.24017" lon="-2.29799">
        <ele>45.599998474121</ele>
        <time>2020-12-20T09:05:43.000Z</time>
      </trkpt>
      <trkpt lat="47.24029" lon="-2.29797">
        <ele>45.599998474121</ele>
        <time>2020-12-20T09:05:48.000Z</time>
      </trkpt>
      <trkpt lat="47.24032" lon="-2.29797">
        <ele>45.599998474121</ele>
        <time>2020-12-20T09:05:49.000Z</time>
      </trkpt>
      <trkpt lat="47.24055" lon="-2.2979">
        <ele>45.599998474121</ele>
        <time>2020-12-20T09:05:56.000Z</time>
      </trkpt>
      <trkpt lat="47.24068" lon="-2.29791">
        <ele>45.599998474121</ele>
        <time>2020-12-20T09:06:01.000Z</time>
      </trkpt>
      <trkpt lat="47.24078" lon="-2.29804">
        <ele>45.599998474121</ele>
        <time>2020-12-20T09:06:06.000Z</time>
      </trkpt>
      <trkpt lat="47.24081" lon="-2.29826">
        <ele>45.599998474121</ele>
        <time>2020-12-20T09:06:11.000Z</time>
      </trkpt>
      <trkpt lat="47.24086" lon="-2.29838">
        <ele>45.599998474121</ele>
        <time>2020-12-20T09:06:14.000Z</time>
      </trkpt>
      <trkpt lat="47.24089" lon="-2.29841">
        <ele>45.599998474121</ele>
        <time>2020-12-20T09:06:15.000Z</time>
      </trkpt>
      <trkpt lat="47.24109" lon="-2.29845">
        <ele>45.599998474121</ele>
        <time>2020-12-20T09:06:20.000Z</time>
      </trkpt>
      <trkpt lat="47.24117" lon="-2.29843">
        <ele>45.599998474121</ele>
        <time>2020-12-20T09:06:22.000Z</time>
      </trkpt>
      <trkpt lat="47.24134" lon="-2.29835">
        <ele>45.599998474121</ele>
        <time>2020-12-20T09:06:26.000Z</time>
      </trkpt>
      <trkpt lat="47.24149" lon="-2.2984">
        <ele>45.599998474121</ele>
        <time>2020-12-20T09:06:30.000Z</time>
      </trkpt>
      <trkpt lat="47.24155" lon="-2.29847">
        <ele>45.599998474121</ele>
        <time>2020-12-20T09:06:32.000Z</time>
      </trkpt>
      <trkpt lat="47.24157" lon="-2.29854">
        <ele>45.599998474121</ele>
        <time>2020-12-20T09:06:34.000Z</time>
      </trkpt>
      <trkpt lat="47.24157" lon="-2.29862">
        <ele>45.599998474121</ele>
        <time>2020-12-20T09:06:36.000Z</time>
      </trkpt>
      <trkpt lat="47.24156" lon="-2.29873">
        <ele>45.599998474121</ele>
        <time>2020-12-20T09:06:38.000Z</time>
      </trkpt>
      <trkpt lat="47.24157" lon="-2.29892">
        <ele>45.599998474121</ele>
        <time>2020-12-20T09:06:42.000Z</time>
      </trkpt>
      <trkpt lat="47.24162" lon="-2.29919">
        <ele>45.599998474121</ele>
        <time>2020-12-20T09:06:47.000Z</time>
      </trkpt>
      <trkpt lat="47.24156" lon="-2.29948">
        <ele>45.599998474121</ele>
        <time>2020-12-20T09:06:52.000Z</time>
      </trkpt>
      <trkpt lat="47.24155" lon="-2.29975">
        <ele>45.599998474121</ele>
        <time>2020-12-20T09:06:57.000Z</time>
      </trkpt>
      <trkpt lat="47.24156" lon="-2.30005">
        <ele>45.599998474121</ele>
        <time>2020-12-20T09:07:03.000Z</time>
      </trkpt>
      <trkpt lat="47.2416" lon="-2.30007">
        <ele>45.599998474121</ele>
        <time>2020-12-20T09:07:05.000Z</time>
      </trkpt>
      <trkpt lat="47.24164" lon="-2.30004">
        <ele>45.599998474121</ele>
        <time>2020-12-20T09:07:07.000Z</time>
      </trkpt>
      <trkpt lat="47.24167" lon="-2.29999">
        <ele>45.599998474121</ele>
        <time>2020-12-20T09:07:10.000Z</time>
      </trkpt>
      <trkpt lat="47.24166" lon="-2.29996">
        <ele>45.599998474121</ele>
        <time>2020-12-20T09:07:11.000Z</time>
      </trkpt>
      <trkpt lat="47.24169" lon="-2.29988">
        <ele>45.599998474121</ele>
        <time>2020-12-20T09:07:14.000Z</time>
      </trkpt>
      <trkpt lat="47.24172" lon="-2.29985">
        <ele>45.599998474121</ele>
        <time>2020-12-20T09:07:15.000Z</time>
      </trkpt>
      <trkpt lat="47.24175" lon="-2.29983">
        <ele>45.599998474121</ele>
        <time>2020-12-20T09:07:16.000Z</time>
      </trkpt>
      <trkpt lat="47.24198" lon="-2.29976">
        <ele>45.599998474121</ele>
        <time>2020-12-20T09:07:22.000Z</time>
      </trkpt>
      <trkpt lat="47.24204" lon="-2.29974">
        <ele>45.599998474121</ele>
        <time>2020-12-20T09:07:23.000Z</time>
      </trkpt>
      <trkpt lat="47.24224" lon="-2.29967">
        <ele>45.599998474121</ele>
        <time>2020-12-20T09:07:27.000Z</time>
      </trkpt>
      <trkpt lat="47.24247" lon="-2.29947">
        <ele>45.599998474121</ele>
        <time>2020-12-20T09:07:31.000Z</time>
      </trkpt>
      <trkpt lat="47.24259" lon="-2.29934">
        <ele>45.599998474121</ele>
        <time>2020-12-20T09:07:33.000Z</time>
      </trkpt>
      <trkpt lat="47.24278" lon="-2.29916">
        <ele>45.599998474121</ele>
        <time>2020-12-20T09:07:37.000Z</time>
      </trkpt>
      <trkpt lat="47.24283" lon="-2.29913">
        <ele>45.599998474121</ele>
        <time>2020-12-20T09:07:38.000Z</time>
      </trkpt>
      <trkpt lat="47.24306" lon="-2.29894">
        <ele>45.599998474121</ele>
        <time>2020-12-20T09:07:43.000Z</time>
      </trkpt>
      <trkpt lat="47.24311" lon="-2.29889">
        <ele>45.599998474121</ele>
        <time>2020-12-20T09:07:44.000Z</time>
      </trkpt>
      <trkpt lat="47.24316" lon="-2.29874">
        <ele>45.599998474121</ele>
        <time>2020-12-20T09:07:46.000Z</time>
      </trkpt>
      <trkpt lat="47.24317" lon="-2.29851">
        <ele>45.599998474121</ele>
        <time>2020-12-20T09:07:49.000Z</time>
      </trkpt>
      <trkpt lat="47.24317" lon="-2.29844">
        <ele>45.599998474121</ele>
        <time>2020-12-20T09:07:50.000Z</time>
      </trkpt>
      <trkpt lat="47.24317" lon="-2.29837">
        <ele>45.599998474121</ele>
        <time>2020-12-20T09:07:51.000Z</time>
      </trkpt>
      <trkpt lat="47.24323" lon="-2.29818">
        <ele>45.599998474121</ele>
        <time>2020-12-20T09:07:54.000Z</time>
      </trkpt>
      <trkpt lat="47.24338" lon="-2.29806">
        <ele>45.599998474121</ele>
        <time>2020-12-20T09:07:58.000Z</time>
      </trkpt>
      <trkpt lat="47.24344" lon="-2.29806">
        <ele>45.599998474121</ele>
        <time>2020-12-20T09:08:00.000Z</time>
      </trkpt>
      <trkpt lat="47.24351" lon="-2.29802">
        <ele>45.599998474121</ele>
        <time>2020-12-20T09:08:03.000Z</time>
      </trkpt>
      <trkpt lat="47.24354" lon="-2.298">
        <ele>45.599998474121</ele>
        <time>2020-12-20T09:08:07.000Z</time>
      </trkpt>
      <trkpt lat="47.24357" lon="-2.29796">
        <ele>45.599998474121</ele>
        <time>2020-12-20T09:08:35.000Z</time>
      </trkpt>
      <trkpt lat="47.24366" lon="-2.29783">
        <ele>45.599998474121</ele>
        <time>2020-12-20T09:08:40.000Z</time>
      </trkpt>
      <trkpt lat="47.2437" lon="-2.29775">
        <ele>46</ele>
        <time>2020-12-20T09:08:42.000Z</time>
      </trkpt>
      <trkpt lat="47.24373" lon="-2.2977">
        <ele>46.400001525879</ele>
        <time>2020-12-20T09:08:43.000Z</time>
      </trkpt>
      <trkpt lat="47.24375" lon="-2.29765">
        <ele>46.799999237061</ele>
        <time>2020-12-20T09:08:44.000Z</time>
      </trkpt>
      <trkpt lat="47.24377" lon="-2.2976">
        <ele>47.200000762939</ele>
        <time>2020-12-20T09:08:45.000Z</time>
      </trkpt>
      <trkpt lat="47.24379" lon="-2.29756">
        <ele>47.599998474121</ele>
        <time>2020-12-20T09:08:46.000Z</time>
      </trkpt>
      <trkpt lat="47.24386" lon="-2.29739">
        <ele>47.599998474121</ele>
        <time>2020-12-20T09:08:49.000Z</time>
      </trkpt>
      <trkpt lat="47.2439" lon="-2.29728">
        <ele>47.599998474121</ele>
        <time>2020-12-20T09:08:51.000Z</time>
      </trkpt>
      <trkpt lat="47.24404" lon="-2.29701">
        <ele>47.599998474121</ele>
        <time>2020-12-20T09:08:57.000Z</time>
      </trkpt>
      <trkpt lat="47.24414" lon="-2.29693">
        <ele>47.599998474121</ele>
        <time>2020-12-20T09:09:01.000Z</time>
      </trkpt>
      <trkpt lat="47.24432" lon="-2.2969">
        <ele>47.599998474121</ele>
        <time>2020-12-20T09:09:06.000Z</time>
      </trkpt>
      <trkpt lat="47.24441" lon="-2.29702">
        <ele>47.599998474121</ele>
        <time>2020-12-20T09:09:10.000Z</time>
      </trkpt>
      <trkpt lat="47.24449" lon="-2.29728">
        <ele>47.599998474121</ele>
        <time>2020-12-20T09:09:15.000Z</time>
      </trkpt>
      <trkpt lat="47.24459" lon="-2.2976">
        <ele>47.599998474121</ele>
        <time>2020-12-20T09:09:22.000Z</time>
      </trkpt>
      <trkpt lat="47.24464" lon="-2.29786">
        <ele>47.599998474121</ele>
        <time>2020-12-20T09:09:28.000Z</time>
      </trkpt>
      <trkpt lat="47.24474" lon="-2.29811">
        <ele>47.599998474121</ele>
        <time>2020-12-20T09:09:34.000Z</time>
      </trkpt>
      <trkpt lat="47.24488" lon="-2.29836">
        <ele>47.599998474121</ele>
        <time>2020-12-20T09:09:40.000Z</time>
      </trkpt>
      <trkpt lat="47.2451" lon="-2.29853">
        <ele>48</ele>
        <time>2020-12-20T09:09:46.000Z</time>
      </trkpt>
      <trkpt lat="47.24514" lon="-2.29856">
        <ele>48.799999237061</ele>
        <time>2020-12-20T09:09:47.000Z</time>
      </trkpt>
      <trkpt lat="47.24518" lon="-2.29858">
        <ele>49.200000762939</ele>
        <time>2020-12-20T09:09:48.000Z</time>
      </trkpt>
      <trkpt lat="47.24522" lon="-2.2986">
        <ele>49.599998474121</ele>
        <time>2020-12-20T09:09:49.000Z</time>
      </trkpt>
      <trkpt lat="47.2453" lon="-2.29864">
        <ele>49.599998474121</ele>
        <time>2020-12-20T09:09:51.000Z</time>
      </trkpt>
      <trkpt lat="47.24539" lon="-2.29866">
        <ele>49.599998474121</ele>
        <time>2020-12-20T09:09:53.000Z</time>
      </trkpt>
      <trkpt lat="47.24551" lon="-2.29871">
        <ele>49.599998474121</ele>
        <time>2020-12-20T09:09:56.000Z</time>
      </trkpt>
      <trkpt lat="47.24562" lon="-2.29882">
        <ele>49.599998474121</ele>
        <time>2020-12-20T09:09:59.000Z</time>
      </trkpt>
      <trkpt lat="47.24575" lon="-2.29901">
        <ele>49.599998474121</ele>
        <time>2020-12-20T09:10:03.000Z</time>
      </trkpt>
      <trkpt lat="47.24577" lon="-2.29907">
        <ele>49.599998474121</ele>
        <time>2020-12-20T09:10:04.000Z</time>
      </trkpt>
      <trkpt lat="47.24599" lon="-2.29944">
        <ele>49.599998474121</ele>
        <time>2020-12-20T09:10:11.000Z</time>
      </trkpt>
      <trkpt lat="47.24615" lon="-2.29941">
        <ele>49.599998474121</ele>
        <time>2020-12-20T09:10:14.000Z</time>
      </trkpt>
      <trkpt lat="47.2463" lon="-2.29935">
        <ele>49.599998474121</ele>
        <time>2020-12-20T09:10:17.000Z</time>
      </trkpt>
      <trkpt lat="47.2465" lon="-2.29927">
        <ele>49.599998474121</ele>
        <time>2020-12-20T09:10:21.000Z</time>
      </trkpt>
      <trkpt lat="47.24661" lon="-2.29923">
        <ele>50</ele>
        <time>2020-12-20T09:10:23.000Z</time>
      </trkpt>
      <trkpt lat="47.24666" lon="-2.29921">
        <ele>50.599998474121</ele>
        <time>2020-12-20T09:10:24.000Z</time>
      </trkpt>
      <trkpt lat="47.24671" lon="-2.29919">
        <ele>51</ele>
        <time>2020-12-20T09:10:25.000Z</time>
      </trkpt>
      <trkpt lat="47.24677" lon="-2.29918">
        <ele>51.400001525879</ele>
        <time>2020-12-20T09:10:26.000Z</time>
      </trkpt>
      <trkpt lat="47.24682" lon="-2.29916">
        <ele>51.799999237061</ele>
        <time>2020-12-20T09:10:27.000Z</time>
      </trkpt>
      <trkpt lat="47.24714" lon="-2.29905">
        <ele>51.799999237061</ele>
        <time>2020-12-20T09:10:33.000Z</time>
      </trkpt>
      <trkpt lat="47.2475" lon="-2.2989">
        <ele>51.799999237061</ele>
        <time>2020-12-20T09:10:40.000Z</time>
      </trkpt>
      <trkpt lat="47.24755" lon="-2.29886">
        <ele>51.799999237061</ele>
        <time>2020-12-20T09:10:41.000Z</time>
      </trkpt>
      <trkpt lat="47.2478" lon="-2.29867">
        <ele>51.799999237061</ele>
        <time>2020-12-20T09:10:46.000Z</time>
      </trkpt>
      <trkpt lat="47.24801" lon="-2.29852">
        <ele>52.200000762939</ele>
        <time>2020-12-20T09:10:50.000Z</time>
      </trkpt>
      <trkpt lat="47.24806" lon="-2.2985">
        <ele>52.599998474121</ele>
        <time>2020-12-20T09:10:51.000Z</time>
      </trkpt>
      <trkpt lat="47.24812" lon="-2.29848">
        <ele>53</ele>
        <time>2020-12-20T09:10:52.000Z</time>
      </trkpt>
      <trkpt lat="47.24817" lon="-2.29846">
        <ele>53.400001525879</ele>
        <time>2020-12-20T09:10:53.000Z</time>
      </trkpt>
      <trkpt lat="47.24822" lon="-2.29845">
        <ele>53.799999237061</ele>
        <time>2020-12-20T09:10:54.000Z</time>
      </trkpt>
      <trkpt lat="47.24853" lon="-2.29835">
        <ele>53.799999237061</ele>
        <time>2020-12-20T09:11:00.000Z</time>
      </trkpt>
      <trkpt lat="47.24867" lon="-2.29831">
        <ele>53.799999237061</ele>
        <time>2020-12-20T09:11:04.000Z</time>
      </trkpt>
      <trkpt lat="47.24869" lon="-2.29843">
        <ele>53.799999237061</ele>
        <time>2020-12-20T09:11:07.000Z</time>
      </trkpt>
      <trkpt lat="47.24874" lon="-2.29869">
        <ele>53.799999237061</ele>
        <time>2020-12-20T09:11:12.000Z</time>
      </trkpt>
      <trkpt lat="47.24878" lon="-2.29903">
        <ele>53.799999237061</ele>
        <time>2020-12-20T09:11:18.000Z</time>
      </trkpt>
      <trkpt lat="47.24881" lon="-2.2993">
        <ele>53.799999237061</ele>
        <time>2020-12-20T09:11:22.000Z</time>
      </trkpt>
      <trkpt lat="47.24884" lon="-2.29945">
        <ele>53.799999237061</ele>
        <time>2020-12-20T09:11:24.000Z</time>
      </trkpt>
      <trkpt lat="47.24896" lon="-2.29986">
        <ele>53.799999237061</ele>
        <time>2020-12-20T09:11:29.000Z</time>
      </trkpt>
      <trkpt lat="47.24904" lon="-2.30028">
        <ele>53.799999237061</ele>
        <time>2020-12-20T09:11:35.000Z</time>
      </trkpt>
      <trkpt lat="47.24904" lon="-2.30034">
        <ele>53.799999237061</ele>
        <time>2020-12-20T09:11:36.000Z</time>
      </trkpt>
      <trkpt lat="47.24904" lon="-2.30041">
        <ele>53.799999237061</ele>
        <time>2020-12-20T09:11:37.000Z</time>
      </trkpt>
      <trkpt lat="47.24907" lon="-2.30056">
        <ele>53.799999237061</ele>
        <time>2020-12-20T09:11:40.000Z</time>
      </trkpt>
      <trkpt lat="47.24919" lon="-2.30056">
        <ele>53.799999237061</ele>
        <time>2020-12-20T09:11:43.000Z</time>
      </trkpt>
      <trkpt lat="47.24927" lon="-2.30056">
        <ele>53.799999237061</ele>
        <time>2020-12-20T09:11:45.000Z</time>
      </trkpt>
      <trkpt lat="47.24947" lon="-2.30056">
        <ele>53.799999237061</ele>
        <time>2020-12-20T09:11:49.000Z</time>
      </trkpt>
      <trkpt lat="47.24985" lon="-2.30056">
        <ele>53.799999237061</ele>
        <time>2020-12-20T09:11:57.000Z</time>
      </trkpt>
      <trkpt lat="47.24991" lon="-2.30055">
        <ele>53.799999237061</ele>
        <time>2020-12-20T09:11:58.000Z</time>
      </trkpt>
      <trkpt lat="47.2501" lon="-2.30053">
        <ele>53.799999237061</ele>
        <time>2020-12-20T09:12:02.000Z</time>
      </trkpt>
      <trkpt lat="47.25014" lon="-2.30053">
        <ele>53.799999237061</ele>
        <time>2020-12-20T09:12:03.000Z</time>
      </trkpt>
      <trkpt lat="47.25043" lon="-2.30055">
        <ele>53.799999237061</ele>
        <time>2020-12-20T09:12:09.000Z</time>
      </trkpt>
      <trkpt lat="47.25069" lon="-2.30058">
        <ele>53.400001525879</ele>
        <time>2020-12-20T09:12:15.000Z</time>
      </trkpt>
      <trkpt lat="47.25071" lon="-2.30061">
        <ele>53</ele>
        <time>2020-12-20T09:12:16.000Z</time>
      </trkpt>
      <trkpt lat="47.25073" lon="-2.30063">
        <ele>52.599998474121</ele>
        <time>2020-12-20T09:12:17.000Z</time>
      </trkpt>
      <trkpt lat="47.25074" lon="-2.30066">
        <ele>52.200000762939</ele>
        <time>2020-12-20T09:12:18.000Z</time>
      </trkpt>
      <trkpt lat="47.25073" lon="-2.30069">
        <ele>51.599998474121</ele>
        <time>2020-12-20T09:12:19.000Z</time>
      </trkpt>
      <trkpt lat="47.25071" lon="-2.30093">
        <ele>51.599998474121</ele>
        <time>2020-12-20T09:12:23.000Z</time>
      </trkpt>
      <trkpt lat="47.25069" lon="-2.30131">
        <ele>51.599998474121</ele>
        <time>2020-12-20T09:12:29.000Z</time>
      </trkpt>
      <trkpt lat="47.25075" lon="-2.30137">
        <ele>51.599998474121</ele>
        <time>2020-12-20T09:12:31.000Z</time>
      </trkpt>
      <trkpt lat="47.25079" lon="-2.30138">
        <ele>51.599998474121</ele>
        <time>2020-12-20T09:12:32.000Z</time>
      </trkpt>
      <trkpt lat="47.25091" lon="-2.30136">
        <ele>51.599998474121</ele>
        <time>2020-12-20T09:12:35.000Z</time>
      </trkpt>
      <trkpt lat="47.25101" lon="-2.30135">
        <ele>51.599998474121</ele>
        <time>2020-12-20T09:12:37.000Z</time>
      </trkpt>
      <trkpt lat="47.25106" lon="-2.30134">
        <ele>51.599998474121</ele>
        <time>2020-12-20T09:12:38.000Z</time>
      </trkpt>
      <trkpt lat="47.25122" lon="-2.3013">
        <ele>51.599998474121</ele>
        <time>2020-12-20T09:12:41.000Z</time>
      </trkpt>
      <trkpt lat="47.25127" lon="-2.30129">
        <ele>51.599998474121</ele>
        <time>2020-12-20T09:12:42.000Z</time>
      </trkpt>
      <trkpt lat="47.25138" lon="-2.30129">
        <ele>51.599998474121</ele>
        <time>2020-12-20T09:12:44.000Z</time>
      </trkpt>
      <trkpt lat="47.25158" lon="-2.30123">
        <ele>51.599998474121</ele>
        <time>2020-12-20T09:12:48.000Z</time>
      </trkpt>
      <trkpt lat="47.25174" lon="-2.30118">
        <ele>51.599998474121</ele>
        <time>2020-12-20T09:12:51.000Z</time>
      </trkpt>
      <trkpt lat="47.25182" lon="-2.30121">
        <ele>51.200000762939</ele>
        <time>2020-12-20T09:12:53.000Z</time>
      </trkpt>
      <trkpt lat="47.25185" lon="-2.30128">
        <ele>50.799999237061</ele>
        <time>2020-12-20T09:12:54.000Z</time>
      </trkpt>
      <trkpt lat="47.25188" lon="-2.30134">
        <ele>50.400001525879</ele>
        <time>2020-12-20T09:12:55.000Z</time>
      </trkpt>
      <trkpt lat="47.25191" lon="-2.3014">
        <ele>49.799999237061</ele>
        <time>2020-12-20T09:12:56.000Z</time>
      </trkpt>
      <trkpt lat="47.25194" lon="-2.30145">
        <ele>49.400001525879</ele>
        <time>2020-12-20T09:12:57.000Z</time>
      </trkpt>
      <trkpt lat="47.25198" lon="-2.30149">
        <ele>49.400001525879</ele>
        <time>2020-12-20T09:12:58.000Z</time>
      </trkpt>
      <trkpt lat="47.25203" lon="-2.30155">
        <ele>49.400001525879</ele>
        <time>2020-12-20T09:12:59.000Z</time>
      </trkpt>
      <trkpt lat="47.25208" lon="-2.3016">
        <ele>49.400001525879</ele>
        <time>2020-12-20T09:13:00.000Z</time>
      </trkpt>
      <trkpt lat="47.25226" lon="-2.3018">
        <ele>49.400001525879</ele>
        <time>2020-12-20T09:13:04.000Z</time>
      </trkpt>
      <trkpt lat="47.25236" lon="-2.30183">
        <ele>49</ele>
        <time>2020-12-20T09:13:06.000Z</time>
      </trkpt>
      <trkpt lat="47.2524" lon="-2.30185">
        <ele>48.599998474121</ele>
        <time>2020-12-20T09:13:07.000Z</time>
      </trkpt>
      <trkpt lat="47.25245" lon="-2.30187">
        <ele>48.200000762939</ele>
        <time>2020-12-20T09:13:08.000Z</time>
      </trkpt>
      <trkpt lat="47.25249" lon="-2.3019">
        <ele>47.799999237061</ele>
        <time>2020-12-20T09:13:09.000Z</time>
      </trkpt>
      <trkpt lat="47.25254" lon="-2.30192">
        <ele>47.400001525879</ele>
        <time>2020-12-20T09:13:10.000Z</time>
      </trkpt>
      <trkpt lat="47.25272" lon="-2.30198">
        <ele>47.400001525879</ele>
        <time>2020-12-20T09:13:13.000Z</time>
      </trkpt>
      <trkpt lat="47.25277" lon="-2.30202">
        <ele>47.400001525879</ele>
        <time>2020-12-20T09:13:14.000Z</time>
      </trkpt>
      <trkpt lat="47.25291" lon="-2.30207">
        <ele>47.400001525879</ele>
        <time>2020-12-20T09:13:17.000Z</time>
      </trkpt>
      <trkpt lat="47.25298" lon="-2.30211">
        <ele>47</ele>
        <time>2020-12-20T09:13:19.000Z</time>
      </trkpt>
      <trkpt lat="47.25301" lon="-2.30211">
        <ele>46.400001525879</ele>
        <time>2020-12-20T09:13:20.000Z</time>
      </trkpt>
      <trkpt lat="47.25302" lon="-2.30211">
        <ele>46</ele>
        <time>2020-12-20T09:13:21.000Z</time>
      </trkpt>
      <trkpt lat="47.25304" lon="-2.30209">
        <ele>45.599998474121</ele>
        <time>2020-12-20T09:13:22.000Z</time>
      </trkpt>
      <trkpt lat="47.25305" lon="-2.30206">
        <ele>45.200000762939</ele>
        <time>2020-12-20T09:13:23.000Z</time>
      </trkpt>
      <trkpt lat="47.25306" lon="-2.30204">
        <ele>45.200000762939</ele>
        <time>2020-12-20T09:13:24.000Z</time>
      </trkpt>
      <trkpt lat="47.2531" lon="-2.30204">
        <ele>45.200000762939</ele>
        <time>2020-12-20T09:13:26.000Z</time>
      </trkpt>
      <trkpt lat="47.25315" lon="-2.30206">
        <ele>45.200000762939</ele>
        <time>2020-12-20T09:13:27.000Z</time>
      </trkpt>
      <trkpt lat="47.25326" lon="-2.30207">
        <ele>45.200000762939</ele>
        <time>2020-12-20T09:13:29.000Z</time>
      </trkpt>
      <trkpt lat="47.25336" lon="-2.30207">
        <ele>45.200000762939</ele>
        <time>2020-12-20T09:13:31.000Z</time>
      </trkpt>
      <trkpt lat="47.25376" lon="-2.3021">
        <ele>45.200000762939</ele>
        <time>2020-12-20T09:13:39.000Z</time>
      </trkpt>
      <trkpt lat="47.25384" lon="-2.30214">
        <ele>44.799999237061</ele>
        <time>2020-12-20T09:13:41.000Z</time>
      </trkpt>
      <trkpt lat="47.25387" lon="-2.30215">
        <ele>44.400001525879</ele>
        <time>2020-12-20T09:13:42.000Z</time>
      </trkpt>
      <trkpt lat="47.25391" lon="-2.30217">
        <ele>44</ele>
        <time>2020-12-20T09:13:43.000Z</time>
      </trkpt>
      <trkpt lat="47.25395" lon="-2.30219">
        <ele>43.599998474121</ele>
        <time>2020-12-20T09:13:44.000Z</time>
      </trkpt>
      <trkpt lat="47.25399" lon="-2.30221">
        <ele>43.200000762939</ele>
        <time>2020-12-20T09:13:45.000Z</time>
      </trkpt>
      <trkpt lat="47.25408" lon="-2.30225">
        <ele>43.200000762939</ele>
        <time>2020-12-20T09:13:47.000Z</time>
      </trkpt>
      <trkpt lat="47.25418" lon="-2.30228">
        <ele>43.200000762939</ele>
        <time>2020-12-20T09:13:49.000Z</time>
      </trkpt>
      <trkpt lat="47.25422" lon="-2.30229">
        <ele>43.200000762939</ele>
        <time>2020-12-20T09:13:50.000Z</time>
      </trkpt>
      <trkpt lat="47.25434" lon="-2.30234">
        <ele>43.200000762939</ele>
        <time>2020-12-20T09:13:53.000Z</time>
      </trkpt>
      <trkpt lat="47.25444" lon="-2.30237">
        <ele>43.200000762939</ele>
        <time>2020-12-20T09:13:55.000Z</time>
      </trkpt>
      <trkpt lat="47.25463" lon="-2.30244">
        <ele>43.200000762939</ele>
        <time>2020-12-20T09:13:59.000Z</time>
      </trkpt>
      <trkpt lat="47.25471" lon="-2.30248">
        <ele>43.200000762939</ele>
        <time>2020-12-20T09:14:01.000Z</time>
      </trkpt>
      <trkpt lat="47.25474" lon="-2.30247">
        <ele>42.599998474121</ele>
        <time>2020-12-20T09:14:02.000Z</time>
      </trkpt>
      <trkpt lat="47.25477" lon="-2.30245">
        <ele>42.200000762939</ele>
        <time>2020-12-20T09:14:03.000Z</time>
      </trkpt>
      <trkpt lat="47.25479" lon="-2.30242">
        <ele>41.799999237061</ele>
        <time>2020-12-20T09:14:04.000Z</time>
      </trkpt>
      <trkpt lat="47.25481" lon="-2.30239">
        <ele>41.400001525879</ele>
        <time>2020-12-20T09:14:05.000Z</time>
      </trkpt>
      <trkpt lat="47.25483" lon="-2.30234">
        <ele>40.799999237061</ele>
        <time>2020-12-20T09:14:06.000Z</time>
      </trkpt>
      <trkpt lat="47.25487" lon="-2.30225">
        <ele>40.799999237061</ele>
        <time>2020-12-20T09:14:08.000Z</time>
      </trkpt>
      <trkpt lat="47.25501" lon="-2.30201">
        <ele>40.799999237061</ele>
        <time>2020-12-20T09:14:13.000Z</time>
      </trkpt>
      <trkpt lat="47.25504" lon="-2.30198">
        <ele>40.799999237061</ele>
        <time>2020-12-20T09:14:14.000Z</time>
      </trkpt>
      <trkpt lat="47.2551" lon="-2.30199">
        <ele>40.799999237061</ele>
        <time>2020-12-20T09:14:16.000Z</time>
      </trkpt>
      <trkpt lat="47.25528" lon="-2.30195">
        <ele>40.799999237061</ele>
        <time>2020-12-20T09:14:20.000Z</time>
      </trkpt>
      <trkpt lat="47.25533" lon="-2.30193">
        <ele>40.799999237061</ele>
        <time>2020-12-20T09:14:21.000Z</time>
      </trkpt>
      <trkpt lat="47.25551" lon="-2.30182">
        <ele>40.799999237061</ele>
        <time>2020-12-20T09:14:25.000Z</time>
      </trkpt>
      <trkpt lat="47.2556" lon="-2.30169">
        <ele>40.799999237061</ele>
        <time>2020-12-20T09:14:29.000Z</time>
      </trkpt>
      <trkpt lat="47.25562" lon="-2.30166">
        <ele>40.799999237061</ele>
        <time>2020-12-20T09:14:30.000Z</time>
      </trkpt>
      <trkpt lat="47.25562" lon="-2.30156">
        <ele>40.799999237061</ele>
        <time>2020-12-20T09:14:33.000Z</time>
      </trkpt>
      <trkpt lat="47.25564" lon="-2.3014">
        <ele>40.799999237061</ele>
        <time>2020-12-20T09:14:37.000Z</time>
      </trkpt>
      <trkpt lat="47.25567" lon="-2.30115">
        <ele>40.799999237061</ele>
        <time>2020-12-20T09:14:41.000Z</time>
      </trkpt>
      <trkpt lat="47.25568" lon="-2.30108">
        <ele>40.799999237061</ele>
        <time>2020-12-20T09:14:42.000Z</time>
      </trkpt>
      <trkpt lat="47.25582" lon="-2.30082">
        <ele>40.799999237061</ele>
        <time>2020-12-20T09:14:47.000Z</time>
      </trkpt>
      <trkpt lat="47.25585" lon="-2.30078">
        <ele>40.799999237061</ele>
        <time>2020-12-20T09:14:48.000Z</time>
      </trkpt>
      <trkpt lat="47.25605" lon="-2.30052">
        <ele>40.799999237061</ele>
        <time>2020-12-20T09:14:53.000Z</time>
      </trkpt>
      <trkpt lat="47.25609" lon="-2.30047">
        <ele>40.799999237061</ele>
        <time>2020-12-20T09:14:54.000Z</time>
      </trkpt>
      <trkpt lat="47.25614" lon="-2.30026">
        <ele>40.799999237061</ele>
        <time>2020-12-20T09:14:57.000Z</time>
      </trkpt>
      <trkpt lat="47.25609" lon="-2.30006">
        <ele>41.200000762939</ele>
        <time>2020-12-20T09:15:00.000Z</time>
      </trkpt>
      <trkpt lat="47.25607" lon="-2.30001">
        <ele>41.599998474121</ele>
        <time>2020-12-20T09:15:01.000Z</time>
      </trkpt>
      <trkpt lat="47.25604" lon="-2.29995">
        <ele>42</ele>
        <time>2020-12-20T09:15:02.000Z</time>
      </trkpt>
      <trkpt lat="47.25601" lon="-2.2999">
        <ele>42.400001525879</ele>
        <time>2020-12-20T09:15:03.000Z</time>
      </trkpt>
      <trkpt lat="47.25597" lon="-2.29985">
        <ele>42.799999237061</ele>
        <time>2020-12-20T09:15:04.000Z</time>
      </trkpt>
      <trkpt lat="47.25588" lon="-2.29971">
        <ele>42.799999237061</ele>
        <time>2020-12-20T09:15:07.000Z</time>
      </trkpt>
      <trkpt lat="47.25583" lon="-2.29962">
        <ele>42.799999237061</ele>
        <time>2020-12-20T09:15:09.000Z</time>
      </trkpt>
      <trkpt lat="47.2557" lon="-2.29943">
        <ele>43.200000762939</ele>
        <time>2020-12-20T09:15:13.000Z</time>
      </trkpt>
      <trkpt lat="47.25567" lon="-2.29938">
        <ele>43.799999237061</ele>
        <time>2020-12-20T09:15:14.000Z</time>
      </trkpt>
      <trkpt lat="47.25564" lon="-2.29933">
        <ele>44.200000762939</ele>
        <time>2020-12-20T09:15:15.000Z</time>
      </trkpt>
      <trkpt lat="47.25561" lon="-2.29928">
        <ele>44.599998474121</ele>
        <time>2020-12-20T09:15:16.000Z</time>
      </trkpt>
      <trkpt lat="47.25558" lon="-2.29923">
        <ele>45</ele>
        <time>2020-12-20T09:15:17.000Z</time>
      </trkpt>
      <trkpt lat="47.25555" lon="-2.29918">
        <ele>45</ele>
        <time>2020-12-20T09:15:18.000Z</time>
      </trkpt>
      <trkpt lat="47.25539" lon="-2.29892">
        <ele>45</ele>
        <time>2020-12-20T09:15:24.000Z</time>
      </trkpt>
      <trkpt lat="47.25536" lon="-2.29882">
        <ele>45</ele>
        <time>2020-12-20T09:15:26.000Z</time>
      </trkpt>
      <trkpt lat="47.25537" lon="-2.29876">
        <ele>45</ele>
        <time>2020-12-20T09:15:27.000Z</time>
      </trkpt>
      <trkpt lat="47.25542" lon="-2.29866">
        <ele>45.400001525879</ele>
        <time>2020-12-20T09:15:29.000Z</time>
      </trkpt>
      <trkpt lat="47.25546" lon="-2.29861">
        <ele>45.799999237061</ele>
        <time>2020-12-20T09:15:30.000Z</time>
      </trkpt>
      <trkpt lat="47.25549" lon="-2.29855">
        <ele>46.200000762939</ele>
        <time>2020-12-20T09:15:31.000Z</time>
      </trkpt>
      <trkpt lat="47.25553" lon="-2.2985">
        <ele>47</ele>
        <time>2020-12-20T09:15:32.000Z</time>
      </trkpt>
      <trkpt lat="47.2557" lon="-2.29827">
        <ele>47</ele>
        <time>2020-12-20T09:15:37.000Z</time>
      </trkpt>
      <trkpt lat="47.25576" lon="-2.2982">
        <ele>46.599998474121</ele>
        <time>2020-12-20T09:15:39.000Z</time>
      </trkpt>
      <trkpt lat="47.25578" lon="-2.29817">
        <ele>46.200000762939</ele>
        <time>2020-12-20T09:15:40.000Z</time>
      </trkpt>
      <trkpt lat="47.2558" lon="-2.29813">
        <ele>45.599998474121</ele>
        <time>2020-12-20T09:15:41.000Z</time>
      </trkpt>
      <trkpt lat="47.2558" lon="-2.2981">
        <ele>45.200000762939</ele>
        <time>2020-12-20T09:15:42.000Z</time>
      </trkpt>
      <trkpt lat="47.2558" lon="-2.29807">
        <ele>44.799999237061</ele>
        <time>2020-12-20T09:15:43.000Z</time>
      </trkpt>
      <trkpt lat="47.25579" lon="-2.29804">
        <ele>44.799999237061</ele>
        <time>2020-12-20T09:15:44.000Z</time>
      </trkpt>
      <trkpt lat="47.25569" lon="-2.29791">
        <ele>44.799999237061</ele>
        <time>2020-12-20T09:15:48.000Z</time>
      </trkpt>
      <trkpt lat="47.2555" lon="-2.29765">
        <ele>44.799999237061</ele>
        <time>2020-12-20T09:15:54.000Z</time>
      </trkpt>
      <trkpt lat="47.2553" lon="-2.29745">
        <ele>44.799999237061</ele>
        <time>2020-12-20T09:16:00.000Z</time>
      </trkpt>
      <trkpt lat="47.25522" lon="-2.29741">
        <ele>45.200000762939</ele>
        <time>2020-12-20T09:16:02.000Z</time>
      </trkpt>
      <trkpt lat="47.25518" lon="-2.29739">
        <ele>45.799999237061</ele>
        <time>2020-12-20T09:16:03.000Z</time>
      </trkpt>
      <trkpt lat="47.25514" lon="-2.29739">
        <ele>46.200000762939</ele>
        <time>2020-12-20T09:16:04.000Z</time>
      </trkpt>
      <trkpt lat="47.2551" lon="-2.29739">
        <ele>46.599998474121</ele>
        <time>2020-12-20T09:16:05.000Z</time>
      </trkpt>
      <trkpt lat="47.25506" lon="-2.2974">
        <ele>47.200000762939</ele>
        <time>2020-12-20T09:16:06.000Z</time>
      </trkpt>
      <trkpt lat="47.25497" lon="-2.29742">
        <ele>47.599998474121</ele>
        <time>2020-12-20T09:16:08.000Z</time>
      </trkpt>
      <trkpt lat="47.25493" lon="-2.29742">
        <ele>48</ele>
        <time>2020-12-20T09:16:09.000Z</time>
      </trkpt>
      <trkpt lat="47.25489" lon="-2.29741">
        <ele>48.400001525879</ele>
        <time>2020-12-20T09:16:10.000Z</time>
      </trkpt>
      <trkpt lat="47.25486" lon="-2.29737">
        <ele>48.799999237061</ele>
        <time>2020-12-20T09:16:11.000Z</time>
      </trkpt>
      <trkpt lat="47.25484" lon="-2.29731">
        <ele>49.200000762939</ele>
        <time>2020-12-20T09:16:12.000Z</time>
      </trkpt>
      <trkpt lat="47.25482" lon="-2.29725">
        <ele>49.200000762939</ele>
        <time>2020-12-20T09:16:13.000Z</time>
      </trkpt>
      <trkpt lat="47.25481" lon="-2.29718">
        <ele>49.200000762939</ele>
        <time>2020-12-20T09:16:14.000Z</time>
      </trkpt>
      <trkpt lat="47.25476" lon="-2.29689">
        <ele>49.200000762939</ele>
        <time>2020-12-20T09:16:18.000Z</time>
      </trkpt>
      <trkpt lat="47.25463" lon="-2.29628">
        <ele>49.599998474121</ele>
        <time>2020-12-20T09:16:26.000Z</time>
      </trkpt>
      <trkpt lat="47.25461" lon="-2.29621">
        <ele>50</ele>
        <time>2020-12-20T09:16:27.000Z</time>
      </trkpt>
      <trkpt lat="47.25459" lon="-2.29614">
        <ele>50.400001525879</ele>
        <time>2020-12-20T09:16:28.000Z</time>
      </trkpt>
      <trkpt lat="47.25457" lon="-2.29607">
        <ele>50.799999237061</ele>
        <time>2020-12-20T09:16:29.000Z</time>
      </trkpt>
      <trkpt lat="47.25454" lon="-2.296">
        <ele>51.200000762939</ele>
        <time>2020-12-20T09:16:30.000Z</time>
      </trkpt>
      <trkpt lat="47.25444" lon="-2.2957">
        <ele>51.200000762939</ele>
        <time>2020-12-20T09:16:34.000Z</time>
      </trkpt>
      <trkpt lat="47.25434" lon="-2.29531">
        <ele>51.200000762939</ele>
        <time>2020-12-20T09:16:39.000Z</time>
      </trkpt>
      <trkpt lat="47.25433" lon="-2.29523">
        <ele>51.200000762939</ele>
        <time>2020-12-20T09:16:40.000Z</time>
      </trkpt>
      <trkpt lat="47.2543" lon="-2.29473">
        <ele>51.200000762939</ele>
        <time>2020-12-20T09:16:46.000Z</time>
      </trkpt>
      <trkpt lat="47.25429" lon="-2.29424">
        <ele>51.200000762939</ele>
        <time>2020-12-20T09:16:52.000Z</time>
      </trkpt>
      <trkpt lat="47.25429" lon="-2.29359">
        <ele>51.200000762939</ele>
        <time>2020-12-20T09:17:00.000Z</time>
      </trkpt>
      <trkpt lat="47.25429" lon="-2.29334">
        <ele>51.200000762939</ele>
        <time>2020-12-20T09:17:03.000Z</time>
      </trkpt>
      <trkpt lat="47.25428" lon="-2.29309">
        <ele>51.200000762939</ele>
        <time>2020-12-20T09:17:06.000Z</time>
      </trkpt>
      <trkpt lat="47.25428" lon="-2.29244">
        <ele>51.599998474121</ele>
        <time>2020-12-20T09:17:14.000Z</time>
      </trkpt>
      <trkpt lat="47.25427" lon="-2.29236">
        <ele>52</ele>
        <time>2020-12-20T09:17:15.000Z</time>
      </trkpt>
      <trkpt lat="47.25427" lon="-2.29228">
        <ele>52.400001525879</ele>
        <time>2020-12-20T09:17:16.000Z</time>
      </trkpt>
      <trkpt lat="47.25427" lon="-2.2922">
        <ele>52.799999237061</ele>
        <time>2020-12-20T09:17:17.000Z</time>
      </trkpt>
      <trkpt lat="47.25427" lon="-2.29213">
        <ele>53.200000762939</ele>
        <time>2020-12-20T09:17:18.000Z</time>
      </trkpt>
      <trkpt lat="47.25429" lon="-2.2919">
        <ele>53.200000762939</ele>
        <time>2020-12-20T09:17:21.000Z</time>
      </trkpt>
      <trkpt lat="47.25431" lon="-2.29182">
        <ele>53.200000762939</ele>
        <time>2020-12-20T09:17:22.000Z</time>
      </trkpt>
      <trkpt lat="47.25444" lon="-2.29159">
        <ele>53.200000762939</ele>
        <time>2020-12-20T09:17:26.000Z</time>
      </trkpt>
      <trkpt lat="47.25448" lon="-2.29154">
        <ele>53.200000762939</ele>
        <time>2020-12-20T09:17:27.000Z</time>
      </trkpt>
      <trkpt lat="47.2548" lon="-2.29127">
        <ele>53.200000762939</ele>
        <time>2020-12-20T09:17:33.000Z</time>
      </trkpt>
      <trkpt lat="47.25498" lon="-2.2912">
        <ele>53.200000762939</ele>
        <time>2020-12-20T09:17:36.000Z</time>
      </trkpt>
      <trkpt lat="47.25511" lon="-2.29116">
        <ele>53.200000762939</ele>
        <time>2020-12-20T09:17:38.000Z</time>
      </trkpt>
      <trkpt lat="47.25529" lon="-2.2911">
        <ele>53.200000762939</ele>
        <time>2020-12-20T09:17:41.000Z</time>
      </trkpt>
      <trkpt lat="47.25534" lon="-2.29106">
        <ele>52.799999237061</ele>
        <time>2020-12-20T09:17:42.000Z</time>
      </trkpt>
      <trkpt lat="47.25539" lon="-2.291">
        <ele>52.400001525879</ele>
        <time>2020-12-20T09:17:43.000Z</time>
      </trkpt>
      <trkpt lat="47.25542" lon="-2.29093">
        <ele>52</ele>
        <time>2020-12-20T09:17:44.000Z</time>
      </trkpt>
      <trkpt lat="47.25544" lon="-2.29086">
        <ele>51.599998474121</ele>
        <time>2020-12-20T09:17:45.000Z</time>
      </trkpt>
      <trkpt lat="47.25545" lon="-2.29077">
        <ele>51.200000762939</ele>
        <time>2020-12-20T09:17:46.000Z</time>
      </trkpt>
      <trkpt lat="47.25545" lon="-2.2907">
        <ele>51.200000762939</ele>
        <time>2020-12-20T09:17:47.000Z</time>
      </trkpt>
      <trkpt lat="47.25544" lon="-2.29054">
        <ele>51.200000762939</ele>
        <time>2020-12-20T09:17:49.000Z</time>
      </trkpt>
      <trkpt lat="47.25543" lon="-2.29047">
        <ele>51.200000762939</ele>
        <time>2020-12-20T09:17:50.000Z</time>
      </trkpt>
      <trkpt lat="47.25541" lon="-2.29033">
        <ele>51.200000762939</ele>
        <time>2020-12-20T09:17:52.000Z</time>
      </trkpt>
      <trkpt lat="47.25542" lon="-2.2902">
        <ele>51.200000762939</ele>
        <time>2020-12-20T09:17:54.000Z</time>
      </trkpt>
      <trkpt lat="47.2555" lon="-2.29004">
        <ele>51.200000762939</ele>
        <time>2020-12-20T09:17:57.000Z</time>
      </trkpt>
      <trkpt lat="47.25558" lon="-2.28996">
        <ele>51.200000762939</ele>
        <time>2020-12-20T09:17:59.000Z</time>
      </trkpt>
      <trkpt lat="47.25563" lon="-2.28993">
        <ele>51.200000762939</ele>
        <time>2020-12-20T09:18:00.000Z</time>
      </trkpt>
      <trkpt lat="47.25574" lon="-2.28987">
        <ele>51.200000762939</ele>
        <time>2020-12-20T09:18:02.000Z</time>
      </trkpt>
      <trkpt lat="47.2558" lon="-2.28983">
        <ele>51.200000762939</ele>
        <time>2020-12-20T09:18:03.000Z</time>
      </trkpt>
      <trkpt lat="47.25587" lon="-2.28969">
        <ele>51.200000762939</ele>
        <time>2020-12-20T09:18:05.000Z</time>
      </trkpt>
      <trkpt lat="47.25587" lon="-2.28945">
        <ele>51.200000762939</ele>
        <time>2020-12-20T09:18:08.000Z</time>
      </trkpt>
      <trkpt lat="47.25584" lon="-2.28928">
        <ele>51.200000762939</ele>
        <time>2020-12-20T09:18:10.000Z</time>
      </trkpt>
      <trkpt lat="47.2558" lon="-2.28904">
        <ele>51.200000762939</ele>
        <time>2020-12-20T09:18:13.000Z</time>
      </trkpt>
      <trkpt lat="47.25579" lon="-2.28896">
        <ele>51.200000762939</ele>
        <time>2020-12-20T09:18:14.000Z</time>
      </trkpt>
      <trkpt lat="47.25576" lon="-2.28882">
        <ele>51.200000762939</ele>
        <time>2020-12-20T09:18:16.000Z</time>
      </trkpt>
      <trkpt lat="47.2557" lon="-2.28861">
        <ele>51.200000762939</ele>
        <time>2020-12-20T09:18:19.000Z</time>
      </trkpt>
      <trkpt lat="47.25567" lon="-2.28846">
        <ele>51.200000762939</ele>
        <time>2020-12-20T09:18:21.000Z</time>
      </trkpt>
      <trkpt lat="47.25559" lon="-2.28825">
        <ele>51.200000762939</ele>
        <time>2020-12-20T09:18:24.000Z</time>
      </trkpt>
      <trkpt lat="47.25544" lon="-2.28774">
        <ele>51.200000762939</ele>
        <time>2020-12-20T09:18:31.000Z</time>
      </trkpt>
      <trkpt lat="47.25536" lon="-2.28725">
        <ele>51.200000762939</ele>
        <time>2020-12-20T09:18:38.000Z</time>
      </trkpt>
      <trkpt lat="47.25534" lon="-2.28711">
        <ele>51.200000762939</ele>
        <time>2020-12-20T09:18:40.000Z</time>
      </trkpt>
      <trkpt lat="47.25527" lon="-2.28682">
        <ele>51.200000762939</ele>
        <time>2020-12-20T09:18:44.000Z</time>
      </trkpt>
      <trkpt lat="47.25521" lon="-2.28629">
        <ele>51.200000762939</ele>
        <time>2020-12-20T09:18:51.000Z</time>
      </trkpt>
      <trkpt lat="47.25519" lon="-2.28596">
        <ele>51.599998474121</ele>
        <time>2020-12-20T09:18:55.000Z</time>
      </trkpt>
      <trkpt lat="47.25519" lon="-2.28588">
        <ele>52.200000762939</ele>
        <time>2020-12-20T09:18:56.000Z</time>
      </trkpt>
      <trkpt lat="47.25518" lon="-2.2858">
        <ele>52.599998474121</ele>
        <time>2020-12-20T09:18:57.000Z</time>
      </trkpt>
      <trkpt lat="47.25518" lon="-2.28572">
        <ele>53</ele>
        <time>2020-12-20T09:18:58.000Z</time>
      </trkpt>
      <trkpt lat="47.25517" lon="-2.28564">
        <ele>53.400001525879</ele>
        <time>2020-12-20T09:18:59.000Z</time>
      </trkpt>
      <trkpt lat="47.25515" lon="-2.28515">
        <ele>53.400001525879</ele>
        <time>2020-12-20T09:19:05.000Z</time>
      </trkpt>
      <trkpt lat="47.25516" lon="-2.28465">
        <ele>53.400001525879</ele>
        <time>2020-12-20T09:19:11.000Z</time>
      </trkpt>
      <trkpt lat="47.2552" lon="-2.28413">
        <ele>53.400001525879</ele>
        <time>2020-12-20T09:19:17.000Z</time>
      </trkpt>
      <trkpt lat="47.2552" lon="-2.28397">
        <ele>53.799999237061</ele>
        <time>2020-12-20T09:19:19.000Z</time>
      </trkpt>
      <trkpt lat="47.2552" lon="-2.2839">
        <ele>54.200000762939</ele>
        <time>2020-12-20T09:19:20.000Z</time>
      </trkpt>
      <trkpt lat="47.25519" lon="-2.28383">
        <ele>54.599998474121</ele>
        <time>2020-12-20T09:19:21.000Z</time>
      </trkpt>
      <trkpt lat="47.25518" lon="-2.28377">
        <ele>55</ele>
        <time>2020-12-20T09:19:22.000Z</time>
      </trkpt>
      <trkpt lat="47.25517" lon="-2.28372">
        <ele>55.400001525879</ele>
        <time>2020-12-20T09:19:23.000Z</time>
      </trkpt>
      <trkpt lat="47.2551" lon="-2.28363">
        <ele>55.400001525879</ele>
        <time>2020-12-20T09:19:26.000Z</time>
      </trkpt>
      <trkpt lat="47.25498" lon="-2.28361">
        <ele>55.400001525879</ele>
        <time>2020-12-20T09:19:30.000Z</time>
      </trkpt>
      <trkpt lat="47.25476" lon="-2.28368">
        <ele>55.400001525879</ele>
        <time>2020-12-20T09:19:35.000Z</time>
      </trkpt>
      <trkpt lat="47.25448" lon="-2.28382">
        <ele>55.400001525879</ele>
        <time>2020-12-20T09:19:41.000Z</time>
      </trkpt>
      <trkpt lat="47.25416" lon="-2.28405">
        <ele>55.400001525879</ele>
        <time>2020-12-20T09:19:48.000Z</time>
      </trkpt>
      <trkpt lat="47.25387" lon="-2.28428">
        <ele>55.400001525879</ele>
        <time>2020-12-20T09:19:54.000Z</time>
      </trkpt>
      <trkpt lat="47.25342" lon="-2.28463">
        <ele>55.400001525879</ele>
        <time>2020-12-20T09:20:03.000Z</time>
      </trkpt>
      <trkpt lat="47.25338" lon="-2.28467">
        <ele>55.400001525879</ele>
        <time>2020-12-20T09:20:04.000Z</time>
      </trkpt>
      <trkpt lat="47.25319" lon="-2.28485">
        <ele>55.400001525879</ele>
        <time>2020-12-20T09:20:08.000Z</time>
      </trkpt>
      <trkpt lat="47.25287" lon="-2.2852">
        <ele>55.400001525879</ele>
        <time>2020-12-20T09:20:15.000Z</time>
      </trkpt>
      <trkpt lat="47.25254" lon="-2.28563">
        <ele>55.400001525879</ele>
        <time>2020-12-20T09:20:22.000Z</time>
      </trkpt>
      <trkpt lat="47.25221" lon="-2.28606">
        <ele>55</ele>
        <time>2020-12-20T09:20:29.000Z</time>
      </trkpt>
      <trkpt lat="47.25216" lon="-2.28612">
        <ele>54.599998474121</ele>
        <time>2020-12-20T09:20:30.000Z</time>
      </trkpt>
      <trkpt lat="47.25212" lon="-2.28617">
        <ele>54.200000762939</ele>
        <time>2020-12-20T09:20:31.000Z</time>
      </trkpt>
      <trkpt lat="47.25206" lon="-2.28622">
        <ele>53.799999237061</ele>
        <time>2020-12-20T09:20:32.000Z</time>
      </trkpt>
      <trkpt lat="47.25201" lon="-2.28628">
        <ele>53.400001525879</ele>
        <time>2020-12-20T09:20:33.000Z</time>
      </trkpt>
      <trkpt lat="47.25184" lon="-2.28642">
        <ele>53.400001525879</ele>
        <time>2020-12-20T09:20:36.000Z</time>
      </trkpt>
      <trkpt lat="47.25151" lon="-2.28661">
        <ele>53</ele>
        <time>2020-12-20T09:20:41.000Z</time>
      </trkpt>
      <trkpt lat="47.25144" lon="-2.28665">
        <ele>52.599998474121</ele>
        <time>2020-12-20T09:20:42.000Z</time>
      </trkpt>
      <trkpt lat="47.25138" lon="-2.28668">
        <ele>52.200000762939</ele>
        <time>2020-12-20T09:20:43.000Z</time>
      </trkpt>
      <trkpt lat="47.25131" lon="-2.28672">
        <ele>51.799999237061</ele>
        <time>2020-12-20T09:20:44.000Z</time>
      </trkpt>
      <trkpt lat="47.25124" lon="-2.28675">
        <ele>51.400001525879</ele>
        <time>2020-12-20T09:20:45.000Z</time>
      </trkpt>
      <trkpt lat="47.25085" lon="-2.28699">
        <ele>51.400001525879</ele>
        <time>2020-12-20T09:20:51.000Z</time>
      </trkpt>
      <trkpt lat="47.25079" lon="-2.28704">
        <ele>50.799999237061</ele>
        <time>2020-12-20T09:20:52.000Z</time>
      </trkpt>
      <trkpt lat="47.25073" lon="-2.28709">
        <ele>50.400001525879</ele>
        <time>2020-12-20T09:20:53.000Z</time>
      </trkpt>
      <trkpt lat="47.25067" lon="-2.28714">
        <ele>50</ele>
        <time>2020-12-20T09:20:54.000Z</time>
      </trkpt>
      <trkpt lat="47.25062" lon="-2.28719">
        <ele>49.599998474121</ele>
        <time>2020-12-20T09:20:55.000Z</time>
      </trkpt>
      <trkpt lat="47.25056" lon="-2.28724">
        <ele>49.200000762939</ele>
        <time>2020-12-20T09:20:56.000Z</time>
      </trkpt>
      <trkpt lat="47.25028" lon="-2.28759">
        <ele>49.200000762939</ele>
        <time>2020-12-20T09:21:02.000Z</time>
      </trkpt>
      <trkpt lat="47.25001" lon="-2.2879">
        <ele>49.200000762939</ele>
        <time>2020-12-20T09:21:08.000Z</time>
      </trkpt>
      <trkpt lat="47.24986" lon="-2.28807">
        <ele>49.200000762939</ele>
        <time>2020-12-20T09:21:13.000Z</time>
      </trkpt>
      <trkpt lat="47.24977" lon="-2.28811">
        <ele>49.200000762939</ele>
        <time>2020-12-20T09:21:18.000Z</time>
      </trkpt>
      <trkpt lat="47.24976" lon="-2.28811">
        <ele>49.200000762939</ele>
        <time>2020-12-20T09:21:20.000Z</time>
      </trkpt>
      <trkpt lat="47.24978" lon="-2.28812">
        <ele>49.200000762939</ele>
        <time>2020-12-20T09:22:18.000Z</time>
      </trkpt>
      <trkpt lat="47.24979" lon="-2.28812">
        <ele>49.200000762939</ele>
        <time>2020-12-20T09:22:19.000Z</time>
      </trkpt>
      <trkpt lat="47.24987" lon="-2.28803">
        <ele>49.200000762939</ele>
        <time>2020-12-20T09:22:23.000Z</time>
      </trkpt>
      <trkpt lat="47.24994" lon="-2.28796">
        <ele>49.200000762939</ele>
        <time>2020-12-20T09:22:25.000Z</time>
      </trkpt>
      <trkpt lat="47.25001" lon="-2.28788">
        <ele>49.200000762939</ele>
        <time>2020-12-20T09:22:27.000Z</time>
      </trkpt>
      <trkpt lat="47.25025" lon="-2.2876">
        <ele>49.200000762939</ele>
        <time>2020-12-20T09:22:33.000Z</time>
      </trkpt>
      <trkpt lat="47.25055" lon="-2.28725">
        <ele>49.200000762939</ele>
        <time>2020-12-20T09:22:40.000Z</time>
      </trkpt>
      <trkpt lat="47.25082" lon="-2.28701">
        <ele>49.200000762939</ele>
        <time>2020-12-20T09:22:46.000Z</time>
      </trkpt>
      <trkpt lat="47.25085" lon="-2.28695">
        <ele>49.200000762939</ele>
        <time>2020-12-20T09:22:47.000Z</time>
      </trkpt>
      <trkpt lat="47.25088" lon="-2.28682">
        <ele>49.200000762939</ele>
        <time>2020-12-20T09:22:49.000Z</time>
      </trkpt>
      <trkpt lat="47.25085" lon="-2.28662">
        <ele>49.200000762939</ele>
        <time>2020-12-20T09:22:52.000Z</time>
      </trkpt>
      <trkpt lat="47.25083" lon="-2.28655">
        <ele>49.200000762939</ele>
        <time>2020-12-20T09:22:53.000Z</time>
      </trkpt>
      <trkpt lat="47.25069" lon="-2.28595">
        <ele>49.200000762939</ele>
        <time>2020-12-20T09:23:01.000Z</time>
      </trkpt>
      <trkpt lat="47.25057" lon="-2.28527">
        <ele>49.200000762939</ele>
        <time>2020-12-20T09:23:09.000Z</time>
      </trkpt>
      <trkpt lat="47.25056" lon="-2.28509">
        <ele>49.200000762939</ele>
        <time>2020-12-20T09:23:11.000Z</time>
      </trkpt>
      <trkpt lat="47.25056" lon="-2.28482">
        <ele>49.200000762939</ele>
        <time>2020-12-20T09:23:14.000Z</time>
      </trkpt>
      <trkpt lat="47.25054" lon="-2.28409">
        <ele>48.799999237061</ele>
        <time>2020-12-20T09:23:22.000Z</time>
      </trkpt>
      <trkpt lat="47.25053" lon="-2.284">
        <ele>48.200000762939</ele>
        <time>2020-12-20T09:23:23.000Z</time>
      </trkpt>
      <trkpt lat="47.25052" lon="-2.28392">
        <ele>47.799999237061</ele>
        <time>2020-12-20T09:23:24.000Z</time>
      </trkpt>
      <trkpt lat="47.25051" lon="-2.28383">
        <ele>47.400001525879</ele>
        <time>2020-12-20T09:23:25.000Z</time>
      </trkpt>
      <trkpt lat="47.2505" lon="-2.28374">
        <ele>47</ele>
        <time>2020-12-20T09:23:26.000Z</time>
      </trkpt>
      <trkpt lat="47.25046" lon="-2.28357">
        <ele>47</ele>
        <time>2020-12-20T09:23:28.000Z</time>
      </trkpt>
      <trkpt lat="47.25032" lon="-2.28321">
        <ele>47</ele>
        <time>2020-12-20T09:23:33.000Z</time>
      </trkpt>
      <trkpt lat="47.25029" lon="-2.28285">
        <ele>47</ele>
        <time>2020-12-20T09:23:38.000Z</time>
      </trkpt>
      <trkpt lat="47.25033" lon="-2.28261">
        <ele>47</ele>
        <time>2020-12-20T09:23:41.000Z</time>
      </trkpt>
      <trkpt lat="47.25036" lon="-2.28244">
        <ele>47</ele>
        <time>2020-12-20T09:23:43.000Z</time>
      </trkpt>
      <trkpt lat="47.2505" lon="-2.28187">
        <ele>47</ele>
        <time>2020-12-20T09:23:50.000Z</time>
      </trkpt>
      <trkpt lat="47.25064" lon="-2.28141">
        <ele>47</ele>
        <time>2020-12-20T09:23:56.000Z</time>
      </trkpt>
      <trkpt lat="47.25071" lon="-2.28118">
        <ele>47</ele>
        <time>2020-12-20T09:23:59.000Z</time>
      </trkpt>
      <trkpt lat="47.25076" lon="-2.28096">
        <ele>47</ele>
        <time>2020-12-20T09:24:02.000Z</time>
      </trkpt>
      <trkpt lat="47.25094" lon="-2.28052">
        <ele>47</ele>
        <time>2020-12-20T09:24:05.000Z</time>
      </trkpt>
      <trkpt lat="47.25097" lon="-2.28044">
        <ele>47</ele>
        <time>2020-12-20T09:24:09.000Z</time>
      </trkpt>
      <trkpt lat="47.25114" lon="-2.28003">
        <ele>47</ele>
        <time>2020-12-20T09:24:15.000Z</time>
      </trkpt>
      <trkpt lat="47.25137" lon="-2.27962">
        <ele>47</ele>
        <time>2020-12-20T09:24:22.000Z</time>
      </trkpt>
      <trkpt lat="47.25141" lon="-2.27957">
        <ele>47.400001525879</ele>
        <time>2020-12-20T09:24:23.000Z</time>
      </trkpt>
      <trkpt lat="47.25146" lon="-2.27954">
        <ele>47.799999237061</ele>
        <time>2020-12-20T09:24:24.000Z</time>
      </trkpt>
      <trkpt lat="47.25151" lon="-2.2795">
        <ele>48.200000762939</ele>
        <time>2020-12-20T09:24:25.000Z</time>
      </trkpt>
      <trkpt lat="47.25157" lon="-2.27946">
        <ele>48.799999237061</ele>
        <time>2020-12-20T09:24:26.000Z</time>
      </trkpt>
      <trkpt lat="47.25162" lon="-2.27943">
        <ele>49.200000762939</ele>
        <time>2020-12-20T09:24:27.000Z</time>
      </trkpt>
      <trkpt lat="47.25198" lon="-2.27915">
        <ele>49.200000762939</ele>
        <time>2020-12-20T09:24:34.000Z</time>
      </trkpt>
      <trkpt lat="47.25203" lon="-2.27912">
        <ele>49.200000762939</ele>
        <time>2020-12-20T09:24:35.000Z</time>
      </trkpt>
      <trkpt lat="47.25228" lon="-2.27899">
        <ele>49.200000762939</ele>
        <time>2020-12-20T09:24:40.000Z</time>
      </trkpt>
      <trkpt lat="47.25237" lon="-2.27892">
        <ele>49.599998474121</ele>
        <time>2020-12-20T09:24:42.000Z</time>
      </trkpt>
      <trkpt lat="47.25242" lon="-2.27889">
        <ele>50</ele>
        <time>2020-12-20T09:24:43.000Z</time>
      </trkpt>
      <trkpt lat="47.25247" lon="-2.27886">
        <ele>50.400001525879</ele>
        <time>2020-12-20T09:24:44.000Z</time>
      </trkpt>
      <trkpt lat="47.25252" lon="-2.27883">
        <ele>50.799999237061</ele>
        <time>2020-12-20T09:24:45.000Z</time>
      </trkpt>
      <trkpt lat="47.25258" lon="-2.2788">
        <ele>51.200000762939</ele>
        <time>2020-12-20T09:24:46.000Z</time>
      </trkpt>
      <trkpt lat="47.25268" lon="-2.27876">
        <ele>51.200000762939</ele>
        <time>2020-12-20T09:24:48.000Z</time>
      </trkpt>
      <trkpt lat="47.25285" lon="-2.27872">
        <ele>51.200000762939</ele>
        <time>2020-12-20T09:24:51.000Z</time>
      </trkpt>
      <trkpt lat="47.25323" lon="-2.27866">
        <ele>51.200000762939</ele>
        <time>2020-12-20T09:24:58.000Z</time>
      </trkpt>
      <trkpt lat="47.25339" lon="-2.27862">
        <ele>51.599998474121</ele>
        <time>2020-12-20T09:25:01.000Z</time>
      </trkpt>
      <trkpt lat="47.25344" lon="-2.27862">
        <ele>52.200000762939</ele>
        <time>2020-12-20T09:25:02.000Z</time>
      </trkpt>
      <trkpt lat="47.2535" lon="-2.27861">
        <ele>52.599998474121</ele>
        <time>2020-12-20T09:25:03.000Z</time>
      </trkpt>
      <trkpt lat="47.25355" lon="-2.2786">
        <ele>53</ele>
        <time>2020-12-20T09:25:04.000Z</time>
      </trkpt>
      <trkpt lat="47.25361" lon="-2.27858">
        <ele>53.400001525879</ele>
        <time>2020-12-20T09:25:05.000Z</time>
      </trkpt>
      <trkpt lat="47.25388" lon="-2.2785">
        <ele>53.400001525879</ele>
        <time>2020-12-20T09:25:10.000Z</time>
      </trkpt>
      <trkpt lat="47.25425" lon="-2.27831">
        <ele>53.400001525879</ele>
        <time>2020-12-20T09:25:17.000Z</time>
      </trkpt>
      <trkpt lat="47.2543" lon="-2.27826">
        <ele>53.400001525879</ele>
        <time>2020-12-20T09:25:18.000Z</time>
      </trkpt>
      <trkpt lat="47.2545" lon="-2.27807">
        <ele>53.400001525879</ele>
        <time>2020-12-20T09:25:22.000Z</time>
      </trkpt>
      <trkpt lat="47.25462" lon="-2.27792">
        <ele>53.799999237061</ele>
        <time>2020-12-20T09:25:25.000Z</time>
      </trkpt>
      <trkpt lat="47.25466" lon="-2.27788">
        <ele>54.200000762939</ele>
        <time>2020-12-20T09:25:26.000Z</time>
      </trkpt>
      <trkpt lat="47.25469" lon="-2.27783">
        <ele>54.599998474121</ele>
        <time>2020-12-20T09:25:27.000Z</time>
      </trkpt>
      <trkpt lat="47.25472" lon="-2.27779">
        <ele>55</ele>
        <time>2020-12-20T09:25:28.000Z</time>
      </trkpt>
      <trkpt lat="47.25476" lon="-2.27775">
        <ele>55.400001525879</ele>
        <time>2020-12-20T09:25:29.000Z</time>
      </trkpt>
      <trkpt lat="47.2549" lon="-2.27758">
        <ele>55.400001525879</ele>
        <time>2020-12-20T09:25:34.000Z</time>
      </trkpt>
      <trkpt lat="47.255" lon="-2.27754">
        <ele>55.400001525879</ele>
        <time>2020-12-20T09:25:37.000Z</time>
      </trkpt>
      <trkpt lat="47.25504" lon="-2.27756">
        <ele>55.400001525879</ele>
        <time>2020-12-20T09:25:38.000Z</time>
      </trkpt>
      <trkpt lat="47.25516" lon="-2.27766">
        <ele>55.799999237061</ele>
        <time>2020-12-20T09:25:41.000Z</time>
      </trkpt>
      <trkpt lat="47.25519" lon="-2.27771">
        <ele>56.200000762939</ele>
        <time>2020-12-20T09:25:42.000Z</time>
      </trkpt>
      <trkpt lat="47.25523" lon="-2.27776">
        <ele>56.599998474121</ele>
        <time>2020-12-20T09:25:43.000Z</time>
      </trkpt>
      <trkpt lat="47.25526" lon="-2.27782">
        <ele>57</ele>
        <time>2020-12-20T09:25:44.000Z</time>
      </trkpt>
      <trkpt lat="47.2553" lon="-2.27787">
        <ele>57.400001525879</ele>
        <time>2020-12-20T09:25:45.000Z</time>
      </trkpt>
      <trkpt lat="47.25548" lon="-2.27817">
        <ele>57.400001525879</ele>
        <time>2020-12-20T09:25:50.000Z</time>
      </trkpt>
      <trkpt lat="47.25561" lon="-2.27835">
        <ele>57.799999237061</ele>
        <time>2020-12-20T09:25:53.000Z</time>
      </trkpt>
      <trkpt lat="47.25566" lon="-2.27841">
        <ele>58.200000762939</ele>
        <time>2020-12-20T09:25:54.000Z</time>
      </trkpt>
      <trkpt lat="47.2557" lon="-2.27846">
        <ele>58.599998474121</ele>
        <time>2020-12-20T09:25:55.000Z</time>
      </trkpt>
      <trkpt lat="47.25574" lon="-2.27852">
        <ele>59</ele>
        <time>2020-12-20T09:25:56.000Z</time>
      </trkpt>
      <trkpt lat="47.25579" lon="-2.27857">
        <ele>59.400001525879</ele>
        <time>2020-12-20T09:25:57.000Z</time>
      </trkpt>
      <trkpt lat="47.25588" lon="-2.27866">
        <ele>59.400001525879</ele>
        <time>2020-12-20T09:25:59.000Z</time>
      </trkpt>
      <trkpt lat="47.25629" lon="-2.27906">
        <ele>59.400001525879</ele>
        <time>2020-12-20T09:26:08.000Z</time>
      </trkpt>
      <trkpt lat="47.25643" lon="-2.2792">
        <ele>59.400001525879</ele>
        <time>2020-12-20T09:26:11.000Z</time>
      </trkpt>
      <trkpt lat="47.25651" lon="-2.27931">
        <ele>60.200000762939</ele>
        <time>2020-12-20T09:26:13.000Z</time>
      </trkpt>
      <trkpt lat="47.25655" lon="-2.27936">
        <ele>60.599998474121</ele>
        <time>2020-12-20T09:26:14.000Z</time>
      </trkpt>
      <trkpt lat="47.25658" lon="-2.27942">
        <ele>61</ele>
        <time>2020-12-20T09:26:15.000Z</time>
      </trkpt>
      <trkpt lat="47.25661" lon="-2.27948">
        <ele>61.400001525879</ele>
        <time>2020-12-20T09:26:16.000Z</time>
      </trkpt>
      <trkpt lat="47.25673" lon="-2.27974">
        <ele>61.400001525879</ele>
        <time>2020-12-20T09:26:20.000Z</time>
      </trkpt>
      <trkpt lat="47.25682" lon="-2.27989">
        <ele>61.400001525879</ele>
        <time>2020-12-20T09:26:24.000Z</time>
      </trkpt>
      <trkpt lat="47.25696" lon="-2.28002">
        <ele>61.400001525879</ele>
        <time>2020-12-20T09:26:29.000Z</time>
      </trkpt>
      <trkpt lat="47.25715" lon="-2.28024">
        <ele>61.400001525879</ele>
        <time>2020-12-20T09:26:34.000Z</time>
      </trkpt>
      <trkpt lat="47.2572" lon="-2.2803">
        <ele>61.400001525879</ele>
        <time>2020-12-20T09:26:35.000Z</time>
      </trkpt>
      <trkpt lat="47.25748" lon="-2.2806">
        <ele>61.400001525879</ele>
        <time>2020-12-20T09:26:41.000Z</time>
      </trkpt>
      <trkpt lat="47.25787" lon="-2.28094">
        <ele>61.400001525879</ele>
        <time>2020-12-20T09:26:48.000Z</time>
      </trkpt>
      <trkpt lat="47.25818" lon="-2.28122">
        <ele>61.400001525879</ele>
        <time>2020-12-20T09:26:54.000Z</time>
      </trkpt>
      <trkpt lat="47.25852" lon="-2.28154">
        <ele>61.400001525879</ele>
        <time>2020-12-20T09:27:02.000Z</time>
      </trkpt>
      <trkpt lat="47.25879" lon="-2.28178">
        <ele>61.400001525879</ele>
        <time>2020-12-20T09:27:08.000Z</time>
      </trkpt>
      <trkpt lat="47.25884" lon="-2.2818">
        <ele>61.400001525879</ele>
        <time>2020-12-20T09:27:09.000Z</time>
      </trkpt>
      <trkpt lat="47.25908" lon="-2.28184">
        <ele>61.400001525879</ele>
        <time>2020-12-20T09:27:14.000Z</time>
      </trkpt>
      <trkpt lat="47.25916" lon="-2.28185">
        <ele>61.400001525879</ele>
        <time>2020-12-20T09:27:16.000Z</time>
      </trkpt>
      <trkpt lat="47.25929" lon="-2.28179">
        <ele>61.400001525879</ele>
        <time>2020-12-20T09:27:19.000Z</time>
      </trkpt>
      <trkpt lat="47.25932" lon="-2.28177">
        <ele>61.400001525879</ele>
        <time>2020-12-20T09:27:20.000Z</time>
      </trkpt>
      <trkpt lat="47.25945" lon="-2.28176">
        <ele>61.400001525879</ele>
        <time>2020-12-20T09:27:23.000Z</time>
      </trkpt>
      <trkpt lat="47.2595" lon="-2.28178">
        <ele>61.400001525879</ele>
        <time>2020-12-20T09:27:24.000Z</time>
      </trkpt>
      <trkpt lat="47.25962" lon="-2.28189">
        <ele>61.799999237061</ele>
        <time>2020-12-20T09:27:27.000Z</time>
      </trkpt>
      <trkpt lat="47.25965" lon="-2.28195">
        <ele>62.200000762939</ele>
        <time>2020-12-20T09:27:28.000Z</time>
      </trkpt>
      <trkpt lat="47.25967" lon="-2.28201">
        <ele>62.799999237061</ele>
        <time>2020-12-20T09:27:29.000Z</time>
      </trkpt>
      <trkpt lat="47.25969" lon="-2.28207">
        <ele>63.200000762939</ele>
        <time>2020-12-20T09:27:30.000Z</time>
      </trkpt>
      <trkpt lat="47.25971" lon="-2.28214">
        <ele>63.599998474121</ele>
        <time>2020-12-20T09:27:31.000Z</time>
      </trkpt>
      <trkpt lat="47.25976" lon="-2.28227">
        <ele>63.599998474121</ele>
        <time>2020-12-20T09:27:33.000Z</time>
      </trkpt>
      <trkpt lat="47.25994" lon="-2.28242">
        <ele>63.599998474121</ele>
        <time>2020-12-20T09:27:37.000Z</time>
      </trkpt>
      <trkpt lat="47.26011" lon="-2.28248">
        <ele>63.599998474121</ele>
        <time>2020-12-20T09:27:40.000Z</time>
      </trkpt>
      <trkpt lat="47.26017" lon="-2.28251">
        <ele>63.599998474121</ele>
        <time>2020-12-20T09:27:41.000Z</time>
      </trkpt>
      <trkpt lat="47.26052" lon="-2.28274">
        <ele>63.599998474121</ele>
        <time>2020-12-20T09:27:47.000Z</time>
      </trkpt>
      <trkpt lat="47.26088" lon="-2.28306">
        <ele>63.599998474121</ele>
        <time>2020-12-20T09:27:53.000Z</time>
      </trkpt>
      <trkpt lat="47.2613" lon="-2.28347">
        <ele>63.599998474121</ele>
        <time>2020-12-20T09:28:00.000Z</time>
      </trkpt>
      <trkpt lat="47.26165" lon="-2.28382">
        <ele>63</ele>
        <time>2020-12-20T09:28:06.000Z</time>
      </trkpt>
      <trkpt lat="47.26171" lon="-2.28387">
        <ele>62.599998474121</ele>
        <time>2020-12-20T09:28:07.000Z</time>
      </trkpt>
      <trkpt lat="47.26176" lon="-2.28393">
        <ele>62.200000762939</ele>
        <time>2020-12-20T09:28:08.000Z</time>
      </trkpt>
      <trkpt lat="47.26182" lon="-2.28399">
        <ele>61.799999237061</ele>
        <time>2020-12-20T09:28:09.000Z</time>
      </trkpt>
      <trkpt lat="47.26188" lon="-2.28405">
        <ele>61.400001525879</ele>
        <time>2020-12-20T09:28:10.000Z</time>
      </trkpt>
      <trkpt lat="47.26218" lon="-2.28432">
        <ele>61.400001525879</ele>
        <time>2020-12-20T09:28:15.000Z</time>
      </trkpt>
      <trkpt lat="47.2627" lon="-2.28467">
        <ele>61.400001525879</ele>
        <time>2020-12-20T09:28:23.000Z</time>
      </trkpt>
      <trkpt lat="47.26313" lon="-2.28496">
        <ele>61.400001525879</ele>
        <time>2020-12-20T09:28:30.000Z</time>
      </trkpt>
      <trkpt lat="47.26335" lon="-2.28516">
        <ele>61</ele>
        <time>2020-12-20T09:28:34.000Z</time>
      </trkpt>
      <trkpt lat="47.2634" lon="-2.2852">
        <ele>60.599998474121</ele>
        <time>2020-12-20T09:28:35.000Z</time>
      </trkpt>
      <trkpt lat="47.26345" lon="-2.28525">
        <ele>60.200000762939</ele>
        <time>2020-12-20T09:28:36.000Z</time>
      </trkpt>
      <trkpt lat="47.26351" lon="-2.28529">
        <ele>59.599998474121</ele>
        <time>2020-12-20T09:28:37.000Z</time>
      </trkpt>
      <trkpt lat="47.26356" lon="-2.28532">
        <ele>59.200000762939</ele>
        <time>2020-12-20T09:28:38.000Z</time>
      </trkpt>
      <trkpt lat="47.26371" lon="-2.2854">
        <ele>59.200000762939</ele>
        <time>2020-12-20T09:28:41.000Z</time>
      </trkpt>
      <trkpt lat="47.26376" lon="-2.28543">
        <ele>59.200000762939</ele>
        <time>2020-12-20T09:28:42.000Z</time>
      </trkpt>
      <trkpt lat="47.26429" lon="-2.28579">
        <ele>59.200000762939</ele>
        <time>2020-12-20T09:28:51.000Z</time>
      </trkpt>
      <trkpt lat="47.26466" lon="-2.28595">
        <ele>59.200000762939</ele>
        <time>2020-12-20T09:28:57.000Z</time>
      </trkpt>
      <trkpt lat="47.26508" lon="-2.2862">
        <ele>59.200000762939</ele>
        <time>2020-12-20T09:29:04.000Z</time>
      </trkpt>
      <trkpt lat="47.26533" lon="-2.28652">
        <ele>58.799999237061</ele>
        <time>2020-12-20T09:29:09.000Z</time>
      </trkpt>
      <trkpt lat="47.26537" lon="-2.28659">
        <ele>58.400001525879</ele>
        <time>2020-12-20T09:29:10.000Z</time>
      </trkpt>
      <trkpt lat="47.26542" lon="-2.28664">
        <ele>58</ele>
        <time>2020-12-20T09:29:11.000Z</time>
      </trkpt>
      <trkpt lat="47.26546" lon="-2.2867">
        <ele>57.599998474121</ele>
        <time>2020-12-20T09:29:12.000Z</time>
      </trkpt>
      <trkpt lat="47.2655" lon="-2.28675">
        <ele>57.200000762939</ele>
        <time>2020-12-20T09:29:13.000Z</time>
      </trkpt>
      <trkpt lat="47.26555" lon="-2.28679">
        <ele>57.200000762939</ele>
        <time>2020-12-20T09:29:14.000Z</time>
      </trkpt>
      <trkpt lat="47.26564" lon="-2.28687">
        <ele>56.599998474121</ele>
        <time>2020-12-20T09:29:16.000Z</time>
      </trkpt>
      <trkpt lat="47.26567" lon="-2.2869">
        <ele>56.200000762939</ele>
        <time>2020-12-20T09:29:17.000Z</time>
      </trkpt>
      <trkpt lat="47.2657" lon="-2.28692">
        <ele>55.799999237061</ele>
        <time>2020-12-20T09:29:18.000Z</time>
      </trkpt>
      <trkpt lat="47.26573" lon="-2.28695">
        <ele>55.400001525879</ele>
        <time>2020-12-20T09:29:19.000Z</time>
      </trkpt>
      <trkpt lat="47.26574" lon="-2.28698">
        <ele>54.799999237061</ele>
        <time>2020-12-20T09:29:20.000Z</time>
      </trkpt>
      <trkpt lat="47.26577" lon="-2.287">
        <ele>54.799999237061</ele>
        <time>2020-12-20T09:29:21.000Z</time>
      </trkpt>
      <trkpt lat="47.2658" lon="-2.28702">
        <ele>54.799999237061</ele>
        <time>2020-12-20T09:29:22.000Z</time>
      </trkpt>
      <trkpt lat="47.2659" lon="-2.28715">
        <ele>54.799999237061</ele>
        <time>2020-12-20T09:29:26.000Z</time>
      </trkpt>
      <trkpt lat="47.26618" lon="-2.28746">
        <ele>54.799999237061</ele>
        <time>2020-12-20T09:29:33.000Z</time>
      </trkpt>
      <trkpt lat="47.26641" lon="-2.28766">
        <ele>54.400001525879</ele>
        <time>2020-12-20T09:29:38.000Z</time>
      </trkpt>
      <trkpt lat="47.26645" lon="-2.28771">
        <ele>54</ele>
        <time>2020-12-20T09:29:39.000Z</time>
      </trkpt>
      <trkpt lat="47.26649" lon="-2.28775">
        <ele>53.599998474121</ele>
        <time>2020-12-20T09:29:40.000Z</time>
      </trkpt>
      <trkpt lat="47.26653" lon="-2.2878">
        <ele>53.200000762939</ele>
        <time>2020-12-20T09:29:41.000Z</time>
      </trkpt>
      <trkpt lat="47.26657" lon="-2.28784">
        <ele>52.799999237061</ele>
        <time>2020-12-20T09:29:42.000Z</time>
      </trkpt>
      <trkpt lat="47.26663" lon="-2.2879">
        <ele>52.799999237061</ele>
        <time>2020-12-20T09:29:44.000Z</time>
      </trkpt>
      <trkpt lat="47.26682" lon="-2.28808">
        <ele>52.799999237061</ele>
        <time>2020-12-20T09:29:50.000Z</time>
      </trkpt>
      <trkpt lat="47.26706" lon="-2.2883">
        <ele>52.799999237061</ele>
        <time>2020-12-20T09:29:56.000Z</time>
      </trkpt>
      <trkpt lat="47.26732" lon="-2.28852">
        <ele>52.799999237061</ele>
        <time>2020-12-20T09:30:01.000Z</time>
      </trkpt>
      <trkpt lat="47.26742" lon="-2.28862">
        <ele>52.799999237061</ele>
        <time>2020-12-20T09:30:03.000Z</time>
      </trkpt>
      <trkpt lat="47.26753" lon="-2.28871">
        <ele>52.799999237061</ele>
        <time>2020-12-20T09:30:05.000Z</time>
      </trkpt>
      <trkpt lat="47.26775" lon="-2.28891">
        <ele>52.799999237061</ele>
        <time>2020-12-20T09:30:09.000Z</time>
      </trkpt>
      <trkpt lat="47.26789" lon="-2.289">
        <ele>52.799999237061</ele>
        <time>2020-12-20T09:30:11.000Z</time>
      </trkpt>
      <trkpt lat="47.26808" lon="-2.28911">
        <ele>52.799999237061</ele>
        <time>2020-12-20T09:30:14.000Z</time>
      </trkpt>
      <trkpt lat="47.2685" lon="-2.28938">
        <ele>52.799999237061</ele>
        <time>2020-12-20T09:30:20.000Z</time>
      </trkpt>
      <trkpt lat="47.26862" lon="-2.28947">
        <ele>52.400001525879</ele>
        <time>2020-12-20T09:30:22.000Z</time>
      </trkpt>
      <trkpt lat="47.26868" lon="-2.2895">
        <ele>52</ele>
        <time>2020-12-20T09:30:23.000Z</time>
      </trkpt>
      <trkpt lat="47.26875" lon="-2.28954">
        <ele>51.599998474121</ele>
        <time>2020-12-20T09:30:24.000Z</time>
      </trkpt>
      <trkpt lat="47.26882" lon="-2.28957">
        <ele>51.200000762939</ele>
        <time>2020-12-20T09:30:25.000Z</time>
      </trkpt>
      <trkpt lat="47.26888" lon="-2.2896">
        <ele>50.799999237061</ele>
        <time>2020-12-20T09:30:26.000Z</time>
      </trkpt>
      <trkpt lat="47.26913" lon="-2.2897">
        <ele>50.799999237061</ele>
        <time>2020-12-20T09:30:30.000Z</time>
      </trkpt>
      <trkpt lat="47.26919" lon="-2.28974">
        <ele>50.799999237061</ele>
        <time>2020-12-20T09:30:31.000Z</time>
      </trkpt>
      <trkpt lat="47.26948" lon="-2.28988">
        <ele>50.799999237061</ele>
        <time>2020-12-20T09:30:36.000Z</time>
      </trkpt>
      <trkpt lat="47.26986" lon="-2.29">
        <ele>50.799999237061</ele>
        <time>2020-12-20T09:30:42.000Z</time>
      </trkpt>
      <trkpt lat="47.27015" lon="-2.2901">
        <ele>50.799999237061</ele>
        <time>2020-12-20T09:30:47.000Z</time>
      </trkpt>
      <trkpt lat="47.2702" lon="-2.29012">
        <ele>50.799999237061</ele>
        <time>2020-12-20T09:30:48.000Z</time>
      </trkpt>
      <trkpt lat="47.27034" lon="-2.29015">
        <ele>50.400001525879</ele>
        <time>2020-12-20T09:30:51.000Z</time>
      </trkpt>
      <trkpt lat="47.27037" lon="-2.29018">
        <ele>49.799999237061</ele>
        <time>2020-12-20T09:30:52.000Z</time>
      </trkpt>
      <trkpt lat="47.27039" lon="-2.29023">
        <ele>49.400001525879</ele>
        <time>2020-12-20T09:30:53.000Z</time>
      </trkpt>
      <trkpt lat="47.27042" lon="-2.29028">
        <ele>49</ele>
        <time>2020-12-20T09:30:54.000Z</time>
      </trkpt>
      <trkpt lat="47.27045" lon="-2.29033">
        <ele>48.599998474121</ele>
        <time>2020-12-20T09:30:55.000Z</time>
      </trkpt>
      <trkpt lat="47.27047" lon="-2.29039">
        <ele>48.599998474121</ele>
        <time>2020-12-20T09:30:56.000Z</time>
      </trkpt>
      <trkpt lat="47.27053" lon="-2.2905">
        <ele>48.599998474121</ele>
        <time>2020-12-20T09:30:58.000Z</time>
      </trkpt>
      <trkpt lat="47.27067" lon="-2.2906">
        <ele>48.599998474121</ele>
        <time>2020-12-20T09:31:01.000Z</time>
      </trkpt>
      <trkpt lat="47.27072" lon="-2.29062">
        <ele>48.599998474121</ele>
        <time>2020-12-20T09:31:02.000Z</time>
      </trkpt>
      <trkpt lat="47.27093" lon="-2.29069">
        <ele>48.599998474121</ele>
        <time>2020-12-20T09:31:06.000Z</time>
      </trkpt>
      <trkpt lat="47.27102" lon="-2.29074">
        <ele>48.599998474121</ele>
        <time>2020-12-20T09:31:08.000Z</time>
      </trkpt>
      <trkpt lat="47.27116" lon="-2.29079">
        <ele>48.599998474121</ele>
        <time>2020-12-20T09:31:11.000Z</time>
      </trkpt>
      <trkpt lat="47.27125" lon="-2.29083">
        <ele>48.599998474121</ele>
        <time>2020-12-20T09:31:13.000Z</time>
      </trkpt>
      <trkpt lat="47.27138" lon="-2.2909">
        <ele>48.599998474121</ele>
        <time>2020-12-20T09:31:16.000Z</time>
      </trkpt>
      <trkpt lat="47.27143" lon="-2.29094">
        <ele>48.599998474121</ele>
        <time>2020-12-20T09:31:17.000Z</time>
      </trkpt>
      <trkpt lat="47.27156" lon="-2.29101">
        <ele>48.599998474121</ele>
        <time>2020-12-20T09:31:20.000Z</time>
      </trkpt>
      <trkpt lat="47.2716" lon="-2.29103">
        <ele>48.599998474121</ele>
        <time>2020-12-20T09:31:21.000Z</time>
      </trkpt>
      <trkpt lat="47.2718" lon="-2.2911">
        <ele>48.599998474121</ele>
        <time>2020-12-20T09:31:26.000Z</time>
      </trkpt>
      <trkpt lat="47.27185" lon="-2.2911">
        <ele>48.599998474121</ele>
        <time>2020-12-20T09:31:27.000Z</time>
      </trkpt>
      <trkpt lat="47.27194" lon="-2.29097">
        <ele>48.599998474121</ele>
        <time>2020-12-20T09:31:30.000Z</time>
      </trkpt>
      <trkpt lat="47.27192" lon="-2.29081">
        <ele>48.599998474121</ele>
        <time>2020-12-20T09:31:33.000Z</time>
      </trkpt>
      <trkpt lat="47.27191" lon="-2.29075">
        <ele>48.599998474121</ele>
        <time>2020-12-20T09:31:34.000Z</time>
      </trkpt>
      <trkpt lat="47.27187" lon="-2.29051">
        <ele>48.599998474121</ele>
        <time>2020-12-20T09:31:38.000Z</time>
      </trkpt>
      <trkpt lat="47.27183" lon="-2.29022">
        <ele>48.599998474121</ele>
        <time>2020-12-20T09:31:42.000Z</time>
      </trkpt>
      <trkpt lat="47.27183" lon="-2.29013">
        <ele>48.599998474121</ele>
        <time>2020-12-20T09:31:43.000Z</time>
      </trkpt>
      <trkpt lat="47.27179" lon="-2.28971">
        <ele>48.599998474121</ele>
        <time>2020-12-20T09:31:48.000Z</time>
      </trkpt>
      <trkpt lat="47.27176" lon="-2.28938">
        <ele>48.599998474121</ele>
        <time>2020-12-20T09:31:52.000Z</time>
      </trkpt>
      <trkpt lat="47.27176" lon="-2.2893">
        <ele>48.599998474121</ele>
        <time>2020-12-20T09:31:53.000Z</time>
      </trkpt>
      <trkpt lat="47.27178" lon="-2.28878">
        <ele>48.599998474121</ele>
        <time>2020-12-20T09:31:59.000Z</time>
      </trkpt>
      <trkpt lat="47.27182" lon="-2.28826">
        <ele>48.599998474121</ele>
        <time>2020-12-20T09:32:05.000Z</time>
      </trkpt>
      <trkpt lat="47.27183" lon="-2.28818">
        <ele>48.599998474121</ele>
        <time>2020-12-20T09:32:06.000Z</time>
      </trkpt>
      <trkpt lat="47.27186" lon="-2.28805">
        <ele>48.599998474121</ele>
        <time>2020-12-20T09:32:08.000Z</time>
      </trkpt>
      <trkpt lat="47.27186" lon="-2.28795">
        <ele>48.599998474121</ele>
        <time>2020-12-20T09:32:09.000Z</time>
      </trkpt>
      <trkpt lat="47.27185" lon="-2.28732">
        <ele>48.599998474121</ele>
        <time>2020-12-20T09:32:16.000Z</time>
      </trkpt>
      <trkpt lat="47.27183" lon="-2.287">
        <ele>48.599998474121</ele>
        <time>2020-12-20T09:32:20.000Z</time>
      </trkpt>
      <trkpt lat="47.27184" lon="-2.28645">
        <ele>48.599998474121</ele>
        <time>2020-12-20T09:32:27.000Z</time>
      </trkpt>
      <trkpt lat="47.27185" lon="-2.28614">
        <ele>49</ele>
        <time>2020-12-20T09:32:31.000Z</time>
      </trkpt>
      <trkpt lat="47.27185" lon="-2.28607">
        <ele>49.599998474121</ele>
        <time>2020-12-20T09:32:32.000Z</time>
      </trkpt>
      <trkpt lat="47.27183" lon="-2.28599">
        <ele>50</ele>
        <time>2020-12-20T09:32:33.000Z</time>
      </trkpt>
      <trkpt lat="47.27181" lon="-2.28593">
        <ele>50.400001525879</ele>
        <time>2020-12-20T09:32:34.000Z</time>
      </trkpt>
      <trkpt lat="47.27178" lon="-2.28586">
        <ele>50.799999237061</ele>
        <time>2020-12-20T09:32:35.000Z</time>
      </trkpt>
      <trkpt lat="47.2717" lon="-2.28547">
        <ele>50.799999237061</ele>
        <time>2020-12-20T09:32:40.000Z</time>
      </trkpt>
      <trkpt lat="47.27164" lon="-2.28515">
        <ele>51.200000762939</ele>
        <time>2020-12-20T09:32:44.000Z</time>
      </trkpt>
      <trkpt lat="47.27162" lon="-2.28507">
        <ele>51.599998474121</ele>
        <time>2020-12-20T09:32:45.000Z</time>
      </trkpt>
      <trkpt lat="47.27161" lon="-2.28498">
        <ele>52</ele>
        <time>2020-12-20T09:32:46.000Z</time>
      </trkpt>
      <trkpt lat="47.2716" lon="-2.2849">
        <ele>52.400001525879</ele>
        <time>2020-12-20T09:32:47.000Z</time>
      </trkpt>
      <trkpt lat="47.27159" lon="-2.28481">
        <ele>52.799999237061</ele>
        <time>2020-12-20T09:32:48.000Z</time>
      </trkpt>
      <trkpt lat="47.27154" lon="-2.28444">
        <ele>52.799999237061</ele>
        <time>2020-12-20T09:32:53.000Z</time>
      </trkpt>
      <trkpt lat="47.2715" lon="-2.28397">
        <ele>52.799999237061</ele>
        <time>2020-12-20T09:32:59.000Z</time>
      </trkpt>
      <trkpt lat="47.27145" lon="-2.28341">
        <ele>53.200000762939</ele>
        <time>2020-12-20T09:33:06.000Z</time>
      </trkpt>
      <trkpt lat="47.27143" lon="-2.28334">
        <ele>53.799999237061</ele>
        <time>2020-12-20T09:33:07.000Z</time>
      </trkpt>
      <trkpt lat="47.27141" lon="-2.28326">
        <ele>54.200000762939</ele>
        <time>2020-12-20T09:33:08.000Z</time>
      </trkpt>
      <trkpt lat="47.27139" lon="-2.28318">
        <ele>54.599998474121</ele>
        <time>2020-12-20T09:33:09.000Z</time>
      </trkpt>
      <trkpt lat="47.27137" lon="-2.28311">
        <ele>55</ele>
        <time>2020-12-20T09:33:10.000Z</time>
      </trkpt>
      <trkpt lat="47.27135" lon="-2.28303">
        <ele>55</ele>
        <time>2020-12-20T09:33:11.000Z</time>
      </trkpt>
      <trkpt lat="47.27121" lon="-2.28253">
        <ele>55</ele>
        <time>2020-12-20T09:33:18.000Z</time>
      </trkpt>
      <trkpt lat="47.27121" lon="-2.28245">
        <ele>55</ele>
        <time>2020-12-20T09:33:19.000Z</time>
      </trkpt>
      <trkpt lat="47.27121" lon="-2.28238">
        <ele>55</ele>
        <time>2020-12-20T09:33:20.000Z</time>
      </trkpt>
      <trkpt lat="47.27123" lon="-2.28212">
        <ele>55</ele>
        <time>2020-12-20T09:33:23.000Z</time>
      </trkpt>
      <trkpt lat="47.27129" lon="-2.28164">
        <ele>55</ele>
        <time>2020-12-20T09:33:29.000Z</time>
      </trkpt>
      <trkpt lat="47.27129" lon="-2.28156">
        <ele>55</ele>
        <time>2020-12-20T09:33:30.000Z</time>
      </trkpt>
      <trkpt lat="47.27124" lon="-2.28124">
        <ele>55</ele>
        <time>2020-12-20T09:33:33.000Z</time>
      </trkpt>
      <trkpt lat="47.27124" lon="-2.28124">
        <ele>55</ele>
        <time>2020-12-20T09:33:36.000Z</time>
      </trkpt>
      <trkpt lat="47.27123" lon="-2.28096">
        <ele>55</ele>
        <time>2020-12-20T09:33:41.000Z</time>
      </trkpt>
      <trkpt lat="47.27124" lon="-2.28071">
        <ele>55.400001525879</ele>
        <time>2020-12-20T09:33:45.000Z</time>
      </trkpt>
      <trkpt lat="47.27124" lon="-2.28065">
        <ele>55.799999237061</ele>
        <time>2020-12-20T09:33:46.000Z</time>
      </trkpt>
      <trkpt lat="47.27124" lon="-2.28058">
        <ele>56.200000762939</ele>
        <time>2020-12-20T09:33:47.000Z</time>
      </trkpt>
      <trkpt lat="47.27123" lon="-2.28052">
        <ele>56.599998474121</ele>
        <time>2020-12-20T09:33:48.000Z</time>
      </trkpt>
      <trkpt lat="47.27122" lon="-2.28045">
        <ele>57</ele>
        <time>2020-12-20T09:33:49.000Z</time>
      </trkpt>
      <trkpt lat="47.27117" lon="-2.28019">
        <ele>57</ele>
        <time>2020-12-20T09:33:53.000Z</time>
      </trkpt>
      <trkpt lat="47.27112" lon="-2.27999">
        <ele>57</ele>
        <time>2020-12-20T09:33:56.000Z</time>
      </trkpt>
      <trkpt lat="47.27103" lon="-2.27992">
        <ele>57</ele>
        <time>2020-12-20T09:33:58.000Z</time>
      </trkpt>
      <trkpt lat="47.27099" lon="-2.27991">
        <ele>57.400001525879</ele>
        <time>2020-12-20T09:33:59.000Z</time>
      </trkpt>
      <trkpt lat="47.27094" lon="-2.27989">
        <ele>57.799999237061</ele>
        <time>2020-12-20T09:34:00.000Z</time>
      </trkpt>
      <trkpt lat="47.27089" lon="-2.27988">
        <ele>58.200000762939</ele>
        <time>2020-12-20T09:34:01.000Z</time>
      </trkpt>
      <trkpt lat="47.27085" lon="-2.27985">
        <ele>58.799999237061</ele>
        <time>2020-12-20T09:34:02.000Z</time>
      </trkpt>
      <trkpt lat="47.27081" lon="-2.27982">
        <ele>59.200000762939</ele>
        <time>2020-12-20T09:34:03.000Z</time>
      </trkpt>
      <trkpt lat="47.27072" lon="-2.27968">
        <ele>59.200000762939</ele>
        <time>2020-12-20T09:34:06.000Z</time>
      </trkpt>
      <trkpt lat="47.27068" lon="-2.2794">
        <ele>59.200000762939</ele>
        <time>2020-12-20T09:34:10.000Z</time>
      </trkpt>
      <trkpt lat="47.27075" lon="-2.27911">
        <ele>59.200000762939</ele>
        <time>2020-12-20T09:34:14.000Z</time>
      </trkpt>
      <trkpt lat="47.27096" lon="-2.27886">
        <ele>59.200000762939</ele>
        <time>2020-12-20T09:34:19.000Z</time>
      </trkpt>
      <trkpt lat="47.27109" lon="-2.27879">
        <ele>59.200000762939</ele>
        <time>2020-12-20T09:34:22.000Z</time>
      </trkpt>
      <trkpt lat="47.27117" lon="-2.27854">
        <ele>59.200000762939</ele>
        <time>2020-12-20T09:34:26.000Z</time>
      </trkpt>
      <trkpt lat="47.27118" lon="-2.27846">
        <ele>59.200000762939</ele>
        <time>2020-12-20T09:34:27.000Z</time>
      </trkpt>
      <trkpt lat="47.27118" lon="-2.27838">
        <ele>58.599998474121</ele>
        <time>2020-12-20T09:34:28.000Z</time>
      </trkpt>
      <trkpt lat="47.27118" lon="-2.27829">
        <ele>58.200000762939</ele>
        <time>2020-12-20T09:34:29.000Z</time>
      </trkpt>
      <trkpt lat="47.27117" lon="-2.2782">
        <ele>57.400001525879</ele>
        <time>2020-12-20T09:34:30.000Z</time>
      </trkpt>
      <trkpt lat="47.27116" lon="-2.27812">
        <ele>57</ele>
        <time>2020-12-20T09:34:31.000Z</time>
      </trkpt>
      <trkpt lat="47.27112" lon="-2.27794">
        <ele>57</ele>
        <time>2020-12-20T09:34:33.000Z</time>
      </trkpt>
      <trkpt lat="47.27105" lon="-2.27771">
        <ele>57</ele>
        <time>2020-12-20T09:34:36.000Z</time>
      </trkpt>
      <trkpt lat="47.27097" lon="-2.27756">
        <ele>56.599998474121</ele>
        <time>2020-12-20T09:34:38.000Z</time>
      </trkpt>
      <trkpt lat="47.27092" lon="-2.27752">
        <ele>56.200000762939</ele>
        <time>2020-12-20T09:34:39.000Z</time>
      </trkpt>
      <trkpt lat="47.27087" lon="-2.27749">
        <ele>55.599998474121</ele>
        <time>2020-12-20T09:34:40.000Z</time>
      </trkpt>
      <trkpt lat="47.27081" lon="-2.27746">
        <ele>55.200000762939</ele>
        <time>2020-12-20T09:34:41.000Z</time>
      </trkpt>
      <trkpt lat="47.27076" lon="-2.27743">
        <ele>54.799999237061</ele>
        <time>2020-12-20T09:34:42.000Z</time>
      </trkpt>
      <trkpt lat="47.27064" lon="-2.27739">
        <ele>54.799999237061</ele>
        <time>2020-12-20T09:34:44.000Z</time>
      </trkpt>
      <trkpt lat="47.27031" lon="-2.27726">
        <ele>54.799999237061</ele>
        <time>2020-12-20T09:34:50.000Z</time>
      </trkpt>
      <trkpt lat="47.27028" lon="-2.27723">
        <ele>54.799999237061</ele>
        <time>2020-12-20T09:34:51.000Z</time>
      </trkpt>
      <trkpt lat="47.27022" lon="-2.2772">
        <ele>54.400001525879</ele>
        <time>2020-12-20T09:34:53.000Z</time>
      </trkpt>
      <trkpt lat="47.2702" lon="-2.27718">
        <ele>54</ele>
        <time>2020-12-20T09:34:54.000Z</time>
      </trkpt>
      <trkpt lat="47.2702" lon="-2.27714">
        <ele>53</ele>
        <time>2020-12-20T09:34:55.000Z</time>
      </trkpt>
      <trkpt lat="47.27021" lon="-2.27711">
        <ele>52.599998474121</ele>
        <time>2020-12-20T09:34:56.000Z</time>
      </trkpt>
      <trkpt lat="47.27024" lon="-2.27704">
        <ele>52.599998474121</ele>
        <time>2020-12-20T09:34:58.000Z</time>
      </trkpt>
      <trkpt lat="47.27026" lon="-2.277">
        <ele>52.599998474121</ele>
        <time>2020-12-20T09:34:59.000Z</time>
      </trkpt>
      <trkpt lat="47.27039" lon="-2.27681">
        <ele>52.599998474121</ele>
        <time>2020-12-20T09:35:05.000Z</time>
      </trkpt>
      <trkpt lat="47.27056" lon="-2.27662">
        <ele>52.599998474121</ele>
        <time>2020-12-20T09:35:12.000Z</time>
      </trkpt>
      <trkpt lat="47.2708" lon="-2.2764">
        <ele>52.599998474121</ele>
        <time>2020-12-20T09:35:19.000Z</time>
      </trkpt>
      <trkpt lat="47.27111" lon="-2.27619">
        <ele>52.599998474121</ele>
        <time>2020-12-20T09:35:26.000Z</time>
      </trkpt>
      <trkpt lat="47.27125" lon="-2.2761">
        <ele>52.599998474121</ele>
        <time>2020-12-20T09:35:29.000Z</time>
      </trkpt>
      <trkpt lat="47.2713" lon="-2.27605">
        <ele>52.599998474121</ele>
        <time>2020-12-20T09:35:30.000Z</time>
      </trkpt>
      <trkpt lat="47.27142" lon="-2.2758">
        <ele>52.599998474121</ele>
        <time>2020-12-20T09:35:34.000Z</time>
      </trkpt>
      <trkpt lat="47.27144" lon="-2.27571">
        <ele>52.599998474121</ele>
        <time>2020-12-20T09:35:35.000Z</time>
      </trkpt>
      <trkpt lat="47.27146" lon="-2.27563">
        <ele>52.599998474121</ele>
        <time>2020-12-20T09:35:36.000Z</time>
      </trkpt>
      <trkpt lat="47.27148" lon="-2.27539">
        <ele>52.599998474121</ele>
        <time>2020-12-20T09:35:39.000Z</time>
      </trkpt>
      <trkpt lat="47.27146" lon="-2.27474">
        <ele>52.599998474121</ele>
        <time>2020-12-20T09:35:47.000Z</time>
      </trkpt>
      <trkpt lat="47.27139" lon="-2.27422">
        <ele>52.599998474121</ele>
        <time>2020-12-20T09:35:53.000Z</time>
      </trkpt>
      <trkpt lat="47.27126" lon="-2.27343">
        <ele>52.599998474121</ele>
        <time>2020-12-20T09:36:01.000Z</time>
      </trkpt>
      <trkpt lat="47.27124" lon="-2.27323">
        <ele>52.200000762939</ele>
        <time>2020-12-20T09:36:03.000Z</time>
      </trkpt>
      <trkpt lat="47.27123" lon="-2.27314">
        <ele>51.799999237061</ele>
        <time>2020-12-20T09:36:04.000Z</time>
      </trkpt>
      <trkpt lat="47.27121" lon="-2.27304">
        <ele>51.400001525879</ele>
        <time>2020-12-20T09:36:05.000Z</time>
      </trkpt>
      <trkpt lat="47.27119" lon="-2.27295">
        <ele>51</ele>
        <time>2020-12-20T09:36:06.000Z</time>
      </trkpt>
      <trkpt lat="47.27116" lon="-2.27287">
        <ele>50.400001525879</ele>
        <time>2020-12-20T09:36:07.000Z</time>
      </trkpt>
      <trkpt lat="47.27104" lon="-2.27264">
        <ele>50.400001525879</ele>
        <time>2020-12-20T09:36:10.000Z</time>
      </trkpt>
      <trkpt lat="47.27097" lon="-2.27249">
        <ele>50</ele>
        <time>2020-12-20T09:36:12.000Z</time>
      </trkpt>
      <trkpt lat="47.27094" lon="-2.27243">
        <ele>49.599998474121</ele>
        <time>2020-12-20T09:36:13.000Z</time>
      </trkpt>
      <trkpt lat="47.2709" lon="-2.27237">
        <ele>49.200000762939</ele>
        <time>2020-12-20T09:36:14.000Z</time>
      </trkpt>
      <trkpt lat="47.27086" lon="-2.2723">
        <ele>48.799999237061</ele>
        <time>2020-12-20T09:36:15.000Z</time>
      </trkpt>
      <trkpt lat="47.27083" lon="-2.27222">
        <ele>48.400001525879</ele>
        <time>2020-12-20T09:36:16.000Z</time>
      </trkpt>
      <trkpt lat="47.27069" lon="-2.27198">
        <ele>48</ele>
        <time>2020-12-20T09:36:19.000Z</time>
      </trkpt>
      <trkpt lat="47.27063" lon="-2.2719">
        <ele>47.599998474121</ele>
        <time>2020-12-20T09:36:20.000Z</time>
      </trkpt>
      <trkpt lat="47.27058" lon="-2.27181">
        <ele>47.200000762939</ele>
        <time>2020-12-20T09:36:21.000Z</time>
      </trkpt>
      <trkpt lat="47.27052" lon="-2.27172">
        <ele>46.599998474121</ele>
        <time>2020-12-20T09:36:22.000Z</time>
      </trkpt>
      <trkpt lat="47.27047" lon="-2.27163">
        <ele>46.200000762939</ele>
        <time>2020-12-20T09:36:23.000Z</time>
      </trkpt>
      <trkpt lat="47.27037" lon="-2.27146">
        <ele>46.200000762939</ele>
        <time>2020-12-20T09:36:25.000Z</time>
      </trkpt>
      <trkpt lat="47.27032" lon="-2.27138">
        <ele>45.799999237061</ele>
        <time>2020-12-20T09:36:26.000Z</time>
      </trkpt>
      <trkpt lat="47.27028" lon="-2.27131">
        <ele>45.200000762939</ele>
        <time>2020-12-20T09:36:27.000Z</time>
      </trkpt>
      <trkpt lat="47.27024" lon="-2.27125">
        <ele>44.799999237061</ele>
        <time>2020-12-20T09:36:28.000Z</time>
      </trkpt>
      <trkpt lat="47.27021" lon="-2.27119">
        <ele>44.400001525879</ele>
        <time>2020-12-20T09:36:29.000Z</time>
      </trkpt>
      <trkpt lat="47.27019" lon="-2.27114">
        <ele>43.799999237061</ele>
        <time>2020-12-20T09:36:30.000Z</time>
      </trkpt>
      <trkpt lat="47.27013" lon="-2.27099">
        <ele>43.799999237061</ele>
        <time>2020-12-20T09:36:33.000Z</time>
      </trkpt>
      <trkpt lat="47.27012" lon="-2.27088">
        <ele>43.799999237061</ele>
        <time>2020-12-20T09:36:35.000Z</time>
      </trkpt>
      <trkpt lat="47.27009" lon="-2.27073">
        <ele>43.799999237061</ele>
        <time>2020-12-20T09:36:37.000Z</time>
      </trkpt>
      <trkpt lat="47.26995" lon="-2.27045">
        <ele>43.799999237061</ele>
        <time>2020-12-20T09:36:41.000Z</time>
      </trkpt>
      <trkpt lat="47.26991" lon="-2.27038">
        <ele>43.799999237061</ele>
        <time>2020-12-20T09:36:42.000Z</time>
      </trkpt>
      <trkpt lat="47.26987" lon="-2.27033">
        <ele>43.799999237061</ele>
        <time>2020-12-20T09:36:43.000Z</time>
      </trkpt>
      <trkpt lat="47.26977" lon="-2.27022">
        <ele>43.799999237061</ele>
        <time>2020-12-20T09:36:45.000Z</time>
      </trkpt>
      <trkpt lat="47.26972" lon="-2.27016">
        <ele>43.799999237061</ele>
        <time>2020-12-20T09:36:46.000Z</time>
      </trkpt>
      <trkpt lat="47.26968" lon="-2.2701">
        <ele>43.799999237061</ele>
        <time>2020-12-20T09:36:47.000Z</time>
      </trkpt>
      <trkpt lat="47.26958" lon="-2.2699">
        <ele>43.799999237061</ele>
        <time>2020-12-20T09:36:50.000Z</time>
      </trkpt>
      <trkpt lat="47.26956" lon="-2.26965">
        <ele>43.799999237061</ele>
        <time>2020-12-20T09:36:53.000Z</time>
      </trkpt>
      <trkpt lat="47.2696" lon="-2.26935">
        <ele>43.799999237061</ele>
        <time>2020-12-20T09:36:56.000Z</time>
      </trkpt>
      <trkpt lat="47.26961" lon="-2.26925">
        <ele>43.799999237061</ele>
        <time>2020-12-20T09:36:57.000Z</time>
      </trkpt>
      <trkpt lat="47.26962" lon="-2.26914">
        <ele>43.799999237061</ele>
        <time>2020-12-20T09:36:58.000Z</time>
      </trkpt>
      <trkpt lat="47.26958" lon="-2.26883">
        <ele>43.799999237061</ele>
        <time>2020-12-20T09:37:01.000Z</time>
      </trkpt>
      <trkpt lat="47.26957" lon="-2.26873">
        <ele>43.799999237061</ele>
        <time>2020-12-20T09:37:02.000Z</time>
      </trkpt>
      <trkpt lat="47.26952" lon="-2.26834">
        <ele>43.400001525879</ele>
        <time>2020-12-20T09:37:06.000Z</time>
      </trkpt>
      <trkpt lat="47.26949" lon="-2.26824">
        <ele>43</ele>
        <time>2020-12-20T09:37:07.000Z</time>
      </trkpt>
      <trkpt lat="47.26946" lon="-2.26815">
        <ele>42.599998474121</ele>
        <time>2020-12-20T09:37:08.000Z</time>
      </trkpt>
      <trkpt lat="47.26942" lon="-2.26807">
        <ele>42.200000762939</ele>
        <time>2020-12-20T09:37:09.000Z</time>
      </trkpt>
      <trkpt lat="47.26939" lon="-2.26798">
        <ele>41.799999237061</ele>
        <time>2020-12-20T09:37:10.000Z</time>
      </trkpt>
      <trkpt lat="47.26937" lon="-2.26789">
        <ele>41.799999237061</ele>
        <time>2020-12-20T09:37:11.000Z</time>
      </trkpt>
      <trkpt lat="47.26933" lon="-2.26772">
        <ele>41.799999237061</ele>
        <time>2020-12-20T09:37:13.000Z</time>
      </trkpt>
      <trkpt lat="47.26927" lon="-2.26748">
        <ele>41.799999237061</ele>
        <time>2020-12-20T09:37:16.000Z</time>
      </trkpt>
      <trkpt lat="47.26921" lon="-2.2672">
        <ele>42.200000762939</ele>
        <time>2020-12-20T09:37:20.000Z</time>
      </trkpt>
      <trkpt lat="47.26919" lon="-2.26713">
        <ele>42.599998474121</ele>
        <time>2020-12-20T09:37:21.000Z</time>
      </trkpt>
      <trkpt lat="47.26917" lon="-2.26707">
        <ele>43</ele>
        <time>2020-12-20T09:37:22.000Z</time>
      </trkpt>
      <trkpt lat="47.26915" lon="-2.26699">
        <ele>43.799999237061</ele>
        <time>2020-12-20T09:37:23.000Z</time>
      </trkpt>
      <trkpt lat="47.26903" lon="-2.26664">
        <ele>43.799999237061</ele>
        <time>2020-12-20T09:37:28.000Z</time>
      </trkpt>
      <trkpt lat="47.26895" lon="-2.26643">
        <ele>43.799999237061</ele>
        <time>2020-12-20T09:37:31.000Z</time>
      </trkpt>
      <trkpt lat="47.26888" lon="-2.26625">
        <ele>43.799999237061</ele>
        <time>2020-12-20T09:37:34.000Z</time>
      </trkpt>
      <trkpt lat="47.26883" lon="-2.26614">
        <ele>43.799999237061</ele>
        <time>2020-12-20T09:37:36.000Z</time>
      </trkpt>
      <trkpt lat="47.26878" lon="-2.26596">
        <ele>43.799999237061</ele>
        <time>2020-12-20T09:37:39.000Z</time>
      </trkpt>
      <trkpt lat="47.26869" lon="-2.26564">
        <ele>43.799999237061</ele>
        <time>2020-12-20T09:37:46.000Z</time>
      </trkpt>
      <trkpt lat="47.26875" lon="-2.26548">
        <ele>43.799999237061</ele>
        <time>2020-12-20T09:37:52.000Z</time>
      </trkpt>
      <trkpt lat="47.26886" lon="-2.26541">
        <ele>43.799999237061</ele>
        <time>2020-12-20T09:37:55.000Z</time>
      </trkpt>
      <trkpt lat="47.2689" lon="-2.26539">
        <ele>43.799999237061</ele>
        <time>2020-12-20T09:37:56.000Z</time>
      </trkpt>
      <trkpt lat="47.26919" lon="-2.26525">
        <ele>43.799999237061</ele>
        <time>2020-12-20T09:38:02.000Z</time>
      </trkpt>
      <trkpt lat="47.26924" lon="-2.26523">
        <ele>43.799999237061</ele>
        <time>2020-12-20T09:38:03.000Z</time>
      </trkpt>
      <trkpt lat="47.26944" lon="-2.26513">
        <ele>43.799999237061</ele>
        <time>2020-12-20T09:38:07.000Z</time>
      </trkpt>
      <trkpt lat="47.26972" lon="-2.26494">
        <ele>43.799999237061</ele>
        <time>2020-12-20T09:38:14.000Z</time>
      </trkpt>
      <trkpt lat="47.26998" lon="-2.26464">
        <ele>43.799999237061</ele>
        <time>2020-12-20T09:38:20.000Z</time>
      </trkpt>
      <trkpt lat="47.27015" lon="-2.26439">
        <ele>43.799999237061</ele>
        <time>2020-12-20T09:38:24.000Z</time>
      </trkpt>
      <trkpt lat="47.27024" lon="-2.26425">
        <ele>43.799999237061</ele>
        <time>2020-12-20T09:38:26.000Z</time>
      </trkpt>
      <trkpt lat="47.2706" lon="-2.26375">
        <ele>43.799999237061</ele>
        <time>2020-12-20T09:38:34.000Z</time>
      </trkpt>
      <trkpt lat="47.27082" lon="-2.26343">
        <ele>43.799999237061</ele>
        <time>2020-12-20T09:38:39.000Z</time>
      </trkpt>
      <trkpt lat="47.27091" lon="-2.26331">
        <ele>43.799999237061</ele>
        <time>2020-12-20T09:38:41.000Z</time>
      </trkpt>
      <trkpt lat="47.27122" lon="-2.26286">
        <ele>43.799999237061</ele>
        <time>2020-12-20T09:38:48.000Z</time>
      </trkpt>
      <trkpt lat="47.27152" lon="-2.26245">
        <ele>43.799999237061</ele>
        <time>2020-12-20T09:38:54.000Z</time>
      </trkpt>
      <trkpt lat="47.27157" lon="-2.26238">
        <ele>43.799999237061</ele>
        <time>2020-12-20T09:38:55.000Z</time>
      </trkpt>
      <trkpt lat="47.27206" lon="-2.26187">
        <ele>43.799999237061</ele>
        <time>2020-12-20T09:39:03.000Z</time>
      </trkpt>
      <trkpt lat="47.27219" lon="-2.26178">
        <ele>43.400001525879</ele>
        <time>2020-12-20T09:39:05.000Z</time>
      </trkpt>
      <trkpt lat="47.27226" lon="-2.26174">
        <ele>43</ele>
        <time>2020-12-20T09:39:06.000Z</time>
      </trkpt>
      <trkpt lat="47.27232" lon="-2.26169">
        <ele>42.400001525879</ele>
        <time>2020-12-20T09:39:07.000Z</time>
      </trkpt>
      <trkpt lat="47.27238" lon="-2.26166">
        <ele>42</ele>
        <time>2020-12-20T09:39:08.000Z</time>
      </trkpt>
      <trkpt lat="47.27245" lon="-2.26162">
        <ele>41.599998474121</ele>
        <time>2020-12-20T09:39:09.000Z</time>
      </trkpt>
      <trkpt lat="47.27251" lon="-2.26159">
        <ele>41.599998474121</ele>
        <time>2020-12-20T09:39:10.000Z</time>
      </trkpt>
      <trkpt lat="47.27275" lon="-2.26146">
        <ele>41.599998474121</ele>
        <time>2020-12-20T09:39:14.000Z</time>
      </trkpt>
      <trkpt lat="47.27288" lon="-2.26141">
        <ele>41.599998474121</ele>
        <time>2020-12-20T09:39:16.000Z</time>
      </trkpt>
      <trkpt lat="47.27339" lon="-2.26124">
        <ele>41.599998474121</ele>
        <time>2020-12-20T09:39:24.000Z</time>
      </trkpt>
      <trkpt lat="47.27351" lon="-2.26121">
        <ele>41.599998474121</ele>
        <time>2020-12-20T09:39:26.000Z</time>
      </trkpt>
      <trkpt lat="47.27363" lon="-2.26127">
        <ele>41.599998474121</ele>
        <time>2020-12-20T09:39:28.000Z</time>
      </trkpt>
      <trkpt lat="47.27381" lon="-2.26153">
        <ele>41.599998474121</ele>
        <time>2020-12-20T09:39:32.000Z</time>
      </trkpt>
      <trkpt lat="47.27409" lon="-2.262">
        <ele>41.599998474121</ele>
        <time>2020-12-20T09:39:39.000Z</time>
      </trkpt>
      <trkpt lat="47.27442" lon="-2.26247">
        <ele>41.599998474121</ele>
        <time>2020-12-20T09:39:46.000Z</time>
      </trkpt>
      <trkpt lat="47.27448" lon="-2.26253">
        <ele>41.200000762939</ele>
        <time>2020-12-20T09:39:47.000Z</time>
      </trkpt>
      <trkpt lat="47.27454" lon="-2.26259">
        <ele>40.799999237061</ele>
        <time>2020-12-20T09:39:48.000Z</time>
      </trkpt>
      <trkpt lat="47.27461" lon="-2.26264">
        <ele>40.400001525879</ele>
        <time>2020-12-20T09:39:49.000Z</time>
      </trkpt>
      <trkpt lat="47.27467" lon="-2.26269">
        <ele>40</ele>
        <time>2020-12-20T09:39:50.000Z</time>
      </trkpt>
      <trkpt lat="47.27474" lon="-2.26274">
        <ele>39.599998474121</ele>
        <time>2020-12-20T09:39:51.000Z</time>
      </trkpt>
      <trkpt lat="47.27482" lon="-2.26278">
        <ele>39.599998474121</ele>
        <time>2020-12-20T09:39:52.000Z</time>
      </trkpt>
      <trkpt lat="47.27512" lon="-2.26288">
        <ele>39.200000762939</ele>
        <time>2020-12-20T09:39:56.000Z</time>
      </trkpt>
      <trkpt lat="47.27519" lon="-2.26289">
        <ele>38.799999237061</ele>
        <time>2020-12-20T09:39:57.000Z</time>
      </trkpt>
      <trkpt lat="47.27527" lon="-2.2629">
        <ele>38.400001525879</ele>
        <time>2020-12-20T09:39:58.000Z</time>
      </trkpt>
      <trkpt lat="47.27534" lon="-2.26291">
        <ele>38</ele>
        <time>2020-12-20T09:39:59.000Z</time>
      </trkpt>
      <trkpt lat="47.27541" lon="-2.26292">
        <ele>37.599998474121</ele>
        <time>2020-12-20T09:40:00.000Z</time>
      </trkpt>
      <trkpt lat="47.27569" lon="-2.26293">
        <ele>37.599998474121</ele>
        <time>2020-12-20T09:40:04.000Z</time>
      </trkpt>
      <trkpt lat="47.27605" lon="-2.26295">
        <ele>37</ele>
        <time>2020-12-20T09:40:10.000Z</time>
      </trkpt>
      <trkpt lat="47.2761" lon="-2.26296">
        <ele>36.599998474121</ele>
        <time>2020-12-20T09:40:11.000Z</time>
      </trkpt>
      <trkpt lat="47.27615" lon="-2.26298">
        <ele>36.200000762939</ele>
        <time>2020-12-20T09:40:12.000Z</time>
      </trkpt>
      <trkpt lat="47.27619" lon="-2.263">
        <ele>35.799999237061</ele>
        <time>2020-12-20T09:40:13.000Z</time>
      </trkpt>
      <trkpt lat="47.27623" lon="-2.26302">
        <ele>35.400001525879</ele>
        <time>2020-12-20T09:40:14.000Z</time>
      </trkpt>
      <trkpt lat="47.27627" lon="-2.26305">
        <ele>35.400001525879</ele>
        <time>2020-12-20T09:40:15.000Z</time>
      </trkpt>
      <trkpt lat="47.2765" lon="-2.26329">
        <ele>35.400001525879</ele>
        <time>2020-12-20T09:40:21.000Z</time>
      </trkpt>
      <trkpt lat="47.27657" lon="-2.26338">
        <ele>35.400001525879</ele>
        <time>2020-12-20T09:40:23.000Z</time>
      </trkpt>
      <trkpt lat="47.27664" lon="-2.26337">
        <ele>35.400001525879</ele>
        <time>2020-12-20T09:40:25.000Z</time>
      </trkpt>
      <trkpt lat="47.27667" lon="-2.26324">
        <ele>35.400001525879</ele>
        <time>2020-12-20T09:40:28.000Z</time>
      </trkpt>
      <trkpt lat="47.27662" lon="-2.26304">
        <ele>35.400001525879</ele>
        <time>2020-12-20T09:40:33.000Z</time>
      </trkpt>
      <trkpt lat="47.27657" lon="-2.26283">
        <ele>35.400001525879</ele>
        <time>2020-12-20T09:40:37.000Z</time>
      </trkpt>
      <trkpt lat="47.27656" lon="-2.26277">
        <ele>35.400001525879</ele>
        <time>2020-12-20T09:40:38.000Z</time>
      </trkpt>
      <trkpt lat="47.27652" lon="-2.26264">
        <ele>35.400001525879</ele>
        <time>2020-12-20T09:40:40.000Z</time>
      </trkpt>
      <trkpt lat="47.27648" lon="-2.26253">
        <ele>35.400001525879</ele>
        <time>2020-12-20T09:40:42.000Z</time>
      </trkpt>
      <trkpt lat="47.27645" lon="-2.26249">
        <ele>35.400001525879</ele>
        <time>2020-12-20T09:40:43.000Z</time>
      </trkpt>
      <trkpt lat="47.27633" lon="-2.26226">
        <ele>35.400001525879</ele>
        <time>2020-12-20T09:40:48.000Z</time>
      </trkpt>
      <trkpt lat="47.27628" lon="-2.26198">
        <ele>35.400001525879</ele>
        <time>2020-12-20T09:40:53.000Z</time>
      </trkpt>
      <trkpt lat="47.27623" lon="-2.26182">
        <ele>35.400001525879</ele>
        <time>2020-12-20T09:40:57.000Z</time>
      </trkpt>
      <trkpt lat="47.27627" lon="-2.2617">
        <ele>35.400001525879</ele>
        <time>2020-12-20T09:41:01.000Z</time>
      </trkpt>
      <trkpt lat="47.2763" lon="-2.26168">
        <ele>35.400001525879</ele>
        <time>2020-12-20T09:41:02.000Z</time>
      </trkpt>
      <trkpt lat="47.2764" lon="-2.26156">
        <ele>35.400001525879</ele>
        <time>2020-12-20T09:41:07.000Z</time>
      </trkpt>
      <trkpt lat="47.27659" lon="-2.2614">
        <ele>35.400001525879</ele>
        <time>2020-12-20T09:41:12.000Z</time>
      </trkpt>
      <trkpt lat="47.27662" lon="-2.26135">
        <ele>35.400001525879</ele>
        <time>2020-12-20T09:41:13.000Z</time>
      </trkpt>
      <trkpt lat="47.27674" lon="-2.26121">
        <ele>35.400001525879</ele>
        <time>2020-12-20T09:41:16.000Z</time>
      </trkpt>
      <trkpt lat="47.27679" lon="-2.26117">
        <ele>35.400001525879</ele>
        <time>2020-12-20T09:41:17.000Z</time>
      </trkpt>
      <trkpt lat="47.277" lon="-2.26096">
        <ele>35.400001525879</ele>
        <time>2020-12-20T09:41:22.000Z</time>
      </trkpt>
      <trkpt lat="47.27716" lon="-2.26082">
        <ele>35.400001525879</ele>
        <time>2020-12-20T09:41:26.000Z</time>
      </trkpt>
      <trkpt lat="47.27727" lon="-2.2608">
        <ele>35.400001525879</ele>
        <time>2020-12-20T09:41:28.000Z</time>
      </trkpt>
      <trkpt lat="47.27739" lon="-2.26079">
        <ele>35.400001525879</ele>
        <time>2020-12-20T09:41:30.000Z</time>
      </trkpt>
      <trkpt lat="47.27763" lon="-2.26083">
        <ele>35.400001525879</ele>
        <time>2020-12-20T09:41:35.000Z</time>
      </trkpt>
      <trkpt lat="47.27771" lon="-2.26083">
        <ele>35.400001525879</ele>
        <time>2020-12-20T09:41:37.000Z</time>
      </trkpt>
      <trkpt lat="47.27777" lon="-2.26074">
        <ele>35.400001525879</ele>
        <time>2020-12-20T09:41:39.000Z</time>
      </trkpt>
      <trkpt lat="47.27783" lon="-2.26063">
        <ele>35.400001525879</ele>
        <time>2020-12-20T09:41:41.000Z</time>
      </trkpt>
      <trkpt lat="47.27792" lon="-2.26045">
        <ele>35.400001525879</ele>
        <time>2020-12-20T09:41:44.000Z</time>
      </trkpt>
      <trkpt lat="47.27795" lon="-2.26037">
        <ele>35.400001525879</ele>
        <time>2020-12-20T09:41:45.000Z</time>
      </trkpt>
      <trkpt lat="47.27804" lon="-2.25999">
        <ele>35.400001525879</ele>
        <time>2020-12-20T09:41:50.000Z</time>
      </trkpt>
      <trkpt lat="47.27801" lon="-2.2597">
        <ele>35.400001525879</ele>
        <time>2020-12-20T09:41:54.000Z</time>
      </trkpt>
      <trkpt lat="47.27799" lon="-2.25963">
        <ele>35.400001525879</ele>
        <time>2020-12-20T09:41:55.000Z</time>
      </trkpt>
      <trkpt lat="47.27795" lon="-2.25948">
        <ele>35.400001525879</ele>
        <time>2020-12-20T09:41:57.000Z</time>
      </trkpt>
      <trkpt lat="47.2779" lon="-2.25934">
        <ele>35.400001525879</ele>
        <time>2020-12-20T09:41:59.000Z</time>
      </trkpt>
      <trkpt lat="47.27787" lon="-2.25928">
        <ele>35.400001525879</ele>
        <time>2020-12-20T09:42:00.000Z</time>
      </trkpt>
      <trkpt lat="47.27775" lon="-2.25911">
        <ele>35.400001525879</ele>
        <time>2020-12-20T09:42:03.000Z</time>
      </trkpt>
      <trkpt lat="47.27766" lon="-2.25893">
        <ele>35.400001525879</ele>
        <time>2020-12-20T09:42:06.000Z</time>
      </trkpt>
      <trkpt lat="47.27759" lon="-2.25874">
        <ele>35.400001525879</ele>
        <time>2020-12-20T09:42:09.000Z</time>
      </trkpt>
      <trkpt lat="47.27755" lon="-2.25869">
        <ele>35.400001525879</ele>
        <time>2020-12-20T09:42:10.000Z</time>
      </trkpt>
      <trkpt lat="47.27741" lon="-2.25859">
        <ele>35.400001525879</ele>
        <time>2020-12-20T09:42:13.000Z</time>
      </trkpt>
      <trkpt lat="47.27725" lon="-2.25858">
        <ele>35.400001525879</ele>
        <time>2020-12-20T09:42:16.000Z</time>
      </trkpt>
      <trkpt lat="47.2772" lon="-2.25857">
        <ele>35.400001525879</ele>
        <time>2020-12-20T09:42:17.000Z</time>
      </trkpt>
      <trkpt lat="47.27702" lon="-2.25845">
        <ele>35.400001525879</ele>
        <time>2020-12-20T09:42:21.000Z</time>
      </trkpt>
      <trkpt lat="47.27691" lon="-2.2582">
        <ele>35.400001525879</ele>
        <time>2020-12-20T09:42:25.000Z</time>
      </trkpt>
      <trkpt lat="47.27677" lon="-2.25782">
        <ele>35.400001525879</ele>
        <time>2020-12-20T09:42:31.000Z</time>
      </trkpt>
      <trkpt lat="47.27675" lon="-2.25775">
        <ele>35.400001525879</ele>
        <time>2020-12-20T09:42:32.000Z</time>
      </trkpt>
      <trkpt lat="47.2766" lon="-2.25708">
        <ele>35.400001525879</ele>
        <time>2020-12-20T09:42:41.000Z</time>
      </trkpt>
      <trkpt lat="47.27656" lon="-2.2567">
        <ele>35.400001525879</ele>
        <time>2020-12-20T09:42:46.000Z</time>
      </trkpt>
      <trkpt lat="47.27656" lon="-2.25663">
        <ele>35.400001525879</ele>
        <time>2020-12-20T09:42:47.000Z</time>
      </trkpt>
      <trkpt lat="47.27649" lon="-2.25649">
        <ele>35.400001525879</ele>
        <time>2020-12-20T09:42:50.000Z</time>
      </trkpt>
      <trkpt lat="47.27633" lon="-2.25645">
        <ele>35.400001525879</ele>
        <time>2020-12-20T09:42:54.000Z</time>
      </trkpt>
      <trkpt lat="47.27625" lon="-2.25641">
        <ele>35.400001525879</ele>
        <time>2020-12-20T09:42:56.000Z</time>
      </trkpt>
      <trkpt lat="47.27618" lon="-2.25634">
        <ele>35.400001525879</ele>
        <time>2020-12-20T09:42:58.000Z</time>
      </trkpt>
      <trkpt lat="47.27604" lon="-2.2562">
        <ele>35.400001525879</ele>
        <time>2020-12-20T09:43:03.000Z</time>
      </trkpt>
      <trkpt lat="47.27592" lon="-2.25615">
        <ele>35.400001525879</ele>
        <time>2020-12-20T09:43:08.000Z</time>
      </trkpt>
      <trkpt lat="47.27577" lon="-2.2561">
        <ele>35.400001525879</ele>
        <time>2020-12-20T09:43:14.000Z</time>
      </trkpt>
      <trkpt lat="47.27575" lon="-2.25605">
        <ele>35.400001525879</ele>
        <time>2020-12-20T09:43:15.000Z</time>
      </trkpt>
      <trkpt lat="47.27574" lon="-2.25596">
        <ele>35.400001525879</ele>
        <time>2020-12-20T09:43:17.000Z</time>
      </trkpt>
      <trkpt lat="47.27572" lon="-2.25586">
        <ele>35.400001525879</ele>
        <time>2020-12-20T09:43:19.000Z</time>
      </trkpt>
      <trkpt lat="47.27567" lon="-2.25561">
        <ele>35.400001525879</ele>
        <time>2020-12-20T09:43:23.000Z</time>
      </trkpt>
      <trkpt lat="47.27558" lon="-2.25534">
        <ele>35.400001525879</ele>
        <time>2020-12-20T09:43:27.000Z</time>
      </trkpt>
      <trkpt lat="47.27548" lon="-2.25517">
        <ele>35.400001525879</ele>
        <time>2020-12-20T09:43:30.000Z</time>
      </trkpt>
      <trkpt lat="47.27531" lon="-2.25489">
        <ele>35.400001525879</ele>
        <time>2020-12-20T09:43:35.000Z</time>
      </trkpt>
      <trkpt lat="47.27513" lon="-2.25471">
        <ele>35.400001525879</ele>
        <time>2020-12-20T09:43:39.000Z</time>
      </trkpt>
      <trkpt lat="47.275" lon="-2.25462">
        <ele>35.400001525879</ele>
        <time>2020-12-20T09:43:42.000Z</time>
      </trkpt>
      <trkpt lat="47.27489" lon="-2.2546">
        <ele>35.400001525879</ele>
        <time>2020-12-20T09:43:44.000Z</time>
      </trkpt>
      <trkpt lat="47.27478" lon="-2.25459">
        <ele>35.400001525879</ele>
        <time>2020-12-20T09:43:46.000Z</time>
      </trkpt>
      <trkpt lat="47.27471" lon="-2.25457">
        <ele>35.400001525879</ele>
        <time>2020-12-20T09:43:47.000Z</time>
      </trkpt>
      <trkpt lat="47.27455" lon="-2.25452">
        <ele>35.400001525879</ele>
        <time>2020-12-20T09:43:50.000Z</time>
      </trkpt>
      <trkpt lat="47.27449" lon="-2.25449">
        <ele>35.400001525879</ele>
        <time>2020-12-20T09:43:51.000Z</time>
      </trkpt>
      <trkpt lat="47.27437" lon="-2.25436">
        <ele>35.400001525879</ele>
        <time>2020-12-20T09:43:54.000Z</time>
      </trkpt>
      <trkpt lat="47.27438" lon="-2.25417">
        <ele>35.400001525879</ele>
        <time>2020-12-20T09:43:57.000Z</time>
      </trkpt>
      <trkpt lat="47.27443" lon="-2.25402">
        <ele>35.400001525879</ele>
        <time>2020-12-20T09:43:59.000Z</time>
      </trkpt>
      <trkpt lat="47.27446" lon="-2.25384">
        <ele>35.400001525879</ele>
        <time>2020-12-20T09:44:01.000Z</time>
      </trkpt>
      <trkpt lat="47.2745" lon="-2.25358">
        <ele>35.400001525879</ele>
        <time>2020-12-20T09:44:04.000Z</time>
      </trkpt>
      <trkpt lat="47.2745" lon="-2.2535">
        <ele>35.400001525879</ele>
        <time>2020-12-20T09:44:05.000Z</time>
      </trkpt>
      <trkpt lat="47.27442" lon="-2.2531">
        <ele>35.400001525879</ele>
        <time>2020-12-20T09:44:10.000Z</time>
      </trkpt>
      <trkpt lat="47.27424" lon="-2.2526">
        <ele>35.400001525879</ele>
        <time>2020-12-20T09:44:17.000Z</time>
      </trkpt>
      <trkpt lat="47.27408" lon="-2.25221">
        <ele>35.400001525879</ele>
        <time>2020-12-20T09:44:23.000Z</time>
      </trkpt>
      <trkpt lat="47.27405" lon="-2.25215">
        <ele>35.400001525879</ele>
        <time>2020-12-20T09:44:24.000Z</time>
      </trkpt>
      <trkpt lat="47.2739" lon="-2.25181">
        <ele>35.400001525879</ele>
        <time>2020-12-20T09:44:30.000Z</time>
      </trkpt>
      <trkpt lat="47.27388" lon="-2.25176">
        <ele>35.400001525879</ele>
        <time>2020-12-20T09:44:31.000Z</time>
      </trkpt>
      <trkpt lat="47.27383" lon="-2.2516">
        <ele>35.400001525879</ele>
        <time>2020-12-20T09:44:35.000Z</time>
      </trkpt>
      <trkpt lat="47.27375" lon="-2.25137">
        <ele>35.400001525879</ele>
        <time>2020-12-20T09:44:41.000Z</time>
      </trkpt>
      <trkpt lat="47.27373" lon="-2.25131">
        <ele>35.400001525879</ele>
        <time>2020-12-20T09:44:42.000Z</time>
      </trkpt>
      <trkpt lat="47.27367" lon="-2.25118">
        <ele>35.400001525879</ele>
        <time>2020-12-20T09:44:44.000Z</time>
      </trkpt>
      <trkpt lat="47.27359" lon="-2.251">
        <ele>35.400001525879</ele>
        <time>2020-12-20T09:44:46.000Z</time>
      </trkpt>
      <trkpt lat="47.27349" lon="-2.25069">
        <ele>35.400001525879</ele>
        <time>2020-12-20T09:44:52.000Z</time>
      </trkpt>
      <trkpt lat="47.27347" lon="-2.25063">
        <ele>35.400001525879</ele>
        <time>2020-12-20T09:44:53.000Z</time>
      </trkpt>
      <trkpt lat="47.27338" lon="-2.25026">
        <ele>35.400001525879</ele>
        <time>2020-12-20T09:44:59.000Z</time>
      </trkpt>
      <trkpt lat="47.27331" lon="-2.25002">
        <ele>35.400001525879</ele>
        <time>2020-12-20T09:45:04.000Z</time>
      </trkpt>
      <trkpt lat="47.27332" lon="-2.24989">
        <ele>35.400001525879</ele>
        <time>2020-12-20T09:45:07.000Z</time>
      </trkpt>
      <trkpt lat="47.27334" lon="-2.24985">
        <ele>35.400001525879</ele>
        <time>2020-12-20T09:45:08.000Z</time>
      </trkpt>
      <trkpt lat="47.27349" lon="-2.24964">
        <ele>35.400001525879</ele>
        <time>2020-12-20T09:45:14.000Z</time>
      </trkpt>
      <trkpt lat="47.27366" lon="-2.24942">
        <ele>35.400001525879</ele>
        <time>2020-12-20T09:45:19.000Z</time>
      </trkpt>
      <trkpt lat="47.27385" lon="-2.24913">
        <ele>35.400001525879</ele>
        <time>2020-12-20T09:45:25.000Z</time>
      </trkpt>
      <trkpt lat="47.27401" lon="-2.24892">
        <ele>35.400001525879</ele>
        <time>2020-12-20T09:45:30.000Z</time>
      </trkpt>
      <trkpt lat="47.27406" lon="-2.24881">
        <ele>35.400001525879</ele>
        <time>2020-12-20T09:45:33.000Z</time>
      </trkpt>
      <trkpt lat="47.27406" lon="-2.24876">
        <ele>35.400001525879</ele>
        <time>2020-12-20T09:45:34.000Z</time>
      </trkpt>
      <trkpt lat="47.2741" lon="-2.2486">
        <ele>35.400001525879</ele>
        <time>2020-12-20T09:45:39.000Z</time>
      </trkpt>
      <trkpt lat="47.27419" lon="-2.24832">
        <ele>35.400001525879</ele>
        <time>2020-12-20T09:45:44.000Z</time>
      </trkpt>
      <trkpt lat="47.27424" lon="-2.24822">
        <ele>35.400001525879</ele>
        <time>2020-12-20T09:45:45.000Z</time>
      </trkpt>
      <trkpt lat="47.27427" lon="-2.24814">
        <ele>35.400001525879</ele>
        <time>2020-12-20T09:45:46.000Z</time>
      </trkpt>
      <trkpt lat="47.27432" lon="-2.24794">
        <ele>35.400001525879</ele>
        <time>2020-12-20T09:45:49.000Z</time>
      </trkpt>
      <trkpt lat="47.27434" lon="-2.24789">
        <ele>35.400001525879</ele>
        <time>2020-12-20T09:45:50.000Z</time>
      </trkpt>
      <trkpt lat="47.27437" lon="-2.24775">
        <ele>35.400001525879</ele>
        <time>2020-12-20T09:45:54.000Z</time>
      </trkpt>
      <trkpt lat="47.27439" lon="-2.2477">
        <ele>35.400001525879</ele>
        <time>2020-12-20T09:45:59.000Z</time>
      </trkpt>
      <trkpt lat="47.27442" lon="-2.2477">
        <ele>35.400001525879</ele>
        <time>2020-12-20T09:46:11.000Z</time>
      </trkpt>
      <trkpt lat="47.27447" lon="-2.24773">
        <ele>35.400001525879</ele>
        <time>2020-12-20T09:46:13.000Z</time>
      </trkpt>
      <trkpt lat="47.27455" lon="-2.24779">
        <ele>35.799999237061</ele>
        <time>2020-12-20T09:46:16.000Z</time>
      </trkpt>
      <trkpt lat="47.27457" lon="-2.2478">
        <ele>36.200000762939</ele>
        <time>2020-12-20T09:46:17.000Z</time>
      </trkpt>
      <trkpt lat="47.2746" lon="-2.24782">
        <ele>36.599998474121</ele>
        <time>2020-12-20T09:46:18.000Z</time>
      </trkpt>
      <trkpt lat="47.27462" lon="-2.24784">
        <ele>37</ele>
        <time>2020-12-20T09:46:19.000Z</time>
      </trkpt>
      <trkpt lat="47.27465" lon="-2.24785">
        <ele>37.400001525879</ele>
        <time>2020-12-20T09:46:20.000Z</time>
      </trkpt>
      <trkpt lat="47.27468" lon="-2.24788">
        <ele>37.799999237061</ele>
        <time>2020-12-20T09:46:21.000Z</time>
      </trkpt>
      <trkpt lat="47.27471" lon="-2.24789">
        <ele>38.200000762939</ele>
        <time>2020-12-20T09:46:22.000Z</time>
      </trkpt>
      <trkpt lat="47.27473" lon="-2.2479">
        <ele>38.599998474121</ele>
        <time>2020-12-20T09:46:23.000Z</time>
      </trkpt>
      <trkpt lat="47.27476" lon="-2.2479">
        <ele>39</ele>
        <time>2020-12-20T09:46:24.000Z</time>
      </trkpt>
      <trkpt lat="47.27479" lon="-2.2479">
        <ele>39.400001525879</ele>
        <time>2020-12-20T09:46:25.000Z</time>
      </trkpt>
      <trkpt lat="47.27488" lon="-2.2479">
        <ele>40.200000762939</ele>
        <time>2020-12-20T09:46:28.000Z</time>
      </trkpt>
      <trkpt lat="47.27491" lon="-2.2479">
        <ele>40.599998474121</ele>
        <time>2020-12-20T09:46:29.000Z</time>
      </trkpt>
      <trkpt lat="47.27494" lon="-2.24789">
        <ele>41</ele>
        <time>2020-12-20T09:46:30.000Z</time>
      </trkpt>
      <trkpt lat="47.27498" lon="-2.24789">
        <ele>41.400001525879</ele>
        <time>2020-12-20T09:46:31.000Z</time>
      </trkpt>
      <trkpt lat="47.27523" lon="-2.2479">
        <ele>41.400001525879</ele>
        <time>2020-12-20T09:46:37.000Z</time>
      </trkpt>
      <trkpt lat="47.27544" lon="-2.24787">
        <ele>41.400001525879</ele>
        <time>2020-12-20T09:46:41.000Z</time>
      </trkpt>
      <trkpt lat="47.27554" lon="-2.24786">
        <ele>41.400001525879</ele>
        <time>2020-12-20T09:46:43.000Z</time>
      </trkpt>
      <trkpt lat="47.2757" lon="-2.24787">
        <ele>41.799999237061</ele>
        <time>2020-12-20T09:46:46.000Z</time>
      </trkpt>
      <trkpt lat="47.27576" lon="-2.24788">
        <ele>42.200000762939</ele>
        <time>2020-12-20T09:46:47.000Z</time>
      </trkpt>
      <trkpt lat="47.27581" lon="-2.24789">
        <ele>42.799999237061</ele>
        <time>2020-12-20T09:46:48.000Z</time>
      </trkpt>
      <trkpt lat="47.27587" lon="-2.2479">
        <ele>43.200000762939</ele>
        <time>2020-12-20T09:46:49.000Z</time>
      </trkpt>
      <trkpt lat="47.27593" lon="-2.24791">
        <ele>43.599998474121</ele>
        <time>2020-12-20T09:46:50.000Z</time>
      </trkpt>
      <trkpt lat="47.27604" lon="-2.24791">
        <ele>43.599998474121</ele>
        <time>2020-12-20T09:46:52.000Z</time>
      </trkpt>
      <trkpt lat="47.2762" lon="-2.24789">
        <ele>43.599998474121</ele>
        <time>2020-12-20T09:46:55.000Z</time>
      </trkpt>
      <trkpt lat="47.27625" lon="-2.24789">
        <ele>43.599998474121</ele>
        <time>2020-12-20T09:46:56.000Z</time>
      </trkpt>
      <trkpt lat="47.27646" lon="-2.24793">
        <ele>43.599998474121</ele>
        <time>2020-12-20T09:47:00.000Z</time>
      </trkpt>
      <trkpt lat="47.27652" lon="-2.24797">
        <ele>43.599998474121</ele>
        <time>2020-12-20T09:47:01.000Z</time>
      </trkpt>
      <trkpt lat="47.27679" lon="-2.24805">
        <ele>43.599998474121</ele>
        <time>2020-12-20T09:47:05.000Z</time>
      </trkpt>
      <trkpt lat="47.27685" lon="-2.24805">
        <ele>43.599998474121</ele>
        <time>2020-12-20T09:47:06.000Z</time>
      </trkpt>
      <trkpt lat="47.27719" lon="-2.24802">
        <ele>43.599998474121</ele>
        <time>2020-12-20T09:47:12.000Z</time>
      </trkpt>
      <trkpt lat="47.27757" lon="-2.24802">
        <ele>43.599998474121</ele>
        <time>2020-12-20T09:47:19.000Z</time>
      </trkpt>
      <trkpt lat="47.27794" lon="-2.248">
        <ele>43.599998474121</ele>
        <time>2020-12-20T09:47:26.000Z</time>
      </trkpt>
      <trkpt lat="47.27828" lon="-2.24796">
        <ele>43.599998474121</ele>
        <time>2020-12-20T09:47:33.000Z</time>
      </trkpt>
      <trkpt lat="47.27844" lon="-2.24792">
        <ele>43.599998474121</ele>
        <time>2020-12-20T09:47:36.000Z</time>
      </trkpt>
      <trkpt lat="47.27853" lon="-2.24785">
        <ele>43.599998474121</ele>
        <time>2020-12-20T09:47:38.000Z</time>
      </trkpt>
      <trkpt lat="47.27861" lon="-2.24769">
        <ele>43.599998474121</ele>
        <time>2020-12-20T09:47:41.000Z</time>
      </trkpt>
      <trkpt lat="47.2787" lon="-2.24771">
        <ele>43.599998474121</ele>
        <time>2020-12-20T09:47:43.000Z</time>
      </trkpt>
      <trkpt lat="47.27879" lon="-2.2476">
        <ele>43.599998474121</ele>
        <time>2020-12-20T09:47:46.000Z</time>
      </trkpt>
      <trkpt lat="47.2788" lon="-2.24749">
        <ele>43.599998474121</ele>
        <time>2020-12-20T09:47:48.000Z</time>
      </trkpt>
      <trkpt lat="47.27882" lon="-2.24737">
        <ele>43.599998474121</ele>
        <time>2020-12-20T09:47:50.000Z</time>
      </trkpt>
      <trkpt lat="47.27886" lon="-2.24689">
        <ele>43.599998474121</ele>
        <time>2020-12-20T09:47:57.000Z</time>
      </trkpt>
      <trkpt lat="47.27887" lon="-2.24674">
        <ele>44</ele>
        <time>2020-12-20T09:47:59.000Z</time>
      </trkpt>
      <trkpt lat="47.27889" lon="-2.24666">
        <ele>44.400001525879</ele>
        <time>2020-12-20T09:48:00.000Z</time>
      </trkpt>
      <trkpt lat="47.27889" lon="-2.2466">
        <ele>45</ele>
        <time>2020-12-20T09:48:01.000Z</time>
      </trkpt>
      <trkpt lat="47.2789" lon="-2.24652">
        <ele>45.400001525879</ele>
        <time>2020-12-20T09:48:02.000Z</time>
      </trkpt>
      <trkpt lat="47.27891" lon="-2.24645">
        <ele>45.799999237061</ele>
        <time>2020-12-20T09:48:03.000Z</time>
      </trkpt>
      <trkpt lat="47.27892" lon="-2.24605">
        <ele>45.799999237061</ele>
        <time>2020-12-20T09:48:09.000Z</time>
      </trkpt>
      <trkpt lat="47.27895" lon="-2.24598">
        <ele>45.799999237061</ele>
        <time>2020-12-20T09:48:12.000Z</time>
      </trkpt>
      <trkpt lat="47.27898" lon="-2.24598">
        <ele>45.799999237061</ele>
        <time>2020-12-20T09:48:13.000Z</time>
      </trkpt>
      <trkpt lat="47.27908" lon="-2.24599">
        <ele>46.200000762939</ele>
        <time>2020-12-20T09:48:16.000Z</time>
      </trkpt>
      <trkpt lat="47.27912" lon="-2.24599">
        <ele>46.599998474121</ele>
        <time>2020-12-20T09:48:17.000Z</time>
      </trkpt>
      <trkpt lat="47.27915" lon="-2.246">
        <ele>47</ele>
        <time>2020-12-20T09:48:18.000Z</time>
      </trkpt>
      <trkpt lat="47.27919" lon="-2.24601">
        <ele>47.400001525879</ele>
        <time>2020-12-20T09:48:19.000Z</time>
      </trkpt>
      <trkpt lat="47.27923" lon="-2.24602">
        <ele>47.799999237061</ele>
        <time>2020-12-20T09:48:20.000Z</time>
      </trkpt>
      <trkpt lat="47.27937" lon="-2.24603">
        <ele>48.200000762939</ele>
        <time>2020-12-20T09:48:24.000Z</time>
      </trkpt>
      <trkpt lat="47.27941" lon="-2.24603">
        <ele>48.599998474121</ele>
        <time>2020-12-20T09:48:25.000Z</time>
      </trkpt>
      <trkpt lat="47.27944" lon="-2.24603">
        <ele>49.200000762939</ele>
        <time>2020-12-20T09:48:26.000Z</time>
      </trkpt>
      <trkpt lat="47.27947" lon="-2.24603">
        <ele>49.599998474121</ele>
        <time>2020-12-20T09:48:27.000Z</time>
      </trkpt>
      <trkpt lat="47.27951" lon="-2.24604">
        <ele>50</ele>
        <time>2020-12-20T09:48:28.000Z</time>
      </trkpt>
      <trkpt lat="47.27961" lon="-2.24608">
        <ele>50.400001525879</ele>
        <time>2020-12-20T09:48:31.000Z</time>
      </trkpt>
      <trkpt lat="47.27964" lon="-2.24609">
        <ele>50.799999237061</ele>
        <time>2020-12-20T09:48:32.000Z</time>
      </trkpt>
      <trkpt lat="47.27967" lon="-2.24611">
        <ele>51.200000762939</ele>
        <time>2020-12-20T09:48:33.000Z</time>
      </trkpt>
      <trkpt lat="47.2797" lon="-2.24613">
        <ele>51.599998474121</ele>
        <time>2020-12-20T09:48:34.000Z</time>
      </trkpt>
      <trkpt lat="47.27973" lon="-2.24615">
        <ele>52</ele>
        <time>2020-12-20T09:48:35.000Z</time>
      </trkpt>
      <trkpt lat="47.27977" lon="-2.24624">
        <ele>52</ele>
        <time>2020-12-20T09:48:37.000Z</time>
      </trkpt>
      <trkpt lat="47.27977" lon="-2.24631">
        <ele>52</ele>
        <time>2020-12-20T09:48:38.000Z</time>
      </trkpt>
      <trkpt lat="47.27978" lon="-2.24644">
        <ele>52</ele>
        <time>2020-12-20T09:48:40.000Z</time>
      </trkpt>
      <trkpt lat="47.27979" lon="-2.24693">
        <ele>52</ele>
        <time>2020-12-20T09:48:47.000Z</time>
      </trkpt>
      <trkpt lat="47.2798" lon="-2.24733">
        <ele>52</ele>
        <time>2020-12-20T09:48:54.000Z</time>
      </trkpt>
      <trkpt lat="47.27979" lon="-2.24751">
        <ele>51.599998474121</ele>
        <time>2020-12-20T09:48:58.000Z</time>
      </trkpt>
      <trkpt lat="47.27977" lon="-2.24756">
        <ele>51.200000762939</ele>
        <time>2020-12-20T09:48:59.000Z</time>
      </trkpt>
      <trkpt lat="47.27975" lon="-2.2476">
        <ele>50.799999237061</ele>
        <time>2020-12-20T09:49:00.000Z</time>
      </trkpt>
      <trkpt lat="47.27974" lon="-2.24764">
        <ele>50.400001525879</ele>
        <time>2020-12-20T09:49:01.000Z</time>
      </trkpt>
      <trkpt lat="47.27973" lon="-2.24766">
        <ele>49.799999237061</ele>
        <time>2020-12-20T09:49:02.000Z</time>
      </trkpt>
      <trkpt lat="47.27974" lon="-2.24768">
        <ele>49.799999237061</ele>
        <time>2020-12-20T09:49:03.000Z</time>
      </trkpt>
      <trkpt lat="47.27975" lon="-2.2477">
        <ele>49.799999237061</ele>
        <time>2020-12-20T09:49:04.000Z</time>
      </trkpt>
      <trkpt lat="47.27984" lon="-2.24781">
        <ele>49.799999237061</ele>
        <time>2020-12-20T09:49:09.000Z</time>
      </trkpt>
      <trkpt lat="47.27986" lon="-2.24783">
        <ele>49.799999237061</ele>
        <time>2020-12-20T09:49:10.000Z</time>
      </trkpt>
      <trkpt lat="47.27997" lon="-2.24799">
        <ele>49.799999237061</ele>
        <time>2020-12-20T09:49:16.000Z</time>
      </trkpt>
      <trkpt lat="47.28012" lon="-2.24797">
        <ele>49.799999237061</ele>
        <time>2020-12-20T09:49:20.000Z</time>
      </trkpt>
      <trkpt lat="47.28017" lon="-2.24796">
        <ele>49.799999237061</ele>
        <time>2020-12-20T09:49:21.000Z</time>
      </trkpt>
      <trkpt lat="47.28035" lon="-2.24794">
        <ele>49.799999237061</ele>
        <time>2020-12-20T09:49:24.000Z</time>
      </trkpt>
      <trkpt lat="47.28041" lon="-2.24793">
        <ele>49.799999237061</ele>
        <time>2020-12-20T09:49:25.000Z</time>
      </trkpt>
      <trkpt lat="47.28091" lon="-2.24789">
        <ele>49.799999237061</ele>
        <time>2020-12-20T09:49:33.000Z</time>
      </trkpt>
      <trkpt lat="47.2811" lon="-2.24793">
        <ele>49.400001525879</ele>
        <time>2020-12-20T09:49:36.000Z</time>
      </trkpt>
      <trkpt lat="47.28116" lon="-2.24794">
        <ele>49</ele>
        <time>2020-12-20T09:49:37.000Z</time>
      </trkpt>
      <trkpt lat="47.28122" lon="-2.24796">
        <ele>48.599998474121</ele>
        <time>2020-12-20T09:49:38.000Z</time>
      </trkpt>
      <trkpt lat="47.28128" lon="-2.24798">
        <ele>48.200000762939</ele>
        <time>2020-12-20T09:49:39.000Z</time>
      </trkpt>
      <trkpt lat="47.28133" lon="-2.24799">
        <ele>47.799999237061</ele>
        <time>2020-12-20T09:49:40.000Z</time>
      </trkpt>
      <trkpt lat="47.28144" lon="-2.24802">
        <ele>47.400001525879</ele>
        <time>2020-12-20T09:49:42.000Z</time>
      </trkpt>
      <trkpt lat="47.28149" lon="-2.24803">
        <ele>47</ele>
        <time>2020-12-20T09:49:43.000Z</time>
      </trkpt>
      <trkpt lat="47.28155" lon="-2.24804">
        <ele>46.400001525879</ele>
        <time>2020-12-20T09:49:44.000Z</time>
      </trkpt>
      <trkpt lat="47.28161" lon="-2.24806">
        <ele>46</ele>
        <time>2020-12-20T09:49:45.000Z</time>
      </trkpt>
      <trkpt lat="47.28168" lon="-2.24807">
        <ele>45</ele>
        <time>2020-12-20T09:49:46.000Z</time>
      </trkpt>
      <trkpt lat="47.28174" lon="-2.24808">
        <ele>44.400001525879</ele>
        <time>2020-12-20T09:49:47.000Z</time>
      </trkpt>
      <trkpt lat="47.28182" lon="-2.24809">
        <ele>43.799999237061</ele>
        <time>2020-12-20T09:49:48.000Z</time>
      </trkpt>
      <trkpt lat="47.2819" lon="-2.2481">
        <ele>43.200000762939</ele>
        <time>2020-12-20T09:49:49.000Z</time>
      </trkpt>
      <trkpt lat="47.28199" lon="-2.24811">
        <ele>42.400001525879</ele>
        <time>2020-12-20T09:49:50.000Z</time>
      </trkpt>
      <trkpt lat="47.28208" lon="-2.24812">
        <ele>41.599998474121</ele>
        <time>2020-12-20T09:49:51.000Z</time>
      </trkpt>
      <trkpt lat="47.28217" lon="-2.24813">
        <ele>41</ele>
        <time>2020-12-20T09:49:52.000Z</time>
      </trkpt>
      <trkpt lat="47.28225" lon="-2.24814">
        <ele>40</ele>
        <time>2020-12-20T09:49:53.000Z</time>
      </trkpt>
      <trkpt lat="47.28233" lon="-2.24813">
        <ele>39</ele>
        <time>2020-12-20T09:49:54.000Z</time>
      </trkpt>
      <trkpt lat="47.28241" lon="-2.24812">
        <ele>38.200000762939</ele>
        <time>2020-12-20T09:49:55.000Z</time>
      </trkpt>
      <trkpt lat="47.28248" lon="-2.24811">
        <ele>37.200000762939</ele>
        <time>2020-12-20T09:49:56.000Z</time>
      </trkpt>
      <trkpt lat="47.28256" lon="-2.24809">
        <ele>36.599998474121</ele>
        <time>2020-12-20T09:49:57.000Z</time>
      </trkpt>
      <trkpt lat="47.28263" lon="-2.24806">
        <ele>36</ele>
        <time>2020-12-20T09:49:58.000Z</time>
      </trkpt>
      <trkpt lat="47.2827" lon="-2.24803">
        <ele>35.200000762939</ele>
        <time>2020-12-20T09:49:59.000Z</time>
      </trkpt>
      <trkpt lat="47.28277" lon="-2.24797">
        <ele>34.599998474121</ele>
        <time>2020-12-20T09:50:00.000Z</time>
      </trkpt>
      <trkpt lat="47.28284" lon="-2.24792">
        <ele>34</ele>
        <time>2020-12-20T09:50:01.000Z</time>
      </trkpt>
      <trkpt lat="47.28318" lon="-2.24767">
        <ele>33.599998474121</ele>
        <time>2020-12-20T09:50:06.000Z</time>
      </trkpt>
      <trkpt lat="47.28324" lon="-2.24763">
        <ele>33.200000762939</ele>
        <time>2020-12-20T09:50:07.000Z</time>
      </trkpt>
      <trkpt lat="47.28332" lon="-2.2476">
        <ele>32.599998474121</ele>
        <time>2020-12-20T09:50:08.000Z</time>
      </trkpt>
      <trkpt lat="47.2834" lon="-2.2476">
        <ele>32.200000762939</ele>
        <time>2020-12-20T09:50:09.000Z</time>
      </trkpt>
      <trkpt lat="47.28347" lon="-2.24761">
        <ele>31.799999237061</ele>
        <time>2020-12-20T09:50:10.000Z</time>
      </trkpt>
      <trkpt lat="47.28365" lon="-2.2477">
        <ele>31.39999961853</ele>
        <time>2020-12-20T09:50:13.000Z</time>
      </trkpt>
      <trkpt lat="47.2837" lon="-2.24772">
        <ele>30.799999237061</ele>
        <time>2020-12-20T09:50:14.000Z</time>
      </trkpt>
      <trkpt lat="47.28374" lon="-2.24774">
        <ele>30.39999961853</ele>
        <time>2020-12-20T09:50:15.000Z</time>
      </trkpt>
      <trkpt lat="47.28378" lon="-2.24774">
        <ele>30</ele>
        <time>2020-12-20T09:50:16.000Z</time>
      </trkpt>
      <trkpt lat="47.28383" lon="-2.24774">
        <ele>29.39999961853</ele>
        <time>2020-12-20T09:50:17.000Z</time>
      </trkpt>
      <trkpt lat="47.28387" lon="-2.24772">
        <ele>29.39999961853</ele>
        <time>2020-12-20T09:50:18.000Z</time>
      </trkpt>
      <trkpt lat="47.28395" lon="-2.24767">
        <ele>29</ele>
        <time>2020-12-20T09:50:20.000Z</time>
      </trkpt>
      <trkpt lat="47.284" lon="-2.24764">
        <ele>28.60000038147</ele>
        <time>2020-12-20T09:50:21.000Z</time>
      </trkpt>
      <trkpt lat="47.28405" lon="-2.24761">
        <ele>28.200000762939</ele>
        <time>2020-12-20T09:50:22.000Z</time>
      </trkpt>
      <trkpt lat="47.2841" lon="-2.24757">
        <ele>27.799999237061</ele>
        <time>2020-12-20T09:50:23.000Z</time>
      </trkpt>
      <trkpt lat="47.28416" lon="-2.24752">
        <ele>27.39999961853</ele>
        <time>2020-12-20T09:50:24.000Z</time>
      </trkpt>
      <trkpt lat="47.28434" lon="-2.24741">
        <ele>27.39999961853</ele>
        <time>2020-12-20T09:50:27.000Z</time>
      </trkpt>
      <trkpt lat="47.2844" lon="-2.24737">
        <ele>27.39999961853</ele>
        <time>2020-12-20T09:50:28.000Z</time>
      </trkpt>
      <trkpt lat="47.28469" lon="-2.24715">
        <ele>27.39999961853</ele>
        <time>2020-12-20T09:50:33.000Z</time>
      </trkpt>
      <trkpt lat="47.28504" lon="-2.24689">
        <ele>27.39999961853</ele>
        <time>2020-12-20T09:50:39.000Z</time>
      </trkpt>
      <trkpt lat="47.28523" lon="-2.24673">
        <ele>27.39999961853</ele>
        <time>2020-12-20T09:50:43.000Z</time>
      </trkpt>
      <trkpt lat="47.28532" lon="-2.24666">
        <ele>27.39999961853</ele>
        <time>2020-12-20T09:50:45.000Z</time>
      </trkpt>
      <trkpt lat="47.28549" lon="-2.24651">
        <ele>27.39999961853</ele>
        <time>2020-12-20T09:50:49.000Z</time>
      </trkpt>
      <trkpt lat="47.28568" lon="-2.24634">
        <ele>27.39999961853</ele>
        <time>2020-12-20T09:50:54.000Z</time>
      </trkpt>
      <trkpt lat="47.28579" lon="-2.24626">
        <ele>27.39999961853</ele>
        <time>2020-12-20T09:50:59.000Z</time>
      </trkpt>
      <trkpt lat="47.28582" lon="-2.2462">
        <ele>27.39999961853</ele>
        <time>2020-12-20T09:51:01.000Z</time>
      </trkpt>
      <trkpt lat="47.28587" lon="-2.24615">
        <ele>27.39999961853</ele>
        <time>2020-12-20T09:51:03.000Z</time>
      </trkpt>
      <trkpt lat="47.28597" lon="-2.24607">
        <ele>27.39999961853</ele>
        <time>2020-12-20T09:51:06.000Z</time>
      </trkpt>
      <trkpt lat="47.28604" lon="-2.24596">
        <ele>27.39999961853</ele>
        <time>2020-12-20T09:51:08.000Z</time>
      </trkpt>
      <trkpt lat="47.28607" lon="-2.24583">
        <ele>27.39999961853</ele>
        <time>2020-12-20T09:51:10.000Z</time>
      </trkpt>
      <trkpt lat="47.28612" lon="-2.24563">
        <ele>27.39999961853</ele>
        <time>2020-12-20T09:51:13.000Z</time>
      </trkpt>
      <trkpt lat="47.28615" lon="-2.24549">
        <ele>27.39999961853</ele>
        <time>2020-12-20T09:51:15.000Z</time>
      </trkpt>
      <trkpt lat="47.28619" lon="-2.24534">
        <ele>27.39999961853</ele>
        <time>2020-12-20T09:51:17.000Z</time>
      </trkpt>
      <trkpt lat="47.28633" lon="-2.24479">
        <ele>27.39999961853</ele>
        <time>2020-12-20T09:51:24.000Z</time>
      </trkpt>
      <trkpt lat="47.28647" lon="-2.24426">
        <ele>27.39999961853</ele>
        <time>2020-12-20T09:51:30.000Z</time>
      </trkpt>
      <trkpt lat="47.2866" lon="-2.24372">
        <ele>27.39999961853</ele>
        <time>2020-12-20T09:51:36.000Z</time>
      </trkpt>
      <trkpt lat="47.28678" lon="-2.24305">
        <ele>27.39999961853</ele>
        <time>2020-12-20T09:51:44.000Z</time>
      </trkpt>
      <trkpt lat="47.28688" lon="-2.24265">
        <ele>27.39999961853</ele>
        <time>2020-12-20T09:51:49.000Z</time>
      </trkpt>
      <trkpt lat="47.28688" lon="-2.24257">
        <ele>27.39999961853</ele>
        <time>2020-12-20T09:51:50.000Z</time>
      </trkpt>
      <trkpt lat="47.28686" lon="-2.24224">
        <ele>27.39999961853</ele>
        <time>2020-12-20T09:51:54.000Z</time>
      </trkpt>
      <trkpt lat="47.28684" lon="-2.24215">
        <ele>27.39999961853</ele>
        <time>2020-12-20T09:51:55.000Z</time>
      </trkpt>
      <trkpt lat="47.28675" lon="-2.24143">
        <ele>27.39999961853</ele>
        <time>2020-12-20T09:52:03.000Z</time>
      </trkpt>
      <trkpt lat="47.28669" lon="-2.24071">
        <ele>27.39999961853</ele>
        <time>2020-12-20T09:52:11.000Z</time>
      </trkpt>
      <trkpt lat="47.28666" lon="-2.24016">
        <ele>27.39999961853</ele>
        <time>2020-12-20T09:52:17.000Z</time>
      </trkpt>
      <trkpt lat="47.28658" lon="-2.23955">
        <ele>27.39999961853</ele>
        <time>2020-12-20T09:52:24.000Z</time>
      </trkpt>
      <trkpt lat="47.2865" lon="-2.23903">
        <ele>27.39999961853</ele>
        <time>2020-12-20T09:52:30.000Z</time>
      </trkpt>
      <trkpt lat="47.28642" lon="-2.2384">
        <ele>27.39999961853</ele>
        <time>2020-12-20T09:52:37.000Z</time>
      </trkpt>
      <trkpt lat="47.28635" lon="-2.2379">
        <ele>27.39999961853</ele>
        <time>2020-12-20T09:52:43.000Z</time>
      </trkpt>
      <trkpt lat="47.2863" lon="-2.23742">
        <ele>27.39999961853</ele>
        <time>2020-12-20T09:52:49.000Z</time>
      </trkpt>
      <trkpt lat="47.28625" lon="-2.23701">
        <ele>27.39999961853</ele>
        <time>2020-12-20T09:52:54.000Z</time>
      </trkpt>
      <trkpt lat="47.28621" lon="-2.23644">
        <ele>27.39999961853</ele>
        <time>2020-12-20T09:53:01.000Z</time>
      </trkpt>
      <trkpt lat="47.28621" lon="-2.23622">
        <ele>27.39999961853</ele>
        <time>2020-12-20T09:53:04.000Z</time>
      </trkpt>
      <trkpt lat="47.28622" lon="-2.236">
        <ele>27</ele>
        <time>2020-12-20T09:53:07.000Z</time>
      </trkpt>
      <trkpt lat="47.28624" lon="-2.23594">
        <ele>26.60000038147</ele>
        <time>2020-12-20T09:53:08.000Z</time>
      </trkpt>
      <trkpt lat="47.28625" lon="-2.23589">
        <ele>26.200000762939</ele>
        <time>2020-12-20T09:53:09.000Z</time>
      </trkpt>
      <trkpt lat="47.28626" lon="-2.23584">
        <ele>25.60000038147</ele>
        <time>2020-12-20T09:53:10.000Z</time>
      </trkpt>
      <trkpt lat="47.28626" lon="-2.2358">
        <ele>25.200000762939</ele>
        <time>2020-12-20T09:53:11.000Z</time>
      </trkpt>
      <trkpt lat="47.28631" lon="-2.23565">
        <ele>25.200000762939</ele>
        <time>2020-12-20T09:53:14.000Z</time>
      </trkpt>
      <trkpt lat="47.28645" lon="-2.23556">
        <ele>25.200000762939</ele>
        <time>2020-12-20T09:53:18.000Z</time>
      </trkpt>
      <trkpt lat="47.2865" lon="-2.23533">
        <ele>25.200000762939</ele>
        <time>2020-12-20T09:53:22.000Z</time>
      </trkpt>
      <trkpt lat="47.28651" lon="-2.23513">
        <ele>25.200000762939</ele>
        <time>2020-12-20T09:53:25.000Z</time>
      </trkpt>
      <trkpt lat="47.28653" lon="-2.235">
        <ele>25.200000762939</ele>
        <time>2020-12-20T09:53:27.000Z</time>
      </trkpt>
      <trkpt lat="47.28654" lon="-2.23494">
        <ele>25.200000762939</ele>
        <time>2020-12-20T09:53:28.000Z</time>
      </trkpt>
      <trkpt lat="47.28656" lon="-2.23455">
        <ele>25.200000762939</ele>
        <time>2020-12-20T09:53:34.000Z</time>
      </trkpt>
      <trkpt lat="47.28651" lon="-2.23432">
        <ele>25.200000762939</ele>
        <time>2020-12-20T09:53:38.000Z</time>
      </trkpt>
      <trkpt lat="47.28646" lon="-2.23413">
        <ele>25.200000762939</ele>
        <time>2020-12-20T09:53:41.000Z</time>
      </trkpt>
      <trkpt lat="47.28645" lon="-2.23405">
        <ele>25.200000762939</ele>
        <time>2020-12-20T09:53:42.000Z</time>
      </trkpt>
      <trkpt lat="47.28646" lon="-2.23382">
        <ele>25.200000762939</ele>
        <time>2020-12-20T09:53:45.000Z</time>
      </trkpt>
      <trkpt lat="47.28646" lon="-2.23376">
        <ele>25.200000762939</ele>
        <time>2020-12-20T09:53:46.000Z</time>
      </trkpt>
      <trkpt lat="47.28651" lon="-2.23359">
        <ele>25.200000762939</ele>
        <time>2020-12-20T09:53:50.000Z</time>
      </trkpt>
      <trkpt lat="47.28655" lon="-2.23356">
        <ele>25.200000762939</ele>
        <time>2020-12-20T09:53:52.000Z</time>
      </trkpt>
      <trkpt lat="47.28659" lon="-2.23358">
        <ele>25.200000762939</ele>
        <time>2020-12-20T09:53:54.000Z</time>
      </trkpt>
      <trkpt lat="47.28664" lon="-2.23359">
        <ele>25.200000762939</ele>
        <time>2020-12-20T09:53:57.000Z</time>
      </trkpt>
      <trkpt lat="47.28666" lon="-2.23357">
        <ele>25.200000762939</ele>
        <time>2020-12-20T09:53:59.000Z</time>
      </trkpt>
      <trkpt lat="47.28667" lon="-2.23341">
        <ele>25.200000762939</ele>
        <time>2020-12-20T09:54:03.000Z</time>
      </trkpt>
      <trkpt lat="47.28669" lon="-2.23322">
        <ele>25.200000762939</ele>
        <time>2020-12-20T09:54:08.000Z</time>
      </trkpt>
      <trkpt lat="47.28673" lon="-2.23309">
        <ele>25.200000762939</ele>
        <time>2020-12-20T09:54:15.000Z</time>
      </trkpt>
      <trkpt lat="47.28676" lon="-2.23293">
        <ele>25.200000762939</ele>
        <time>2020-12-20T09:54:20.000Z</time>
      </trkpt>
      <trkpt lat="47.28677" lon="-2.23279">
        <ele>25.200000762939</ele>
        <time>2020-12-20T09:54:24.000Z</time>
      </trkpt>
      <trkpt lat="47.2868" lon="-2.23264">
        <ele>25.200000762939</ele>
        <time>2020-12-20T09:54:29.000Z</time>
      </trkpt>
      <trkpt lat="47.28683" lon="-2.23256">
        <ele>25.200000762939</ele>
        <time>2020-12-20T09:54:32.000Z</time>
      </trkpt>
      <trkpt lat="47.28683" lon="-2.23248">
        <ele>25.200000762939</ele>
        <time>2020-12-20T09:54:35.000Z</time>
      </trkpt>
      <trkpt lat="47.28681" lon="-2.23235">
        <ele>25.200000762939</ele>
        <time>2020-12-20T09:54:40.000Z</time>
      </trkpt>
      <trkpt lat="47.2868" lon="-2.23221">
        <ele>25.200000762939</ele>
        <time>2020-12-20T09:54:45.000Z</time>
      </trkpt>
      <trkpt lat="47.28679" lon="-2.23201">
        <ele>25.200000762939</ele>
        <time>2020-12-20T09:54:49.000Z</time>
      </trkpt>
      <trkpt lat="47.28677" lon="-2.23192">
        <ele>24.799999237061</ele>
        <time>2020-12-20T09:54:51.000Z</time>
      </trkpt>
      <trkpt lat="47.28675" lon="-2.23189">
        <ele>24.39999961853</ele>
        <time>2020-12-20T09:54:52.000Z</time>
      </trkpt>
      <trkpt lat="47.28673" lon="-2.23187">
        <ele>24</ele>
        <time>2020-12-20T09:54:53.000Z</time>
      </trkpt>
      <trkpt lat="47.28671" lon="-2.23186">
        <ele>23.60000038147</ele>
        <time>2020-12-20T09:54:54.000Z</time>
      </trkpt>
      <trkpt lat="47.28668" lon="-2.23185">
        <ele>23.200000762939</ele>
        <time>2020-12-20T09:54:55.000Z</time>
      </trkpt>
      <trkpt lat="47.28656" lon="-2.23179">
        <ele>23.200000762939</ele>
        <time>2020-12-20T09:54:59.000Z</time>
      </trkpt>
      <trkpt lat="47.28649" lon="-2.23178">
        <ele>23.200000762939</ele>
        <time>2020-12-20T09:55:01.000Z</time>
      </trkpt>
      <trkpt lat="47.2864" lon="-2.2318">
        <ele>23.200000762939</ele>
        <time>2020-12-20T09:55:03.000Z</time>
      </trkpt>
      <trkpt lat="47.28636" lon="-2.23182">
        <ele>23.200000762939</ele>
        <time>2020-12-20T09:55:04.000Z</time>
      </trkpt>
      <trkpt lat="47.28618" lon="-2.23193">
        <ele>23.200000762939</ele>
        <time>2020-12-20T09:55:08.000Z</time>
      </trkpt>
      <trkpt lat="47.28602" lon="-2.23208">
        <ele>23.200000762939</ele>
        <time>2020-12-20T09:55:13.000Z</time>
      </trkpt>
      <trkpt lat="47.28596" lon="-2.23227">
        <ele>23.200000762939</ele>
        <time>2020-12-20T09:55:17.000Z</time>
      </trkpt>
      <trkpt lat="47.28592" lon="-2.23259">
        <ele>23.200000762939</ele>
        <time>2020-12-20T09:55:22.000Z</time>
      </trkpt>
      <trkpt lat="47.28593" lon="-2.23266">
        <ele>23.200000762939</ele>
        <time>2020-12-20T09:55:23.000Z</time>
      </trkpt>
      <trkpt lat="47.28597" lon="-2.23284">
        <ele>23.200000762939</ele>
        <time>2020-12-20T09:55:26.000Z</time>
      </trkpt>
      <trkpt lat="47.28601" lon="-2.23293">
        <ele>23.200000762939</ele>
        <time>2020-12-20T09:55:28.000Z</time>
      </trkpt>
      <trkpt lat="47.28609" lon="-2.23297">
        <ele>23.200000762939</ele>
        <time>2020-12-20T09:55:30.000Z</time>
      </trkpt>
      <trkpt lat="47.28616" lon="-2.23299">
        <ele>23.200000762939</ele>
        <time>2020-12-20T09:55:32.000Z</time>
      </trkpt>
      <trkpt lat="47.28624" lon="-2.23299">
        <ele>23.200000762939</ele>
        <time>2020-12-20T09:55:34.000Z</time>
      </trkpt>
      <trkpt lat="47.28636" lon="-2.23296">
        <ele>23.200000762939</ele>
        <time>2020-12-20T09:55:37.000Z</time>
      </trkpt>
      <trkpt lat="47.28654" lon="-2.23299">
        <ele>23.200000762939</ele>
        <time>2020-12-20T09:55:42.000Z</time>
      </trkpt>
      <trkpt lat="47.28662" lon="-2.233">
        <ele>23.200000762939</ele>
        <time>2020-12-20T09:55:45.000Z</time>
      </trkpt>
      <trkpt lat="47.28664" lon="-2.233">
        <ele>23.200000762939</ele>
        <time>2020-12-20T09:55:46.000Z</time>
      </trkpt>
      <trkpt lat="47.28664" lon="-2.23297">
        <ele>23.60000038147</ele>
        <time>2020-12-20T09:55:48.000Z</time>
      </trkpt>
      <trkpt lat="47.28664" lon="-2.23295">
        <ele>24</ele>
        <time>2020-12-20T09:55:49.000Z</time>
      </trkpt>
      <trkpt lat="47.28664" lon="-2.23294">
        <ele>24.39999961853</ele>
        <time>2020-12-20T09:55:50.000Z</time>
      </trkpt>
      <trkpt lat="47.28664" lon="-2.23293">
        <ele>24.799999237061</ele>
        <time>2020-12-20T09:55:51.000Z</time>
      </trkpt>
      <trkpt lat="47.28664" lon="-2.23292">
        <ele>25.39999961853</ele>
        <time>2020-12-20T09:55:52.000Z</time>
      </trkpt>
      <trkpt lat="47.28664" lon="-2.23294">
        <ele>22.60000038147</ele>
        <time>2020-12-20T10:12:17.000Z</time>
      </trkpt>
      <trkpt lat="47.28659" lon="-2.23306">
        <ele>22.200000762939</ele>
        <time>2020-12-20T10:12:21.000Z</time>
      </trkpt>
      <trkpt lat="47.28658" lon="-2.23308">
        <ele>21.60000038147</ele>
        <time>2020-12-20T10:12:22.000Z</time>
      </trkpt>
      <trkpt lat="47.28658" lon="-2.23309">
        <ele>21.200000762939</ele>
        <time>2020-12-20T10:12:23.000Z</time>
      </trkpt>
      <trkpt lat="47.28659" lon="-2.23311">
        <ele>20.60000038147</ele>
        <time>2020-12-20T10:12:24.000Z</time>
      </trkpt>
      <trkpt lat="47.28659" lon="-2.23314">
        <ele>20</ele>
        <time>2020-12-20T10:12:25.000Z</time>
      </trkpt>
      <trkpt lat="47.28659" lon="-2.23316">
        <ele>20</ele>
        <time>2020-12-20T10:12:26.000Z</time>
      </trkpt>
      <trkpt lat="47.28659" lon="-2.23327">
        <ele>20</ele>
        <time>2020-12-20T10:12:32.000Z</time>
      </trkpt>
      <trkpt lat="47.28657" lon="-2.23342">
        <ele>20</ele>
        <time>2020-12-20T10:12:38.000Z</time>
      </trkpt>
      <trkpt lat="47.28652" lon="-2.23367">
        <ele>20</ele>
        <time>2020-12-20T10:12:45.000Z</time>
      </trkpt>
      <trkpt lat="47.2865" lon="-2.23387">
        <ele>20</ele>
        <time>2020-12-20T10:12:51.000Z</time>
      </trkpt>
      <trkpt lat="47.28647" lon="-2.234">
        <ele>20</ele>
        <time>2020-12-20T10:12:56.000Z</time>
      </trkpt>
      <trkpt lat="47.2865" lon="-2.23421">
        <ele>20</ele>
        <time>2020-12-20T10:13:03.000Z</time>
      </trkpt>
      <trkpt lat="47.28652" lon="-2.23431">
        <ele>20</ele>
        <time>2020-12-20T10:13:07.000Z</time>
      </trkpt>
      <trkpt lat="47.28654" lon="-2.23436">
        <ele>20</ele>
        <time>2020-12-20T10:13:09.000Z</time>
      </trkpt>
      <trkpt lat="47.28656" lon="-2.23454">
        <ele>20</ele>
        <time>2020-12-20T10:13:13.000Z</time>
      </trkpt>
      <trkpt lat="47.28656" lon="-2.2347">
        <ele>20</ele>
        <time>2020-12-20T10:13:16.000Z</time>
      </trkpt>
      <trkpt lat="47.28656" lon="-2.23486">
        <ele>20</ele>
        <time>2020-12-20T10:13:19.000Z</time>
      </trkpt>
      <trkpt lat="47.28653" lon="-2.23514">
        <ele>20</ele>
        <time>2020-12-20T10:13:24.000Z</time>
      </trkpt>
      <trkpt lat="47.2865" lon="-2.23541">
        <ele>20</ele>
        <time>2020-12-20T10:13:29.000Z</time>
      </trkpt>
      <trkpt lat="47.28655" lon="-2.23561">
        <ele>20</ele>
        <time>2020-12-20T10:13:34.000Z</time>
      </trkpt>
      <trkpt lat="47.28668" lon="-2.23567">
        <ele>20</ele>
        <time>2020-12-20T10:13:38.000Z</time>
      </trkpt>
      <trkpt lat="47.28675" lon="-2.23573">
        <ele>20</ele>
        <time>2020-12-20T10:13:40.000Z</time>
      </trkpt>
      <trkpt lat="47.28681" lon="-2.2358">
        <ele>20</ele>
        <time>2020-12-20T10:13:42.000Z</time>
      </trkpt>
      <trkpt lat="47.28692" lon="-2.23594">
        <ele>20</ele>
        <time>2020-12-20T10:13:47.000Z</time>
      </trkpt>
      <trkpt lat="47.28702" lon="-2.23595">
        <ele>20</ele>
        <time>2020-12-20T10:13:52.000Z</time>
      </trkpt>
      <trkpt lat="47.28711" lon="-2.23591">
        <ele>20</ele>
        <time>2020-12-20T10:13:56.000Z</time>
      </trkpt>
      <trkpt lat="47.28712" lon="-2.23589">
        <ele>20</ele>
        <time>2020-12-20T10:13:57.000Z</time>
      </trkpt>
      <trkpt lat="47.28724" lon="-2.23573">
        <ele>20</ele>
        <time>2020-12-20T10:14:03.000Z</time>
      </trkpt>
      <trkpt lat="47.28732" lon="-2.23553">
        <ele>20</ele>
        <time>2020-12-20T10:14:08.000Z</time>
      </trkpt>
      <trkpt lat="47.28741" lon="-2.23544">
        <ele>20.39999961853</ele>
        <time>2020-12-20T10:14:11.000Z</time>
      </trkpt>
      <trkpt lat="47.28744" lon="-2.23541">
        <ele>21</ele>
        <time>2020-12-20T10:14:12.000Z</time>
      </trkpt>
      <trkpt lat="47.28746" lon="-2.23539">
        <ele>21.39999961853</ele>
        <time>2020-12-20T10:14:13.000Z</time>
      </trkpt>
      <trkpt lat="47.28749" lon="-2.23537">
        <ele>21.799999237061</ele>
        <time>2020-12-20T10:14:14.000Z</time>
      </trkpt>
      <trkpt lat="47.28752" lon="-2.23535">
        <ele>22.200000762939</ele>
        <time>2020-12-20T10:14:15.000Z</time>
      </trkpt>
      <trkpt lat="47.28765" lon="-2.23526">
        <ele>22.60000038147</ele>
        <time>2020-12-20T10:14:19.000Z</time>
      </trkpt>
      <trkpt lat="47.28769" lon="-2.23523">
        <ele>23</ele>
        <time>2020-12-20T10:14:20.000Z</time>
      </trkpt>
      <trkpt lat="47.28772" lon="-2.23521">
        <ele>23.39999961853</ele>
        <time>2020-12-20T10:14:21.000Z</time>
      </trkpt>
      <trkpt lat="47.28776" lon="-2.23519">
        <ele>23.799999237061</ele>
        <time>2020-12-20T10:14:22.000Z</time>
      </trkpt>
      <trkpt lat="47.28779" lon="-2.23518">
        <ele>24.200000762939</ele>
        <time>2020-12-20T10:14:23.000Z</time>
      </trkpt>
      <trkpt lat="47.28787" lon="-2.23515">
        <ele>24.200000762939</ele>
        <time>2020-12-20T10:14:25.000Z</time>
      </trkpt>
      <trkpt lat="47.28813" lon="-2.23508">
        <ele>24.60000038147</ele>
        <time>2020-12-20T10:14:32.000Z</time>
      </trkpt>
      <trkpt lat="47.28817" lon="-2.23508">
        <ele>25</ele>
        <time>2020-12-20T10:14:33.000Z</time>
      </trkpt>
      <trkpt lat="47.28821" lon="-2.23508">
        <ele>25.60000038147</ele>
        <time>2020-12-20T10:14:34.000Z</time>
      </trkpt>
      <trkpt lat="47.28824" lon="-2.23507">
        <ele>26</ele>
        <time>2020-12-20T10:14:35.000Z</time>
      </trkpt>
      <trkpt lat="47.28828" lon="-2.23507">
        <ele>26.39999961853</ele>
        <time>2020-12-20T10:14:36.000Z</time>
      </trkpt>
      <trkpt lat="47.28835" lon="-2.23507">
        <ele>26.39999961853</ele>
        <time>2020-12-20T10:14:38.000Z</time>
      </trkpt>
      <trkpt lat="47.28864" lon="-2.23505">
        <ele>26.39999961853</ele>
        <time>2020-12-20T10:14:45.000Z</time>
      </trkpt>
      <trkpt lat="47.28872" lon="-2.23504">
        <ele>26.799999237061</ele>
        <time>2020-12-20T10:14:47.000Z</time>
      </trkpt>
      <trkpt lat="47.28876" lon="-2.23503">
        <ele>27.200000762939</ele>
        <time>2020-12-20T10:14:48.000Z</time>
      </trkpt>
      <trkpt lat="47.2888" lon="-2.23504">
        <ele>27.60000038147</ele>
        <time>2020-12-20T10:14:49.000Z</time>
      </trkpt>
      <trkpt lat="47.28884" lon="-2.23504">
        <ele>28</ele>
        <time>2020-12-20T10:14:50.000Z</time>
      </trkpt>
      <trkpt lat="47.28887" lon="-2.23505">
        <ele>28.39999961853</ele>
        <time>2020-12-20T10:14:51.000Z</time>
      </trkpt>
      <trkpt lat="47.28891" lon="-2.23505">
        <ele>28.39999961853</ele>
        <time>2020-12-20T10:14:52.000Z</time>
      </trkpt>
      <trkpt lat="47.28896" lon="-2.23505">
        <ele>28.39999961853</ele>
        <time>2020-12-20T10:14:53.000Z</time>
      </trkpt>
      <trkpt lat="47.28911" lon="-2.23503">
        <ele>28.39999961853</ele>
        <time>2020-12-20T10:14:57.000Z</time>
      </trkpt>
      <trkpt lat="47.28933" lon="-2.23496">
        <ele>28.39999961853</ele>
        <time>2020-12-20T10:15:03.000Z</time>
      </trkpt>
      <trkpt lat="47.28957" lon="-2.23489">
        <ele>28.39999961853</ele>
        <time>2020-12-20T10:15:10.000Z</time>
      </trkpt>
      <trkpt lat="47.28962" lon="-2.23469">
        <ele>28.39999961853</ele>
        <time>2020-12-20T10:15:14.000Z</time>
      </trkpt>
      <trkpt lat="47.28964" lon="-2.23443">
        <ele>28.799999237061</ele>
        <time>2020-12-20T10:15:18.000Z</time>
      </trkpt>
      <trkpt lat="47.28964" lon="-2.23436">
        <ele>29.200000762939</ele>
        <time>2020-12-20T10:15:19.000Z</time>
      </trkpt>
      <trkpt lat="47.28964" lon="-2.2343">
        <ele>29.60000038147</ele>
        <time>2020-12-20T10:15:20.000Z</time>
      </trkpt>
      <trkpt lat="47.28965" lon="-2.23424">
        <ele>30</ele>
        <time>2020-12-20T10:15:21.000Z</time>
      </trkpt>
      <trkpt lat="47.28965" lon="-2.23418">
        <ele>30.39999961853</ele>
        <time>2020-12-20T10:15:22.000Z</time>
      </trkpt>
      <trkpt lat="47.28966" lon="-2.23412">
        <ele>30.39999961853</ele>
        <time>2020-12-20T10:15:23.000Z</time>
      </trkpt>
      <trkpt lat="47.28968" lon="-2.23387">
        <ele>30.39999961853</ele>
        <time>2020-12-20T10:15:27.000Z</time>
      </trkpt>
      <trkpt lat="47.28975" lon="-2.23323">
        <ele>30.39999961853</ele>
        <time>2020-12-20T10:15:36.000Z</time>
      </trkpt>
      <trkpt lat="47.2898" lon="-2.23263">
        <ele>30.39999961853</ele>
        <time>2020-12-20T10:15:43.000Z</time>
      </trkpt>
      <trkpt lat="47.28981" lon="-2.23253">
        <ele>30</ele>
        <time>2020-12-20T10:15:44.000Z</time>
      </trkpt>
      <trkpt lat="47.28982" lon="-2.23244">
        <ele>29.60000038147</ele>
        <time>2020-12-20T10:15:45.000Z</time>
      </trkpt>
      <trkpt lat="47.28983" lon="-2.23234">
        <ele>29.200000762939</ele>
        <time>2020-12-20T10:15:46.000Z</time>
      </trkpt>
      <trkpt lat="47.28983" lon="-2.23224">
        <ele>28.799999237061</ele>
        <time>2020-12-20T10:15:47.000Z</time>
      </trkpt>
      <trkpt lat="47.28984" lon="-2.23213">
        <ele>28.39999961853</ele>
        <time>2020-12-20T10:15:48.000Z</time>
      </trkpt>
      <trkpt lat="47.28987" lon="-2.23183">
        <ele>28.39999961853</ele>
        <time>2020-12-20T10:15:51.000Z</time>
      </trkpt>
      <trkpt lat="47.28991" lon="-2.23151">
        <ele>28</ele>
        <time>2020-12-20T10:15:54.000Z</time>
      </trkpt>
      <trkpt lat="47.28993" lon="-2.23141">
        <ele>27.60000038147</ele>
        <time>2020-12-20T10:15:55.000Z</time>
      </trkpt>
      <trkpt lat="47.28994" lon="-2.23133">
        <ele>27.200000762939</ele>
        <time>2020-12-20T10:15:56.000Z</time>
      </trkpt>
      <trkpt lat="47.28995" lon="-2.23125">
        <ele>26.60000038147</ele>
        <time>2020-12-20T10:15:57.000Z</time>
      </trkpt>
      <trkpt lat="47.28996" lon="-2.23117">
        <ele>26</ele>
        <time>2020-12-20T10:15:58.000Z</time>
      </trkpt>
      <trkpt lat="47.28997" lon="-2.2311">
        <ele>25.39999961853</ele>
        <time>2020-12-20T10:15:59.000Z</time>
      </trkpt>
      <trkpt lat="47.28998" lon="-2.23104">
        <ele>24.799999237061</ele>
        <time>2020-12-20T10:16:00.000Z</time>
      </trkpt>
      <trkpt lat="47.28998" lon="-2.23098">
        <ele>24.200000762939</ele>
        <time>2020-12-20T10:16:01.000Z</time>
      </trkpt>
      <trkpt lat="47.28999" lon="-2.23093">
        <ele>23.799999237061</ele>
        <time>2020-12-20T10:16:02.000Z</time>
      </trkpt>
      <trkpt lat="47.29" lon="-2.23087">
        <ele>23.39999961853</ele>
        <time>2020-12-20T10:16:03.000Z</time>
      </trkpt>
      <trkpt lat="47.29001" lon="-2.23081">
        <ele>23</ele>
        <time>2020-12-20T10:16:04.000Z</time>
      </trkpt>
      <trkpt lat="47.29002" lon="-2.23075">
        <ele>22.60000038147</ele>
        <time>2020-12-20T10:16:05.000Z</time>
      </trkpt>
      <trkpt lat="47.29003" lon="-2.23068">
        <ele>22.200000762939</ele>
        <time>2020-12-20T10:16:06.000Z</time>
      </trkpt>
      <trkpt lat="47.29005" lon="-2.23061">
        <ele>22.200000762939</ele>
        <time>2020-12-20T10:16:07.000Z</time>
      </trkpt>
      <trkpt lat="47.29017" lon="-2.2302">
        <ele>22.200000762939</ele>
        <time>2020-12-20T10:16:12.000Z</time>
      </trkpt>
      <trkpt lat="47.29025" lon="-2.22988">
        <ele>22.200000762939</ele>
        <time>2020-12-20T10:16:16.000Z</time>
      </trkpt>
      <trkpt lat="47.29026" lon="-2.2298">
        <ele>22.200000762939</ele>
        <time>2020-12-20T10:16:17.000Z</time>
      </trkpt>
      <trkpt lat="47.29027" lon="-2.22974">
        <ele>22.200000762939</ele>
        <time>2020-12-20T10:16:18.000Z</time>
      </trkpt>
      <trkpt lat="47.29036" lon="-2.22973">
        <ele>22.200000762939</ele>
        <time>2020-12-20T10:16:20.000Z</time>
      </trkpt>
      <trkpt lat="47.29046" lon="-2.2299">
        <ele>22.200000762939</ele>
        <time>2020-12-20T10:16:23.000Z</time>
      </trkpt>
      <trkpt lat="47.2905" lon="-2.22997">
        <ele>22.200000762939</ele>
        <time>2020-12-20T10:16:24.000Z</time>
      </trkpt>
      <trkpt lat="47.29065" lon="-2.23014">
        <ele>22.200000762939</ele>
        <time>2020-12-20T10:16:27.000Z</time>
      </trkpt>
      <trkpt lat="47.29093" lon="-2.2305">
        <ele>22.200000762939</ele>
        <time>2020-12-20T10:16:33.000Z</time>
      </trkpt>
      <trkpt lat="47.29097" lon="-2.23055">
        <ele>22.200000762939</ele>
        <time>2020-12-20T10:16:34.000Z</time>
      </trkpt>
      <trkpt lat="47.29126" lon="-2.23094">
        <ele>22.200000762939</ele>
        <time>2020-12-20T10:16:41.000Z</time>
      </trkpt>
      <trkpt lat="47.29157" lon="-2.23133">
        <ele>22.200000762939</ele>
        <time>2020-12-20T10:16:49.000Z</time>
      </trkpt>
      <trkpt lat="47.29181" lon="-2.23163">
        <ele>22.200000762939</ele>
        <time>2020-12-20T10:16:55.000Z</time>
      </trkpt>
      <trkpt lat="47.29185" lon="-2.2317">
        <ele>22.200000762939</ele>
        <time>2020-12-20T10:16:56.000Z</time>
      </trkpt>
      <trkpt lat="47.29199" lon="-2.23191">
        <ele>22.200000762939</ele>
        <time>2020-12-20T10:17:00.000Z</time>
      </trkpt>
      <trkpt lat="47.29202" lon="-2.23212">
        <ele>22.200000762939</ele>
        <time>2020-12-20T10:17:03.000Z</time>
      </trkpt>
      <trkpt lat="47.29203" lon="-2.23219">
        <ele>22.200000762939</ele>
        <time>2020-12-20T10:17:04.000Z</time>
      </trkpt>
      <trkpt lat="47.29208" lon="-2.23231">
        <ele>22.200000762939</ele>
        <time>2020-12-20T10:17:06.000Z</time>
      </trkpt>
      <trkpt lat="47.29215" lon="-2.23242">
        <ele>22.200000762939</ele>
        <time>2020-12-20T10:17:08.000Z</time>
      </trkpt>
      <trkpt lat="47.29227" lon="-2.23258">
        <ele>21.60000038147</ele>
        <time>2020-12-20T10:17:11.000Z</time>
      </trkpt>
      <trkpt lat="47.29231" lon="-2.23263">
        <ele>21.200000762939</ele>
        <time>2020-12-20T10:17:12.000Z</time>
      </trkpt>
      <trkpt lat="47.29235" lon="-2.23268">
        <ele>20.799999237061</ele>
        <time>2020-12-20T10:17:13.000Z</time>
      </trkpt>
      <trkpt lat="47.29239" lon="-2.23274">
        <ele>20.39999961853</ele>
        <time>2020-12-20T10:17:14.000Z</time>
      </trkpt>
      <trkpt lat="47.29243" lon="-2.2328">
        <ele>20</ele>
        <time>2020-12-20T10:17:15.000Z</time>
      </trkpt>
      <trkpt lat="47.2925" lon="-2.23292">
        <ele>20</ele>
        <time>2020-12-20T10:17:17.000Z</time>
      </trkpt>
      <trkpt lat="47.29254" lon="-2.23299">
        <ele>20</ele>
        <time>2020-12-20T10:17:18.000Z</time>
      </trkpt>
      <trkpt lat="47.2926" lon="-2.23314">
        <ele>20</ele>
        <time>2020-12-20T10:17:20.000Z</time>
      </trkpt>
      <trkpt lat="47.29267" lon="-2.2334">
        <ele>20</ele>
        <time>2020-12-20T10:17:23.000Z</time>
      </trkpt>
      <trkpt lat="47.29278" lon="-2.23395">
        <ele>20</ele>
        <time>2020-12-20T10:17:29.000Z</time>
      </trkpt>
      <trkpt lat="47.2929" lon="-2.23448">
        <ele>20</ele>
        <time>2020-12-20T10:17:35.000Z</time>
      </trkpt>
      <trkpt lat="47.29302" lon="-2.23509">
        <ele>20</ele>
        <time>2020-12-20T10:17:42.000Z</time>
      </trkpt>
      <trkpt lat="47.29314" lon="-2.2359">
        <ele>20</ele>
        <time>2020-12-20T10:17:51.000Z</time>
      </trkpt>
      <trkpt lat="47.29314" lon="-2.23599">
        <ele>20</ele>
        <time>2020-12-20T10:17:52.000Z</time>
      </trkpt>
      <trkpt lat="47.29314" lon="-2.23627">
        <ele>20</ele>
        <time>2020-12-20T10:17:55.000Z</time>
      </trkpt>
      <trkpt lat="47.29314" lon="-2.23679">
        <ele>20</ele>
        <time>2020-12-20T10:18:01.000Z</time>
      </trkpt>
      <trkpt lat="47.29314" lon="-2.23749">
        <ele>20</ele>
        <time>2020-12-20T10:18:09.000Z</time>
      </trkpt>
      <trkpt lat="47.29313" lon="-2.23758">
        <ele>20</ele>
        <time>2020-12-20T10:18:10.000Z</time>
      </trkpt>
      <trkpt lat="47.29316" lon="-2.23781">
        <ele>20</ele>
        <time>2020-12-20T10:18:13.000Z</time>
      </trkpt>
      <trkpt lat="47.29327" lon="-2.23789">
        <ele>20</ele>
        <time>2020-12-20T10:18:16.000Z</time>
      </trkpt>
      <trkpt lat="47.29332" lon="-2.23792">
        <ele>20</ele>
        <time>2020-12-20T10:18:17.000Z</time>
      </trkpt>
      <trkpt lat="47.29354" lon="-2.238">
        <ele>20</ele>
        <time>2020-12-20T10:18:21.000Z</time>
      </trkpt>
      <trkpt lat="47.29364" lon="-2.23792">
        <ele>20</ele>
        <time>2020-12-20T10:18:23.000Z</time>
      </trkpt>
      <trkpt lat="47.2937" lon="-2.23769">
        <ele>20</ele>
        <time>2020-12-20T10:18:26.000Z</time>
      </trkpt>
      <trkpt lat="47.29371" lon="-2.23761">
        <ele>20</ele>
        <time>2020-12-20T10:18:27.000Z</time>
      </trkpt>
      <trkpt lat="47.29372" lon="-2.23753">
        <ele>20.39999961853</ele>
        <time>2020-12-20T10:18:28.000Z</time>
      </trkpt>
      <trkpt lat="47.29374" lon="-2.23745">
        <ele>20.799999237061</ele>
        <time>2020-12-20T10:18:29.000Z</time>
      </trkpt>
      <trkpt lat="47.29375" lon="-2.23737">
        <ele>21.200000762939</ele>
        <time>2020-12-20T10:18:30.000Z</time>
      </trkpt>
      <trkpt lat="47.29376" lon="-2.2373">
        <ele>21.60000038147</ele>
        <time>2020-12-20T10:18:31.000Z</time>
      </trkpt>
      <trkpt lat="47.29379" lon="-2.23723">
        <ele>22.200000762939</ele>
        <time>2020-12-20T10:18:32.000Z</time>
      </trkpt>
      <trkpt lat="47.29382" lon="-2.23716">
        <ele>22.200000762939</ele>
        <time>2020-12-20T10:18:33.000Z</time>
      </trkpt>
      <trkpt lat="47.29394" lon="-2.23705">
        <ele>22.200000762939</ele>
        <time>2020-12-20T10:18:36.000Z</time>
      </trkpt>
      <trkpt lat="47.29404" lon="-2.23701">
        <ele>22.200000762939</ele>
        <time>2020-12-20T10:18:38.000Z</time>
      </trkpt>
      <trkpt lat="47.29423" lon="-2.23694">
        <ele>22.60000038147</ele>
        <time>2020-12-20T10:18:42.000Z</time>
      </trkpt>
      <trkpt lat="47.29428" lon="-2.23692">
        <ele>23</ele>
        <time>2020-12-20T10:18:43.000Z</time>
      </trkpt>
      <trkpt lat="47.29433" lon="-2.23691">
        <ele>23.39999961853</ele>
        <time>2020-12-20T10:18:44.000Z</time>
      </trkpt>
      <trkpt lat="47.29437" lon="-2.23689">
        <ele>24.200000762939</ele>
        <time>2020-12-20T10:18:45.000Z</time>
      </trkpt>
      <trkpt lat="47.29452" lon="-2.23685">
        <ele>24.60000038147</ele>
        <time>2020-12-20T10:18:48.000Z</time>
      </trkpt>
      <trkpt lat="47.29456" lon="-2.23683">
        <ele>25</ele>
        <time>2020-12-20T10:18:49.000Z</time>
      </trkpt>
      <trkpt lat="47.2946" lon="-2.23681">
        <ele>25.39999961853</ele>
        <time>2020-12-20T10:18:50.000Z</time>
      </trkpt>
      <trkpt lat="47.29464" lon="-2.23678">
        <ele>25.799999237061</ele>
        <time>2020-12-20T10:18:51.000Z</time>
      </trkpt>
      <trkpt lat="47.29467" lon="-2.23676">
        <ele>26.200000762939</ele>
        <time>2020-12-20T10:18:52.000Z</time>
      </trkpt>
      <trkpt lat="47.29483" lon="-2.23667">
        <ele>26.200000762939</ele>
        <time>2020-12-20T10:18:56.000Z</time>
      </trkpt>
      <trkpt lat="47.29487" lon="-2.23666">
        <ele>26.200000762939</ele>
        <time>2020-12-20T10:18:57.000Z</time>
      </trkpt>
      <trkpt lat="47.29496" lon="-2.23672">
        <ele>26.200000762939</ele>
        <time>2020-12-20T10:18:59.000Z</time>
      </trkpt>
      <trkpt lat="47.295" lon="-2.23695">
        <ele>26.200000762939</ele>
        <time>2020-12-20T10:19:02.000Z</time>
      </trkpt>
      <trkpt lat="47.295" lon="-2.23705">
        <ele>26.200000762939</ele>
        <time>2020-12-20T10:19:03.000Z</time>
      </trkpt>
      <trkpt lat="47.29502" lon="-2.23745">
        <ele>26.200000762939</ele>
        <time>2020-12-20T10:19:07.000Z</time>
      </trkpt>
      <trkpt lat="47.29504" lon="-2.23756">
        <ele>26.200000762939</ele>
        <time>2020-12-20T10:19:08.000Z</time>
      </trkpt>
      <trkpt lat="47.29513" lon="-2.23799">
        <ele>26.200000762939</ele>
        <time>2020-12-20T10:19:12.000Z</time>
      </trkpt>
      <trkpt lat="47.29524" lon="-2.23843">
        <ele>25.799999237061</ele>
        <time>2020-12-20T10:19:16.000Z</time>
      </trkpt>
      <trkpt lat="47.29528" lon="-2.23853">
        <ele>25.200000762939</ele>
        <time>2020-12-20T10:19:17.000Z</time>
      </trkpt>
      <trkpt lat="47.29531" lon="-2.23863">
        <ele>24.799999237061</ele>
        <time>2020-12-20T10:19:18.000Z</time>
      </trkpt>
      <trkpt lat="47.29534" lon="-2.23874">
        <ele>24.39999961853</ele>
        <time>2020-12-20T10:19:19.000Z</time>
      </trkpt>
      <trkpt lat="47.29536" lon="-2.23884">
        <ele>23.799999237061</ele>
        <time>2020-12-20T10:19:20.000Z</time>
      </trkpt>
      <trkpt lat="47.29538" lon="-2.23894">
        <ele>23.799999237061</ele>
        <time>2020-12-20T10:19:21.000Z</time>
      </trkpt>
      <trkpt lat="47.29541" lon="-2.23925">
        <ele>23.799999237061</ele>
        <time>2020-12-20T10:19:24.000Z</time>
      </trkpt>
      <trkpt lat="47.29551" lon="-2.23995">
        <ele>23.799999237061</ele>
        <time>2020-12-20T10:19:31.000Z</time>
      </trkpt>
      <trkpt lat="47.2956" lon="-2.24039">
        <ele>23.799999237061</ele>
        <time>2020-12-20T10:19:36.000Z</time>
      </trkpt>
      <trkpt lat="47.29568" lon="-2.24091">
        <ele>23.799999237061</ele>
        <time>2020-12-20T10:19:42.000Z</time>
      </trkpt>
      <trkpt lat="47.29581" lon="-2.24162">
        <ele>23.799999237061</ele>
        <time>2020-12-20T10:19:51.000Z</time>
      </trkpt>
      <trkpt lat="47.2959" lon="-2.24205">
        <ele>23.799999237061</ele>
        <time>2020-12-20T10:19:57.000Z</time>
      </trkpt>
      <trkpt lat="47.29601" lon="-2.24213">
        <ele>23.799999237061</ele>
        <time>2020-12-20T10:20:00.000Z</time>
      </trkpt>
      <trkpt lat="47.29609" lon="-2.24195">
        <ele>23.799999237061</ele>
        <time>2020-12-20T10:20:03.000Z</time>
      </trkpt>
      <trkpt lat="47.29611" lon="-2.24169">
        <ele>23.799999237061</ele>
        <time>2020-12-20T10:20:06.000Z</time>
      </trkpt>
      <trkpt lat="47.29612" lon="-2.24161">
        <ele>23.799999237061</ele>
        <time>2020-12-20T10:20:07.000Z</time>
      </trkpt>
      <trkpt lat="47.29615" lon="-2.24106">
        <ele>23.799999237061</ele>
        <time>2020-12-20T10:20:13.000Z</time>
      </trkpt>
      <trkpt lat="47.29616" lon="-2.24097">
        <ele>23.799999237061</ele>
        <time>2020-12-20T10:20:14.000Z</time>
      </trkpt>
      <trkpt lat="47.29617" lon="-2.24089">
        <ele>23.799999237061</ele>
        <time>2020-12-20T10:20:15.000Z</time>
      </trkpt>
      <trkpt lat="47.29622" lon="-2.24075">
        <ele>23.799999237061</ele>
        <time>2020-12-20T10:20:17.000Z</time>
      </trkpt>
      <trkpt lat="47.2963" lon="-2.24049">
        <ele>23.799999237061</ele>
        <time>2020-12-20T10:20:21.000Z</time>
      </trkpt>
      <trkpt lat="47.29631" lon="-2.24041">
        <ele>23.799999237061</ele>
        <time>2020-12-20T10:20:22.000Z</time>
      </trkpt>
      <trkpt lat="47.29635" lon="-2.24001">
        <ele>23.39999961853</ele>
        <time>2020-12-20T10:20:27.000Z</time>
      </trkpt>
      <trkpt lat="47.29637" lon="-2.23995">
        <ele>23</ele>
        <time>2020-12-20T10:20:28.000Z</time>
      </trkpt>
      <trkpt lat="47.29641" lon="-2.23989">
        <ele>22.60000038147</ele>
        <time>2020-12-20T10:20:29.000Z</time>
      </trkpt>
      <trkpt lat="47.29645" lon="-2.23985">
        <ele>22</ele>
        <time>2020-12-20T10:20:30.000Z</time>
      </trkpt>
      <trkpt lat="47.29649" lon="-2.23981">
        <ele>21.60000038147</ele>
        <time>2020-12-20T10:20:31.000Z</time>
      </trkpt>
      <trkpt lat="47.29653" lon="-2.23977">
        <ele>21.60000038147</ele>
        <time>2020-12-20T10:20:32.000Z</time>
      </trkpt>
      <trkpt lat="47.29669" lon="-2.23961">
        <ele>21.60000038147</ele>
        <time>2020-12-20T10:20:36.000Z</time>
      </trkpt>
      <trkpt lat="47.29681" lon="-2.23953">
        <ele>21.60000038147</ele>
        <time>2020-12-20T10:20:39.000Z</time>
      </trkpt>
      <trkpt lat="47.29698" lon="-2.23943">
        <ele>21.60000038147</ele>
        <time>2020-12-20T10:20:43.000Z</time>
      </trkpt>
      <trkpt lat="47.29703" lon="-2.2394">
        <ele>21.60000038147</ele>
        <time>2020-12-20T10:20:44.000Z</time>
      </trkpt>
      <trkpt lat="47.29712" lon="-2.23923">
        <ele>21.60000038147</ele>
        <time>2020-12-20T10:20:47.000Z</time>
      </trkpt>
      <trkpt lat="47.29714" lon="-2.23896">
        <ele>21.60000038147</ele>
        <time>2020-12-20T10:20:51.000Z</time>
      </trkpt>
      <trkpt lat="47.29721" lon="-2.23867">
        <ele>21.60000038147</ele>
        <time>2020-12-20T10:20:55.000Z</time>
      </trkpt>
      <trkpt lat="47.29724" lon="-2.23859">
        <ele>21.60000038147</ele>
        <time>2020-12-20T10:20:56.000Z</time>
      </trkpt>
      <trkpt lat="47.29734" lon="-2.23833">
        <ele>21.60000038147</ele>
        <time>2020-12-20T10:21:00.000Z</time>
      </trkpt>
      <trkpt lat="47.29737" lon="-2.23828">
        <ele>21.60000038147</ele>
        <time>2020-12-20T10:21:01.000Z</time>
      </trkpt>
      <trkpt lat="47.29748" lon="-2.2381">
        <ele>21.60000038147</ele>
        <time>2020-12-20T10:21:04.000Z</time>
      </trkpt>
      <trkpt lat="47.29762" lon="-2.23797">
        <ele>21.60000038147</ele>
        <time>2020-12-20T10:21:07.000Z</time>
      </trkpt>
      <trkpt lat="47.29784" lon="-2.23792">
        <ele>21.60000038147</ele>
        <time>2020-12-20T10:21:11.000Z</time>
      </trkpt>
      <trkpt lat="47.29789" lon="-2.23792">
        <ele>21.60000038147</ele>
        <time>2020-12-20T10:21:12.000Z</time>
      </trkpt>
      <trkpt lat="47.29816" lon="-2.23802">
        <ele>21.60000038147</ele>
        <time>2020-12-20T10:21:17.000Z</time>
      </trkpt>
      <trkpt lat="47.2985" lon="-2.23822">
        <ele>21.60000038147</ele>
        <time>2020-12-20T10:21:24.000Z</time>
      </trkpt>
      <trkpt lat="47.29871" lon="-2.23822">
        <ele>21.60000038147</ele>
        <time>2020-12-20T10:21:28.000Z</time>
      </trkpt>
      <trkpt lat="47.29876" lon="-2.23821">
        <ele>21.60000038147</ele>
        <time>2020-12-20T10:21:29.000Z</time>
      </trkpt>
      <trkpt lat="47.29903" lon="-2.23819">
        <ele>21.60000038147</ele>
        <time>2020-12-20T10:21:34.000Z</time>
      </trkpt>
      <trkpt lat="47.2994" lon="-2.23829">
        <ele>21.60000038147</ele>
        <time>2020-12-20T10:21:41.000Z</time>
      </trkpt>
      <trkpt lat="47.29948" lon="-2.23832">
        <ele>21.60000038147</ele>
        <time>2020-12-20T10:21:43.000Z</time>
      </trkpt>
      <trkpt lat="47.29968" lon="-2.23845">
        <ele>21.60000038147</ele>
        <time>2020-12-20T10:21:47.000Z</time>
      </trkpt>
      <trkpt lat="47.29985" lon="-2.2386">
        <ele>21.60000038147</ele>
        <time>2020-12-20T10:21:51.000Z</time>
      </trkpt>
      <trkpt lat="47.29992" lon="-2.23869">
        <ele>21.60000038147</ele>
        <time>2020-12-20T10:21:53.000Z</time>
      </trkpt>
      <trkpt lat="47.30003" lon="-2.23891">
        <ele>21.60000038147</ele>
        <time>2020-12-20T10:21:58.000Z</time>
      </trkpt>
      <trkpt lat="47.30004" lon="-2.23912">
        <ele>21.60000038147</ele>
        <time>2020-12-20T10:22:02.000Z</time>
      </trkpt>
      <trkpt lat="47.30004" lon="-2.23918">
        <ele>21.60000038147</ele>
        <time>2020-12-20T10:22:03.000Z</time>
      </trkpt>
      <trkpt lat="47.30004" lon="-2.23936">
        <ele>21.60000038147</ele>
        <time>2020-12-20T10:22:06.000Z</time>
      </trkpt>
      <trkpt lat="47.30005" lon="-2.23955">
        <ele>21.60000038147</ele>
        <time>2020-12-20T10:22:09.000Z</time>
      </trkpt>
      <trkpt lat="47.30003" lon="-2.2399">
        <ele>21.60000038147</ele>
        <time>2020-12-20T10:22:15.000Z</time>
      </trkpt>
      <trkpt lat="47.30001" lon="-2.24031">
        <ele>21.60000038147</ele>
        <time>2020-12-20T10:22:22.000Z</time>
      </trkpt>
      <trkpt lat="47.30001" lon="-2.24037">
        <ele>22</ele>
        <time>2020-12-20T10:22:23.000Z</time>
      </trkpt>
      <trkpt lat="47.30001" lon="-2.24043">
        <ele>22.39999961853</ele>
        <time>2020-12-20T10:22:24.000Z</time>
      </trkpt>
      <trkpt lat="47.30001" lon="-2.24049">
        <ele>22.799999237061</ele>
        <time>2020-12-20T10:22:25.000Z</time>
      </trkpt>
      <trkpt lat="47.30002" lon="-2.24055">
        <ele>23.200000762939</ele>
        <time>2020-12-20T10:22:26.000Z</time>
      </trkpt>
      <trkpt lat="47.30003" lon="-2.24062">
        <ele>23.60000038147</ele>
        <time>2020-12-20T10:22:27.000Z</time>
      </trkpt>
      <trkpt lat="47.30003" lon="-2.24068">
        <ele>23.60000038147</ele>
        <time>2020-12-20T10:22:28.000Z</time>
      </trkpt>
      <trkpt lat="47.30007" lon="-2.241">
        <ele>24.200000762939</ele>
        <time>2020-12-20T10:22:33.000Z</time>
      </trkpt>
      <trkpt lat="47.30007" lon="-2.24106">
        <ele>24.60000038147</ele>
        <time>2020-12-20T10:22:34.000Z</time>
      </trkpt>
      <trkpt lat="47.30007" lon="-2.24112">
        <ele>25</ele>
        <time>2020-12-20T10:22:35.000Z</time>
      </trkpt>
      <trkpt lat="47.30006" lon="-2.24118">
        <ele>25.39999961853</ele>
        <time>2020-12-20T10:22:36.000Z</time>
      </trkpt>
      <trkpt lat="47.30005" lon="-2.24124">
        <ele>25.799999237061</ele>
        <time>2020-12-20T10:22:37.000Z</time>
      </trkpt>
      <trkpt lat="47.30004" lon="-2.2413">
        <ele>25.799999237061</ele>
        <time>2020-12-20T10:22:38.000Z</time>
      </trkpt>
      <trkpt lat="47.30003" lon="-2.24136">
        <ele>26.200000762939</ele>
        <time>2020-12-20T10:22:39.000Z</time>
      </trkpt>
      <trkpt lat="47.30002" lon="-2.24142">
        <ele>26.799999237061</ele>
        <time>2020-12-20T10:22:40.000Z</time>
      </trkpt>
      <trkpt lat="47.3" lon="-2.24147">
        <ele>27.200000762939</ele>
        <time>2020-12-20T10:22:41.000Z</time>
      </trkpt>
      <trkpt lat="47.29999" lon="-2.24153">
        <ele>27.60000038147</ele>
        <time>2020-12-20T10:22:42.000Z</time>
      </trkpt>
      <trkpt lat="47.29997" lon="-2.24158">
        <ele>28</ele>
        <time>2020-12-20T10:22:43.000Z</time>
      </trkpt>
      <trkpt lat="47.29995" lon="-2.24163">
        <ele>28</ele>
        <time>2020-12-20T10:22:44.000Z</time>
      </trkpt>
      <trkpt lat="47.29993" lon="-2.24168">
        <ele>28.60000038147</ele>
        <time>2020-12-20T10:22:45.000Z</time>
      </trkpt>
      <trkpt lat="47.29991" lon="-2.24173">
        <ele>29</ele>
        <time>2020-12-20T10:22:46.000Z</time>
      </trkpt>
      <trkpt lat="47.29989" lon="-2.24179">
        <ele>29.39999961853</ele>
        <time>2020-12-20T10:22:47.000Z</time>
      </trkpt>
      <trkpt lat="47.29987" lon="-2.24184">
        <ele>29.799999237061</ele>
        <time>2020-12-20T10:22:48.000Z</time>
      </trkpt>
      <trkpt lat="47.29984" lon="-2.2419">
        <ele>30.200000762939</ele>
        <time>2020-12-20T10:22:49.000Z</time>
      </trkpt>
      <trkpt lat="47.29981" lon="-2.24202">
        <ele>30.200000762939</ele>
        <time>2020-12-20T10:22:51.000Z</time>
      </trkpt>
      <trkpt lat="47.29976" lon="-2.24213">
        <ele>31</ele>
        <time>2020-12-20T10:22:53.000Z</time>
      </trkpt>
      <trkpt lat="47.29974" lon="-2.2422">
        <ele>31.39999961853</ele>
        <time>2020-12-20T10:22:54.000Z</time>
      </trkpt>
      <trkpt lat="47.29971" lon="-2.24225">
        <ele>31.799999237061</ele>
        <time>2020-12-20T10:22:55.000Z</time>
      </trkpt>
      <trkpt lat="47.29968" lon="-2.2423">
        <ele>32.200000762939</ele>
        <time>2020-12-20T10:22:56.000Z</time>
      </trkpt>
      <trkpt lat="47.29962" lon="-2.24241">
        <ele>32.200000762939</ele>
        <time>2020-12-20T10:22:58.000Z</time>
      </trkpt>
      <trkpt lat="47.29945" lon="-2.24274">
        <ele>32.200000762939</ele>
        <time>2020-12-20T10:23:05.000Z</time>
      </trkpt>
      <trkpt lat="47.29936" lon="-2.24289">
        <ele>32.200000762939</ele>
        <time>2020-12-20T10:23:10.000Z</time>
      </trkpt>
      <trkpt lat="47.29937" lon="-2.24305">
        <ele>32.200000762939</ele>
        <time>2020-12-20T10:23:15.000Z</time>
      </trkpt>
      <trkpt lat="47.2994" lon="-2.24311">
        <ele>32.200000762939</ele>
        <time>2020-12-20T10:23:17.000Z</time>
      </trkpt>
      <trkpt lat="47.29946" lon="-2.24316">
        <ele>32.200000762939</ele>
        <time>2020-12-20T10:23:19.000Z</time>
      </trkpt>
      <trkpt lat="47.29963" lon="-2.24333">
        <ele>32.200000762939</ele>
        <time>2020-12-20T10:23:25.000Z</time>
      </trkpt>
      <trkpt lat="47.29982" lon="-2.24354">
        <ele>32.200000762939</ele>
        <time>2020-12-20T10:23:32.000Z</time>
      </trkpt>
      <trkpt lat="47.29995" lon="-2.2436">
        <ele>32.200000762939</ele>
        <time>2020-12-20T10:23:37.000Z</time>
      </trkpt>
      <trkpt lat="47.29997" lon="-2.24358">
        <ele>32.200000762939</ele>
        <time>2020-12-20T10:23:38.000Z</time>
      </trkpt>
      <trkpt lat="47.29999" lon="-2.24354">
        <ele>32.599998474121</ele>
        <time>2020-12-20T10:23:39.000Z</time>
      </trkpt>
      <trkpt lat="47.3" lon="-2.2435">
        <ele>33</ele>
        <time>2020-12-20T10:23:40.000Z</time>
      </trkpt>
      <trkpt lat="47.30001" lon="-2.24346">
        <ele>33.400001525879</ele>
        <time>2020-12-20T10:23:41.000Z</time>
      </trkpt>
      <trkpt lat="47.30002" lon="-2.24342">
        <ele>34.200000762939</ele>
        <time>2020-12-20T10:23:42.000Z</time>
      </trkpt>
      <trkpt lat="47.30003" lon="-2.24338">
        <ele>34.200000762939</ele>
        <time>2020-12-20T10:23:43.000Z</time>
      </trkpt>
      <trkpt lat="47.3001" lon="-2.24316">
        <ele>34.200000762939</ele>
        <time>2020-12-20T10:23:49.000Z</time>
      </trkpt>
      <trkpt lat="47.30018" lon="-2.24297">
        <ele>34.200000762939</ele>
        <time>2020-12-20T10:23:54.000Z</time>
      </trkpt>
      <trkpt lat="47.30022" lon="-2.24284">
        <ele>34.200000762939</ele>
        <time>2020-12-20T10:23:59.000Z</time>
      </trkpt>
      <trkpt lat="47.30026" lon="-2.2427">
        <ele>34.200000762939</ele>
        <time>2020-12-20T10:24:04.000Z</time>
      </trkpt>
      <trkpt lat="47.30025" lon="-2.24242">
        <ele>34.200000762939</ele>
        <time>2020-12-20T10:24:09.000Z</time>
      </trkpt>
      <trkpt lat="47.30024" lon="-2.24235">
        <ele>33.799999237061</ele>
        <time>2020-12-20T10:24:10.000Z</time>
      </trkpt>
      <trkpt lat="47.30024" lon="-2.24229">
        <ele>33.400001525879</ele>
        <time>2020-12-20T10:24:11.000Z</time>
      </trkpt>
      <trkpt lat="47.30024" lon="-2.24222">
        <ele>33</ele>
        <time>2020-12-20T10:24:12.000Z</time>
      </trkpt>
      <trkpt lat="47.30024" lon="-2.24216">
        <ele>32.400001525879</ele>
        <time>2020-12-20T10:24:13.000Z</time>
      </trkpt>
      <trkpt lat="47.30023" lon="-2.2421">
        <ele>32</ele>
        <time>2020-12-20T10:24:14.000Z</time>
      </trkpt>
      <trkpt lat="47.30023" lon="-2.24205">
        <ele>32</ele>
        <time>2020-12-20T10:24:15.000Z</time>
      </trkpt>
      <trkpt lat="47.30022" lon="-2.24182">
        <ele>31.60000038147</ele>
        <time>2020-12-20T10:24:18.000Z</time>
      </trkpt>
      <trkpt lat="47.30022" lon="-2.24175">
        <ele>31.200000762939</ele>
        <time>2020-12-20T10:24:19.000Z</time>
      </trkpt>
      <trkpt lat="47.30022" lon="-2.24171">
        <ele>30.799999237061</ele>
        <time>2020-12-20T10:24:20.000Z</time>
      </trkpt>
      <trkpt lat="47.30021" lon="-2.24167">
        <ele>30.39999961853</ele>
        <time>2020-12-20T10:24:21.000Z</time>
      </trkpt>
      <trkpt lat="47.3002" lon="-2.24164">
        <ele>29.799999237061</ele>
        <time>2020-12-20T10:24:22.000Z</time>
      </trkpt>
      <trkpt lat="47.30019" lon="-2.24161">
        <ele>29.200000762939</ele>
        <time>2020-12-20T10:24:23.000Z</time>
      </trkpt>
      <trkpt lat="47.30018" lon="-2.24158">
        <ele>28.60000038147</ele>
        <time>2020-12-20T10:24:24.000Z</time>
      </trkpt>
      <trkpt lat="47.30018" lon="-2.24155">
        <ele>28</ele>
        <time>2020-12-20T10:24:25.000Z</time>
      </trkpt>
      <trkpt lat="47.30018" lon="-2.24153">
        <ele>27.39999961853</ele>
        <time>2020-12-20T10:24:26.000Z</time>
      </trkpt>
      <trkpt lat="47.30019" lon="-2.24151">
        <ele>27.39999961853</ele>
        <time>2020-12-20T10:24:28.000Z</time>
      </trkpt>
      <trkpt lat="47.30022" lon="-2.24147">
        <ele>27.39999961853</ele>
        <time>2020-12-20T10:24:31.000Z</time>
      </trkpt>
      <trkpt lat="47.30046" lon="-2.24128">
        <ele>27.39999961853</ele>
        <time>2020-12-20T10:25:19.000Z</time>
      </trkpt>
      <trkpt lat="47.30048" lon="-2.24125">
        <ele>27.39999961853</ele>
        <time>2020-12-20T10:25:21.000Z</time>
      </trkpt>
      <trkpt lat="47.3006" lon="-2.24114">
        <ele>27.39999961853</ele>
        <time>2020-12-20T10:25:27.000Z</time>
      </trkpt>
      <trkpt lat="47.30078" lon="-2.24103">
        <ele>27.39999961853</ele>
        <time>2020-12-20T10:25:33.000Z</time>
      </trkpt>
      <trkpt lat="47.30096" lon="-2.24095">
        <ele>27.39999961853</ele>
        <time>2020-12-20T10:25:38.000Z</time>
      </trkpt>
      <trkpt lat="47.3011" lon="-2.24087">
        <ele>27.39999961853</ele>
        <time>2020-12-20T10:25:43.000Z</time>
      </trkpt>
      <trkpt lat="47.30118" lon="-2.24083">
        <ele>27.799999237061</ele>
        <time>2020-12-20T10:25:45.000Z</time>
      </trkpt>
      <trkpt lat="47.30121" lon="-2.24081">
        <ele>28.200000762939</ele>
        <time>2020-12-20T10:25:46.000Z</time>
      </trkpt>
      <trkpt lat="47.30125" lon="-2.24079">
        <ele>29</ele>
        <time>2020-12-20T10:25:47.000Z</time>
      </trkpt>
      <trkpt lat="47.30129" lon="-2.24077">
        <ele>29.39999961853</ele>
        <time>2020-12-20T10:25:48.000Z</time>
      </trkpt>
      <trkpt lat="47.30153" lon="-2.24067">
        <ele>29.39999961853</ele>
        <time>2020-12-20T10:25:53.000Z</time>
      </trkpt>
      <trkpt lat="47.30158" lon="-2.24066">
        <ele>29.39999961853</ele>
        <time>2020-12-20T10:25:54.000Z</time>
      </trkpt>
      <trkpt lat="47.30191" lon="-2.24059">
        <ele>29.39999961853</ele>
        <time>2020-12-20T10:26:01.000Z</time>
      </trkpt>
      <trkpt lat="47.30223" lon="-2.24059">
        <ele>29.39999961853</ele>
        <time>2020-12-20T10:26:07.000Z</time>
      </trkpt>
      <trkpt lat="47.30264" lon="-2.24062">
        <ele>29.39999961853</ele>
        <time>2020-12-20T10:26:15.000Z</time>
      </trkpt>
      <trkpt lat="47.30273" lon="-2.24059">
        <ele>29</ele>
        <time>2020-12-20T10:26:17.000Z</time>
      </trkpt>
      <trkpt lat="47.30277" lon="-2.24054">
        <ele>28.60000038147</ele>
        <time>2020-12-20T10:26:18.000Z</time>
      </trkpt>
      <trkpt lat="47.3028" lon="-2.24048">
        <ele>28.200000762939</ele>
        <time>2020-12-20T10:26:19.000Z</time>
      </trkpt>
      <trkpt lat="47.30282" lon="-2.24041">
        <ele>27.799999237061</ele>
        <time>2020-12-20T10:26:20.000Z</time>
      </trkpt>
      <trkpt lat="47.30283" lon="-2.24034">
        <ele>27.39999961853</ele>
        <time>2020-12-20T10:26:21.000Z</time>
      </trkpt>
      <trkpt lat="47.30284" lon="-2.24021">
        <ele>27.39999961853</ele>
        <time>2020-12-20T10:26:23.000Z</time>
      </trkpt>
      <trkpt lat="47.30285" lon="-2.24014">
        <ele>27.39999961853</ele>
        <time>2020-12-20T10:26:24.000Z</time>
      </trkpt>
      <trkpt lat="47.30285" lon="-2.24007">
        <ele>27</ele>
        <time>2020-12-20T10:26:25.000Z</time>
      </trkpt>
      <trkpt lat="47.30285" lon="-2.24">
        <ele>26.60000038147</ele>
        <time>2020-12-20T10:26:26.000Z</time>
      </trkpt>
      <trkpt lat="47.30285" lon="-2.23992">
        <ele>26.200000762939</ele>
        <time>2020-12-20T10:26:27.000Z</time>
      </trkpt>
      <trkpt lat="47.30284" lon="-2.23984">
        <ele>25.799999237061</ele>
        <time>2020-12-20T10:26:28.000Z</time>
      </trkpt>
      <trkpt lat="47.30283" lon="-2.23976">
        <ele>25.39999961853</ele>
        <time>2020-12-20T10:26:29.000Z</time>
      </trkpt>
      <trkpt lat="47.30275" lon="-2.23948">
        <ele>25.39999961853</ele>
        <time>2020-12-20T10:26:32.000Z</time>
      </trkpt>
      <trkpt lat="47.30274" lon="-2.23937">
        <ele>25</ele>
        <time>2020-12-20T10:26:33.000Z</time>
      </trkpt>
      <trkpt lat="47.30273" lon="-2.23928">
        <ele>24.60000038147</ele>
        <time>2020-12-20T10:26:34.000Z</time>
      </trkpt>
      <trkpt lat="47.30274" lon="-2.23919">
        <ele>24</ele>
        <time>2020-12-20T10:26:35.000Z</time>
      </trkpt>
      <trkpt lat="47.30275" lon="-2.23911">
        <ele>23.200000762939</ele>
        <time>2020-12-20T10:26:36.000Z</time>
      </trkpt>
      <trkpt lat="47.3028" lon="-2.23899">
        <ele>23.200000762939</ele>
        <time>2020-12-20T10:26:38.000Z</time>
      </trkpt>
      <trkpt lat="47.3029" lon="-2.23887">
        <ele>23.200000762939</ele>
        <time>2020-12-20T10:26:41.000Z</time>
      </trkpt>
      <trkpt lat="47.30312" lon="-2.23882">
        <ele>23.200000762939</ele>
        <time>2020-12-20T10:26:45.000Z</time>
      </trkpt>
      <trkpt lat="47.30317" lon="-2.23879">
        <ele>23.200000762939</ele>
        <time>2020-12-20T10:26:46.000Z</time>
      </trkpt>
      <trkpt lat="47.30349" lon="-2.23864">
        <ele>23.200000762939</ele>
        <time>2020-12-20T10:26:52.000Z</time>
      </trkpt>
      <trkpt lat="47.30365" lon="-2.23859">
        <ele>22.799999237061</ele>
        <time>2020-12-20T10:26:55.000Z</time>
      </trkpt>
      <trkpt lat="47.3037" lon="-2.23857">
        <ele>22.39999961853</ele>
        <time>2020-12-20T10:26:56.000Z</time>
      </trkpt>
      <trkpt lat="47.30376" lon="-2.23856">
        <ele>22</ele>
        <time>2020-12-20T10:26:57.000Z</time>
      </trkpt>
      <trkpt lat="47.30381" lon="-2.23856">
        <ele>21.60000038147</ele>
        <time>2020-12-20T10:26:58.000Z</time>
      </trkpt>
      <trkpt lat="47.30386" lon="-2.23854">
        <ele>21.200000762939</ele>
        <time>2020-12-20T10:26:59.000Z</time>
      </trkpt>
      <trkpt lat="47.30405" lon="-2.23851">
        <ele>21.200000762939</ele>
        <time>2020-12-20T10:27:03.000Z</time>
      </trkpt>
      <trkpt lat="47.3041" lon="-2.23851">
        <ele>21.200000762939</ele>
        <time>2020-12-20T10:27:04.000Z</time>
      </trkpt>
      <trkpt lat="47.30435" lon="-2.23847">
        <ele>21.200000762939</ele>
        <time>2020-12-20T10:27:09.000Z</time>
      </trkpt>
      <trkpt lat="47.3044" lon="-2.23847">
        <ele>21.200000762939</ele>
        <time>2020-12-20T10:27:10.000Z</time>
      </trkpt>
      <trkpt lat="47.30474" lon="-2.23841">
        <ele>21.200000762939</ele>
        <time>2020-12-20T10:27:16.000Z</time>
      </trkpt>
      <trkpt lat="47.3048" lon="-2.23841">
        <ele>21.200000762939</ele>
        <time>2020-12-20T10:27:17.000Z</time>
      </trkpt>
      <trkpt lat="47.30497" lon="-2.23848">
        <ele>21.200000762939</ele>
        <time>2020-12-20T10:27:20.000Z</time>
      </trkpt>
      <trkpt lat="47.30511" lon="-2.23865">
        <ele>21.200000762939</ele>
        <time>2020-12-20T10:27:23.000Z</time>
      </trkpt>
      <trkpt lat="47.30515" lon="-2.23871">
        <ele>21.200000762939</ele>
        <time>2020-12-20T10:27:24.000Z</time>
      </trkpt>
      <trkpt lat="47.30543" lon="-2.23911">
        <ele>21.200000762939</ele>
        <time>2020-12-20T10:27:31.000Z</time>
      </trkpt>
      <trkpt lat="47.3055" lon="-2.23922">
        <ele>21.200000762939</ele>
        <time>2020-12-20T10:27:33.000Z</time>
      </trkpt>
      <trkpt lat="47.30551" lon="-2.23935">
        <ele>21.200000762939</ele>
        <time>2020-12-20T10:27:35.000Z</time>
      </trkpt>
      <trkpt lat="47.30542" lon="-2.23956">
        <ele>21.200000762939</ele>
        <time>2020-12-20T10:27:39.000Z</time>
      </trkpt>
      <trkpt lat="47.30526" lon="-2.23976">
        <ele>21.200000762939</ele>
        <time>2020-12-20T10:27:44.000Z</time>
      </trkpt>
      <trkpt lat="47.30519" lon="-2.23984">
        <ele>21.60000038147</ele>
        <time>2020-12-20T10:27:46.000Z</time>
      </trkpt>
      <trkpt lat="47.30515" lon="-2.23988">
        <ele>22.200000762939</ele>
        <time>2020-12-20T10:27:47.000Z</time>
      </trkpt>
      <trkpt lat="47.30512" lon="-2.23993">
        <ele>22.60000038147</ele>
        <time>2020-12-20T10:27:48.000Z</time>
      </trkpt>
      <trkpt lat="47.30509" lon="-2.23998">
        <ele>23.200000762939</ele>
        <time>2020-12-20T10:27:49.000Z</time>
      </trkpt>
      <trkpt lat="47.30506" lon="-2.24002">
        <ele>23.60000038147</ele>
        <time>2020-12-20T10:27:50.000Z</time>
      </trkpt>
      <trkpt lat="47.305" lon="-2.24011">
        <ele>24</ele>
        <time>2020-12-20T10:27:52.000Z</time>
      </trkpt>
      <trkpt lat="47.30497" lon="-2.24015">
        <ele>24.39999961853</ele>
        <time>2020-12-20T10:27:53.000Z</time>
      </trkpt>
      <trkpt lat="47.30494" lon="-2.24018">
        <ele>24.799999237061</ele>
        <time>2020-12-20T10:27:54.000Z</time>
      </trkpt>
      <trkpt lat="47.30492" lon="-2.24021">
        <ele>25.200000762939</ele>
        <time>2020-12-20T10:27:55.000Z</time>
      </trkpt>
      <trkpt lat="47.30489" lon="-2.24024">
        <ele>25.60000038147</ele>
        <time>2020-12-20T10:27:56.000Z</time>
      </trkpt>
      <trkpt lat="47.30481" lon="-2.24031">
        <ele>26</ele>
        <time>2020-12-20T10:27:59.000Z</time>
      </trkpt>
      <trkpt lat="47.30478" lon="-2.24033">
        <ele>26.39999961853</ele>
        <time>2020-12-20T10:28:00.000Z</time>
      </trkpt>
      <trkpt lat="47.30475" lon="-2.24034">
        <ele>27</ele>
        <time>2020-12-20T10:28:01.000Z</time>
      </trkpt>
      <trkpt lat="47.30473" lon="-2.24036">
        <ele>27.39999961853</ele>
        <time>2020-12-20T10:28:02.000Z</time>
      </trkpt>
      <trkpt lat="47.3047" lon="-2.24037">
        <ele>27.799999237061</ele>
        <time>2020-12-20T10:28:03.000Z</time>
      </trkpt>
      <trkpt lat="47.30461" lon="-2.24043">
        <ele>28.200000762939</ele>
        <time>2020-12-20T10:28:06.000Z</time>
      </trkpt>
      <trkpt lat="47.30459" lon="-2.24045">
        <ele>28.60000038147</ele>
        <time>2020-12-20T10:28:07.000Z</time>
      </trkpt>
      <trkpt lat="47.30457" lon="-2.24047">
        <ele>29</ele>
        <time>2020-12-20T10:28:08.000Z</time>
      </trkpt>
      <trkpt lat="47.30455" lon="-2.24049">
        <ele>29.39999961853</ele>
        <time>2020-12-20T10:28:09.000Z</time>
      </trkpt>
      <trkpt lat="47.30453" lon="-2.24052">
        <ele>29.799999237061</ele>
        <time>2020-12-20T10:28:10.000Z</time>
      </trkpt>
      <trkpt lat="47.30447" lon="-2.24059">
        <ele>29.799999237061</ele>
        <time>2020-12-20T10:28:13.000Z</time>
      </trkpt>
      <trkpt lat="47.30433" lon="-2.24077">
        <ele>29.799999237061</ele>
        <time>2020-12-20T10:28:19.000Z</time>
      </trkpt>
      <trkpt lat="47.3043" lon="-2.2408">
        <ele>30.200000762939</ele>
        <time>2020-12-20T10:28:20.000Z</time>
      </trkpt>
      <trkpt lat="47.30428" lon="-2.24083">
        <ele>30.60000038147</ele>
        <time>2020-12-20T10:28:21.000Z</time>
      </trkpt>
      <trkpt lat="47.30425" lon="-2.24085">
        <ele>31</ele>
        <time>2020-12-20T10:28:22.000Z</time>
      </trkpt>
      <trkpt lat="47.30423" lon="-2.24087">
        <ele>31.39999961853</ele>
        <time>2020-12-20T10:28:23.000Z</time>
      </trkpt>
      <trkpt lat="47.3042" lon="-2.2409">
        <ele>31.799999237061</ele>
        <time>2020-12-20T10:28:24.000Z</time>
      </trkpt>
      <trkpt lat="47.30415" lon="-2.24095">
        <ele>31.799999237061</ele>
        <time>2020-12-20T10:28:26.000Z</time>
      </trkpt>
      <trkpt lat="47.30404" lon="-2.24108">
        <ele>32.400001525879</ele>
        <time>2020-12-20T10:28:30.000Z</time>
      </trkpt>
      <trkpt lat="47.30402" lon="-2.2411">
        <ele>32.799999237061</ele>
        <time>2020-12-20T10:28:31.000Z</time>
      </trkpt>
      <trkpt lat="47.30399" lon="-2.24113">
        <ele>33.200000762939</ele>
        <time>2020-12-20T10:28:32.000Z</time>
      </trkpt>
      <trkpt lat="47.30395" lon="-2.24117">
        <ele>33.599998474121</ele>
        <time>2020-12-20T10:28:33.000Z</time>
      </trkpt>
      <trkpt lat="47.30391" lon="-2.2412">
        <ele>34.200000762939</ele>
        <time>2020-12-20T10:28:34.000Z</time>
      </trkpt>
      <trkpt lat="47.3038" lon="-2.24131">
        <ele>34.200000762939</ele>
        <time>2020-12-20T10:28:37.000Z</time>
      </trkpt>
      <trkpt lat="47.30375" lon="-2.24136">
        <ele>34.200000762939</ele>
        <time>2020-12-20T10:28:38.000Z</time>
      </trkpt>
      <trkpt lat="47.3036" lon="-2.24158">
        <ele>34.200000762939</ele>
        <time>2020-12-20T10:28:42.000Z</time>
      </trkpt>
      <trkpt lat="47.30357" lon="-2.24164">
        <ele>34.200000762939</ele>
        <time>2020-12-20T10:28:43.000Z</time>
      </trkpt>
      <trkpt lat="47.30351" lon="-2.24177">
        <ele>34.200000762939</ele>
        <time>2020-12-20T10:28:45.000Z</time>
      </trkpt>
      <trkpt lat="47.30348" lon="-2.24189">
        <ele>34.200000762939</ele>
        <time>2020-12-20T10:28:47.000Z</time>
      </trkpt>
      <trkpt lat="47.30352" lon="-2.24202">
        <ele>33.799999237061</ele>
        <time>2020-12-20T10:28:50.000Z</time>
      </trkpt>
      <trkpt lat="47.30355" lon="-2.24205">
        <ele>33.400001525879</ele>
        <time>2020-12-20T10:28:51.000Z</time>
      </trkpt>
      <trkpt lat="47.30358" lon="-2.24208">
        <ele>32.799999237061</ele>
        <time>2020-12-20T10:28:52.000Z</time>
      </trkpt>
      <trkpt lat="47.30361" lon="-2.24211">
        <ele>32.400001525879</ele>
        <time>2020-12-20T10:28:53.000Z</time>
      </trkpt>
      <trkpt lat="47.30364" lon="-2.24214">
        <ele>32</ele>
        <time>2020-12-20T10:28:54.000Z</time>
      </trkpt>
      <trkpt lat="47.30368" lon="-2.24217">
        <ele>32</ele>
        <time>2020-12-20T10:28:55.000Z</time>
      </trkpt>
      <trkpt lat="47.30392" lon="-2.24242">
        <ele>32</ele>
        <time>2020-12-20T10:29:02.000Z</time>
      </trkpt>
      <trkpt lat="47.30409" lon="-2.24259">
        <ele>32</ele>
        <time>2020-12-20T10:29:07.000Z</time>
      </trkpt>
      <trkpt lat="47.30424" lon="-2.2427">
        <ele>32</ele>
        <time>2020-12-20T10:29:11.000Z</time>
      </trkpt>
      <trkpt lat="47.30452" lon="-2.24278">
        <ele>32</ele>
        <time>2020-12-20T10:29:17.000Z</time>
      </trkpt>
      <trkpt lat="47.30484" lon="-2.24292">
        <ele>32</ele>
        <time>2020-12-20T10:29:24.000Z</time>
      </trkpt>
      <trkpt lat="47.3051" lon="-2.24313">
        <ele>32</ele>
        <time>2020-12-20T10:29:31.000Z</time>
      </trkpt>
      <trkpt lat="47.30514" lon="-2.24318">
        <ele>32</ele>
        <time>2020-12-20T10:29:32.000Z</time>
      </trkpt>
      <trkpt lat="47.30532" lon="-2.24339">
        <ele>32</ele>
        <time>2020-12-20T10:29:37.000Z</time>
      </trkpt>
      <trkpt lat="47.30558" lon="-2.24365">
        <ele>32</ele>
        <time>2020-12-20T10:29:44.000Z</time>
      </trkpt>
      <trkpt lat="47.30588" lon="-2.24395">
        <ele>32</ele>
        <time>2020-12-20T10:29:51.000Z</time>
      </trkpt>
      <trkpt lat="47.30614" lon="-2.24414">
        <ele>32</ele>
        <time>2020-12-20T10:29:57.000Z</time>
      </trkpt>
      <trkpt lat="47.30631" lon="-2.24424">
        <ele>31.60000038147</ele>
        <time>2020-12-20T10:30:02.000Z</time>
      </trkpt>
      <trkpt lat="47.30633" lon="-2.24425">
        <ele>31.200000762939</ele>
        <time>2020-12-20T10:30:03.000Z</time>
      </trkpt>
      <trkpt lat="47.30635" lon="-2.24427">
        <ele>30.799999237061</ele>
        <time>2020-12-20T10:30:04.000Z</time>
      </trkpt>
      <trkpt lat="47.30636" lon="-2.24431">
        <ele>30.39999961853</ele>
        <time>2020-12-20T10:30:05.000Z</time>
      </trkpt>
      <trkpt lat="47.30637" lon="-2.24435">
        <ele>30</ele>
        <time>2020-12-20T10:30:06.000Z</time>
      </trkpt>
      <trkpt lat="47.30635" lon="-2.24458">
        <ele>30</ele>
        <time>2020-12-20T10:30:10.000Z</time>
      </trkpt>
      <trkpt lat="47.30628" lon="-2.24501">
        <ele>29.39999961853</ele>
        <time>2020-12-20T10:30:15.000Z</time>
      </trkpt>
      <trkpt lat="47.30627" lon="-2.24511">
        <ele>29</ele>
        <time>2020-12-20T10:30:16.000Z</time>
      </trkpt>
      <trkpt lat="47.30625" lon="-2.24521">
        <ele>28.60000038147</ele>
        <time>2020-12-20T10:30:17.000Z</time>
      </trkpt>
      <trkpt lat="47.30623" lon="-2.24531">
        <ele>28</ele>
        <time>2020-12-20T10:30:18.000Z</time>
      </trkpt>
      <trkpt lat="47.30622" lon="-2.24542">
        <ele>27.60000038147</ele>
        <time>2020-12-20T10:30:19.000Z</time>
      </trkpt>
      <trkpt lat="47.3062" lon="-2.24565">
        <ele>27.60000038147</ele>
        <time>2020-12-20T10:30:21.000Z</time>
      </trkpt>
      <trkpt lat="47.30616" lon="-2.24591">
        <ele>27.200000762939</ele>
        <time>2020-12-20T10:30:23.000Z</time>
      </trkpt>
      <trkpt lat="47.30615" lon="-2.24603">
        <ele>26.60000038147</ele>
        <time>2020-12-20T10:30:24.000Z</time>
      </trkpt>
      <trkpt lat="47.30615" lon="-2.24616">
        <ele>26.200000762939</ele>
        <time>2020-12-20T10:30:25.000Z</time>
      </trkpt>
      <trkpt lat="47.30616" lon="-2.24628">
        <ele>25.799999237061</ele>
        <time>2020-12-20T10:30:26.000Z</time>
      </trkpt>
      <trkpt lat="47.30619" lon="-2.24639">
        <ele>25.39999961853</ele>
        <time>2020-12-20T10:30:27.000Z</time>
      </trkpt>
      <trkpt lat="47.30628" lon="-2.2467">
        <ele>25</ele>
        <time>2020-12-20T10:30:30.000Z</time>
      </trkpt>
      <trkpt lat="47.30631" lon="-2.2468">
        <ele>24.60000038147</ele>
        <time>2020-12-20T10:30:31.000Z</time>
      </trkpt>
      <trkpt lat="47.30635" lon="-2.24689">
        <ele>24.200000762939</ele>
        <time>2020-12-20T10:30:32.000Z</time>
      </trkpt>
      <trkpt lat="47.30638" lon="-2.24698">
        <ele>23.799999237061</ele>
        <time>2020-12-20T10:30:33.000Z</time>
      </trkpt>
      <trkpt lat="47.30641" lon="-2.24707">
        <ele>23.39999961853</ele>
        <time>2020-12-20T10:30:34.000Z</time>
      </trkpt>
      <trkpt lat="47.30648" lon="-2.24732">
        <ele>23.39999961853</ele>
        <time>2020-12-20T10:30:37.000Z</time>
      </trkpt>
      <trkpt lat="47.30655" lon="-2.24753">
        <ele>23.39999961853</ele>
        <time>2020-12-20T10:30:40.000Z</time>
      </trkpt>
      <trkpt lat="47.30654" lon="-2.24757">
        <ele>23</ele>
        <time>2020-12-20T10:30:41.000Z</time>
      </trkpt>
      <trkpt lat="47.30652" lon="-2.24762">
        <ele>22.60000038147</ele>
        <time>2020-12-20T10:30:42.000Z</time>
      </trkpt>
      <trkpt lat="47.3065" lon="-2.24765">
        <ele>21.799999237061</ele>
        <time>2020-12-20T10:30:43.000Z</time>
      </trkpt>
      <trkpt lat="47.30647" lon="-2.24768">
        <ele>21.39999961853</ele>
        <time>2020-12-20T10:30:44.000Z</time>
      </trkpt>
      <trkpt lat="47.3064" lon="-2.24774">
        <ele>21.39999961853</ele>
        <time>2020-12-20T10:30:46.000Z</time>
      </trkpt>
      <trkpt lat="47.30634" lon="-2.24784">
        <ele>21.39999961853</ele>
        <time>2020-12-20T10:30:49.000Z</time>
      </trkpt>
      <trkpt lat="47.30617" lon="-2.24811">
        <ele>21.39999961853</ele>
        <time>2020-12-20T10:30:55.000Z</time>
      </trkpt>
      <trkpt lat="47.3061" lon="-2.24822">
        <ele>21.39999961853</ele>
        <time>2020-12-20T10:30:57.000Z</time>
      </trkpt>
      <trkpt lat="47.30597" lon="-2.24846">
        <ele>21.39999961853</ele>
        <time>2020-12-20T10:31:01.000Z</time>
      </trkpt>
      <trkpt lat="47.30586" lon="-2.24873">
        <ele>21.39999961853</ele>
        <time>2020-12-20T10:31:05.000Z</time>
      </trkpt>
      <trkpt lat="47.30579" lon="-2.24896">
        <ele>21.39999961853</ele>
        <time>2020-12-20T10:31:08.000Z</time>
      </trkpt>
      <trkpt lat="47.30577" lon="-2.24913">
        <ele>21.39999961853</ele>
        <time>2020-12-20T10:31:10.000Z</time>
      </trkpt>
      <trkpt lat="47.30575" lon="-2.2493">
        <ele>21.39999961853</ele>
        <time>2020-12-20T10:31:12.000Z</time>
      </trkpt>
      <trkpt lat="47.30571" lon="-2.24969">
        <ele>21.39999961853</ele>
        <time>2020-12-20T10:31:17.000Z</time>
      </trkpt>
      <trkpt lat="47.30573" lon="-2.25014">
        <ele>21.39999961853</ele>
        <time>2020-12-20T10:31:22.000Z</time>
      </trkpt>
      <trkpt lat="47.30577" lon="-2.25049">
        <ele>21.39999961853</ele>
        <time>2020-12-20T10:31:26.000Z</time>
      </trkpt>
      <trkpt lat="47.30578" lon="-2.25057">
        <ele>21.39999961853</ele>
        <time>2020-12-20T10:31:27.000Z</time>
      </trkpt>
      <trkpt lat="47.30587" lon="-2.25107">
        <ele>21.39999961853</ele>
        <time>2020-12-20T10:31:33.000Z</time>
      </trkpt>
      <trkpt lat="47.30604" lon="-2.25151">
        <ele>21.39999961853</ele>
        <time>2020-12-20T10:31:39.000Z</time>
      </trkpt>
      <trkpt lat="47.30628" lon="-2.25207">
        <ele>21.39999961853</ele>
        <time>2020-12-20T10:31:47.000Z</time>
      </trkpt>
      <trkpt lat="47.30645" lon="-2.2526">
        <ele>21.39999961853</ele>
        <time>2020-12-20T10:31:54.000Z</time>
      </trkpt>
      <trkpt lat="47.30655" lon="-2.25309">
        <ele>21.39999961853</ele>
        <time>2020-12-20T10:32:00.000Z</time>
      </trkpt>
      <trkpt lat="47.30665" lon="-2.25375">
        <ele>21.39999961853</ele>
        <time>2020-12-20T10:32:08.000Z</time>
      </trkpt>
      <trkpt lat="47.30665" lon="-2.25384">
        <ele>21.39999961853</ele>
        <time>2020-12-20T10:32:09.000Z</time>
      </trkpt>
      <trkpt lat="47.3066" lon="-2.25409">
        <ele>21.39999961853</ele>
        <time>2020-12-20T10:32:12.000Z</time>
      </trkpt>
      <trkpt lat="47.30642" lon="-2.25434">
        <ele>21.39999961853</ele>
        <time>2020-12-20T10:32:16.000Z</time>
      </trkpt>
      <trkpt lat="47.306" lon="-2.25484">
        <ele>21.39999961853</ele>
        <time>2020-12-20T10:32:24.000Z</time>
      </trkpt>
      <trkpt lat="47.30568" lon="-2.25522">
        <ele>21.39999961853</ele>
        <time>2020-12-20T10:32:30.000Z</time>
      </trkpt>
      <trkpt lat="47.30554" lon="-2.25543">
        <ele>21.39999961853</ele>
        <time>2020-12-20T10:32:33.000Z</time>
      </trkpt>
      <trkpt lat="47.30543" lon="-2.25566">
        <ele>21.39999961853</ele>
        <time>2020-12-20T10:32:36.000Z</time>
      </trkpt>
      <trkpt lat="47.30518" lon="-2.25626">
        <ele>21.39999961853</ele>
        <time>2020-12-20T10:32:43.000Z</time>
      </trkpt>
      <trkpt lat="47.30495" lon="-2.25681">
        <ele>21.39999961853</ele>
        <time>2020-12-20T10:32:50.000Z</time>
      </trkpt>
      <trkpt lat="47.30472" lon="-2.25736">
        <ele>21.39999961853</ele>
        <time>2020-12-20T10:32:57.000Z</time>
      </trkpt>
      <trkpt lat="47.30453" lon="-2.25797">
        <ele>21.39999961853</ele>
        <time>2020-12-20T10:33:04.000Z</time>
      </trkpt>
      <trkpt lat="47.30447" lon="-2.25841">
        <ele>21.39999961853</ele>
        <time>2020-12-20T10:33:09.000Z</time>
      </trkpt>
      <trkpt lat="47.30438" lon="-2.25896">
        <ele>21.39999961853</ele>
        <time>2020-12-20T10:33:15.000Z</time>
      </trkpt>
      <trkpt lat="47.30419" lon="-2.25945">
        <ele>21.39999961853</ele>
        <time>2020-12-20T10:33:21.000Z</time>
      </trkpt>
      <trkpt lat="47.30399" lon="-2.25994">
        <ele>21.39999961853</ele>
        <time>2020-12-20T10:33:27.000Z</time>
      </trkpt>
      <trkpt lat="47.30396" lon="-2.26012">
        <ele>21.39999961853</ele>
        <time>2020-12-20T10:33:29.000Z</time>
      </trkpt>
      <trkpt lat="47.30394" lon="-2.2603">
        <ele>21.39999961853</ele>
        <time>2020-12-20T10:33:31.000Z</time>
      </trkpt>
      <trkpt lat="47.30392" lon="-2.26111">
        <ele>21.39999961853</ele>
        <time>2020-12-20T10:33:40.000Z</time>
      </trkpt>
      <trkpt lat="47.30396" lon="-2.26161">
        <ele>21.39999961853</ele>
        <time>2020-12-20T10:33:46.000Z</time>
      </trkpt>
      <trkpt lat="47.30401" lon="-2.26198">
        <ele>21.39999961853</ele>
        <time>2020-12-20T10:33:52.000Z</time>
      </trkpt>
      <trkpt lat="47.3041" lon="-2.26218">
        <ele>21.39999961853</ele>
        <time>2020-12-20T10:33:57.000Z</time>
      </trkpt>
      <trkpt lat="47.30412" lon="-2.26223">
        <ele>21.39999961853</ele>
        <time>2020-12-20T10:33:58.000Z</time>
      </trkpt>
      <trkpt lat="47.30419" lon="-2.26246">
        <ele>21.39999961853</ele>
        <time>2020-12-20T10:34:02.000Z</time>
      </trkpt>
      <trkpt lat="47.30425" lon="-2.26264">
        <ele>21.799999237061</ele>
        <time>2020-12-20T10:34:05.000Z</time>
      </trkpt>
      <trkpt lat="47.30426" lon="-2.2627">
        <ele>22.200000762939</ele>
        <time>2020-12-20T10:34:06.000Z</time>
      </trkpt>
      <trkpt lat="47.30427" lon="-2.26276">
        <ele>22.60000038147</ele>
        <time>2020-12-20T10:34:07.000Z</time>
      </trkpt>
      <trkpt lat="47.30427" lon="-2.26283">
        <ele>23</ele>
        <time>2020-12-20T10:34:08.000Z</time>
      </trkpt>
      <trkpt lat="47.30428" lon="-2.26291">
        <ele>23.39999961853</ele>
        <time>2020-12-20T10:34:09.000Z</time>
      </trkpt>
      <trkpt lat="47.30429" lon="-2.26299">
        <ele>23.39999961853</ele>
        <time>2020-12-20T10:34:10.000Z</time>
      </trkpt>
      <trkpt lat="47.30429" lon="-2.26313">
        <ele>23.39999961853</ele>
        <time>2020-12-20T10:34:12.000Z</time>
      </trkpt>
      <trkpt lat="47.30429" lon="-2.26371">
        <ele>23.39999961853</ele>
        <time>2020-12-20T10:34:20.000Z</time>
      </trkpt>
      <trkpt lat="47.30426" lon="-2.26432">
        <ele>23.39999961853</ele>
        <time>2020-12-20T10:34:28.000Z</time>
      </trkpt>
      <trkpt lat="47.30427" lon="-2.26439">
        <ele>23.799999237061</ele>
        <time>2020-12-20T10:34:29.000Z</time>
      </trkpt>
      <trkpt lat="47.30427" lon="-2.26446">
        <ele>24.200000762939</ele>
        <time>2020-12-20T10:34:30.000Z</time>
      </trkpt>
      <trkpt lat="47.3043" lon="-2.26453">
        <ele>24.60000038147</ele>
        <time>2020-12-20T10:34:31.000Z</time>
      </trkpt>
      <trkpt lat="47.30433" lon="-2.26459">
        <ele>25.200000762939</ele>
        <time>2020-12-20T10:34:32.000Z</time>
      </trkpt>
      <trkpt lat="47.30438" lon="-2.26464">
        <ele>25.60000038147</ele>
        <time>2020-12-20T10:34:33.000Z</time>
      </trkpt>
      <trkpt lat="47.30448" lon="-2.2647">
        <ele>25.60000038147</ele>
        <time>2020-12-20T10:34:35.000Z</time>
      </trkpt>
      <trkpt lat="47.30453" lon="-2.26472">
        <ele>25.60000038147</ele>
        <time>2020-12-20T10:34:36.000Z</time>
      </trkpt>
      <trkpt lat="47.30477" lon="-2.26485">
        <ele>25.60000038147</ele>
        <time>2020-12-20T10:34:42.000Z</time>
      </trkpt>
      <trkpt lat="47.3049" lon="-2.26494">
        <ele>25.60000038147</ele>
        <time>2020-12-20T10:34:48.000Z</time>
      </trkpt>
      <trkpt lat="47.30487" lon="-2.26505">
        <ele>25.60000038147</ele>
        <time>2020-12-20T10:34:51.000Z</time>
      </trkpt>
      <trkpt lat="47.30485" lon="-2.26509">
        <ele>25.60000038147</ele>
        <time>2020-12-20T10:34:52.000Z</time>
      </trkpt>
      <trkpt lat="47.30474" lon="-2.26533">
        <ele>25.60000038147</ele>
        <time>2020-12-20T10:34:57.000Z</time>
      </trkpt>
      <trkpt lat="47.30464" lon="-2.26556">
        <ele>25.60000038147</ele>
        <time>2020-12-20T10:35:01.000Z</time>
      </trkpt>
      <trkpt lat="47.30458" lon="-2.26567">
        <ele>25.60000038147</ele>
        <time>2020-12-20T10:35:03.000Z</time>
      </trkpt>
      <trkpt lat="47.30449" lon="-2.26582">
        <ele>26</ele>
        <time>2020-12-20T10:35:06.000Z</time>
      </trkpt>
      <trkpt lat="47.30445" lon="-2.26588">
        <ele>26.39999961853</ele>
        <time>2020-12-20T10:35:07.000Z</time>
      </trkpt>
      <trkpt lat="47.30443" lon="-2.26594">
        <ele>26.799999237061</ele>
        <time>2020-12-20T10:35:08.000Z</time>
      </trkpt>
      <trkpt lat="47.3044" lon="-2.26601">
        <ele>27.39999961853</ele>
        <time>2020-12-20T10:35:09.000Z</time>
      </trkpt>
      <trkpt lat="47.30437" lon="-2.26607">
        <ele>27.799999237061</ele>
        <time>2020-12-20T10:35:10.000Z</time>
      </trkpt>
      <trkpt lat="47.30428" lon="-2.26628">
        <ele>27.799999237061</ele>
        <time>2020-12-20T10:35:13.000Z</time>
      </trkpt>
      <trkpt lat="47.30422" lon="-2.26642">
        <ele>27.799999237061</ele>
        <time>2020-12-20T10:35:15.000Z</time>
      </trkpt>
      <trkpt lat="47.30408" lon="-2.26673">
        <ele>27.799999237061</ele>
        <time>2020-12-20T10:35:20.000Z</time>
      </trkpt>
      <trkpt lat="47.30402" lon="-2.26685">
        <ele>27.799999237061</ele>
        <time>2020-12-20T10:35:22.000Z</time>
      </trkpt>
      <trkpt lat="47.30396" lon="-2.26697">
        <ele>27.799999237061</ele>
        <time>2020-12-20T10:35:24.000Z</time>
      </trkpt>
      <trkpt lat="47.30388" lon="-2.26709">
        <ele>27.799999237061</ele>
        <time>2020-12-20T10:35:26.000Z</time>
      </trkpt>
      <trkpt lat="47.30384" lon="-2.26716">
        <ele>27.799999237061</ele>
        <time>2020-12-20T10:35:27.000Z</time>
      </trkpt>
      <trkpt lat="47.30376" lon="-2.26729">
        <ele>27.799999237061</ele>
        <time>2020-12-20T10:35:29.000Z</time>
      </trkpt>
      <trkpt lat="47.30371" lon="-2.26742">
        <ele>27.799999237061</ele>
        <time>2020-12-20T10:35:31.000Z</time>
      </trkpt>
      <trkpt lat="47.30355" lon="-2.26774">
        <ele>27.799999237061</ele>
        <time>2020-12-20T10:35:36.000Z</time>
      </trkpt>
      <trkpt lat="47.3035" lon="-2.26785">
        <ele>27.799999237061</ele>
        <time>2020-12-20T10:35:38.000Z</time>
      </trkpt>
      <trkpt lat="47.30349" lon="-2.268">
        <ele>27.799999237061</ele>
        <time>2020-12-20T10:35:40.000Z</time>
      </trkpt>
      <trkpt lat="47.3035" lon="-2.26819">
        <ele>27.799999237061</ele>
        <time>2020-12-20T10:35:43.000Z</time>
      </trkpt>
      <trkpt lat="47.30351" lon="-2.26825">
        <ele>27.799999237061</ele>
        <time>2020-12-20T10:35:44.000Z</time>
      </trkpt>
      <trkpt lat="47.30351" lon="-2.26832">
        <ele>27.799999237061</ele>
        <time>2020-12-20T10:35:45.000Z</time>
      </trkpt>
      <trkpt lat="47.30354" lon="-2.26865">
        <ele>27.799999237061</ele>
        <time>2020-12-20T10:35:49.000Z</time>
      </trkpt>
      <trkpt lat="47.3036" lon="-2.26906">
        <ele>27.799999237061</ele>
        <time>2020-12-20T10:35:54.000Z</time>
      </trkpt>
      <trkpt lat="47.30369" lon="-2.2696">
        <ele>27.799999237061</ele>
        <time>2020-12-20T10:36:00.000Z</time>
      </trkpt>
      <trkpt lat="47.30371" lon="-2.27005">
        <ele>27.799999237061</ele>
        <time>2020-12-20T10:36:05.000Z</time>
      </trkpt>
      <trkpt lat="47.30375" lon="-2.27053">
        <ele>27.39999961853</ele>
        <time>2020-12-20T10:36:11.000Z</time>
      </trkpt>
      <trkpt lat="47.30379" lon="-2.27058">
        <ele>26.799999237061</ele>
        <time>2020-12-20T10:36:12.000Z</time>
      </trkpt>
      <trkpt lat="47.30383" lon="-2.27062">
        <ele>26.39999961853</ele>
        <time>2020-12-20T10:36:13.000Z</time>
      </trkpt>
      <trkpt lat="47.30388" lon="-2.27063">
        <ele>26</ele>
        <time>2020-12-20T10:36:14.000Z</time>
      </trkpt>
      <trkpt lat="47.30393" lon="-2.27066">
        <ele>25.60000038147</ele>
        <time>2020-12-20T10:36:15.000Z</time>
      </trkpt>
      <trkpt lat="47.30398" lon="-2.27069">
        <ele>25.60000038147</ele>
        <time>2020-12-20T10:36:16.000Z</time>
      </trkpt>
      <trkpt lat="47.30406" lon="-2.27081">
        <ele>25.60000038147</ele>
        <time>2020-12-20T10:36:18.000Z</time>
      </trkpt>
      <trkpt lat="47.30412" lon="-2.27107">
        <ele>25.60000038147</ele>
        <time>2020-12-20T10:36:21.000Z</time>
      </trkpt>
      <trkpt lat="47.30415" lon="-2.27115">
        <ele>25.60000038147</ele>
        <time>2020-12-20T10:36:22.000Z</time>
      </trkpt>
      <trkpt lat="47.30416" lon="-2.27124">
        <ele>25.60000038147</ele>
        <time>2020-12-20T10:36:23.000Z</time>
      </trkpt>
      <trkpt lat="47.30417" lon="-2.2714">
        <ele>25.60000038147</ele>
        <time>2020-12-20T10:36:25.000Z</time>
      </trkpt>
      <trkpt lat="47.30417" lon="-2.27146">
        <ele>25.60000038147</ele>
        <time>2020-12-20T10:36:26.000Z</time>
      </trkpt>
      <trkpt lat="47.30411" lon="-2.27164">
        <ele>24.799999237061</ele>
        <time>2020-12-20T10:36:30.000Z</time>
      </trkpt>
      <trkpt lat="47.30408" lon="-2.27165">
        <ele>24.39999961853</ele>
        <time>2020-12-20T10:36:31.000Z</time>
      </trkpt>
      <trkpt lat="47.30406" lon="-2.27164">
        <ele>24</ele>
        <time>2020-12-20T10:36:32.000Z</time>
      </trkpt>
      <trkpt lat="47.30406" lon="-2.27161">
        <ele>23.60000038147</ele>
        <time>2020-12-20T10:36:33.000Z</time>
      </trkpt>
      <trkpt lat="47.3041" lon="-2.27153">
        <ele>23.60000038147</ele>
        <time>2020-12-20T10:36:36.000Z</time>
      </trkpt>
      <trkpt lat="47.30415" lon="-2.27161">
        <ele>23.60000038147</ele>
        <time>2020-12-20T10:36:40.000Z</time>
      </trkpt>
      <trkpt lat="47.30406" lon="-2.27162">
        <ele>23.60000038147</ele>
        <time>2020-12-20T10:36:43.000Z</time>
      </trkpt>
      <trkpt lat="47.30402" lon="-2.27162">
        <ele>23.60000038147</ele>
        <time>2020-12-20T10:36:44.000Z</time>
      </trkpt>
      <trkpt lat="47.30383" lon="-2.27167">
        <ele>23.60000038147</ele>
        <time>2020-12-20T10:36:49.000Z</time>
      </trkpt>
      <trkpt lat="47.30375" lon="-2.27169">
        <ele>23.60000038147</ele>
        <time>2020-12-20T10:36:51.000Z</time>
      </trkpt>
      <trkpt lat="47.30354" lon="-2.27174">
        <ele>23.60000038147</ele>
        <time>2020-12-20T10:36:56.000Z</time>
      </trkpt>
      <trkpt lat="47.30336" lon="-2.27178">
        <ele>23.60000038147</ele>
        <time>2020-12-20T10:37:02.000Z</time>
      </trkpt>
      <trkpt lat="47.30318" lon="-2.27181">
        <ele>23.60000038147</ele>
        <time>2020-12-20T10:37:07.000Z</time>
      </trkpt>
      <trkpt lat="47.30289" lon="-2.27183">
        <ele>23.60000038147</ele>
        <time>2020-12-20T10:37:14.000Z</time>
      </trkpt>
      <trkpt lat="47.30261" lon="-2.27175">
        <ele>23.60000038147</ele>
        <time>2020-12-20T10:37:20.000Z</time>
      </trkpt>
      <trkpt lat="47.30252" lon="-2.27172">
        <ele>24</ele>
        <time>2020-12-20T10:37:22.000Z</time>
      </trkpt>
      <trkpt lat="47.30247" lon="-2.2717">
        <ele>24.39999961853</ele>
        <time>2020-12-20T10:37:23.000Z</time>
      </trkpt>
      <trkpt lat="47.30243" lon="-2.27168">
        <ele>24.799999237061</ele>
        <time>2020-12-20T10:37:24.000Z</time>
      </trkpt>
      <trkpt lat="47.30238" lon="-2.27166">
        <ele>25.39999961853</ele>
        <time>2020-12-20T10:37:25.000Z</time>
      </trkpt>
      <trkpt lat="47.30234" lon="-2.27164">
        <ele>25.799999237061</ele>
        <time>2020-12-20T10:37:26.000Z</time>
      </trkpt>
      <trkpt lat="47.30223" lon="-2.27156">
        <ele>25.799999237061</ele>
        <time>2020-12-20T10:37:29.000Z</time>
      </trkpt>
      <trkpt lat="47.30213" lon="-2.27156">
        <ele>25.799999237061</ele>
        <time>2020-12-20T10:37:31.000Z</time>
      </trkpt>
      <trkpt lat="47.30207" lon="-2.27158">
        <ele>25.799999237061</ele>
        <time>2020-12-20T10:37:32.000Z</time>
      </trkpt>
      <trkpt lat="47.30195" lon="-2.27172">
        <ele>25.799999237061</ele>
        <time>2020-12-20T10:37:35.000Z</time>
      </trkpt>
      <trkpt lat="47.30192" lon="-2.27177">
        <ele>25.799999237061</ele>
        <time>2020-12-20T10:37:36.000Z</time>
      </trkpt>
      <trkpt lat="47.30172" lon="-2.27201">
        <ele>25.799999237061</ele>
        <time>2020-12-20T10:37:42.000Z</time>
      </trkpt>
      <trkpt lat="47.30149" lon="-2.27233">
        <ele>25.799999237061</ele>
        <time>2020-12-20T10:37:49.000Z</time>
      </trkpt>
      <trkpt lat="47.3014" lon="-2.27242">
        <ele>25.799999237061</ele>
        <time>2020-12-20T10:37:51.000Z</time>
      </trkpt>
      <trkpt lat="47.30123" lon="-2.27263">
        <ele>25.799999237061</ele>
        <time>2020-12-20T10:37:55.000Z</time>
      </trkpt>
      <trkpt lat="47.30108" lon="-2.27286">
        <ele>25.799999237061</ele>
        <time>2020-12-20T10:37:59.000Z</time>
      </trkpt>
      <trkpt lat="47.30098" lon="-2.27304">
        <ele>25.799999237061</ele>
        <time>2020-12-20T10:38:02.000Z</time>
      </trkpt>
      <trkpt lat="47.30075" lon="-2.27355">
        <ele>25.799999237061</ele>
        <time>2020-12-20T10:38:09.000Z</time>
      </trkpt>
      <trkpt lat="47.30057" lon="-2.27395">
        <ele>25.799999237061</ele>
        <time>2020-12-20T10:38:15.000Z</time>
      </trkpt>
      <trkpt lat="47.30029" lon="-2.27434">
        <ele>25.799999237061</ele>
        <time>2020-12-20T10:38:22.000Z</time>
      </trkpt>
      <trkpt lat="47.3002" lon="-2.27445">
        <ele>25.799999237061</ele>
        <time>2020-12-20T10:38:26.000Z</time>
      </trkpt>
      <trkpt lat="47.30007" lon="-2.2747">
        <ele>25.799999237061</ele>
        <time>2020-12-20T10:38:32.000Z</time>
      </trkpt>
      <trkpt lat="47.30004" lon="-2.27476">
        <ele>25.799999237061</ele>
        <time>2020-12-20T10:38:33.000Z</time>
      </trkpt>
      <trkpt lat="47.29996" lon="-2.27503">
        <ele>25.799999237061</ele>
        <time>2020-12-20T10:38:37.000Z</time>
      </trkpt>
      <trkpt lat="47.29994" lon="-2.2751">
        <ele>25.799999237061</ele>
        <time>2020-12-20T10:38:38.000Z</time>
      </trkpt>
      <trkpt lat="47.29987" lon="-2.27537">
        <ele>25.799999237061</ele>
        <time>2020-12-20T10:38:42.000Z</time>
      </trkpt>
      <trkpt lat="47.29975" lon="-2.27584">
        <ele>25.799999237061</ele>
        <time>2020-12-20T10:38:49.000Z</time>
      </trkpt>
      <trkpt lat="47.29969" lon="-2.27603">
        <ele>26.200000762939</ele>
        <time>2020-12-20T10:38:52.000Z</time>
      </trkpt>
      <trkpt lat="47.29967" lon="-2.27611">
        <ele>26.60000038147</ele>
        <time>2020-12-20T10:38:53.000Z</time>
      </trkpt>
      <trkpt lat="47.29965" lon="-2.27618">
        <ele>27</ele>
        <time>2020-12-20T10:38:54.000Z</time>
      </trkpt>
      <trkpt lat="47.29964" lon="-2.27626">
        <ele>27.39999961853</ele>
        <time>2020-12-20T10:38:55.000Z</time>
      </trkpt>
      <trkpt lat="47.29963" lon="-2.27634">
        <ele>27.799999237061</ele>
        <time>2020-12-20T10:38:56.000Z</time>
      </trkpt>
      <trkpt lat="47.29959" lon="-2.27658">
        <ele>27.799999237061</ele>
        <time>2020-12-20T10:38:59.000Z</time>
      </trkpt>
      <trkpt lat="47.29957" lon="-2.27675">
        <ele>27.799999237061</ele>
        <time>2020-12-20T10:39:01.000Z</time>
      </trkpt>
      <trkpt lat="47.29951" lon="-2.27744">
        <ele>28.200000762939</ele>
        <time>2020-12-20T10:39:09.000Z</time>
      </trkpt>
      <trkpt lat="47.2995" lon="-2.27753">
        <ele>28.60000038147</ele>
        <time>2020-12-20T10:39:10.000Z</time>
      </trkpt>
      <trkpt lat="47.29949" lon="-2.27761">
        <ele>29</ele>
        <time>2020-12-20T10:39:11.000Z</time>
      </trkpt>
      <trkpt lat="47.29949" lon="-2.2777">
        <ele>29.39999961853</ele>
        <time>2020-12-20T10:39:12.000Z</time>
      </trkpt>
      <trkpt lat="47.29947" lon="-2.27778">
        <ele>29.799999237061</ele>
        <time>2020-12-20T10:39:13.000Z</time>
      </trkpt>
      <trkpt lat="47.29945" lon="-2.27811">
        <ele>29.799999237061</ele>
        <time>2020-12-20T10:39:17.000Z</time>
      </trkpt>
      <trkpt lat="47.29943" lon="-2.27844">
        <ele>29.799999237061</ele>
        <time>2020-12-20T10:39:21.000Z</time>
      </trkpt>
      <trkpt lat="47.29943" lon="-2.2786">
        <ele>29.799999237061</ele>
        <time>2020-12-20T10:39:23.000Z</time>
      </trkpt>
      <trkpt lat="47.29938" lon="-2.2791">
        <ele>30.200000762939</ele>
        <time>2020-12-20T10:39:29.000Z</time>
      </trkpt>
      <trkpt lat="47.29937" lon="-2.27918">
        <ele>30.60000038147</ele>
        <time>2020-12-20T10:39:30.000Z</time>
      </trkpt>
      <trkpt lat="47.29937" lon="-2.27926">
        <ele>31</ele>
        <time>2020-12-20T10:39:31.000Z</time>
      </trkpt>
      <trkpt lat="47.29936" lon="-2.27935">
        <ele>31.39999961853</ele>
        <time>2020-12-20T10:39:32.000Z</time>
      </trkpt>
      <trkpt lat="47.29935" lon="-2.27944">
        <ele>31.799999237061</ele>
        <time>2020-12-20T10:39:33.000Z</time>
      </trkpt>
      <trkpt lat="47.29933" lon="-2.27976">
        <ele>31.799999237061</ele>
        <time>2020-12-20T10:39:37.000Z</time>
      </trkpt>
      <trkpt lat="47.29933" lon="-2.27985">
        <ele>31.799999237061</ele>
        <time>2020-12-20T10:39:38.000Z</time>
      </trkpt>
      <trkpt lat="47.29939" lon="-2.28022">
        <ele>31.799999237061</ele>
        <time>2020-12-20T10:39:43.000Z</time>
      </trkpt>
      <trkpt lat="47.2994" lon="-2.28029">
        <ele>31.799999237061</ele>
        <time>2020-12-20T10:39:44.000Z</time>
      </trkpt>
      <trkpt lat="47.29943" lon="-2.28035">
        <ele>31.799999237061</ele>
        <time>2020-12-20T10:39:45.000Z</time>
      </trkpt>
      <trkpt lat="47.29953" lon="-2.28048">
        <ele>31.799999237061</ele>
        <time>2020-12-20T10:39:48.000Z</time>
      </trkpt>
      <trkpt lat="47.29965" lon="-2.28048">
        <ele>31.799999237061</ele>
        <time>2020-12-20T10:39:51.000Z</time>
      </trkpt>
      <trkpt lat="47.29974" lon="-2.28044">
        <ele>31.799999237061</ele>
        <time>2020-12-20T10:39:53.000Z</time>
      </trkpt>
      <trkpt lat="47.29985" lon="-2.28036">
        <ele>31.799999237061</ele>
        <time>2020-12-20T10:39:56.000Z</time>
      </trkpt>
      <trkpt lat="47.29993" lon="-2.28036">
        <ele>31.799999237061</ele>
        <time>2020-12-20T10:39:59.000Z</time>
      </trkpt>
      <trkpt lat="47.29995" lon="-2.28038">
        <ele>31.799999237061</ele>
        <time>2020-12-20T10:40:00.000Z</time>
      </trkpt>
      <trkpt lat="47.29993" lon="-2.28049">
        <ele>31.799999237061</ele>
        <time>2020-12-20T10:40:03.000Z</time>
      </trkpt>
      <trkpt lat="47.29986" lon="-2.28069">
        <ele>31.799999237061</ele>
        <time>2020-12-20T10:40:07.000Z</time>
      </trkpt>
      <trkpt lat="47.29984" lon="-2.28076">
        <ele>31.799999237061</ele>
        <time>2020-12-20T10:40:08.000Z</time>
      </trkpt>
      <trkpt lat="47.29971" lon="-2.28121">
        <ele>31.799999237061</ele>
        <time>2020-12-20T10:40:15.000Z</time>
      </trkpt>
      <trkpt lat="47.29967" lon="-2.28135">
        <ele>31.799999237061</ele>
        <time>2020-12-20T10:40:17.000Z</time>
      </trkpt>
      <trkpt lat="47.29961" lon="-2.28155">
        <ele>31.799999237061</ele>
        <time>2020-12-20T10:40:20.000Z</time>
      </trkpt>
      <trkpt lat="47.29952" lon="-2.2819">
        <ele>31.799999237061</ele>
        <time>2020-12-20T10:40:25.000Z</time>
      </trkpt>
      <trkpt lat="47.29948" lon="-2.28211">
        <ele>31.799999237061</ele>
        <time>2020-12-20T10:40:28.000Z</time>
      </trkpt>
      <trkpt lat="47.2995" lon="-2.28225">
        <ele>31.799999237061</ele>
        <time>2020-12-20T10:40:30.000Z</time>
      </trkpt>
      <trkpt lat="47.29955" lon="-2.28275">
        <ele>31.799999237061</ele>
        <time>2020-12-20T10:40:37.000Z</time>
      </trkpt>
      <trkpt lat="47.29955" lon="-2.28296">
        <ele>31.799999237061</ele>
        <time>2020-12-20T10:40:40.000Z</time>
      </trkpt>
      <trkpt lat="47.29953" lon="-2.28317">
        <ele>31.799999237061</ele>
        <time>2020-12-20T10:40:43.000Z</time>
      </trkpt>
      <trkpt lat="47.2995" lon="-2.28354">
        <ele>31.799999237061</ele>
        <time>2020-12-20T10:40:48.000Z</time>
      </trkpt>
      <trkpt lat="47.2995" lon="-2.28362">
        <ele>31.799999237061</ele>
        <time>2020-12-20T10:40:49.000Z</time>
      </trkpt>
      <trkpt lat="47.2995" lon="-2.28376">
        <ele>31.799999237061</ele>
        <time>2020-12-20T10:40:51.000Z</time>
      </trkpt>
      <trkpt lat="47.2995" lon="-2.28398">
        <ele>31.799999237061</ele>
        <time>2020-12-20T10:40:54.000Z</time>
      </trkpt>
      <trkpt lat="47.2995" lon="-2.28406">
        <ele>31.39999961853</ele>
        <time>2020-12-20T10:40:55.000Z</time>
      </trkpt>
      <trkpt lat="47.2995" lon="-2.28412">
        <ele>31</ele>
        <time>2020-12-20T10:40:56.000Z</time>
      </trkpt>
      <trkpt lat="47.29948" lon="-2.28418">
        <ele>30.60000038147</ele>
        <time>2020-12-20T10:40:57.000Z</time>
      </trkpt>
      <trkpt lat="47.29946" lon="-2.28423">
        <ele>30.200000762939</ele>
        <time>2020-12-20T10:40:58.000Z</time>
      </trkpt>
      <trkpt lat="47.29942" lon="-2.28427">
        <ele>29.799999237061</ele>
        <time>2020-12-20T10:40:59.000Z</time>
      </trkpt>
      <trkpt lat="47.29936" lon="-2.28445">
        <ele>29.799999237061</ele>
        <time>2020-12-20T10:41:02.000Z</time>
      </trkpt>
      <trkpt lat="47.29935" lon="-2.28459">
        <ele>29.799999237061</ele>
        <time>2020-12-20T10:41:04.000Z</time>
      </trkpt>
      <trkpt lat="47.29936" lon="-2.28478">
        <ele>29.799999237061</ele>
        <time>2020-12-20T10:41:07.000Z</time>
      </trkpt>
      <trkpt lat="47.29939" lon="-2.28494">
        <ele>29.799999237061</ele>
        <time>2020-12-20T10:41:10.000Z</time>
      </trkpt>
      <trkpt lat="47.29937" lon="-2.28501">
        <ele>29.799999237061</ele>
        <time>2020-12-20T10:41:11.000Z</time>
      </trkpt>
      <trkpt lat="47.29927" lon="-2.28538">
        <ele>29.799999237061</ele>
        <time>2020-12-20T10:41:16.000Z</time>
      </trkpt>
      <trkpt lat="47.29937" lon="-2.28557">
        <ele>29.799999237061</ele>
        <time>2020-12-20T10:41:19.000Z</time>
      </trkpt>
      <trkpt lat="47.29948" lon="-2.28576">
        <ele>29.799999237061</ele>
        <time>2020-12-20T10:41:23.000Z</time>
      </trkpt>
      <trkpt lat="47.29946" lon="-2.28593">
        <ele>29.799999237061</ele>
        <time>2020-12-20T10:41:26.000Z</time>
      </trkpt>
      <trkpt lat="47.2994" lon="-2.28621">
        <ele>29.799999237061</ele>
        <time>2020-12-20T10:41:30.000Z</time>
      </trkpt>
      <trkpt lat="47.29939" lon="-2.28627">
        <ele>29.39999961853</ele>
        <time>2020-12-20T10:41:31.000Z</time>
      </trkpt>
      <trkpt lat="47.29937" lon="-2.28633">
        <ele>29</ele>
        <time>2020-12-20T10:41:32.000Z</time>
      </trkpt>
      <trkpt lat="47.29935" lon="-2.2864">
        <ele>28.60000038147</ele>
        <time>2020-12-20T10:41:33.000Z</time>
      </trkpt>
      <trkpt lat="47.29933" lon="-2.28646">
        <ele>28.200000762939</ele>
        <time>2020-12-20T10:41:34.000Z</time>
      </trkpt>
      <trkpt lat="47.29932" lon="-2.28652">
        <ele>27.60000038147</ele>
        <time>2020-12-20T10:41:35.000Z</time>
      </trkpt>
      <trkpt lat="47.29927" lon="-2.28665">
        <ele>27.60000038147</ele>
        <time>2020-12-20T10:41:37.000Z</time>
      </trkpt>
      <trkpt lat="47.29921" lon="-2.28689">
        <ele>27.60000038147</ele>
        <time>2020-12-20T10:41:41.000Z</time>
      </trkpt>
      <trkpt lat="47.29918" lon="-2.28702">
        <ele>27.60000038147</ele>
        <time>2020-12-20T10:41:43.000Z</time>
      </trkpt>
      <trkpt lat="47.29907" lon="-2.28743">
        <ele>27.60000038147</ele>
        <time>2020-12-20T10:41:48.000Z</time>
      </trkpt>
      <trkpt lat="47.29902" lon="-2.28781">
        <ele>27.60000038147</ele>
        <time>2020-12-20T10:41:53.000Z</time>
      </trkpt>
      <trkpt lat="47.29895" lon="-2.28829">
        <ele>27.60000038147</ele>
        <time>2020-12-20T10:42:00.000Z</time>
      </trkpt>
      <trkpt lat="47.29893" lon="-2.28838">
        <ele>27.60000038147</ele>
        <time>2020-12-20T10:42:01.000Z</time>
      </trkpt>
      <trkpt lat="47.29888" lon="-2.28862">
        <ele>27.60000038147</ele>
        <time>2020-12-20T10:42:04.000Z</time>
      </trkpt>
      <trkpt lat="47.29887" lon="-2.28869">
        <ele>27.60000038147</ele>
        <time>2020-12-20T10:42:05.000Z</time>
      </trkpt>
      <trkpt lat="47.29885" lon="-2.28877">
        <ele>27.60000038147</ele>
        <time>2020-12-20T10:42:06.000Z</time>
      </trkpt>
      <trkpt lat="47.29881" lon="-2.2889">
        <ele>27.60000038147</ele>
        <time>2020-12-20T10:42:08.000Z</time>
      </trkpt>
      <trkpt lat="47.29878" lon="-2.28895">
        <ele>27.60000038147</ele>
        <time>2020-12-20T10:42:09.000Z</time>
      </trkpt>
      <trkpt lat="47.29875" lon="-2.28917">
        <ele>27.60000038147</ele>
        <time>2020-12-20T10:42:12.000Z</time>
      </trkpt>
      <trkpt lat="47.29875" lon="-2.28925">
        <ele>27.60000038147</ele>
        <time>2020-12-20T10:42:13.000Z</time>
      </trkpt>
      <trkpt lat="47.29881" lon="-2.28938">
        <ele>27.60000038147</ele>
        <time>2020-12-20T10:42:16.000Z</time>
      </trkpt>
      <trkpt lat="47.29885" lon="-2.2894">
        <ele>26.799999237061</ele>
        <time>2020-12-20T10:42:17.000Z</time>
      </trkpt>
      <trkpt lat="47.2989" lon="-2.28941">
        <ele>26.39999961853</ele>
        <time>2020-12-20T10:42:18.000Z</time>
      </trkpt>
      <trkpt lat="47.29895" lon="-2.28942">
        <ele>26</ele>
        <time>2020-12-20T10:42:19.000Z</time>
      </trkpt>
      <trkpt lat="47.299" lon="-2.28943">
        <ele>25.60000038147</ele>
        <time>2020-12-20T10:42:20.000Z</time>
      </trkpt>
      <trkpt lat="47.29905" lon="-2.28943">
        <ele>25.60000038147</ele>
        <time>2020-12-20T10:42:21.000Z</time>
      </trkpt>
      <trkpt lat="47.29916" lon="-2.28946">
        <ele>25.60000038147</ele>
        <time>2020-12-20T10:42:23.000Z</time>
      </trkpt>
      <trkpt lat="47.29925" lon="-2.28951">
        <ele>25.60000038147</ele>
        <time>2020-12-20T10:42:25.000Z</time>
      </trkpt>
      <trkpt lat="47.29933" lon="-2.2897">
        <ele>25.60000038147</ele>
        <time>2020-12-20T10:42:28.000Z</time>
      </trkpt>
      <trkpt lat="47.29936" lon="-2.28975">
        <ele>25.60000038147</ele>
        <time>2020-12-20T10:42:29.000Z</time>
      </trkpt>
      <trkpt lat="47.29946" lon="-2.28992">
        <ele>25.60000038147</ele>
        <time>2020-12-20T10:42:32.000Z</time>
      </trkpt>
      <trkpt lat="47.29969" lon="-2.2903">
        <ele>25.60000038147</ele>
        <time>2020-12-20T10:42:38.000Z</time>
      </trkpt>
      <trkpt lat="47.29992" lon="-2.29069">
        <ele>25.200000762939</ele>
        <time>2020-12-20T10:42:44.000Z</time>
      </trkpt>
      <trkpt lat="47.29995" lon="-2.29075">
        <ele>24.799999237061</ele>
        <time>2020-12-20T10:42:45.000Z</time>
      </trkpt>
      <trkpt lat="47.3" lon="-2.29081">
        <ele>24.39999961853</ele>
        <time>2020-12-20T10:42:46.000Z</time>
      </trkpt>
      <trkpt lat="47.30005" lon="-2.29087">
        <ele>24</ele>
        <time>2020-12-20T10:42:47.000Z</time>
      </trkpt>
      <trkpt lat="47.3001" lon="-2.29092">
        <ele>23.60000038147</ele>
        <time>2020-12-20T10:42:48.000Z</time>
      </trkpt>
      <trkpt lat="47.30015" lon="-2.29097">
        <ele>23.60000038147</ele>
        <time>2020-12-20T10:42:49.000Z</time>
      </trkpt>
      <trkpt lat="47.30051" lon="-2.29128">
        <ele>23.60000038147</ele>
        <time>2020-12-20T10:42:56.000Z</time>
      </trkpt>
      <trkpt lat="47.30061" lon="-2.29136">
        <ele>23.60000038147</ele>
        <time>2020-12-20T10:42:58.000Z</time>
      </trkpt>
      <trkpt lat="47.30071" lon="-2.29147">
        <ele>23.60000038147</ele>
        <time>2020-12-20T10:43:00.000Z</time>
      </trkpt>
      <trkpt lat="47.301" lon="-2.29192">
        <ele>23.60000038147</ele>
        <time>2020-12-20T10:43:06.000Z</time>
      </trkpt>
      <trkpt lat="47.3014" lon="-2.29252">
        <ele>23.60000038147</ele>
        <time>2020-12-20T10:43:14.000Z</time>
      </trkpt>
      <trkpt lat="47.3015" lon="-2.29267">
        <ele>23.60000038147</ele>
        <time>2020-12-20T10:43:16.000Z</time>
      </trkpt>
      <trkpt lat="47.30188" lon="-2.29326">
        <ele>23.60000038147</ele>
        <time>2020-12-20T10:43:24.000Z</time>
      </trkpt>
      <trkpt lat="47.30198" lon="-2.29341">
        <ele>23.60000038147</ele>
        <time>2020-12-20T10:43:26.000Z</time>
      </trkpt>
      <trkpt lat="47.30206" lon="-2.29358">
        <ele>23.60000038147</ele>
        <time>2020-12-20T10:43:28.000Z</time>
      </trkpt>
      <trkpt lat="47.3021" lon="-2.29377">
        <ele>23.60000038147</ele>
        <time>2020-12-20T10:43:30.000Z</time>
      </trkpt>
      <trkpt lat="47.30215" lon="-2.29395">
        <ele>23.60000038147</ele>
        <time>2020-12-20T10:43:32.000Z</time>
      </trkpt>
      <trkpt lat="47.30218" lon="-2.29403">
        <ele>23.60000038147</ele>
        <time>2020-12-20T10:43:33.000Z</time>
      </trkpt>
      <trkpt lat="47.30222" lon="-2.29417">
        <ele>23.200000762939</ele>
        <time>2020-12-20T10:43:35.000Z</time>
      </trkpt>
      <trkpt lat="47.30221" lon="-2.29423">
        <ele>22.799999237061</ele>
        <time>2020-12-20T10:43:36.000Z</time>
      </trkpt>
      <trkpt lat="47.30219" lon="-2.29429">
        <ele>22.200000762939</ele>
        <time>2020-12-20T10:43:37.000Z</time>
      </trkpt>
      <trkpt lat="47.30216" lon="-2.29434">
        <ele>21.799999237061</ele>
        <time>2020-12-20T10:43:38.000Z</time>
      </trkpt>
      <trkpt lat="47.30212" lon="-2.2944">
        <ele>21.39999961853</ele>
        <time>2020-12-20T10:43:39.000Z</time>
      </trkpt>
      <trkpt lat="47.30209" lon="-2.29446">
        <ele>21.39999961853</ele>
        <time>2020-12-20T10:43:40.000Z</time>
      </trkpt>
      <trkpt lat="47.30201" lon="-2.29458">
        <ele>21.39999961853</ele>
        <time>2020-12-20T10:43:42.000Z</time>
      </trkpt>
      <trkpt lat="47.30194" lon="-2.2947">
        <ele>21.39999961853</ele>
        <time>2020-12-20T10:43:44.000Z</time>
      </trkpt>
      <trkpt lat="47.30175" lon="-2.29507">
        <ele>21.39999961853</ele>
        <time>2020-12-20T10:43:50.000Z</time>
      </trkpt>
      <trkpt lat="47.30155" lon="-2.29546">
        <ele>21.39999961853</ele>
        <time>2020-12-20T10:43:56.000Z</time>
      </trkpt>
      <trkpt lat="47.30145" lon="-2.29566">
        <ele>21.39999961853</ele>
        <time>2020-12-20T10:43:59.000Z</time>
      </trkpt>
      <trkpt lat="47.30142" lon="-2.2958">
        <ele>21.39999961853</ele>
        <time>2020-12-20T10:44:01.000Z</time>
      </trkpt>
      <trkpt lat="47.30143" lon="-2.29603">
        <ele>21.39999961853</ele>
        <time>2020-12-20T10:44:04.000Z</time>
      </trkpt>
      <trkpt lat="47.30143" lon="-2.29611">
        <ele>21.39999961853</ele>
        <time>2020-12-20T10:44:05.000Z</time>
      </trkpt>
      <trkpt lat="47.30142" lon="-2.29645">
        <ele>21.39999961853</ele>
        <time>2020-12-20T10:44:10.000Z</time>
      </trkpt>
      <trkpt lat="47.30133" lon="-2.29654">
        <ele>21.39999961853</ele>
        <time>2020-12-20T10:44:13.000Z</time>
      </trkpt>
      <trkpt lat="47.30126" lon="-2.29654">
        <ele>21.39999961853</ele>
        <time>2020-12-20T10:44:15.000Z</time>
      </trkpt>
      <trkpt lat="47.30113" lon="-2.29651">
        <ele>21.39999961853</ele>
        <time>2020-12-20T10:44:18.000Z</time>
      </trkpt>
      <trkpt lat="47.30073" lon="-2.2964">
        <ele>21.39999961853</ele>
        <time>2020-12-20T10:44:27.000Z</time>
      </trkpt>
      <trkpt lat="47.3005" lon="-2.29632">
        <ele>21.39999961853</ele>
        <time>2020-12-20T10:44:33.000Z</time>
      </trkpt>
      <trkpt lat="47.3002" lon="-2.29632">
        <ele>21.39999961853</ele>
        <time>2020-12-20T10:44:40.000Z</time>
      </trkpt>
      <trkpt lat="47.29984" lon="-2.29633">
        <ele>21.39999961853</ele>
        <time>2020-12-20T10:44:48.000Z</time>
      </trkpt>
      <trkpt lat="47.29967" lon="-2.29637">
        <ele>21.39999961853</ele>
        <time>2020-12-20T10:44:53.000Z</time>
      </trkpt>
      <trkpt lat="47.29939" lon="-2.2965">
        <ele>21.799999237061</ele>
        <time>2020-12-20T10:45:01.000Z</time>
      </trkpt>
      <trkpt lat="47.29936" lon="-2.29653">
        <ele>22.200000762939</ele>
        <time>2020-12-20T10:45:02.000Z</time>
      </trkpt>
      <trkpt lat="47.29934" lon="-2.29656">
        <ele>22.60000038147</ele>
        <time>2020-12-20T10:45:03.000Z</time>
      </trkpt>
      <trkpt lat="47.29931" lon="-2.29659">
        <ele>23</ele>
        <time>2020-12-20T10:45:04.000Z</time>
      </trkpt>
      <trkpt lat="47.29928" lon="-2.29662">
        <ele>23.39999961853</ele>
        <time>2020-12-20T10:45:05.000Z</time>
      </trkpt>
      <trkpt lat="47.2992" lon="-2.29668">
        <ele>23.39999961853</ele>
        <time>2020-12-20T10:45:08.000Z</time>
      </trkpt>
      <trkpt lat="47.29918" lon="-2.29672">
        <ele>23.39999961853</ele>
        <time>2020-12-20T10:45:09.000Z</time>
      </trkpt>
      <trkpt lat="47.29919" lon="-2.29691">
        <ele>23.39999961853</ele>
        <time>2020-12-20T10:45:13.000Z</time>
      </trkpt>
      <trkpt lat="47.29924" lon="-2.29707">
        <ele>23.39999961853</ele>
        <time>2020-12-20T10:45:16.000Z</time>
      </trkpt>
      <trkpt lat="47.2993" lon="-2.29725">
        <ele>23.39999961853</ele>
        <time>2020-12-20T10:45:19.000Z</time>
      </trkpt>
      <trkpt lat="47.29951" lon="-2.29783">
        <ele>23.39999961853</ele>
        <time>2020-12-20T10:45:28.000Z</time>
      </trkpt>
      <trkpt lat="47.29953" lon="-2.29789">
        <ele>23.39999961853</ele>
        <time>2020-12-20T10:45:29.000Z</time>
      </trkpt>
      <trkpt lat="47.29951" lon="-2.29799">
        <ele>23.39999961853</ele>
        <time>2020-12-20T10:45:31.000Z</time>
      </trkpt>
      <trkpt lat="47.29945" lon="-2.29806">
        <ele>23.39999961853</ele>
        <time>2020-12-20T10:45:33.000Z</time>
      </trkpt>
      <trkpt lat="47.29938" lon="-2.29812">
        <ele>23.39999961853</ele>
        <time>2020-12-20T10:45:35.000Z</time>
      </trkpt>
      <trkpt lat="47.29931" lon="-2.29819">
        <ele>23.39999961853</ele>
        <time>2020-12-20T10:45:37.000Z</time>
      </trkpt>
      <trkpt lat="47.29915" lon="-2.29831">
        <ele>23.39999961853</ele>
        <time>2020-12-20T10:45:41.000Z</time>
      </trkpt>
      <trkpt lat="47.29907" lon="-2.29837">
        <ele>23.39999961853</ele>
        <time>2020-12-20T10:45:43.000Z</time>
      </trkpt>
      <trkpt lat="47.29904" lon="-2.29842">
        <ele>23.39999961853</ele>
        <time>2020-12-20T10:45:44.000Z</time>
      </trkpt>
      <trkpt lat="47.29901" lon="-2.29865">
        <ele>23.39999961853</ele>
        <time>2020-12-20T10:45:47.000Z</time>
      </trkpt>
      <trkpt lat="47.29902" lon="-2.29873">
        <ele>23.39999961853</ele>
        <time>2020-12-20T10:45:48.000Z</time>
      </trkpt>
      <trkpt lat="47.29906" lon="-2.29916">
        <ele>23.39999961853</ele>
        <time>2020-12-20T10:45:53.000Z</time>
      </trkpt>
      <trkpt lat="47.29906" lon="-2.29925">
        <ele>23.39999961853</ele>
        <time>2020-12-20T10:45:54.000Z</time>
      </trkpt>
      <trkpt lat="47.29901" lon="-2.29939">
        <ele>23.39999961853</ele>
        <time>2020-12-20T10:45:56.000Z</time>
      </trkpt>
      <trkpt lat="47.29884" lon="-2.29945">
        <ele>23.39999961853</ele>
        <time>2020-12-20T10:45:59.000Z</time>
      </trkpt>
      <trkpt lat="47.29872" lon="-2.29947">
        <ele>23.39999961853</ele>
        <time>2020-12-20T10:46:01.000Z</time>
      </trkpt>
      <trkpt lat="47.29843" lon="-2.29954">
        <ele>23.39999961853</ele>
        <time>2020-12-20T10:46:06.000Z</time>
      </trkpt>
      <trkpt lat="47.29832" lon="-2.29956">
        <ele>23.39999961853</ele>
        <time>2020-12-20T10:46:08.000Z</time>
      </trkpt>
      <trkpt lat="47.29813" lon="-2.29956">
        <ele>23.39999961853</ele>
        <time>2020-12-20T10:46:11.000Z</time>
      </trkpt>
      <trkpt lat="47.2979" lon="-2.29954">
        <ele>23.39999961853</ele>
        <time>2020-12-20T10:46:15.000Z</time>
      </trkpt>
      <trkpt lat="47.29779" lon="-2.29958">
        <ele>23.39999961853</ele>
        <time>2020-12-20T10:46:17.000Z</time>
      </trkpt>
      <trkpt lat="47.29768" lon="-2.29967">
        <ele>23.39999961853</ele>
        <time>2020-12-20T10:46:19.000Z</time>
      </trkpt>
      <trkpt lat="47.29748" lon="-2.29983">
        <ele>23.39999961853</ele>
        <time>2020-12-20T10:46:23.000Z</time>
      </trkpt>
      <trkpt lat="47.2972" lon="-2.3">
        <ele>23.39999961853</ele>
        <time>2020-12-20T10:46:28.000Z</time>
      </trkpt>
      <trkpt lat="47.29715" lon="-2.30001">
        <ele>23.39999961853</ele>
        <time>2020-12-20T10:46:29.000Z</time>
      </trkpt>
      <trkpt lat="47.29683" lon="-2.30004">
        <ele>23.39999961853</ele>
        <time>2020-12-20T10:46:34.000Z</time>
      </trkpt>
      <trkpt lat="47.29671" lon="-2.30002">
        <ele>23.39999961853</ele>
        <time>2020-12-20T10:46:36.000Z</time>
      </trkpt>
      <trkpt lat="47.29653" lon="-2.29992">
        <ele>23.39999961853</ele>
        <time>2020-12-20T10:46:39.000Z</time>
      </trkpt>
      <trkpt lat="47.29648" lon="-2.29988">
        <ele>23.39999961853</ele>
        <time>2020-12-20T10:46:40.000Z</time>
      </trkpt>
      <trkpt lat="47.29644" lon="-2.29985">
        <ele>23.39999961853</ele>
        <time>2020-12-20T10:46:41.000Z</time>
      </trkpt>
      <trkpt lat="47.29634" lon="-2.29987">
        <ele>23.39999961853</ele>
        <time>2020-12-20T10:46:43.000Z</time>
      </trkpt>
      <trkpt lat="47.29625" lon="-2.29995">
        <ele>23.39999961853</ele>
        <time>2020-12-20T10:46:45.000Z</time>
      </trkpt>
      <trkpt lat="47.29614" lon="-2.30001">
        <ele>23.39999961853</ele>
        <time>2020-12-20T10:46:47.000Z</time>
      </trkpt>
      <trkpt lat="47.2957" lon="-2.30015">
        <ele>23.39999961853</ele>
        <time>2020-12-20T10:46:54.000Z</time>
      </trkpt>
      <trkpt lat="47.29528" lon="-2.30029">
        <ele>23.39999961853</ele>
        <time>2020-12-20T10:47:01.000Z</time>
      </trkpt>
      <trkpt lat="47.29521" lon="-2.3003">
        <ele>23.39999961853</ele>
        <time>2020-12-20T10:47:02.000Z</time>
      </trkpt>
      <trkpt lat="47.2951" lon="-2.30026">
        <ele>23.39999961853</ele>
        <time>2020-12-20T10:47:04.000Z</time>
      </trkpt>
      <trkpt lat="47.29505" lon="-2.30025">
        <ele>23.39999961853</ele>
        <time>2020-12-20T10:47:05.000Z</time>
      </trkpt>
      <trkpt lat="47.29495" lon="-2.30028">
        <ele>23.39999961853</ele>
        <time>2020-12-20T10:47:07.000Z</time>
      </trkpt>
      <trkpt lat="47.2949" lon="-2.30029">
        <ele>23.39999961853</ele>
        <time>2020-12-20T10:47:08.000Z</time>
      </trkpt>
      <trkpt lat="47.29468" lon="-2.30029">
        <ele>23.39999961853</ele>
        <time>2020-12-20T10:47:12.000Z</time>
      </trkpt>
      <trkpt lat="47.29429" lon="-2.30031">
        <ele>23.39999961853</ele>
        <time>2020-12-20T10:47:19.000Z</time>
      </trkpt>
      <trkpt lat="47.29402" lon="-2.30027">
        <ele>23.39999961853</ele>
        <time>2020-12-20T10:47:24.000Z</time>
      </trkpt>
      <trkpt lat="47.29397" lon="-2.30025">
        <ele>23.39999961853</ele>
        <time>2020-12-20T10:47:25.000Z</time>
      </trkpt>
      <trkpt lat="47.29377" lon="-2.30019">
        <ele>23.39999961853</ele>
        <time>2020-12-20T10:47:29.000Z</time>
      </trkpt>
      <trkpt lat="47.29372" lon="-2.30016">
        <ele>23.799999237061</ele>
        <time>2020-12-20T10:47:30.000Z</time>
      </trkpt>
      <trkpt lat="47.29368" lon="-2.30013">
        <ele>24.200000762939</ele>
        <time>2020-12-20T10:47:31.000Z</time>
      </trkpt>
      <trkpt lat="47.29363" lon="-2.30011">
        <ele>24.799999237061</ele>
        <time>2020-12-20T10:47:32.000Z</time>
      </trkpt>
      <trkpt lat="47.29359" lon="-2.30009">
        <ele>25.200000762939</ele>
        <time>2020-12-20T10:47:33.000Z</time>
      </trkpt>
      <trkpt lat="47.29355" lon="-2.30007">
        <ele>25.60000038147</ele>
        <time>2020-12-20T10:47:34.000Z</time>
      </trkpt>
      <trkpt lat="47.29348" lon="-2.30005">
        <ele>25.60000038147</ele>
        <time>2020-12-20T10:47:36.000Z</time>
      </trkpt>
      <trkpt lat="47.29344" lon="-2.30007">
        <ele>25.60000038147</ele>
        <time>2020-12-20T10:47:38.000Z</time>
      </trkpt>
      <trkpt lat="47.29344" lon="-2.3001">
        <ele>25.60000038147</ele>
        <time>2020-12-20T10:47:39.000Z</time>
      </trkpt>
      <trkpt lat="47.29343" lon="-2.30038">
        <ele>25.60000038147</ele>
        <time>2020-12-20T10:47:45.000Z</time>
      </trkpt>
      <trkpt lat="47.2934" lon="-2.30077">
        <ele>25.60000038147</ele>
        <time>2020-12-20T10:47:53.000Z</time>
      </trkpt>
      <trkpt lat="47.29331" lon="-2.30123">
        <ele>25.60000038147</ele>
        <time>2020-12-20T10:48:02.000Z</time>
      </trkpt>
      <trkpt lat="47.29326" lon="-2.30136">
        <ele>25.60000038147</ele>
        <time>2020-12-20T10:48:05.000Z</time>
      </trkpt>
      <trkpt lat="47.29319" lon="-2.30139">
        <ele>25.60000038147</ele>
        <time>2020-12-20T10:48:07.000Z</time>
      </trkpt>
      <trkpt lat="47.29295" lon="-2.30137">
        <ele>25.60000038147</ele>
        <time>2020-12-20T10:48:13.000Z</time>
      </trkpt>
      <trkpt lat="47.29273" lon="-2.30138">
        <ele>25.60000038147</ele>
        <time>2020-12-20T10:48:19.000Z</time>
      </trkpt>
      <trkpt lat="47.29255" lon="-2.3014">
        <ele>25.60000038147</ele>
        <time>2020-12-20T10:48:24.000Z</time>
      </trkpt>
      <trkpt lat="47.29234" lon="-2.30149">
        <ele>25.60000038147</ele>
        <time>2020-12-20T10:48:30.000Z</time>
      </trkpt>
      <trkpt lat="47.29214" lon="-2.30158">
        <ele>25.60000038147</ele>
        <time>2020-12-20T10:48:36.000Z</time>
      </trkpt>
      <trkpt lat="47.29189" lon="-2.30171">
        <ele>25.60000038147</ele>
        <time>2020-12-20T10:48:43.000Z</time>
      </trkpt>
      <trkpt lat="47.29165" lon="-2.30184">
        <ele>25.60000038147</ele>
        <time>2020-12-20T10:48:49.000Z</time>
      </trkpt>
      <trkpt lat="47.29156" lon="-2.30188">
        <ele>25.60000038147</ele>
        <time>2020-12-20T10:48:51.000Z</time>
      </trkpt>
      <trkpt lat="47.29138" lon="-2.30197">
        <ele>25.60000038147</ele>
        <time>2020-12-20T10:48:55.000Z</time>
      </trkpt>
      <trkpt lat="47.29133" lon="-2.30199">
        <ele>26</ele>
        <time>2020-12-20T10:48:56.000Z</time>
      </trkpt>
      <trkpt lat="47.29128" lon="-2.30201">
        <ele>26.39999961853</ele>
        <time>2020-12-20T10:48:57.000Z</time>
      </trkpt>
      <trkpt lat="47.29124" lon="-2.30204">
        <ele>27</ele>
        <time>2020-12-20T10:48:58.000Z</time>
      </trkpt>
      <trkpt lat="47.2912" lon="-2.30206">
        <ele>27.39999961853</ele>
        <time>2020-12-20T10:48:59.000Z</time>
      </trkpt>
      <trkpt lat="47.29115" lon="-2.30208">
        <ele>27.799999237061</ele>
        <time>2020-12-20T10:49:00.000Z</time>
      </trkpt>
      <trkpt lat="47.29101" lon="-2.30216">
        <ele>27.799999237061</ele>
        <time>2020-12-20T10:49:03.000Z</time>
      </trkpt>
      <trkpt lat="47.29055" lon="-2.3024">
        <ele>27.799999237061</ele>
        <time>2020-12-20T10:49:13.000Z</time>
      </trkpt>
      <trkpt lat="47.29016" lon="-2.30252">
        <ele>27.799999237061</ele>
        <time>2020-12-20T10:49:21.000Z</time>
      </trkpt>
      <trkpt lat="47.28987" lon="-2.30257">
        <ele>27.799999237061</ele>
        <time>2020-12-20T10:49:28.000Z</time>
      </trkpt>
      <trkpt lat="47.28977" lon="-2.30254">
        <ele>27.799999237061</ele>
        <time>2020-12-20T10:49:32.000Z</time>
      </trkpt>
      <trkpt lat="47.28967" lon="-2.30248">
        <ele>27.799999237061</ele>
        <time>2020-12-20T10:49:37.000Z</time>
      </trkpt>
      <trkpt lat="47.28955" lon="-2.30226">
        <ele>27.799999237061</ele>
        <time>2020-12-20T10:49:43.000Z</time>
      </trkpt>
      <trkpt lat="47.28934" lon="-2.30203">
        <ele>27.799999237061</ele>
        <time>2020-12-20T10:49:50.000Z</time>
      </trkpt>
      <trkpt lat="47.28913" lon="-2.30178">
        <ele>27.799999237061</ele>
        <time>2020-12-20T10:49:58.000Z</time>
      </trkpt>
      <trkpt lat="47.28894" lon="-2.30152">
        <ele>27.799999237061</ele>
        <time>2020-12-20T10:50:06.000Z</time>
      </trkpt>
      <trkpt lat="47.28882" lon="-2.30133">
        <ele>27.799999237061</ele>
        <time>2020-12-20T10:50:13.000Z</time>
      </trkpt>
      <trkpt lat="47.28867" lon="-2.30117">
        <ele>27.799999237061</ele>
        <time>2020-12-20T10:50:19.000Z</time>
      </trkpt>
      <trkpt lat="47.28859" lon="-2.30108">
        <ele>28.200000762939</ele>
        <time>2020-12-20T10:50:22.000Z</time>
      </trkpt>
      <trkpt lat="47.28856" lon="-2.30105">
        <ele>28.60000038147</ele>
        <time>2020-12-20T10:50:23.000Z</time>
      </trkpt>
      <trkpt lat="47.28854" lon="-2.30102">
        <ele>29</ele>
        <time>2020-12-20T10:50:24.000Z</time>
      </trkpt>
      <trkpt lat="47.28853" lon="-2.30099">
        <ele>29.39999961853</ele>
        <time>2020-12-20T10:50:25.000Z</time>
      </trkpt>
      <trkpt lat="47.2885" lon="-2.30097">
        <ele>29.799999237061</ele>
        <time>2020-12-20T10:50:26.000Z</time>
      </trkpt>
      <trkpt lat="47.28844" lon="-2.30088">
        <ele>29.799999237061</ele>
        <time>2020-12-20T10:50:30.000Z</time>
      </trkpt>
      <trkpt lat="47.2885" lon="-2.30088">
        <ele>29.799999237061</ele>
        <time>2020-12-20T10:50:33.000Z</time>
      </trkpt>
      <trkpt lat="47.28852" lon="-2.3009">
        <ele>29.799999237061</ele>
        <time>2020-12-20T10:50:34.000Z</time>
      </trkpt>
      <trkpt lat="47.28859" lon="-2.30105">
        <ele>29.799999237061</ele>
        <time>2020-12-20T10:50:39.000Z</time>
      </trkpt>
      <trkpt lat="47.28858" lon="-2.30108">
        <ele>29.799999237061</ele>
        <time>2020-12-20T10:50:40.000Z</time>
      </trkpt>
      <trkpt lat="47.28854" lon="-2.30115">
        <ele>29.799999237061</ele>
        <time>2020-12-20T10:50:43.000Z</time>
      </trkpt>
      <trkpt lat="47.28853" lon="-2.30131">
        <ele>29.799999237061</ele>
        <time>2020-12-20T10:50:47.000Z</time>
      </trkpt>
      <trkpt lat="47.28853" lon="-2.30134">
        <ele>29.799999237061</ele>
        <time>2020-12-20T10:50:48.000Z</time>
      </trkpt>
      <trkpt lat="47.28852" lon="-2.30144">
        <ele>29.799999237061</ele>
        <time>2020-12-20T10:50:51.000Z</time>
      </trkpt>
      <trkpt lat="47.2885" lon="-2.3015">
        <ele>29.799999237061</ele>
        <time>2020-12-20T10:50:53.000Z</time>
      </trkpt>
      <trkpt lat="47.28837" lon="-2.30171">
        <ele>29.799999237061</ele>
        <time>2020-12-20T10:50:59.000Z</time>
      </trkpt>
      <trkpt lat="47.28827" lon="-2.3019">
        <ele>29.799999237061</ele>
        <time>2020-12-20T10:51:04.000Z</time>
      </trkpt>
      <trkpt lat="47.28812" lon="-2.30213">
        <ele>29.799999237061</ele>
        <time>2020-12-20T10:51:10.000Z</time>
      </trkpt>
      <trkpt lat="47.28791" lon="-2.30236">
        <ele>29.799999237061</ele>
        <time>2020-12-20T10:51:17.000Z</time>
      </trkpt>
      <trkpt lat="47.28781" lon="-2.30249">
        <ele>29.799999237061</ele>
        <time>2020-12-20T10:51:21.000Z</time>
      </trkpt>
      <trkpt lat="47.2878" lon="-2.30253">
        <ele>29.799999237061</ele>
        <time>2020-12-20T10:51:22.000Z</time>
      </trkpt>
      <trkpt lat="47.28775" lon="-2.30278">
        <ele>29.799999237061</ele>
        <time>2020-12-20T10:51:27.000Z</time>
      </trkpt>
      <trkpt lat="47.28765" lon="-2.30291">
        <ele>29.799999237061</ele>
        <time>2020-12-20T10:51:32.000Z</time>
      </trkpt>
      <trkpt lat="47.28763" lon="-2.30292">
        <ele>29.39999961853</ele>
        <time>2020-12-20T10:51:33.000Z</time>
      </trkpt>
      <trkpt lat="47.28762" lon="-2.30292">
        <ele>29</ele>
        <time>2020-12-20T10:51:34.000Z</time>
      </trkpt>
      <trkpt lat="47.28761" lon="-2.30292">
        <ele>28.60000038147</ele>
        <time>2020-12-20T10:51:35.000Z</time>
      </trkpt>
      <trkpt lat="47.2876" lon="-2.30291">
        <ele>28.200000762939</ele>
        <time>2020-12-20T10:51:36.000Z</time>
      </trkpt>
      <trkpt lat="47.28759" lon="-2.3029">
        <ele>27.799999237061</ele>
        <time>2020-12-20T10:51:37.000Z</time>
      </trkpt>
      <trkpt lat="47.28757" lon="-2.30289">
        <ele>27.799999237061</ele>
        <time>2020-12-20T10:51:38.000Z</time>
      </trkpt>
      <trkpt lat="47.2875" lon="-2.30279">
        <ele>27.799999237061</ele>
        <time>2020-12-20T10:51:42.000Z</time>
      </trkpt>
      <trkpt lat="47.28738" lon="-2.30259">
        <ele>27.799999237061</ele>
        <time>2020-12-20T10:51:49.000Z</time>
      </trkpt>
      <trkpt lat="47.2873" lon="-2.30249">
        <ele>27.799999237061</ele>
        <time>2020-12-20T10:51:54.000Z</time>
      </trkpt>
      <trkpt lat="47.28728" lon="-2.30249">
        <ele>27.799999237061</ele>
        <time>2020-12-20T10:51:55.000Z</time>
      </trkpt>
      <trkpt lat="47.2872" lon="-2.30252">
        <ele>27.799999237061</ele>
        <time>2020-12-20T10:51:59.000Z</time>
      </trkpt>
      <trkpt lat="47.28717" lon="-2.30254">
        <ele>27.799999237061</ele>
        <time>2020-12-20T10:52:00.000Z</time>
      </trkpt>
      <trkpt lat="47.28706" lon="-2.3027">
        <ele>27.799999237061</ele>
        <time>2020-12-20T10:52:06.000Z</time>
      </trkpt>
      <trkpt lat="47.28692" lon="-2.30294">
        <ele>27.799999237061</ele>
        <time>2020-12-20T10:52:13.000Z</time>
      </trkpt>
      <trkpt lat="47.28687" lon="-2.3031">
        <ele>27.799999237061</ele>
        <time>2020-12-20T10:52:17.000Z</time>
      </trkpt>
      <trkpt lat="47.28688" lon="-2.30329">
        <ele>28.200000762939</ele>
        <time>2020-12-20T10:52:22.000Z</time>
      </trkpt>
      <trkpt lat="47.28689" lon="-2.30331">
        <ele>28.60000038147</ele>
        <time>2020-12-20T10:52:23.000Z</time>
      </trkpt>
      <trkpt lat="47.2869" lon="-2.30333">
        <ele>29</ele>
        <time>2020-12-20T10:52:24.000Z</time>
      </trkpt>
      <trkpt lat="47.28691" lon="-2.30334">
        <ele>29.39999961853</ele>
        <time>2020-12-20T10:52:25.000Z</time>
      </trkpt>
      <trkpt lat="47.28693" lon="-2.30334">
        <ele>29.799999237061</ele>
        <time>2020-12-20T10:52:26.000Z</time>
      </trkpt>
      <trkpt lat="47.28698" lon="-2.30341">
        <ele>29.799999237061</ele>
        <time>2020-12-20T10:52:29.000Z</time>
      </trkpt>
      <trkpt lat="47.2871" lon="-2.30353">
        <ele>29.799999237061</ele>
        <time>2020-12-20T10:52:35.000Z</time>
      </trkpt>
      <trkpt lat="47.28719" lon="-2.30357">
        <ele>29.799999237061</ele>
        <time>2020-12-20T10:52:41.000Z</time>
      </trkpt>
      <trkpt lat="47.2872" lon="-2.30354">
        <ele>29.799999237061</ele>
        <time>2020-12-20T10:52:44.000Z</time>
      </trkpt>
      <trkpt lat="47.28722" lon="-2.30348">
        <ele>29.799999237061</ele>
        <time>2020-12-20T10:52:46.000Z</time>
      </trkpt>
      <trkpt lat="47.28723" lon="-2.30341">
        <ele>29.799999237061</ele>
        <time>2020-12-20T10:52:48.000Z</time>
      </trkpt>
      <trkpt lat="47.28722" lon="-2.30323">
        <ele>29.799999237061</ele>
        <time>2020-12-20T10:52:52.000Z</time>
      </trkpt>
      <trkpt lat="47.28718" lon="-2.30305">
        <ele>29.799999237061</ele>
        <time>2020-12-20T10:52:57.000Z</time>
      </trkpt>
      <trkpt lat="47.28722" lon="-2.30286">
        <ele>29.799999237061</ele>
        <time>2020-12-20T10:53:02.000Z</time>
      </trkpt>
      <trkpt lat="47.28727" lon="-2.30275">
        <ele>29.799999237061</ele>
        <time>2020-12-20T10:53:05.000Z</time>
      </trkpt>
      <trkpt lat="47.28728" lon="-2.30262">
        <ele>29.799999237061</ele>
        <time>2020-12-20T10:53:07.000Z</time>
      </trkpt>
      <trkpt lat="47.28727" lon="-2.30247">
        <ele>29.799999237061</ele>
        <time>2020-12-20T10:53:09.000Z</time>
      </trkpt>
      <trkpt lat="47.28726" lon="-2.30223">
        <ele>29.799999237061</ele>
        <time>2020-12-20T10:53:12.000Z</time>
      </trkpt>
      <trkpt lat="47.28722" lon="-2.30196">
        <ele>29.799999237061</ele>
        <time>2020-12-20T10:53:16.000Z</time>
      </trkpt>
      <trkpt lat="47.28711" lon="-2.30185">
        <ele>29.799999237061</ele>
        <time>2020-12-20T10:53:19.000Z</time>
      </trkpt>
      <trkpt lat="47.28707" lon="-2.30181">
        <ele>29.799999237061</ele>
        <time>2020-12-20T10:53:20.000Z</time>
      </trkpt>
      <trkpt lat="47.28699" lon="-2.30165">
        <ele>29.799999237061</ele>
        <time>2020-12-20T10:53:24.000Z</time>
      </trkpt>
      <trkpt lat="47.28696" lon="-2.30154">
        <ele>29.799999237061</ele>
        <time>2020-12-20T10:53:27.000Z</time>
      </trkpt>
      <trkpt lat="47.28697" lon="-2.30151">
        <ele>29.799999237061</ele>
        <time>2020-12-20T10:53:28.000Z</time>
      </trkpt>
      <trkpt lat="47.28702" lon="-2.30142">
        <ele>29.799999237061</ele>
        <time>2020-12-20T10:53:31.000Z</time>
      </trkpt>
      <trkpt lat="47.28707" lon="-2.30137">
        <ele>29.799999237061</ele>
        <time>2020-12-20T10:53:33.000Z</time>
      </trkpt>
      <trkpt lat="47.28721" lon="-2.30117">
        <ele>29.799999237061</ele>
        <time>2020-12-20T10:53:39.000Z</time>
      </trkpt>
      <trkpt lat="47.28742" lon="-2.30085">
        <ele>29.799999237061</ele>
        <time>2020-12-20T10:53:47.000Z</time>
      </trkpt>
      <trkpt lat="47.28753" lon="-2.30065">
        <ele>29.799999237061</ele>
        <time>2020-12-20T10:53:53.000Z</time>
      </trkpt>
      <trkpt lat="47.28762" lon="-2.30046">
        <ele>29.799999237061</ele>
        <time>2020-12-20T10:53:58.000Z</time>
      </trkpt>
      <trkpt lat="47.28763" lon="-2.30041">
        <ele>30.200000762939</ele>
        <time>2020-12-20T10:53:59.000Z</time>
      </trkpt>
      <trkpt lat="47.28764" lon="-2.30037">
        <ele>30.60000038147</ele>
        <time>2020-12-20T10:54:00.000Z</time>
      </trkpt>
      <trkpt lat="47.28766" lon="-2.30032">
        <ele>31.200000762939</ele>
        <time>2020-12-20T10:54:01.000Z</time>
      </trkpt>
      <trkpt lat="47.28766" lon="-2.30028">
        <ele>31.60000038147</ele>
        <time>2020-12-20T10:54:02.000Z</time>
      </trkpt>
      <trkpt lat="47.28767" lon="-2.30023">
        <ele>32</ele>
        <time>2020-12-20T10:54:03.000Z</time>
      </trkpt>
      <trkpt lat="47.28767" lon="-2.30018">
        <ele>32</ele>
        <time>2020-12-20T10:54:04.000Z</time>
      </trkpt>
      <trkpt lat="47.28762" lon="-2.29998">
        <ele>32</ele>
        <time>2020-12-20T10:54:08.000Z</time>
      </trkpt>
      <trkpt lat="47.28759" lon="-2.29993">
        <ele>32</ele>
        <time>2020-12-20T10:54:09.000Z</time>
      </trkpt>
      <trkpt lat="47.28747" lon="-2.29977">
        <ele>32.400001525879</ele>
        <time>2020-12-20T10:54:13.000Z</time>
      </trkpt>
      <trkpt lat="47.28744" lon="-2.29973">
        <ele>33.200000762939</ele>
        <time>2020-12-20T10:54:14.000Z</time>
      </trkpt>
      <trkpt lat="47.2874" lon="-2.29968">
        <ele>33.599998474121</ele>
        <time>2020-12-20T10:54:15.000Z</time>
      </trkpt>
      <trkpt lat="47.28737" lon="-2.29964">
        <ele>34</ele>
        <time>2020-12-20T10:54:16.000Z</time>
      </trkpt>
      <trkpt lat="47.28726" lon="-2.29954">
        <ele>34</ele>
        <time>2020-12-20T10:54:19.000Z</time>
      </trkpt>
      <trkpt lat="47.28711" lon="-2.29954">
        <ele>34</ele>
        <time>2020-12-20T10:54:23.000Z</time>
      </trkpt>
      <trkpt lat="47.28706" lon="-2.29953">
        <ele>34.400001525879</ele>
        <time>2020-12-20T10:54:24.000Z</time>
      </trkpt>
      <trkpt lat="47.28702" lon="-2.2995">
        <ele>34.799999237061</ele>
        <time>2020-12-20T10:54:25.000Z</time>
      </trkpt>
      <trkpt lat="47.28697" lon="-2.29946">
        <ele>35.200000762939</ele>
        <time>2020-12-20T10:54:26.000Z</time>
      </trkpt>
      <trkpt lat="47.28694" lon="-2.29941">
        <ele>35.599998474121</ele>
        <time>2020-12-20T10:54:27.000Z</time>
      </trkpt>
      <trkpt lat="47.28691" lon="-2.29935">
        <ele>36.200000762939</ele>
        <time>2020-12-20T10:54:28.000Z</time>
      </trkpt>
      <trkpt lat="47.28684" lon="-2.29924">
        <ele>36.200000762939</ele>
        <time>2020-12-20T10:54:30.000Z</time>
      </trkpt>
      <trkpt lat="47.28675" lon="-2.29918">
        <ele>36.200000762939</ele>
        <time>2020-12-20T10:54:32.000Z</time>
      </trkpt>
      <trkpt lat="47.28671" lon="-2.29915">
        <ele>36.200000762939</ele>
        <time>2020-12-20T10:54:33.000Z</time>
      </trkpt>
      <trkpt lat="47.28666" lon="-2.29911">
        <ele>36.200000762939</ele>
        <time>2020-12-20T10:54:34.000Z</time>
      </trkpt>
      <trkpt lat="47.28656" lon="-2.29896">
        <ele>36.599998474121</ele>
        <time>2020-12-20T10:54:37.000Z</time>
      </trkpt>
      <trkpt lat="47.28653" lon="-2.29889">
        <ele>37</ele>
        <time>2020-12-20T10:54:38.000Z</time>
      </trkpt>
      <trkpt lat="47.28651" lon="-2.29882">
        <ele>37.799999237061</ele>
        <time>2020-12-20T10:54:39.000Z</time>
      </trkpt>
      <trkpt lat="47.28649" lon="-2.29875">
        <ele>38.200000762939</ele>
        <time>2020-12-20T10:54:40.000Z</time>
      </trkpt>
      <trkpt lat="47.28646" lon="-2.29851">
        <ele>38.200000762939</ele>
        <time>2020-12-20T10:54:43.000Z</time>
      </trkpt>
      <trkpt lat="47.28646" lon="-2.29843">
        <ele>38.200000762939</ele>
        <time>2020-12-20T10:54:44.000Z</time>
      </trkpt>
      <trkpt lat="47.28645" lon="-2.29796">
        <ele>38.200000762939</ele>
        <time>2020-12-20T10:54:50.000Z</time>
      </trkpt>
      <trkpt lat="47.28636" lon="-2.29767">
        <ele>38.200000762939</ele>
        <time>2020-12-20T10:54:54.000Z</time>
      </trkpt>
      <trkpt lat="47.28626" lon="-2.29739">
        <ele>38.599998474121</ele>
        <time>2020-12-20T10:54:58.000Z</time>
      </trkpt>
      <trkpt lat="47.28623" lon="-2.29732">
        <ele>39.200000762939</ele>
        <time>2020-12-20T10:54:59.000Z</time>
      </trkpt>
      <trkpt lat="47.28621" lon="-2.29724">
        <ele>39.599998474121</ele>
        <time>2020-12-20T10:55:00.000Z</time>
      </trkpt>
      <trkpt lat="47.28618" lon="-2.29717">
        <ele>40</ele>
        <time>2020-12-20T10:55:01.000Z</time>
      </trkpt>
      <trkpt lat="47.28615" lon="-2.2971">
        <ele>40.400001525879</ele>
        <time>2020-12-20T10:55:02.000Z</time>
      </trkpt>
      <trkpt lat="47.28598" lon="-2.29664">
        <ele>40.400001525879</ele>
        <time>2020-12-20T10:55:09.000Z</time>
      </trkpt>
      <trkpt lat="47.28595" lon="-2.29642">
        <ele>40.400001525879</ele>
        <time>2020-12-20T10:55:12.000Z</time>
      </trkpt>
      <trkpt lat="47.28593" lon="-2.29629">
        <ele>40.400001525879</ele>
        <time>2020-12-20T10:55:14.000Z</time>
      </trkpt>
      <trkpt lat="47.28591" lon="-2.29617">
        <ele>40.400001525879</ele>
        <time>2020-12-20T10:55:16.000Z</time>
      </trkpt>
      <trkpt lat="47.28587" lon="-2.29607">
        <ele>40.400001525879</ele>
        <time>2020-12-20T10:55:18.000Z</time>
      </trkpt>
      <trkpt lat="47.2858" lon="-2.29601">
        <ele>40.400001525879</ele>
        <time>2020-12-20T10:55:20.000Z</time>
      </trkpt>
      <trkpt lat="47.28576" lon="-2.29598">
        <ele>40.400001525879</ele>
        <time>2020-12-20T10:55:21.000Z</time>
      </trkpt>
      <trkpt lat="47.28572" lon="-2.29596">
        <ele>40.400001525879</ele>
        <time>2020-12-20T10:55:22.000Z</time>
      </trkpt>
      <trkpt lat="47.28538" lon="-2.2959">
        <ele>40.400001525879</ele>
        <time>2020-12-20T10:55:29.000Z</time>
      </trkpt>
      <trkpt lat="47.28517" lon="-2.29603">
        <ele>40.400001525879</ele>
        <time>2020-12-20T10:55:33.000Z</time>
      </trkpt>
      <trkpt lat="47.28509" lon="-2.29633">
        <ele>40.400001525879</ele>
        <time>2020-12-20T10:55:37.000Z</time>
      </trkpt>
      <trkpt lat="47.28512" lon="-2.29665">
        <ele>40.400001525879</ele>
        <time>2020-12-20T10:55:41.000Z</time>
      </trkpt>
      <trkpt lat="47.28522" lon="-2.29707">
        <ele>40.400001525879</ele>
        <time>2020-12-20T10:55:47.000Z</time>
      </trkpt>
      <trkpt lat="47.28521" lon="-2.29712">
        <ele>40.400001525879</ele>
        <time>2020-12-20T10:55:48.000Z</time>
      </trkpt>
      <trkpt lat="47.28516" lon="-2.29718">
        <ele>40</ele>
        <time>2020-12-20T10:55:50.000Z</time>
      </trkpt>
      <trkpt lat="47.28513" lon="-2.29717">
        <ele>39.599998474121</ele>
        <time>2020-12-20T10:55:51.000Z</time>
      </trkpt>
      <trkpt lat="47.2851" lon="-2.29717">
        <ele>39.200000762939</ele>
        <time>2020-12-20T10:55:52.000Z</time>
      </trkpt>
      <trkpt lat="47.28508" lon="-2.29716">
        <ele>38.400001525879</ele>
        <time>2020-12-20T10:55:53.000Z</time>
      </trkpt>
      <trkpt lat="47.28505" lon="-2.29715">
        <ele>38.400001525879</ele>
        <time>2020-12-20T10:55:54.000Z</time>
      </trkpt>
      <trkpt lat="47.28486" lon="-2.29712">
        <ele>38.400001525879</ele>
        <time>2020-12-20T10:55:59.000Z</time>
      </trkpt>
      <trkpt lat="47.28476" lon="-2.29711">
        <ele>38.400001525879</ele>
        <time>2020-12-20T10:56:01.000Z</time>
      </trkpt>
      <trkpt lat="47.28452" lon="-2.29703">
        <ele>38.400001525879</ele>
        <time>2020-12-20T10:56:06.000Z</time>
      </trkpt>
      <trkpt lat="47.28443" lon="-2.29702">
        <ele>38.400001525879</ele>
        <time>2020-12-20T10:56:08.000Z</time>
      </trkpt>
      <trkpt lat="47.28441" lon="-2.29705">
        <ele>38.400001525879</ele>
        <time>2020-12-20T10:56:09.000Z</time>
      </trkpt>
      <trkpt lat="47.28443" lon="-2.29718">
        <ele>38.400001525879</ele>
        <time>2020-12-20T10:56:12.000Z</time>
      </trkpt>
      <trkpt lat="47.28444" lon="-2.29722">
        <ele>38.400001525879</ele>
        <time>2020-12-20T10:56:13.000Z</time>
      </trkpt>
      <trkpt lat="47.28455" lon="-2.29748">
        <ele>38.400001525879</ele>
        <time>2020-12-20T10:56:19.000Z</time>
      </trkpt>
      <trkpt lat="47.28464" lon="-2.29773">
        <ele>38.400001525879</ele>
        <time>2020-12-20T10:56:24.000Z</time>
      </trkpt>
      <trkpt lat="47.28465" lon="-2.29798">
        <ele>38.400001525879</ele>
        <time>2020-12-20T10:56:28.000Z</time>
      </trkpt>
      <trkpt lat="47.28471" lon="-2.29813">
        <ele>38.400001525879</ele>
        <time>2020-12-20T10:56:32.000Z</time>
      </trkpt>
      <trkpt lat="47.28474" lon="-2.29825">
        <ele>38.400001525879</ele>
        <time>2020-12-20T10:56:35.000Z</time>
      </trkpt>
      <trkpt lat="47.28475" lon="-2.29828">
        <ele>38.400001525879</ele>
        <time>2020-12-20T10:56:36.000Z</time>
      </trkpt>
      <trkpt lat="47.28482" lon="-2.29844">
        <ele>38.400001525879</ele>
        <time>2020-12-20T10:56:42.000Z</time>
      </trkpt>
      <trkpt lat="47.2849" lon="-2.29863">
        <ele>38.400001525879</ele>
        <time>2020-12-20T10:56:47.000Z</time>
      </trkpt>
      <trkpt lat="47.28497" lon="-2.29872">
        <ele>38.400001525879</ele>
        <time>2020-12-20T10:56:52.000Z</time>
      </trkpt>
      <trkpt lat="47.28498" lon="-2.29874">
        <ele>38.400001525879</ele>
        <time>2020-12-20T10:56:55.000Z</time>
      </trkpt>
      <trkpt lat="47.28516" lon="-2.29882">
        <ele>37</ele>
        <time>2020-12-20T10:58:07.000Z</time>
      </trkpt>
      <trkpt lat="47.28517" lon="-2.29882">
        <ele>37.400001525879</ele>
        <time>2020-12-20T10:58:08.000Z</time>
      </trkpt>
      <trkpt lat="47.28519" lon="-2.29882">
        <ele>37.799999237061</ele>
        <time>2020-12-20T10:58:09.000Z</time>
      </trkpt>
      <trkpt lat="47.28526" lon="-2.29883">
        <ele>37.799999237061</ele>
        <time>2020-12-20T10:58:13.000Z</time>
      </trkpt>
      <trkpt lat="47.28538" lon="-2.29884">
        <ele>37.799999237061</ele>
        <time>2020-12-20T10:58:19.000Z</time>
      </trkpt>
      <trkpt lat="47.28543" lon="-2.29883">
        <ele>37.799999237061</ele>
        <time>2020-12-20T10:58:22.000Z</time>
      </trkpt>
      <trkpt lat="47.28546" lon="-2.29882">
        <ele>37.799999237061</ele>
        <time>2020-12-20T10:58:24.000Z</time>
      </trkpt>
      <trkpt lat="47.2855" lon="-2.29882">
        <ele>37.799999237061</ele>
        <time>2020-12-20T10:58:27.000Z</time>
      </trkpt>
      <trkpt lat="47.28553" lon="-2.29885">
        <ele>37.799999237061</ele>
        <time>2020-12-20T10:58:29.000Z</time>
      </trkpt>
      <trkpt lat="47.28558" lon="-2.29899">
        <ele>37.799999237061</ele>
        <time>2020-12-20T10:58:34.000Z</time>
      </trkpt>
      <trkpt lat="47.28563" lon="-2.29907">
        <ele>37.799999237061</ele>
        <time>2020-12-20T10:58:38.000Z</time>
      </trkpt>
      <trkpt lat="47.28564" lon="-2.29909">
        <ele>37.799999237061</ele>
        <time>2020-12-20T10:58:39.000Z</time>
      </trkpt>
      <trkpt lat="47.28571" lon="-2.29922">
        <ele>37.799999237061</ele>
        <time>2020-12-20T10:58:45.000Z</time>
      </trkpt>
      <trkpt lat="47.28572" lon="-2.29924">
        <ele>37.799999237061</ele>
        <time>2020-12-20T10:58:46.000Z</time>
      </trkpt>
      <trkpt lat="47.28578" lon="-2.29933">
        <ele>37.799999237061</ele>
        <time>2020-12-20T10:58:50.000Z</time>
      </trkpt>
      <trkpt lat="47.2859" lon="-2.29947">
        <ele>37.799999237061</ele>
        <time>2020-12-20T10:58:57.000Z</time>
      </trkpt>
      <trkpt lat="47.28608" lon="-2.29953">
        <ele>37.799999237061</ele>
        <time>2020-12-20T10:59:05.000Z</time>
      </trkpt>
      <trkpt lat="47.28623" lon="-2.29947">
        <ele>37.799999237061</ele>
        <time>2020-12-20T10:59:11.000Z</time>
      </trkpt>
      <trkpt lat="47.28635" lon="-2.29933">
        <ele>37.799999237061</ele>
        <time>2020-12-20T10:59:16.000Z</time>
      </trkpt>
      <trkpt lat="47.28651" lon="-2.29905">
        <ele>37.799999237061</ele>
        <time>2020-12-20T10:59:23.000Z</time>
      </trkpt>
      <trkpt lat="47.2865" lon="-2.29884">
        <ele>37.799999237061</ele>
        <time>2020-12-20T10:59:27.000Z</time>
      </trkpt>
      <trkpt lat="47.28644" lon="-2.29855">
        <ele>37.799999237061</ele>
        <time>2020-12-20T10:59:32.000Z</time>
      </trkpt>
      <trkpt lat="47.28644" lon="-2.29848">
        <ele>37.799999237061</ele>
        <time>2020-12-20T10:59:33.000Z</time>
      </trkpt>
      <trkpt lat="47.28644" lon="-2.29796">
        <ele>37.799999237061</ele>
        <time>2020-12-20T10:59:41.000Z</time>
      </trkpt>
      <trkpt lat="47.28639" lon="-2.29775">
        <ele>38.200000762939</ele>
        <time>2020-12-20T10:59:44.000Z</time>
      </trkpt>
      <trkpt lat="47.28636" lon="-2.29769">
        <ele>38.599998474121</ele>
        <time>2020-12-20T10:59:45.000Z</time>
      </trkpt>
      <trkpt lat="47.28634" lon="-2.29762">
        <ele>39</ele>
        <time>2020-12-20T10:59:46.000Z</time>
      </trkpt>
      <trkpt lat="47.28631" lon="-2.29755">
        <ele>39.400001525879</ele>
        <time>2020-12-20T10:59:47.000Z</time>
      </trkpt>
      <trkpt lat="47.28628" lon="-2.29748">
        <ele>39.799999237061</ele>
        <time>2020-12-20T10:59:48.000Z</time>
      </trkpt>
      <trkpt lat="47.28618" lon="-2.29719">
        <ele>39.799999237061</ele>
        <time>2020-12-20T10:59:52.000Z</time>
      </trkpt>
      <trkpt lat="47.28599" lon="-2.29667">
        <ele>39.799999237061</ele>
        <time>2020-12-20T11:00:00.000Z</time>
      </trkpt>
      <trkpt lat="47.2859" lon="-2.29619">
        <ele>39.799999237061</ele>
        <time>2020-12-20T11:00:06.000Z</time>
      </trkpt>
      <trkpt lat="47.28589" lon="-2.29612">
        <ele>39.799999237061</ele>
        <time>2020-12-20T11:00:07.000Z</time>
      </trkpt>
      <trkpt lat="47.28588" lon="-2.29597">
        <ele>39.799999237061</ele>
        <time>2020-12-20T11:00:09.000Z</time>
      </trkpt>
      <trkpt lat="47.28589" lon="-2.29581">
        <ele>39.799999237061</ele>
        <time>2020-12-20T11:00:11.000Z</time>
      </trkpt>
      <trkpt lat="47.2859" lon="-2.29572">
        <ele>39.799999237061</ele>
        <time>2020-12-20T11:00:12.000Z</time>
      </trkpt>
      <trkpt lat="47.28591" lon="-2.29557">
        <ele>40.200000762939</ele>
        <time>2020-12-20T11:00:14.000Z</time>
      </trkpt>
      <trkpt lat="47.28592" lon="-2.29551">
        <ele>40.599998474121</ele>
        <time>2020-12-20T11:00:15.000Z</time>
      </trkpt>
      <trkpt lat="47.28592" lon="-2.29544">
        <ele>41</ele>
        <time>2020-12-20T11:00:16.000Z</time>
      </trkpt>
      <trkpt lat="47.28592" lon="-2.29538">
        <ele>41.400001525879</ele>
        <time>2020-12-20T11:00:17.000Z</time>
      </trkpt>
      <trkpt lat="47.28592" lon="-2.29532">
        <ele>41.799999237061</ele>
        <time>2020-12-20T11:00:18.000Z</time>
      </trkpt>
      <trkpt lat="47.28591" lon="-2.29509">
        <ele>41.799999237061</ele>
        <time>2020-12-20T11:00:22.000Z</time>
      </trkpt>
      <trkpt lat="47.28585" lon="-2.29474">
        <ele>41.799999237061</ele>
        <time>2020-12-20T11:00:29.000Z</time>
      </trkpt>
      <trkpt lat="47.28582" lon="-2.29471">
        <ele>41.799999237061</ele>
        <time>2020-12-20T11:00:30.000Z</time>
      </trkpt>
      <trkpt lat="47.28576" lon="-2.29471">
        <ele>41.799999237061</ele>
        <time>2020-12-20T11:00:32.000Z</time>
      </trkpt>
      <trkpt lat="47.28569" lon="-2.29475">
        <ele>41.799999237061</ele>
        <time>2020-12-20T11:00:34.000Z</time>
      </trkpt>
      <trkpt lat="47.28561" lon="-2.29477">
        <ele>41.799999237061</ele>
        <time>2020-12-20T11:00:36.000Z</time>
      </trkpt>
      <trkpt lat="47.28543" lon="-2.29486">
        <ele>41.799999237061</ele>
        <time>2020-12-20T11:00:41.000Z</time>
      </trkpt>
      <trkpt lat="47.28534" lon="-2.29497">
        <ele>41.799999237061</ele>
        <time>2020-12-20T11:00:44.000Z</time>
      </trkpt>
      <trkpt lat="47.28531" lon="-2.29499">
        <ele>41.799999237061</ele>
        <time>2020-12-20T11:00:45.000Z</time>
      </trkpt>
      <trkpt lat="47.28507" lon="-2.29503">
        <ele>41.799999237061</ele>
        <time>2020-12-20T11:00:50.000Z</time>
      </trkpt>
      <trkpt lat="47.28477" lon="-2.29502">
        <ele>42.400001525879</ele>
        <time>2020-12-20T11:00:56.000Z</time>
      </trkpt>
      <trkpt lat="47.28471" lon="-2.29501">
        <ele>42.799999237061</ele>
        <time>2020-12-20T11:00:57.000Z</time>
      </trkpt>
      <trkpt lat="47.28466" lon="-2.29502">
        <ele>43.200000762939</ele>
        <time>2020-12-20T11:00:58.000Z</time>
      </trkpt>
      <trkpt lat="47.2846" lon="-2.29502">
        <ele>43.599998474121</ele>
        <time>2020-12-20T11:00:59.000Z</time>
      </trkpt>
      <trkpt lat="47.28455" lon="-2.29502">
        <ele>44</ele>
        <time>2020-12-20T11:01:00.000Z</time>
      </trkpt>
      <trkpt lat="47.28446" lon="-2.29502">
        <ele>44</ele>
        <time>2020-12-20T11:01:02.000Z</time>
      </trkpt>
      <trkpt lat="47.28422" lon="-2.295">
        <ele>44</ele>
        <time>2020-12-20T11:01:07.000Z</time>
      </trkpt>
      <trkpt lat="47.28419" lon="-2.29496">
        <ele>44</ele>
        <time>2020-12-20T11:01:08.000Z</time>
      </trkpt>
      <trkpt lat="47.28416" lon="-2.2948">
        <ele>44</ele>
        <time>2020-12-20T11:01:11.000Z</time>
      </trkpt>
      <trkpt lat="47.28417" lon="-2.29467">
        <ele>44</ele>
        <time>2020-12-20T11:01:13.000Z</time>
      </trkpt>
      <trkpt lat="47.28417" lon="-2.29444">
        <ele>44</ele>
        <time>2020-12-20T11:01:17.000Z</time>
      </trkpt>
      <trkpt lat="47.28416" lon="-2.29394">
        <ele>44</ele>
        <time>2020-12-20T11:01:26.000Z</time>
      </trkpt>
      <trkpt lat="47.28417" lon="-2.29365">
        <ele>44</ele>
        <time>2020-12-20T11:01:31.000Z</time>
      </trkpt>
      <trkpt lat="47.2842" lon="-2.29361">
        <ele>44</ele>
        <time>2020-12-20T11:01:32.000Z</time>
      </trkpt>
      <trkpt lat="47.28436" lon="-2.29352">
        <ele>44</ele>
        <time>2020-12-20T11:01:36.000Z</time>
      </trkpt>
      <trkpt lat="47.28449" lon="-2.29347">
        <ele>44</ele>
        <time>2020-12-20T11:01:39.000Z</time>
      </trkpt>
      <trkpt lat="47.28457" lon="-2.29345">
        <ele>44</ele>
        <time>2020-12-20T11:01:41.000Z</time>
      </trkpt>
      <trkpt lat="47.28471" lon="-2.29335">
        <ele>44</ele>
        <time>2020-12-20T11:01:45.000Z</time>
      </trkpt>
      <trkpt lat="47.2848" lon="-2.29331">
        <ele>44</ele>
        <time>2020-12-20T11:01:47.000Z</time>
      </trkpt>
      <trkpt lat="47.28484" lon="-2.29328">
        <ele>44</ele>
        <time>2020-12-20T11:01:48.000Z</time>
      </trkpt>
      <trkpt lat="47.28487" lon="-2.2932">
        <ele>44</ele>
        <time>2020-12-20T11:01:50.000Z</time>
      </trkpt>
      <trkpt lat="47.28481" lon="-2.29317">
        <ele>44</ele>
        <time>2020-12-20T11:01:53.000Z</time>
      </trkpt>
      <trkpt lat="47.28469" lon="-2.29322">
        <ele>44</ele>
        <time>2020-12-20T11:01:57.000Z</time>
      </trkpt>
      <trkpt lat="47.28447" lon="-2.29332">
        <ele>44</ele>
        <time>2020-12-20T11:02:03.000Z</time>
      </trkpt>
      <trkpt lat="47.28443" lon="-2.29333">
        <ele>44.400001525879</ele>
        <time>2020-12-20T11:02:04.000Z</time>
      </trkpt>
      <trkpt lat="47.28439" lon="-2.29335">
        <ele>44.799999237061</ele>
        <time>2020-12-20T11:02:05.000Z</time>
      </trkpt>
      <trkpt lat="47.28435" lon="-2.29336">
        <ele>45.200000762939</ele>
        <time>2020-12-20T11:02:06.000Z</time>
      </trkpt>
      <trkpt lat="47.28431" lon="-2.29338">
        <ele>45.599998474121</ele>
        <time>2020-12-20T11:02:07.000Z</time>
      </trkpt>
      <trkpt lat="47.28427" lon="-2.2934">
        <ele>46</ele>
        <time>2020-12-20T11:02:08.000Z</time>
      </trkpt>
      <trkpt lat="47.28419" lon="-2.29343">
        <ele>46</ele>
        <time>2020-12-20T11:02:10.000Z</time>
      </trkpt>
      <trkpt lat="47.2839" lon="-2.2936">
        <ele>46</ele>
        <time>2020-12-20T11:02:18.000Z</time>
      </trkpt>
      <trkpt lat="47.28382" lon="-2.29365">
        <ele>46</ele>
        <time>2020-12-20T11:02:22.000Z</time>
      </trkpt>
      <trkpt lat="47.28372" lon="-2.2937">
        <ele>46</ele>
        <time>2020-12-20T11:02:27.000Z</time>
      </trkpt>
      <trkpt lat="47.28355" lon="-2.29385">
        <ele>46</ele>
        <time>2020-12-20T11:02:32.000Z</time>
      </trkpt>
      <trkpt lat="47.28327" lon="-2.29415">
        <ele>46</ele>
        <time>2020-12-20T11:02:39.000Z</time>
      </trkpt>
      <trkpt lat="47.28303" lon="-2.29439">
        <ele>46</ele>
        <time>2020-12-20T11:02:46.000Z</time>
      </trkpt>
      <trkpt lat="47.28288" lon="-2.29451">
        <ele>46</ele>
        <time>2020-12-20T11:02:52.000Z</time>
      </trkpt>
      <trkpt lat="47.28269" lon="-2.29463">
        <ele>46</ele>
        <time>2020-12-20T11:02:58.000Z</time>
      </trkpt>
      <trkpt lat="47.28244" lon="-2.29481">
        <ele>46</ele>
        <time>2020-12-20T11:03:05.000Z</time>
      </trkpt>
      <trkpt lat="47.28217" lon="-2.29495">
        <ele>46.400001525879</ele>
        <time>2020-12-20T11:03:12.000Z</time>
      </trkpt>
      <trkpt lat="47.28213" lon="-2.29497">
        <ele>47</ele>
        <time>2020-12-20T11:03:13.000Z</time>
      </trkpt>
      <trkpt lat="47.28209" lon="-2.295">
        <ele>47.400001525879</ele>
        <time>2020-12-20T11:03:14.000Z</time>
      </trkpt>
      <trkpt lat="47.28205" lon="-2.29502">
        <ele>47.799999237061</ele>
        <time>2020-12-20T11:03:15.000Z</time>
      </trkpt>
      <trkpt lat="47.28201" lon="-2.29504">
        <ele>48.200000762939</ele>
        <time>2020-12-20T11:03:16.000Z</time>
      </trkpt>
      <trkpt lat="47.28192" lon="-2.29507">
        <ele>48.200000762939</ele>
        <time>2020-12-20T11:03:18.000Z</time>
      </trkpt>
      <trkpt lat="47.28165" lon="-2.29514">
        <ele>48.599998474121</ele>
        <time>2020-12-20T11:03:24.000Z</time>
      </trkpt>
      <trkpt lat="47.28161" lon="-2.29516">
        <ele>49</ele>
        <time>2020-12-20T11:03:25.000Z</time>
      </trkpt>
      <trkpt lat="47.28157" lon="-2.29518">
        <ele>49.400001525879</ele>
        <time>2020-12-20T11:03:26.000Z</time>
      </trkpt>
      <trkpt lat="47.28153" lon="-2.29519">
        <ele>49.799999237061</ele>
        <time>2020-12-20T11:03:27.000Z</time>
      </trkpt>
      <trkpt lat="47.28149" lon="-2.29521">
        <ele>50.200000762939</ele>
        <time>2020-12-20T11:03:28.000Z</time>
      </trkpt>
      <trkpt lat="47.2813" lon="-2.2953">
        <ele>50.200000762939</ele>
        <time>2020-12-20T11:03:32.000Z</time>
      </trkpt>
      <trkpt lat="47.28106" lon="-2.29541">
        <ele>50.200000762939</ele>
        <time>2020-12-20T11:03:38.000Z</time>
      </trkpt>
      <trkpt lat="47.28087" lon="-2.29549">
        <ele>50.200000762939</ele>
        <time>2020-12-20T11:03:44.000Z</time>
      </trkpt>
      <trkpt lat="47.28071" lon="-2.29554">
        <ele>50.200000762939</ele>
        <time>2020-12-20T11:03:49.000Z</time>
      </trkpt>
      <trkpt lat="47.28068" lon="-2.29556">
        <ele>50.200000762939</ele>
        <time>2020-12-20T11:03:50.000Z</time>
      </trkpt>
      <trkpt lat="47.28046" lon="-2.29566">
        <ele>50.200000762939</ele>
        <time>2020-12-20T11:03:56.000Z</time>
      </trkpt>
      <trkpt lat="47.28023" lon="-2.29576">
        <ele>50.200000762939</ele>
        <time>2020-12-20T11:04:03.000Z</time>
      </trkpt>
      <trkpt lat="47.28001" lon="-2.29587">
        <ele>50.200000762939</ele>
        <time>2020-12-20T11:04:09.000Z</time>
      </trkpt>
      <trkpt lat="47.27979" lon="-2.29595">
        <ele>50.200000762939</ele>
        <time>2020-12-20T11:04:15.000Z</time>
      </trkpt>
      <trkpt lat="47.27962" lon="-2.29597">
        <ele>50.200000762939</ele>
        <time>2020-12-20T11:04:20.000Z</time>
      </trkpt>
      <trkpt lat="47.27947" lon="-2.29597">
        <ele>50.200000762939</ele>
        <time>2020-12-20T11:04:24.000Z</time>
      </trkpt>
      <trkpt lat="47.27939" lon="-2.29597">
        <ele>50.200000762939</ele>
        <time>2020-12-20T11:04:26.000Z</time>
      </trkpt>
      <trkpt lat="47.27914" lon="-2.29597">
        <ele>50.200000762939</ele>
        <time>2020-12-20T11:04:33.000Z</time>
      </trkpt>
      <trkpt lat="47.27894" lon="-2.29595">
        <ele>50.200000762939</ele>
        <time>2020-12-20T11:04:39.000Z</time>
      </trkpt>
      <trkpt lat="47.27871" lon="-2.29594">
        <ele>50.200000762939</ele>
        <time>2020-12-20T11:04:46.000Z</time>
      </trkpt>
      <trkpt lat="47.27853" lon="-2.29596">
        <ele>50.200000762939</ele>
        <time>2020-12-20T11:04:52.000Z</time>
      </trkpt>
      <trkpt lat="47.27838" lon="-2.29595">
        <ele>50.200000762939</ele>
        <time>2020-12-20T11:04:57.000Z</time>
      </trkpt>
      <trkpt lat="47.27809" lon="-2.29595">
        <ele>50.200000762939</ele>
        <time>2020-12-20T11:05:04.000Z</time>
      </trkpt>
      <trkpt lat="47.2777" lon="-2.29596">
        <ele>50.200000762939</ele>
        <time>2020-12-20T11:05:12.000Z</time>
      </trkpt>
      <trkpt lat="47.27731" lon="-2.29595">
        <ele>50.200000762939</ele>
        <time>2020-12-20T11:05:19.000Z</time>
      </trkpt>
      <trkpt lat="47.27695" lon="-2.29595">
        <ele>50.200000762939</ele>
        <time>2020-12-20T11:05:26.000Z</time>
      </trkpt>
      <trkpt lat="47.27663" lon="-2.29595">
        <ele>50.200000762939</ele>
        <time>2020-12-20T11:05:33.000Z</time>
      </trkpt>
      <trkpt lat="47.27658" lon="-2.29595">
        <ele>50.200000762939</ele>
        <time>2020-12-20T11:05:34.000Z</time>
      </trkpt>
      <trkpt lat="47.2763" lon="-2.29596">
        <ele>49.799999237061</ele>
        <time>2020-12-20T11:05:40.000Z</time>
      </trkpt>
      <trkpt lat="47.27626" lon="-2.29596">
        <ele>49.400001525879</ele>
        <time>2020-12-20T11:05:41.000Z</time>
      </trkpt>
      <trkpt lat="47.27622" lon="-2.29595">
        <ele>49</ele>
        <time>2020-12-20T11:05:42.000Z</time>
      </trkpt>
      <trkpt lat="47.27618" lon="-2.29594">
        <ele>48.599998474121</ele>
        <time>2020-12-20T11:05:43.000Z</time>
      </trkpt>
      <trkpt lat="47.27613" lon="-2.29594">
        <ele>48.200000762939</ele>
        <time>2020-12-20T11:05:44.000Z</time>
      </trkpt>
      <trkpt lat="47.27586" lon="-2.29596">
        <ele>48.200000762939</ele>
        <time>2020-12-20T11:05:50.000Z</time>
      </trkpt>
      <trkpt lat="47.27544" lon="-2.29596">
        <ele>48.200000762939</ele>
        <time>2020-12-20T11:05:58.000Z</time>
      </trkpt>
      <trkpt lat="47.27523" lon="-2.29597">
        <ele>48.200000762939</ele>
        <time>2020-12-20T11:06:02.000Z</time>
      </trkpt>
      <trkpt lat="47.27513" lon="-2.29599">
        <ele>48.200000762939</ele>
        <time>2020-12-20T11:06:04.000Z</time>
      </trkpt>
      <trkpt lat="47.27478" lon="-2.29609">
        <ele>48.200000762939</ele>
        <time>2020-12-20T11:06:10.000Z</time>
      </trkpt>
      <trkpt lat="47.27473" lon="-2.29611">
        <ele>48.200000762939</ele>
        <time>2020-12-20T11:06:11.000Z</time>
      </trkpt>
      <trkpt lat="47.27442" lon="-2.2962">
        <ele>48.200000762939</ele>
        <time>2020-12-20T11:06:17.000Z</time>
      </trkpt>
      <trkpt lat="47.27399" lon="-2.29627">
        <ele>48.200000762939</ele>
        <time>2020-12-20T11:06:25.000Z</time>
      </trkpt>
      <trkpt lat="47.27356" lon="-2.29636">
        <ele>48.200000762939</ele>
        <time>2020-12-20T11:06:33.000Z</time>
      </trkpt>
      <trkpt lat="47.27351" lon="-2.29636">
        <ele>48.200000762939</ele>
        <time>2020-12-20T11:06:34.000Z</time>
      </trkpt>
      <trkpt lat="47.2733" lon="-2.29638">
        <ele>48.200000762939</ele>
        <time>2020-12-20T11:06:38.000Z</time>
      </trkpt>
      <trkpt lat="47.27324" lon="-2.29638">
        <ele>48.200000762939</ele>
        <time>2020-12-20T11:06:39.000Z</time>
      </trkpt>
      <trkpt lat="47.27299" lon="-2.2964">
        <ele>48.200000762939</ele>
        <time>2020-12-20T11:06:44.000Z</time>
      </trkpt>
      <trkpt lat="47.27274" lon="-2.29643">
        <ele>48.200000762939</ele>
        <time>2020-12-20T11:06:50.000Z</time>
      </trkpt>
      <trkpt lat="47.27267" lon="-2.29648">
        <ele>48.200000762939</ele>
        <time>2020-12-20T11:06:52.000Z</time>
      </trkpt>
      <trkpt lat="47.27266" lon="-2.29656">
        <ele>48.200000762939</ele>
        <time>2020-12-20T11:06:54.000Z</time>
      </trkpt>
      <trkpt lat="47.27268" lon="-2.29666">
        <ele>48.200000762939</ele>
        <time>2020-12-20T11:06:56.000Z</time>
      </trkpt>
      <trkpt lat="47.27269" lon="-2.29673">
        <ele>48.200000762939</ele>
        <time>2020-12-20T11:06:57.000Z</time>
      </trkpt>
      <trkpt lat="47.2727" lon="-2.29681">
        <ele>48.200000762939</ele>
        <time>2020-12-20T11:06:58.000Z</time>
      </trkpt>
      <trkpt lat="47.27283" lon="-2.29734">
        <ele>48.200000762939</ele>
        <time>2020-12-20T11:07:05.000Z</time>
      </trkpt>
      <trkpt lat="47.27296" lon="-2.29776">
        <ele>48.200000762939</ele>
        <time>2020-12-20T11:07:11.000Z</time>
      </trkpt>
      <trkpt lat="47.27314" lon="-2.29812">
        <ele>48.200000762939</ele>
        <time>2020-12-20T11:07:17.000Z</time>
      </trkpt>
      <trkpt lat="47.27332" lon="-2.2984">
        <ele>48.200000762939</ele>
        <time>2020-12-20T11:07:23.000Z</time>
      </trkpt>
      <trkpt lat="47.27352" lon="-2.29878">
        <ele>48.200000762939</ele>
        <time>2020-12-20T11:07:30.000Z</time>
      </trkpt>
      <trkpt lat="47.27372" lon="-2.29917">
        <ele>48.200000762939</ele>
        <time>2020-12-20T11:07:37.000Z</time>
      </trkpt>
      <trkpt lat="47.27378" lon="-2.29935">
        <ele>48.200000762939</ele>
        <time>2020-12-20T11:07:40.000Z</time>
      </trkpt>
      <trkpt lat="47.27382" lon="-2.29946">
        <ele>48.200000762939</ele>
        <time>2020-12-20T11:07:42.000Z</time>
      </trkpt>
      <trkpt lat="47.27395" lon="-2.2998">
        <ele>48.200000762939</ele>
        <time>2020-12-20T11:07:48.000Z</time>
      </trkpt>
      <trkpt lat="47.27402" lon="-2.29997">
        <ele>48.200000762939</ele>
        <time>2020-12-20T11:07:51.000Z</time>
      </trkpt>
      <trkpt lat="47.27408" lon="-2.30008">
        <ele>48.200000762939</ele>
        <time>2020-12-20T11:07:53.000Z</time>
      </trkpt>
      <trkpt lat="47.27413" lon="-2.30022">
        <ele>48.200000762939</ele>
        <time>2020-12-20T11:07:55.000Z</time>
      </trkpt>
      <trkpt lat="47.27427" lon="-2.30057">
        <ele>48.200000762939</ele>
        <time>2020-12-20T11:08:01.000Z</time>
      </trkpt>
      <trkpt lat="47.27438" lon="-2.30091">
        <ele>48.200000762939</ele>
        <time>2020-12-20T11:08:06.000Z</time>
      </trkpt>
      <trkpt lat="47.27439" lon="-2.30098">
        <ele>48.200000762939</ele>
        <time>2020-12-20T11:08:07.000Z</time>
      </trkpt>
      <trkpt lat="47.27449" lon="-2.30146">
        <ele>47.799999237061</ele>
        <time>2020-12-20T11:08:14.000Z</time>
      </trkpt>
      <trkpt lat="47.27451" lon="-2.30154">
        <ele>47.400001525879</ele>
        <time>2020-12-20T11:08:15.000Z</time>
      </trkpt>
      <trkpt lat="47.27452" lon="-2.30162">
        <ele>46.799999237061</ele>
        <time>2020-12-20T11:08:16.000Z</time>
      </trkpt>
      <trkpt lat="47.27454" lon="-2.3017">
        <ele>46.400001525879</ele>
        <time>2020-12-20T11:08:17.000Z</time>
      </trkpt>
      <trkpt lat="47.27456" lon="-2.30177">
        <ele>46</ele>
        <time>2020-12-20T11:08:18.000Z</time>
      </trkpt>
      <trkpt lat="47.2746" lon="-2.30189">
        <ele>46</ele>
        <time>2020-12-20T11:08:20.000Z</time>
      </trkpt>
      <trkpt lat="47.2746" lon="-2.30201">
        <ele>46</ele>
        <time>2020-12-20T11:08:23.000Z</time>
      </trkpt>
      <trkpt lat="47.27459" lon="-2.30204">
        <ele>46</ele>
        <time>2020-12-20T11:08:24.000Z</time>
      </trkpt>
      <trkpt lat="47.2745" lon="-2.30211">
        <ele>46</ele>
        <time>2020-12-20T11:08:27.000Z</time>
      </trkpt>
      <trkpt lat="47.27427" lon="-2.30224">
        <ele>46</ele>
        <time>2020-12-20T11:08:33.000Z</time>
      </trkpt>
      <trkpt lat="47.27398" lon="-2.3024">
        <ele>46</ele>
        <time>2020-12-20T11:08:39.000Z</time>
      </trkpt>
      <trkpt lat="47.27389" lon="-2.30244">
        <ele>46</ele>
        <time>2020-12-20T11:08:41.000Z</time>
      </trkpt>
      <trkpt lat="47.27373" lon="-2.30251">
        <ele>46</ele>
        <time>2020-12-20T11:08:44.000Z</time>
      </trkpt>
      <trkpt lat="47.27342" lon="-2.30257">
        <ele>46</ele>
        <time>2020-12-20T11:08:50.000Z</time>
      </trkpt>
      <trkpt lat="47.27315" lon="-2.30263">
        <ele>45.599998474121</ele>
        <time>2020-12-20T11:08:55.000Z</time>
      </trkpt>
      <trkpt lat="47.27309" lon="-2.30263">
        <ele>45.200000762939</ele>
        <time>2020-12-20T11:08:56.000Z</time>
      </trkpt>
      <trkpt lat="47.27304" lon="-2.30264">
        <ele>44.799999237061</ele>
        <time>2020-12-20T11:08:57.000Z</time>
      </trkpt>
      <trkpt lat="47.27298" lon="-2.30264">
        <ele>44.200000762939</ele>
        <time>2020-12-20T11:08:58.000Z</time>
      </trkpt>
      <trkpt lat="47.27293" lon="-2.30264">
        <ele>43.799999237061</ele>
        <time>2020-12-20T11:08:59.000Z</time>
      </trkpt>
      <trkpt lat="47.27277" lon="-2.30265">
        <ele>43.799999237061</ele>
        <time>2020-12-20T11:09:02.000Z</time>
      </trkpt>
      <trkpt lat="47.27272" lon="-2.30266">
        <ele>43.799999237061</ele>
        <time>2020-12-20T11:09:03.000Z</time>
      </trkpt>
      <trkpt lat="47.27253" lon="-2.3027">
        <ele>43.400001525879</ele>
        <time>2020-12-20T11:09:08.000Z</time>
      </trkpt>
      <trkpt lat="47.2725" lon="-2.3027">
        <ele>43</ele>
        <time>2020-12-20T11:09:09.000Z</time>
      </trkpt>
      <trkpt lat="47.27247" lon="-2.30269">
        <ele>42.599998474121</ele>
        <time>2020-12-20T11:09:10.000Z</time>
      </trkpt>
      <trkpt lat="47.27245" lon="-2.30268">
        <ele>42.200000762939</ele>
        <time>2020-12-20T11:09:11.000Z</time>
      </trkpt>
      <trkpt lat="47.27243" lon="-2.30267">
        <ele>41.599998474121</ele>
        <time>2020-12-20T11:09:12.000Z</time>
      </trkpt>
      <trkpt lat="47.27242" lon="-2.30266">
        <ele>41.599998474121</ele>
        <time>2020-12-20T11:09:13.000Z</time>
      </trkpt>
      <trkpt lat="47.27232" lon="-2.30264">
        <ele>41.599998474121</ele>
        <time>2020-12-20T11:09:19.000Z</time>
      </trkpt>
      <trkpt lat="47.27219" lon="-2.30261">
        <ele>41.599998474121</ele>
        <time>2020-12-20T11:09:24.000Z</time>
      </trkpt>
      <trkpt lat="47.27216" lon="-2.30263">
        <ele>41.599998474121</ele>
        <time>2020-12-20T11:09:25.000Z</time>
      </trkpt>
      <trkpt lat="47.27197" lon="-2.30268">
        <ele>41.599998474121</ele>
        <time>2020-12-20T11:09:31.000Z</time>
      </trkpt>
      <trkpt lat="47.27183" lon="-2.30257">
        <ele>41.599998474121</ele>
        <time>2020-12-20T11:09:35.000Z</time>
      </trkpt>
      <trkpt lat="47.27162" lon="-2.30252">
        <ele>41.599998474121</ele>
        <time>2020-12-20T11:09:41.000Z</time>
      </trkpt>
      <trkpt lat="47.27146" lon="-2.30257">
        <ele>41.599998474121</ele>
        <time>2020-12-20T11:09:45.000Z</time>
      </trkpt>
      <trkpt lat="47.27124" lon="-2.30264">
        <ele>42</ele>
        <time>2020-12-20T11:09:50.000Z</time>
      </trkpt>
      <trkpt lat="47.27119" lon="-2.30265">
        <ele>42.400001525879</ele>
        <time>2020-12-20T11:09:51.000Z</time>
      </trkpt>
      <trkpt lat="47.27114" lon="-2.30266">
        <ele>42.799999237061</ele>
        <time>2020-12-20T11:09:52.000Z</time>
      </trkpt>
      <trkpt lat="47.27109" lon="-2.30268">
        <ele>43.599998474121</ele>
        <time>2020-12-20T11:09:53.000Z</time>
      </trkpt>
      <trkpt lat="47.27095" lon="-2.30279">
        <ele>43.599998474121</ele>
        <time>2020-12-20T11:09:57.000Z</time>
      </trkpt>
      <trkpt lat="47.2708" lon="-2.30296">
        <ele>43.599998474121</ele>
        <time>2020-12-20T11:10:02.000Z</time>
      </trkpt>
      <trkpt lat="47.27078" lon="-2.303">
        <ele>44.200000762939</ele>
        <time>2020-12-20T11:10:03.000Z</time>
      </trkpt>
      <trkpt lat="47.27076" lon="-2.30305">
        <ele>44.599998474121</ele>
        <time>2020-12-20T11:10:04.000Z</time>
      </trkpt>
      <trkpt lat="47.27074" lon="-2.3031">
        <ele>45</ele>
        <time>2020-12-20T11:10:05.000Z</time>
      </trkpt>
      <trkpt lat="47.27073" lon="-2.30316">
        <ele>45.400001525879</ele>
        <time>2020-12-20T11:10:06.000Z</time>
      </trkpt>
      <trkpt lat="47.27071" lon="-2.30321">
        <ele>45.799999237061</ele>
        <time>2020-12-20T11:10:07.000Z</time>
      </trkpt>
      <trkpt lat="47.27063" lon="-2.30358">
        <ele>45.799999237061</ele>
        <time>2020-12-20T11:10:13.000Z</time>
      </trkpt>
      <trkpt lat="47.27055" lon="-2.304">
        <ele>45.799999237061</ele>
        <time>2020-12-20T11:10:19.000Z</time>
      </trkpt>
      <trkpt lat="47.27047" lon="-2.30459">
        <ele>45.799999237061</ele>
        <time>2020-12-20T11:10:27.000Z</time>
      </trkpt>
      <trkpt lat="47.27038" lon="-2.30495">
        <ele>45.799999237061</ele>
        <time>2020-12-20T11:10:32.000Z</time>
      </trkpt>
      <trkpt lat="47.27027" lon="-2.30539">
        <ele>45.799999237061</ele>
        <time>2020-12-20T11:10:38.000Z</time>
      </trkpt>
      <trkpt lat="47.27023" lon="-2.3055">
        <ele>45.799999237061</ele>
        <time>2020-12-20T11:10:40.000Z</time>
      </trkpt>
      <trkpt lat="47.27016" lon="-2.30575">
        <ele>45.799999237061</ele>
        <time>2020-12-20T11:10:44.000Z</time>
      </trkpt>
      <trkpt lat="47.27009" lon="-2.30593">
        <ele>46.200000762939</ele>
        <time>2020-12-20T11:10:47.000Z</time>
      </trkpt>
      <trkpt lat="47.27005" lon="-2.30599">
        <ele>46.599998474121</ele>
        <time>2020-12-20T11:10:48.000Z</time>
      </trkpt>
      <trkpt lat="47.27" lon="-2.30602">
        <ele>47</ele>
        <time>2020-12-20T11:10:49.000Z</time>
      </trkpt>
      <trkpt lat="47.26995" lon="-2.30606">
        <ele>47.400001525879</ele>
        <time>2020-12-20T11:10:50.000Z</time>
      </trkpt>
      <trkpt lat="47.2699" lon="-2.30609">
        <ele>47.799999237061</ele>
        <time>2020-12-20T11:10:51.000Z</time>
      </trkpt>
      <trkpt lat="47.26984" lon="-2.30613">
        <ele>47.799999237061</ele>
        <time>2020-12-20T11:10:52.000Z</time>
      </trkpt>
      <trkpt lat="47.26975" lon="-2.30618">
        <ele>47.799999237061</ele>
        <time>2020-12-20T11:10:54.000Z</time>
      </trkpt>
      <trkpt lat="47.26962" lon="-2.30625">
        <ele>47.799999237061</ele>
        <time>2020-12-20T11:10:57.000Z</time>
      </trkpt>
      <trkpt lat="47.26948" lon="-2.30631">
        <ele>47.799999237061</ele>
        <time>2020-12-20T11:11:00.000Z</time>
      </trkpt>
      <trkpt lat="47.26922" lon="-2.30637">
        <ele>47.799999237061</ele>
        <time>2020-12-20T11:11:06.000Z</time>
      </trkpt>
      <trkpt lat="47.26909" lon="-2.30648">
        <ele>47.799999237061</ele>
        <time>2020-12-20T11:11:11.000Z</time>
      </trkpt>
      <trkpt lat="47.26898" lon="-2.3066">
        <ele>47.799999237061</ele>
        <time>2020-12-20T11:11:18.000Z</time>
      </trkpt>
      <trkpt lat="47.26902" lon="-2.3067">
        <ele>47.799999237061</ele>
        <time>2020-12-20T11:11:22.000Z</time>
      </trkpt>
      <trkpt lat="47.26906" lon="-2.30677">
        <ele>47.799999237061</ele>
        <time>2020-12-20T11:11:24.000Z</time>
      </trkpt>
      <trkpt lat="47.26914" lon="-2.30687">
        <ele>47.799999237061</ele>
        <time>2020-12-20T11:11:27.000Z</time>
      </trkpt>
      <trkpt lat="47.26927" lon="-2.30709">
        <ele>47.799999237061</ele>
        <time>2020-12-20T11:11:32.000Z</time>
      </trkpt>
      <trkpt lat="47.2693" lon="-2.30713">
        <ele>47.799999237061</ele>
        <time>2020-12-20T11:11:33.000Z</time>
      </trkpt>
      <trkpt lat="47.26951" lon="-2.30747">
        <ele>47.799999237061</ele>
        <time>2020-12-20T11:11:39.000Z</time>
      </trkpt>
      <trkpt lat="47.26956" lon="-2.30753">
        <ele>47.799999237061</ele>
        <time>2020-12-20T11:11:40.000Z</time>
      </trkpt>
      <trkpt lat="47.26973" lon="-2.30778">
        <ele>47.799999237061</ele>
        <time>2020-12-20T11:11:44.000Z</time>
      </trkpt>
      <trkpt lat="47.2699" lon="-2.30804">
        <ele>47.400001525879</ele>
        <time>2020-12-20T11:11:48.000Z</time>
      </trkpt>
      <trkpt lat="47.26994" lon="-2.3081">
        <ele>47</ele>
        <time>2020-12-20T11:11:49.000Z</time>
      </trkpt>
      <trkpt lat="47.26998" lon="-2.30816">
        <ele>46.599998474121</ele>
        <time>2020-12-20T11:11:50.000Z</time>
      </trkpt>
      <trkpt lat="47.27002" lon="-2.30822">
        <ele>46.200000762939</ele>
        <time>2020-12-20T11:11:51.000Z</time>
      </trkpt>
      <trkpt lat="47.27006" lon="-2.30828">
        <ele>45.799999237061</ele>
        <time>2020-12-20T11:11:52.000Z</time>
      </trkpt>
      <trkpt lat="47.27015" lon="-2.30844">
        <ele>45.400001525879</ele>
        <time>2020-12-20T11:11:55.000Z</time>
      </trkpt>
      <trkpt lat="47.27018" lon="-2.30848">
        <ele>44.400001525879</ele>
        <time>2020-12-20T11:11:56.000Z</time>
      </trkpt>
      <trkpt lat="47.27021" lon="-2.30853">
        <ele>44</ele>
        <time>2020-12-20T11:11:57.000Z</time>
      </trkpt>
      <trkpt lat="47.27025" lon="-2.30859">
        <ele>43.599998474121</ele>
        <time>2020-12-20T11:11:58.000Z</time>
      </trkpt>
      <trkpt lat="47.27029" lon="-2.30864">
        <ele>43.599998474121</ele>
        <time>2020-12-20T11:11:59.000Z</time>
      </trkpt>
      <trkpt lat="47.27044" lon="-2.30892">
        <ele>43</ele>
        <time>2020-12-20T11:12:05.000Z</time>
      </trkpt>
      <trkpt lat="47.27045" lon="-2.30896">
        <ele>42.599998474121</ele>
        <time>2020-12-20T11:12:06.000Z</time>
      </trkpt>
      <trkpt lat="47.27046" lon="-2.30898">
        <ele>42.200000762939</ele>
        <time>2020-12-20T11:12:07.000Z</time>
      </trkpt>
      <trkpt lat="47.27047" lon="-2.30902">
        <ele>41.799999237061</ele>
        <time>2020-12-20T11:12:08.000Z</time>
      </trkpt>
      <trkpt lat="47.27047" lon="-2.30905">
        <ele>41.200000762939</ele>
        <time>2020-12-20T11:12:09.000Z</time>
      </trkpt>
      <trkpt lat="47.27049" lon="-2.30908">
        <ele>41.200000762939</ele>
        <time>2020-12-20T11:12:10.000Z</time>
      </trkpt>
      <trkpt lat="47.27059" lon="-2.30924">
        <ele>41.200000762939</ele>
        <time>2020-12-20T11:12:15.000Z</time>
      </trkpt>
      <trkpt lat="47.27067" lon="-2.30948">
        <ele>41.200000762939</ele>
        <time>2020-12-20T11:12:21.000Z</time>
      </trkpt>
      <trkpt lat="47.27073" lon="-2.30974">
        <ele>41.200000762939</ele>
        <time>2020-12-20T11:12:27.000Z</time>
      </trkpt>
      <trkpt lat="47.27075" lon="-2.30988">
        <ele>41.200000762939</ele>
        <time>2020-12-20T11:12:30.000Z</time>
      </trkpt>
      <trkpt lat="47.27074" lon="-2.30993">
        <ele>41.200000762939</ele>
        <time>2020-12-20T11:12:31.000Z</time>
      </trkpt>
      <trkpt lat="47.27068" lon="-2.31003">
        <ele>41.200000762939</ele>
        <time>2020-12-20T11:12:34.000Z</time>
      </trkpt>
      <trkpt lat="47.27065" lon="-2.31006">
        <ele>41.200000762939</ele>
        <time>2020-12-20T11:12:35.000Z</time>
      </trkpt>
      <trkpt lat="47.27048" lon="-2.3102">
        <ele>41.200000762939</ele>
        <time>2020-12-20T11:12:40.000Z</time>
      </trkpt>
      <trkpt lat="47.2704" lon="-2.31027">
        <ele>41.799999237061</ele>
        <time>2020-12-20T11:12:42.000Z</time>
      </trkpt>
      <trkpt lat="47.27036" lon="-2.3103">
        <ele>42.200000762939</ele>
        <time>2020-12-20T11:12:43.000Z</time>
      </trkpt>
      <trkpt lat="47.27032" lon="-2.31035">
        <ele>42.599998474121</ele>
        <time>2020-12-20T11:12:44.000Z</time>
      </trkpt>
      <trkpt lat="47.27027" lon="-2.31039">
        <ele>43</ele>
        <time>2020-12-20T11:12:45.000Z</time>
      </trkpt>
      <trkpt lat="47.27022" lon="-2.31043">
        <ele>43.400001525879</ele>
        <time>2020-12-20T11:12:46.000Z</time>
      </trkpt>
      <trkpt lat="47.27008" lon="-2.31062">
        <ele>43.400001525879</ele>
        <time>2020-12-20T11:12:51.000Z</time>
      </trkpt>
      <trkpt lat="47.27006" lon="-2.31069">
        <ele>43.400001525879</ele>
        <time>2020-12-20T11:12:52.000Z</time>
      </trkpt>
      <trkpt lat="47.27009" lon="-2.31086">
        <ele>43.400001525879</ele>
        <time>2020-12-20T11:12:55.000Z</time>
      </trkpt>
      <trkpt lat="47.27008" lon="-2.31104">
        <ele>43.400001525879</ele>
        <time>2020-12-20T11:12:58.000Z</time>
      </trkpt>
      <trkpt lat="47.27007" lon="-2.31114">
        <ele>43.400001525879</ele>
        <time>2020-12-20T11:13:00.000Z</time>
      </trkpt>
      <trkpt lat="47.27006" lon="-2.31119">
        <ele>43.799999237061</ele>
        <time>2020-12-20T11:13:01.000Z</time>
      </trkpt>
      <trkpt lat="47.27004" lon="-2.31125">
        <ele>44.200000762939</ele>
        <time>2020-12-20T11:13:02.000Z</time>
      </trkpt>
      <trkpt lat="47.27003" lon="-2.31131">
        <ele>44.599998474121</ele>
        <time>2020-12-20T11:13:03.000Z</time>
      </trkpt>
      <trkpt lat="47.27002" lon="-2.31138">
        <ele>45</ele>
        <time>2020-12-20T11:13:04.000Z</time>
      </trkpt>
      <trkpt lat="47.27001" lon="-2.31143">
        <ele>45.400001525879</ele>
        <time>2020-12-20T11:13:05.000Z</time>
      </trkpt>
      <trkpt lat="47.27" lon="-2.31149">
        <ele>45.400001525879</ele>
        <time>2020-12-20T11:13:06.000Z</time>
      </trkpt>
      <trkpt lat="47.26994" lon="-2.31184">
        <ele>45.400001525879</ele>
        <time>2020-12-20T11:13:12.000Z</time>
      </trkpt>
      <trkpt lat="47.26992" lon="-2.31196">
        <ele>45.799999237061</ele>
        <time>2020-12-20T11:13:14.000Z</time>
      </trkpt>
      <trkpt lat="47.26991" lon="-2.31202">
        <ele>46.400001525879</ele>
        <time>2020-12-20T11:13:15.000Z</time>
      </trkpt>
      <trkpt lat="47.2699" lon="-2.31208">
        <ele>46.799999237061</ele>
        <time>2020-12-20T11:13:16.000Z</time>
      </trkpt>
      <trkpt lat="47.26989" lon="-2.31213">
        <ele>47.200000762939</ele>
        <time>2020-12-20T11:13:17.000Z</time>
      </trkpt>
      <trkpt lat="47.26987" lon="-2.31218">
        <ele>47.599998474121</ele>
        <time>2020-12-20T11:13:18.000Z</time>
      </trkpt>
      <trkpt lat="47.26985" lon="-2.31223">
        <ele>47.599998474121</ele>
        <time>2020-12-20T11:13:19.000Z</time>
      </trkpt>
      <trkpt lat="47.26982" lon="-2.31258">
        <ele>47.599998474121</ele>
        <time>2020-12-20T11:13:25.000Z</time>
      </trkpt>
      <trkpt lat="47.26982" lon="-2.31282">
        <ele>47.599998474121</ele>
        <time>2020-12-20T11:13:30.000Z</time>
      </trkpt>
      <trkpt lat="47.26981" lon="-2.31288">
        <ele>48</ele>
        <time>2020-12-20T11:13:31.000Z</time>
      </trkpt>
      <trkpt lat="47.2698" lon="-2.31293">
        <ele>48.400001525879</ele>
        <time>2020-12-20T11:13:32.000Z</time>
      </trkpt>
      <trkpt lat="47.2698" lon="-2.31298">
        <ele>48.799999237061</ele>
        <time>2020-12-20T11:13:33.000Z</time>
      </trkpt>
      <trkpt lat="47.26981" lon="-2.31303">
        <ele>49.200000762939</ele>
        <time>2020-12-20T11:13:34.000Z</time>
      </trkpt>
      <trkpt lat="47.26982" lon="-2.31309">
        <ele>49.599998474121</ele>
        <time>2020-12-20T11:13:35.000Z</time>
      </trkpt>
      <trkpt lat="47.26989" lon="-2.31339">
        <ele>49.599998474121</ele>
        <time>2020-12-20T11:13:40.000Z</time>
      </trkpt>
      <trkpt lat="47.26991" lon="-2.31366">
        <ele>49.599998474121</ele>
        <time>2020-12-20T11:13:44.000Z</time>
      </trkpt>
      <trkpt lat="47.2699" lon="-2.31382">
        <ele>49.599998474121</ele>
        <time>2020-12-20T11:13:46.000Z</time>
      </trkpt>
      <trkpt lat="47.2699" lon="-2.31429">
        <ele>49.200000762939</ele>
        <time>2020-12-20T11:13:51.000Z</time>
      </trkpt>
      <trkpt lat="47.2699" lon="-2.31438">
        <ele>48.799999237061</ele>
        <time>2020-12-20T11:13:52.000Z</time>
      </trkpt>
      <trkpt lat="47.2699" lon="-2.31447">
        <ele>48.400001525879</ele>
        <time>2020-12-20T11:13:53.000Z</time>
      </trkpt>
      <trkpt lat="47.26991" lon="-2.31456">
        <ele>48</ele>
        <time>2020-12-20T11:13:54.000Z</time>
      </trkpt>
      <trkpt lat="47.26992" lon="-2.31464">
        <ele>47.400001525879</ele>
        <time>2020-12-20T11:13:55.000Z</time>
      </trkpt>
      <trkpt lat="47.26995" lon="-2.31478">
        <ele>47.400001525879</ele>
        <time>2020-12-20T11:13:57.000Z</time>
      </trkpt>
      <trkpt lat="47.26998" lon="-2.3149">
        <ele>47</ele>
        <time>2020-12-20T11:13:59.000Z</time>
      </trkpt>
      <trkpt lat="47.27" lon="-2.31497">
        <ele>46.200000762939</ele>
        <time>2020-12-20T11:14:00.000Z</time>
      </trkpt>
      <trkpt lat="47.27002" lon="-2.31506">
        <ele>45.799999237061</ele>
        <time>2020-12-20T11:14:01.000Z</time>
      </trkpt>
      <trkpt lat="47.27004" lon="-2.31514">
        <ele>45.400001525879</ele>
        <time>2020-12-20T11:14:02.000Z</time>
      </trkpt>
      <trkpt lat="47.27015" lon="-2.31556">
        <ele>45</ele>
        <time>2020-12-20T11:14:07.000Z</time>
      </trkpt>
      <trkpt lat="47.27017" lon="-2.31564">
        <ele>44.599998474121</ele>
        <time>2020-12-20T11:14:08.000Z</time>
      </trkpt>
      <trkpt lat="47.27019" lon="-2.31571">
        <ele>44</ele>
        <time>2020-12-20T11:14:09.000Z</time>
      </trkpt>
      <trkpt lat="47.27021" lon="-2.31577">
        <ele>43.599998474121</ele>
        <time>2020-12-20T11:14:10.000Z</time>
      </trkpt>
      <trkpt lat="47.27024" lon="-2.31584">
        <ele>43.200000762939</ele>
        <time>2020-12-20T11:14:11.000Z</time>
      </trkpt>
      <trkpt lat="47.27026" lon="-2.31589">
        <ele>42.599998474121</ele>
        <time>2020-12-20T11:14:12.000Z</time>
      </trkpt>
      <trkpt lat="47.27028" lon="-2.31595">
        <ele>42.200000762939</ele>
        <time>2020-12-20T11:14:13.000Z</time>
      </trkpt>
      <trkpt lat="47.27029" lon="-2.31602">
        <ele>41.599998474121</ele>
        <time>2020-12-20T11:14:14.000Z</time>
      </trkpt>
      <trkpt lat="47.27031" lon="-2.31609">
        <ele>41</ele>
        <time>2020-12-20T11:14:15.000Z</time>
      </trkpt>
      <trkpt lat="47.27033" lon="-2.31616">
        <ele>40.599998474121</ele>
        <time>2020-12-20T11:14:16.000Z</time>
      </trkpt>
      <trkpt lat="47.27034" lon="-2.31624">
        <ele>40</ele>
        <time>2020-12-20T11:14:17.000Z</time>
      </trkpt>
      <trkpt lat="47.27035" lon="-2.31632">
        <ele>39.400001525879</ele>
        <time>2020-12-20T11:14:18.000Z</time>
      </trkpt>
      <trkpt lat="47.27035" lon="-2.31639">
        <ele>39</ele>
        <time>2020-12-20T11:14:19.000Z</time>
      </trkpt>
      <trkpt lat="47.27036" lon="-2.31664">
        <ele>39</ele>
        <time>2020-12-20T11:14:22.000Z</time>
      </trkpt>
      <trkpt lat="47.27035" lon="-2.31682">
        <ele>39</ele>
        <time>2020-12-20T11:14:24.000Z</time>
      </trkpt>
      <trkpt lat="47.27033" lon="-2.31688">
        <ele>38</ele>
        <time>2020-12-20T11:14:25.000Z</time>
      </trkpt>
      <trkpt lat="47.27031" lon="-2.31693">
        <ele>37.599998474121</ele>
        <time>2020-12-20T11:14:26.000Z</time>
      </trkpt>
      <trkpt lat="47.2703" lon="-2.31696">
        <ele>37</ele>
        <time>2020-12-20T11:14:27.000Z</time>
      </trkpt>
      <trkpt lat="47.27029" lon="-2.317">
        <ele>36.599998474121</ele>
        <time>2020-12-20T11:14:28.000Z</time>
      </trkpt>
      <trkpt lat="47.27035" lon="-2.31712">
        <ele>36.599998474121</ele>
        <time>2020-12-20T11:14:31.000Z</time>
      </trkpt>
      <trkpt lat="47.27046" lon="-2.31719">
        <ele>36.599998474121</ele>
        <time>2020-12-20T11:14:34.000Z</time>
      </trkpt>
      <trkpt lat="47.2705" lon="-2.31721">
        <ele>36.200000762939</ele>
        <time>2020-12-20T11:14:35.000Z</time>
      </trkpt>
      <trkpt lat="47.27053" lon="-2.31725">
        <ele>35.799999237061</ele>
        <time>2020-12-20T11:14:36.000Z</time>
      </trkpt>
      <trkpt lat="47.27055" lon="-2.31732">
        <ele>35.200000762939</ele>
        <time>2020-12-20T11:14:37.000Z</time>
      </trkpt>
      <trkpt lat="47.27056" lon="-2.31736">
        <ele>34.799999237061</ele>
        <time>2020-12-20T11:14:38.000Z</time>
      </trkpt>
      <trkpt lat="47.27056" lon="-2.3174">
        <ele>34.400001525879</ele>
        <time>2020-12-20T11:14:39.000Z</time>
      </trkpt>
      <trkpt lat="47.27055" lon="-2.31743">
        <ele>34.400001525879</ele>
        <time>2020-12-20T11:14:42.000Z</time>
      </trkpt>
      <trkpt lat="47.27054" lon="-2.31755">
        <ele>34.400001525879</ele>
        <time>2020-12-20T11:16:16.000Z</time>
      </trkpt>
      <trkpt lat="47.27058" lon="-2.31781">
        <ele>34.400001525879</ele>
        <time>2020-12-20T11:16:22.000Z</time>
      </trkpt>
      <trkpt lat="47.27059" lon="-2.3181">
        <ele>34</ele>
        <time>2020-12-20T11:16:28.000Z</time>
      </trkpt>
      <trkpt lat="47.27059" lon="-2.31814">
        <ele>33.599998474121</ele>
        <time>2020-12-20T11:16:29.000Z</time>
      </trkpt>
      <trkpt lat="47.27059" lon="-2.31818">
        <ele>33.200000762939</ele>
        <time>2020-12-20T11:16:30.000Z</time>
      </trkpt>
      <trkpt lat="47.2706" lon="-2.31822">
        <ele>32.799999237061</ele>
        <time>2020-12-20T11:16:31.000Z</time>
      </trkpt>
      <trkpt lat="47.2706" lon="-2.31826">
        <ele>32.400001525879</ele>
        <time>2020-12-20T11:16:32.000Z</time>
      </trkpt>
      <trkpt lat="47.27061" lon="-2.31844">
        <ele>32.400001525879</ele>
        <time>2020-12-20T11:16:38.000Z</time>
      </trkpt>
      <trkpt lat="47.27065" lon="-2.3185">
        <ele>32.400001525879</ele>
        <time>2020-12-20T11:16:44.000Z</time>
      </trkpt>
      <trkpt lat="47.27072" lon="-2.31852">
        <ele>32.400001525879</ele>
        <time>2020-12-20T11:16:51.000Z</time>
      </trkpt>
      <trkpt lat="47.27079" lon="-2.31854">
        <ele>32.400001525879</ele>
        <time>2020-12-20T11:16:58.000Z</time>
      </trkpt>
      <trkpt lat="47.27079" lon="-2.31847">
        <ele>32.400001525879</ele>
        <time>2020-12-20T11:17:03.000Z</time>
      </trkpt>
      <trkpt lat="47.27076" lon="-2.31846">
        <ele>32.400001525879</ele>
        <time>2020-12-20T11:17:06.000Z</time>
      </trkpt>
      <trkpt lat="47.27076" lon="-2.31847">
        <ele>32.400001525879</ele>
        <time>2020-12-20T11:17:07.000Z</time>
      </trkpt>
      <trkpt lat="47.27075" lon="-2.31849">
        <ele>32.400001525879</ele>
        <time>2020-12-20T11:17:08.000Z</time>
      </trkpt>
      <trkpt lat="47.27078" lon="-2.31861">
        <ele>32.400001525879</ele>
        <time>2020-12-20T11:17:13.000Z</time>
      </trkpt>
      <trkpt lat="47.27078" lon="-2.31868">
        <ele>32.400001525879</ele>
        <time>2020-12-20T11:17:17.000Z</time>
      </trkpt>
      <trkpt lat="47.27077" lon="-2.3187">
        <ele>32.400001525879</ele>
        <time>2020-12-20T11:17:18.000Z</time>
      </trkpt>
      <trkpt lat="47.27077" lon="-2.31873">
        <ele>32.400001525879</ele>
        <time>2020-12-20T11:17:19.000Z</time>
      </trkpt>
      <trkpt lat="47.27075" lon="-2.31895">
        <ele>32.400001525879</ele>
        <time>2020-12-20T11:17:25.000Z</time>
      </trkpt>
      <trkpt lat="47.27078" lon="-2.31911">
        <ele>32</ele>
        <time>2020-12-20T11:17:29.000Z</time>
      </trkpt>
      <trkpt lat="47.27078" lon="-2.31917">
        <ele>31.60000038147</ele>
        <time>2020-12-20T11:17:30.000Z</time>
      </trkpt>
      <trkpt lat="47.27079" lon="-2.31921">
        <ele>31.200000762939</ele>
        <time>2020-12-20T11:17:31.000Z</time>
      </trkpt>
      <trkpt lat="47.27079" lon="-2.31925">
        <ele>30.799999237061</ele>
        <time>2020-12-20T11:17:32.000Z</time>
      </trkpt>
      <trkpt lat="47.27079" lon="-2.31929">
        <ele>30.39999961853</ele>
        <time>2020-12-20T11:17:33.000Z</time>
      </trkpt>
      <trkpt lat="47.27074" lon="-2.31944">
        <ele>30.39999961853</ele>
        <time>2020-12-20T11:17:37.000Z</time>
      </trkpt>
      <trkpt lat="47.27061" lon="-2.31948">
        <ele>30.39999961853</ele>
        <time>2020-12-20T11:17:41.000Z</time>
      </trkpt>
      <trkpt lat="47.27059" lon="-2.31948">
        <ele>30.39999961853</ele>
        <time>2020-12-20T11:17:42.000Z</time>
      </trkpt>
      <trkpt lat="47.27042" lon="-2.31952">
        <ele>30.39999961853</ele>
        <time>2020-12-20T11:17:49.000Z</time>
      </trkpt>
      <trkpt lat="47.27024" lon="-2.31964">
        <ele>30.39999961853</ele>
        <time>2020-12-20T11:17:56.000Z</time>
      </trkpt>
      <trkpt lat="47.27007" lon="-2.31983">
        <ele>30.39999961853</ele>
        <time>2020-12-20T11:18:02.000Z</time>
      </trkpt>
      <trkpt lat="47.27009" lon="-2.31995">
        <ele>30.39999961853</ele>
        <time>2020-12-20T11:18:05.000Z</time>
      </trkpt>
      <trkpt lat="47.27017" lon="-2.32022">
        <ele>30.39999961853</ele>
        <time>2020-12-20T11:18:10.000Z</time>
      </trkpt>
      <trkpt lat="47.2702" lon="-2.32038">
        <ele>30.39999961853</ele>
        <time>2020-12-20T11:18:12.000Z</time>
      </trkpt>
      <trkpt lat="47.27019" lon="-2.32054">
        <ele>30.39999961853</ele>
        <time>2020-12-20T11:18:14.000Z</time>
      </trkpt>
      <trkpt lat="47.27015" lon="-2.32093">
        <ele>30</ele>
        <time>2020-12-20T11:18:19.000Z</time>
      </trkpt>
      <trkpt lat="47.27014" lon="-2.32099">
        <ele>29.60000038147</ele>
        <time>2020-12-20T11:18:20.000Z</time>
      </trkpt>
      <trkpt lat="47.27013" lon="-2.32105">
        <ele>29.200000762939</ele>
        <time>2020-12-20T11:18:21.000Z</time>
      </trkpt>
      <trkpt lat="47.27011" lon="-2.3211">
        <ele>28.60000038147</ele>
        <time>2020-12-20T11:18:22.000Z</time>
      </trkpt>
      <trkpt lat="47.27009" lon="-2.32114">
        <ele>28.200000762939</ele>
        <time>2020-12-20T11:18:23.000Z</time>
      </trkpt>
      <trkpt lat="47.26998" lon="-2.32127">
        <ele>28.200000762939</ele>
        <time>2020-12-20T11:18:26.000Z</time>
      </trkpt>
      <trkpt lat="47.26991" lon="-2.32144">
        <ele>28.200000762939</ele>
        <time>2020-12-20T11:18:29.000Z</time>
      </trkpt>
      <trkpt lat="47.26995" lon="-2.32159">
        <ele>27.799999237061</ele>
        <time>2020-12-20T11:18:32.000Z</time>
      </trkpt>
      <trkpt lat="47.26999" lon="-2.32164">
        <ele>27.39999961853</ele>
        <time>2020-12-20T11:18:33.000Z</time>
      </trkpt>
      <trkpt lat="47.27002" lon="-2.32169">
        <ele>27</ele>
        <time>2020-12-20T11:18:34.000Z</time>
      </trkpt>
      <trkpt lat="47.27005" lon="-2.32173">
        <ele>26.60000038147</ele>
        <time>2020-12-20T11:18:35.000Z</time>
      </trkpt>
      <trkpt lat="47.27008" lon="-2.32178">
        <ele>26.200000762939</ele>
        <time>2020-12-20T11:18:36.000Z</time>
      </trkpt>
      <trkpt lat="47.27011" lon="-2.32183">
        <ele>26.200000762939</ele>
        <time>2020-12-20T11:18:37.000Z</time>
      </trkpt>
      <trkpt lat="47.2702" lon="-2.322">
        <ele>26.200000762939</ele>
        <time>2020-12-20T11:18:40.000Z</time>
      </trkpt>
      <trkpt lat="47.27024" lon="-2.32212">
        <ele>26.200000762939</ele>
        <time>2020-12-20T11:18:42.000Z</time>
      </trkpt>
      <trkpt lat="47.27029" lon="-2.32232">
        <ele>26.200000762939</ele>
        <time>2020-12-20T11:18:45.000Z</time>
      </trkpt>
      <trkpt lat="47.27028" lon="-2.32278">
        <ele>26.200000762939</ele>
        <time>2020-12-20T11:18:51.000Z</time>
      </trkpt>
      <trkpt lat="47.27026" lon="-2.32325">
        <ele>26.200000762939</ele>
        <time>2020-12-20T11:18:57.000Z</time>
      </trkpt>
      <trkpt lat="47.27027" lon="-2.32334">
        <ele>26.200000762939</ele>
        <time>2020-12-20T11:18:58.000Z</time>
      </trkpt>
      <trkpt lat="47.27029" lon="-2.32363">
        <ele>26.200000762939</ele>
        <time>2020-12-20T11:19:02.000Z</time>
      </trkpt>
      <trkpt lat="47.2703" lon="-2.3237">
        <ele>26.200000762939</ele>
        <time>2020-12-20T11:19:03.000Z</time>
      </trkpt>
      <trkpt lat="47.27032" lon="-2.3241">
        <ele>26.200000762939</ele>
        <time>2020-12-20T11:19:08.000Z</time>
      </trkpt>
      <trkpt lat="47.27034" lon="-2.32476">
        <ele>26.200000762939</ele>
        <time>2020-12-20T11:19:16.000Z</time>
      </trkpt>
      <trkpt lat="47.27034" lon="-2.32483">
        <ele>26.200000762939</ele>
        <time>2020-12-20T11:19:17.000Z</time>
      </trkpt>
      <trkpt lat="47.2703" lon="-2.32493">
        <ele>26.200000762939</ele>
        <time>2020-12-20T11:19:19.000Z</time>
      </trkpt>
      <trkpt lat="47.27014" lon="-2.32502">
        <ele>26.200000762939</ele>
        <time>2020-12-20T11:19:24.000Z</time>
      </trkpt>
      <trkpt lat="47.27004" lon="-2.32491">
        <ele>26.200000762939</ele>
        <time>2020-12-20T11:19:27.000Z</time>
      </trkpt>
      <trkpt lat="47.27002" lon="-2.32486">
        <ele>26.200000762939</ele>
        <time>2020-12-20T11:19:28.000Z</time>
      </trkpt>
      <trkpt lat="47.26997" lon="-2.32476">
        <ele>26.60000038147</ele>
        <time>2020-12-20T11:19:30.000Z</time>
      </trkpt>
      <trkpt lat="47.26994" lon="-2.32471">
        <ele>27</ele>
        <time>2020-12-20T11:19:31.000Z</time>
      </trkpt>
      <trkpt lat="47.26991" lon="-2.32466">
        <ele>27.39999961853</ele>
        <time>2020-12-20T11:19:32.000Z</time>
      </trkpt>
      <trkpt lat="47.26988" lon="-2.32461">
        <ele>27.799999237061</ele>
        <time>2020-12-20T11:19:33.000Z</time>
      </trkpt>
      <trkpt lat="47.26986" lon="-2.32455">
        <ele>28.200000762939</ele>
        <time>2020-12-20T11:19:34.000Z</time>
      </trkpt>
      <trkpt lat="47.26982" lon="-2.3245">
        <ele>28.200000762939</ele>
        <time>2020-12-20T11:19:35.000Z</time>
      </trkpt>
      <trkpt lat="47.26978" lon="-2.32445">
        <ele>28.200000762939</ele>
        <time>2020-12-20T11:19:36.000Z</time>
      </trkpt>
      <trkpt lat="47.26963" lon="-2.32427">
        <ele>28.200000762939</ele>
        <time>2020-12-20T11:19:40.000Z</time>
      </trkpt>
      <trkpt lat="47.26957" lon="-2.32418">
        <ele>28.200000762939</ele>
        <time>2020-12-20T11:19:42.000Z</time>
      </trkpt>
      <trkpt lat="47.2695" lon="-2.32401">
        <ele>28.200000762939</ele>
        <time>2020-12-20T11:19:45.000Z</time>
      </trkpt>
      <trkpt lat="47.26949" lon="-2.32395">
        <ele>28.200000762939</ele>
        <time>2020-12-20T11:19:46.000Z</time>
      </trkpt>
      <trkpt lat="47.26942" lon="-2.32372">
        <ele>28.200000762939</ele>
        <time>2020-12-20T11:19:50.000Z</time>
      </trkpt>
      <trkpt lat="47.26939" lon="-2.32361">
        <ele>28.200000762939</ele>
        <time>2020-12-20T11:19:52.000Z</time>
      </trkpt>
      <trkpt lat="47.26932" lon="-2.32347">
        <ele>28.200000762939</ele>
        <time>2020-12-20T11:19:55.000Z</time>
      </trkpt>
      <trkpt lat="47.26929" lon="-2.32343">
        <ele>28.200000762939</ele>
        <time>2020-12-20T11:19:56.000Z</time>
      </trkpt>
      <trkpt lat="47.26917" lon="-2.32337">
        <ele>28.60000038147</ele>
        <time>2020-12-20T11:19:59.000Z</time>
      </trkpt>
      <trkpt lat="47.26913" lon="-2.32336">
        <ele>29</ele>
        <time>2020-12-20T11:20:00.000Z</time>
      </trkpt>
      <trkpt lat="47.26909" lon="-2.32337">
        <ele>29.39999961853</ele>
        <time>2020-12-20T11:20:01.000Z</time>
      </trkpt>
      <trkpt lat="47.26906" lon="-2.32338">
        <ele>29.799999237061</ele>
        <time>2020-12-20T11:20:02.000Z</time>
      </trkpt>
      <trkpt lat="47.26902" lon="-2.32338">
        <ele>30.200000762939</ele>
        <time>2020-12-20T11:20:03.000Z</time>
      </trkpt>
      <trkpt lat="47.26892" lon="-2.32341">
        <ele>30.200000762939</ele>
        <time>2020-12-20T11:20:06.000Z</time>
      </trkpt>
      <trkpt lat="47.26879" lon="-2.32344">
        <ele>30.60000038147</ele>
        <time>2020-12-20T11:20:10.000Z</time>
      </trkpt>
      <trkpt lat="47.26875" lon="-2.32345">
        <ele>31.60000038147</ele>
        <time>2020-12-20T11:20:11.000Z</time>
      </trkpt>
      <trkpt lat="47.26872" lon="-2.32346">
        <ele>32</ele>
        <time>2020-12-20T11:20:12.000Z</time>
      </trkpt>
      <trkpt lat="47.26868" lon="-2.32347">
        <ele>32.400001525879</ele>
        <time>2020-12-20T11:20:13.000Z</time>
      </trkpt>
      <trkpt lat="47.26851" lon="-2.32351">
        <ele>32.400001525879</ele>
        <time>2020-12-20T11:20:18.000Z</time>
      </trkpt>
      <trkpt lat="47.26845" lon="-2.32353">
        <ele>32.799999237061</ele>
        <time>2020-12-20T11:20:20.000Z</time>
      </trkpt>
      <trkpt lat="47.26842" lon="-2.32354">
        <ele>33.200000762939</ele>
        <time>2020-12-20T11:20:21.000Z</time>
      </trkpt>
      <trkpt lat="47.26838" lon="-2.32354">
        <ele>33.599998474121</ele>
        <time>2020-12-20T11:20:22.000Z</time>
      </trkpt>
      <trkpt lat="47.26835" lon="-2.32355">
        <ele>34</ele>
        <time>2020-12-20T11:20:23.000Z</time>
      </trkpt>
      <trkpt lat="47.26832" lon="-2.32356">
        <ele>34.400001525879</ele>
        <time>2020-12-20T11:20:24.000Z</time>
      </trkpt>
      <trkpt lat="47.26823" lon="-2.32357">
        <ele>34.799999237061</ele>
        <time>2020-12-20T11:20:27.000Z</time>
      </trkpt>
      <trkpt lat="47.2682" lon="-2.32358">
        <ele>35.200000762939</ele>
        <time>2020-12-20T11:20:28.000Z</time>
      </trkpt>
      <trkpt lat="47.26817" lon="-2.32359">
        <ele>35.599998474121</ele>
        <time>2020-12-20T11:20:29.000Z</time>
      </trkpt>
      <trkpt lat="47.26814" lon="-2.3236">
        <ele>36</ele>
        <time>2020-12-20T11:20:30.000Z</time>
      </trkpt>
      <trkpt lat="47.26811" lon="-2.3236">
        <ele>36.400001525879</ele>
        <time>2020-12-20T11:20:31.000Z</time>
      </trkpt>
      <trkpt lat="47.26796" lon="-2.32365">
        <ele>37</ele>
        <time>2020-12-20T11:20:36.000Z</time>
      </trkpt>
      <trkpt lat="47.26793" lon="-2.32366">
        <ele>37.400001525879</ele>
        <time>2020-12-20T11:20:37.000Z</time>
      </trkpt>
      <trkpt lat="47.26791" lon="-2.32367">
        <ele>37.799999237061</ele>
        <time>2020-12-20T11:20:38.000Z</time>
      </trkpt>
      <trkpt lat="47.26788" lon="-2.32368">
        <ele>38.200000762939</ele>
        <time>2020-12-20T11:20:39.000Z</time>
      </trkpt>
      <trkpt lat="47.26785" lon="-2.32369">
        <ele>38.799999237061</ele>
        <time>2020-12-20T11:20:40.000Z</time>
      </trkpt>
      <trkpt lat="47.26782" lon="-2.32374">
        <ele>38.799999237061</ele>
        <time>2020-12-20T11:20:42.000Z</time>
      </trkpt>
      <trkpt lat="47.26781" lon="-2.32378">
        <ele>38.799999237061</ele>
        <time>2020-12-20T11:20:43.000Z</time>
      </trkpt>
      <trkpt lat="47.26782" lon="-2.32399">
        <ele>38.799999237061</ele>
        <time>2020-12-20T11:20:48.000Z</time>
      </trkpt>
      <trkpt lat="47.26783" lon="-2.32408">
        <ele>38.799999237061</ele>
        <time>2020-12-20T11:20:50.000Z</time>
      </trkpt>
      <trkpt lat="47.26783" lon="-2.32413">
        <ele>39.200000762939</ele>
        <time>2020-12-20T11:20:51.000Z</time>
      </trkpt>
      <trkpt lat="47.26784" lon="-2.32419">
        <ele>39.599998474121</ele>
        <time>2020-12-20T11:20:52.000Z</time>
      </trkpt>
      <trkpt lat="47.26785" lon="-2.32425">
        <ele>40</ele>
        <time>2020-12-20T11:20:53.000Z</time>
      </trkpt>
      <trkpt lat="47.26786" lon="-2.3243">
        <ele>40.400001525879</ele>
        <time>2020-12-20T11:20:54.000Z</time>
      </trkpt>
      <trkpt lat="47.26787" lon="-2.32436">
        <ele>40.799999237061</ele>
        <time>2020-12-20T11:20:55.000Z</time>
      </trkpt>
      <trkpt lat="47.26789" lon="-2.32455">
        <ele>40.799999237061</ele>
        <time>2020-12-20T11:20:58.000Z</time>
      </trkpt>
      <trkpt lat="47.26792" lon="-2.32469">
        <ele>40.799999237061</ele>
        <time>2020-12-20T11:21:00.000Z</time>
      </trkpt>
      <trkpt lat="47.26793" lon="-2.32476">
        <ele>40.799999237061</ele>
        <time>2020-12-20T11:21:01.000Z</time>
      </trkpt>
      <trkpt lat="47.26795" lon="-2.32506">
        <ele>40.799999237061</ele>
        <time>2020-12-20T11:21:05.000Z</time>
      </trkpt>
      <trkpt lat="47.26798" lon="-2.32562">
        <ele>40.799999237061</ele>
        <time>2020-12-20T11:21:12.000Z</time>
      </trkpt>
      <trkpt lat="47.26798" lon="-2.3257">
        <ele>40.799999237061</ele>
        <time>2020-12-20T11:21:13.000Z</time>
      </trkpt>
      <trkpt lat="47.26803" lon="-2.32601">
        <ele>40.799999237061</ele>
        <time>2020-12-20T11:21:17.000Z</time>
      </trkpt>
      <trkpt lat="47.2681" lon="-2.32649">
        <ele>40.799999237061</ele>
        <time>2020-12-20T11:21:24.000Z</time>
      </trkpt>
      <trkpt lat="47.26811" lon="-2.32656">
        <ele>40.799999237061</ele>
        <time>2020-12-20T11:21:25.000Z</time>
      </trkpt>
      <trkpt lat="47.26806" lon="-2.32672">
        <ele>40.799999237061</ele>
        <time>2020-12-20T11:21:28.000Z</time>
      </trkpt>
      <trkpt lat="47.268" lon="-2.3269">
        <ele>40.799999237061</ele>
        <time>2020-12-20T11:21:31.000Z</time>
      </trkpt>
      <trkpt lat="47.26804" lon="-2.32714">
        <ele>40.799999237061</ele>
        <time>2020-12-20T11:21:35.000Z</time>
      </trkpt>
      <trkpt lat="47.26815" lon="-2.32742">
        <ele>40.400001525879</ele>
        <time>2020-12-20T11:21:39.000Z</time>
      </trkpt>
      <trkpt lat="47.26818" lon="-2.3275">
        <ele>40</ele>
        <time>2020-12-20T11:21:40.000Z</time>
      </trkpt>
      <trkpt lat="47.26821" lon="-2.32758">
        <ele>39.599998474121</ele>
        <time>2020-12-20T11:21:41.000Z</time>
      </trkpt>
      <trkpt lat="47.26824" lon="-2.32767">
        <ele>39.200000762939</ele>
        <time>2020-12-20T11:21:42.000Z</time>
      </trkpt>
      <trkpt lat="47.26827" lon="-2.32777">
        <ele>38.799999237061</ele>
        <time>2020-12-20T11:21:43.000Z</time>
      </trkpt>
      <trkpt lat="47.26832" lon="-2.32797">
        <ele>38.200000762939</ele>
        <time>2020-12-20T11:21:45.000Z</time>
      </trkpt>
      <trkpt lat="47.26835" lon="-2.32807">
        <ele>37.799999237061</ele>
        <time>2020-12-20T11:21:46.000Z</time>
      </trkpt>
      <trkpt lat="47.26838" lon="-2.32816">
        <ele>37.400001525879</ele>
        <time>2020-12-20T11:21:47.000Z</time>
      </trkpt>
      <trkpt lat="47.26841" lon="-2.32825">
        <ele>37</ele>
        <time>2020-12-20T11:21:48.000Z</time>
      </trkpt>
      <trkpt lat="47.26844" lon="-2.32833">
        <ele>36.400001525879</ele>
        <time>2020-12-20T11:21:49.000Z</time>
      </trkpt>
      <trkpt lat="47.26848" lon="-2.32842">
        <ele>35.200000762939</ele>
        <time>2020-12-20T11:21:50.000Z</time>
      </trkpt>
      <trkpt lat="47.2685" lon="-2.32851">
        <ele>34.400001525879</ele>
        <time>2020-12-20T11:21:51.000Z</time>
      </trkpt>
      <trkpt lat="47.26853" lon="-2.3286">
        <ele>33.599998474121</ele>
        <time>2020-12-20T11:21:52.000Z</time>
      </trkpt>
      <trkpt lat="47.26855" lon="-2.32867">
        <ele>32.599998474121</ele>
        <time>2020-12-20T11:21:53.000Z</time>
      </trkpt>
      <trkpt lat="47.26856" lon="-2.32873">
        <ele>31.799999237061</ele>
        <time>2020-12-20T11:21:54.000Z</time>
      </trkpt>
      <trkpt lat="47.26855" lon="-2.32878">
        <ele>30.799999237061</ele>
        <time>2020-12-20T11:21:55.000Z</time>
      </trkpt>
      <trkpt lat="47.26853" lon="-2.32881">
        <ele>30</ele>
        <time>2020-12-20T11:21:56.000Z</time>
      </trkpt>
      <trkpt lat="47.26849" lon="-2.32882">
        <ele>29.39999961853</ele>
        <time>2020-12-20T11:21:57.000Z</time>
      </trkpt>
      <trkpt lat="47.26844" lon="-2.32883">
        <ele>28.799999237061</ele>
        <time>2020-12-20T11:21:58.000Z</time>
      </trkpt>
      <trkpt lat="47.2684" lon="-2.32885">
        <ele>28.200000762939</ele>
        <time>2020-12-20T11:21:59.000Z</time>
      </trkpt>
      <trkpt lat="47.26835" lon="-2.32886">
        <ele>27.60000038147</ele>
        <time>2020-12-20T11:22:00.000Z</time>
      </trkpt>
      <trkpt lat="47.2683" lon="-2.32889">
        <ele>27</ele>
        <time>2020-12-20T11:22:01.000Z</time>
      </trkpt>
      <trkpt lat="47.26818" lon="-2.32902">
        <ele>27</ele>
        <time>2020-12-20T11:22:04.000Z</time>
      </trkpt>
      <trkpt lat="47.26814" lon="-2.32907">
        <ele>27</ele>
        <time>2020-12-20T11:22:05.000Z</time>
      </trkpt>
      <trkpt lat="47.26809" lon="-2.32912">
        <ele>27</ele>
        <time>2020-12-20T11:22:06.000Z</time>
      </trkpt>
      <trkpt lat="47.26794" lon="-2.32924">
        <ele>27</ele>
        <time>2020-12-20T11:22:09.000Z</time>
      </trkpt>
      <trkpt lat="47.26783" lon="-2.32932">
        <ele>27</ele>
        <time>2020-12-20T11:22:11.000Z</time>
      </trkpt>
      <trkpt lat="47.26769" lon="-2.32948">
        <ele>27</ele>
        <time>2020-12-20T11:22:14.000Z</time>
      </trkpt>
      <trkpt lat="47.26765" lon="-2.32953">
        <ele>27</ele>
        <time>2020-12-20T11:22:15.000Z</time>
      </trkpt>
      <trkpt lat="47.26742" lon="-2.32979">
        <ele>27</ele>
        <time>2020-12-20T11:22:20.000Z</time>
      </trkpt>
      <trkpt lat="47.26738" lon="-2.32986">
        <ele>27</ele>
        <time>2020-12-20T11:22:21.000Z</time>
      </trkpt>
      <trkpt lat="47.26729" lon="-2.33015">
        <ele>27</ele>
        <time>2020-12-20T11:22:25.000Z</time>
      </trkpt>
      <trkpt lat="47.26726" lon="-2.33046">
        <ele>27</ele>
        <time>2020-12-20T11:22:29.000Z</time>
      </trkpt>
      <trkpt lat="47.26724" lon="-2.33054">
        <ele>27</ele>
        <time>2020-12-20T11:22:30.000Z</time>
      </trkpt>
      <trkpt lat="47.26714" lon="-2.33076">
        <ele>27</ele>
        <time>2020-12-20T11:22:33.000Z</time>
      </trkpt>
      <trkpt lat="47.2671" lon="-2.33082">
        <ele>27</ele>
        <time>2020-12-20T11:22:34.000Z</time>
      </trkpt>
      <trkpt lat="47.26705" lon="-2.33087">
        <ele>27</ele>
        <time>2020-12-20T11:22:35.000Z</time>
      </trkpt>
      <trkpt lat="47.26691" lon="-2.33101">
        <ele>27</ele>
        <time>2020-12-20T11:22:38.000Z</time>
      </trkpt>
      <trkpt lat="47.26668" lon="-2.33122">
        <ele>27</ele>
        <time>2020-12-20T11:22:43.000Z</time>
      </trkpt>
      <trkpt lat="47.26655" lon="-2.33135">
        <ele>27</ele>
        <time>2020-12-20T11:22:46.000Z</time>
      </trkpt>
      <trkpt lat="47.26641" lon="-2.33146">
        <ele>27</ele>
        <time>2020-12-20T11:22:49.000Z</time>
      </trkpt>
      <trkpt lat="47.26631" lon="-2.33152">
        <ele>27</ele>
        <time>2020-12-20T11:22:51.000Z</time>
      </trkpt>
      <trkpt lat="47.26622" lon="-2.33151">
        <ele>27</ele>
        <time>2020-12-20T11:22:53.000Z</time>
      </trkpt>
      <trkpt lat="47.26608" lon="-2.33157">
        <ele>27</ele>
        <time>2020-12-20T11:22:56.000Z</time>
      </trkpt>
      <trkpt lat="47.26596" lon="-2.33177">
        <ele>27</ele>
        <time>2020-12-20T11:23:00.000Z</time>
      </trkpt>
      <trkpt lat="47.26594" lon="-2.33182">
        <ele>27</ele>
        <time>2020-12-20T11:23:01.000Z</time>
      </trkpt>
      <trkpt lat="47.26588" lon="-2.33201">
        <ele>27</ele>
        <time>2020-12-20T11:23:05.000Z</time>
      </trkpt>
      <trkpt lat="47.26586" lon="-2.33204">
        <ele>26.60000038147</ele>
        <time>2020-12-20T11:23:06.000Z</time>
      </trkpt>
      <trkpt lat="47.26583" lon="-2.33206">
        <ele>26.200000762939</ele>
        <time>2020-12-20T11:23:07.000Z</time>
      </trkpt>
      <trkpt lat="47.2658" lon="-2.33209">
        <ele>25.60000038147</ele>
        <time>2020-12-20T11:23:08.000Z</time>
      </trkpt>
      <trkpt lat="47.26576" lon="-2.33212">
        <ele>25.200000762939</ele>
        <time>2020-12-20T11:23:09.000Z</time>
      </trkpt>
      <trkpt lat="47.26571" lon="-2.33215">
        <ele>24.799999237061</ele>
        <time>2020-12-20T11:23:10.000Z</time>
      </trkpt>
      <trkpt lat="47.2655" lon="-2.33227">
        <ele>24.799999237061</ele>
        <time>2020-12-20T11:23:15.000Z</time>
      </trkpt>
      <trkpt lat="47.26528" lon="-2.33243">
        <ele>24.799999237061</ele>
        <time>2020-12-20T11:23:21.000Z</time>
      </trkpt>
      <trkpt lat="47.26508" lon="-2.33258">
        <ele>24.799999237061</ele>
        <time>2020-12-20T11:23:27.000Z</time>
      </trkpt>
      <trkpt lat="47.26499" lon="-2.33266">
        <ele>24.799999237061</ele>
        <time>2020-12-20T11:23:30.000Z</time>
      </trkpt>
      <trkpt lat="47.26496" lon="-2.33275">
        <ele>24.799999237061</ele>
        <time>2020-12-20T11:23:32.000Z</time>
      </trkpt>
      <trkpt lat="47.26483" lon="-2.33287">
        <ele>24.799999237061</ele>
        <time>2020-12-20T11:23:36.000Z</time>
      </trkpt>
      <trkpt lat="47.26474" lon="-2.33301">
        <ele>24.799999237061</ele>
        <time>2020-12-20T11:23:39.000Z</time>
      </trkpt>
      <trkpt lat="47.26471" lon="-2.33306">
        <ele>24.799999237061</ele>
        <time>2020-12-20T11:23:40.000Z</time>
      </trkpt>
      <trkpt lat="47.26468" lon="-2.3331">
        <ele>24.799999237061</ele>
        <time>2020-12-20T11:23:41.000Z</time>
      </trkpt>
      <trkpt lat="47.26446" lon="-2.33327">
        <ele>24.799999237061</ele>
        <time>2020-12-20T11:23:46.000Z</time>
      </trkpt>
      <trkpt lat="47.26414" lon="-2.33351">
        <ele>24.799999237061</ele>
        <time>2020-12-20T11:23:53.000Z</time>
      </trkpt>
      <trkpt lat="47.26383" lon="-2.3337">
        <ele>24.799999237061</ele>
        <time>2020-12-20T11:23:59.000Z</time>
      </trkpt>
      <trkpt lat="47.26368" lon="-2.33378">
        <ele>25.200000762939</ele>
        <time>2020-12-20T11:24:02.000Z</time>
      </trkpt>
      <trkpt lat="47.26363" lon="-2.33381">
        <ele>25.60000038147</ele>
        <time>2020-12-20T11:24:03.000Z</time>
      </trkpt>
      <trkpt lat="47.26357" lon="-2.33384">
        <ele>26</ele>
        <time>2020-12-20T11:24:04.000Z</time>
      </trkpt>
      <trkpt lat="47.26352" lon="-2.33387">
        <ele>26.39999961853</ele>
        <time>2020-12-20T11:24:05.000Z</time>
      </trkpt>
      <trkpt lat="47.26346" lon="-2.33389">
        <ele>26.799999237061</ele>
        <time>2020-12-20T11:24:06.000Z</time>
      </trkpt>
      <trkpt lat="47.26321" lon="-2.33404">
        <ele>26.799999237061</ele>
        <time>2020-12-20T11:24:11.000Z</time>
      </trkpt>
      <trkpt lat="47.26313" lon="-2.33412">
        <ele>26.799999237061</ele>
        <time>2020-12-20T11:24:13.000Z</time>
      </trkpt>
      <trkpt lat="47.26304" lon="-2.33418">
        <ele>26.799999237061</ele>
        <time>2020-12-20T11:24:15.000Z</time>
      </trkpt>
      <trkpt lat="47.26289" lon="-2.33423">
        <ele>26.799999237061</ele>
        <time>2020-12-20T11:24:18.000Z</time>
      </trkpt>
      <trkpt lat="47.26252" lon="-2.33431">
        <ele>26.799999237061</ele>
        <time>2020-12-20T11:24:25.000Z</time>
      </trkpt>
      <trkpt lat="47.26208" lon="-2.33441">
        <ele>26.799999237061</ele>
        <time>2020-12-20T11:24:33.000Z</time>
      </trkpt>
      <trkpt lat="47.26177" lon="-2.33443">
        <ele>26.799999237061</ele>
        <time>2020-12-20T11:24:39.000Z</time>
      </trkpt>
      <trkpt lat="47.26153" lon="-2.33435">
        <ele>26.799999237061</ele>
        <time>2020-12-20T11:24:45.000Z</time>
      </trkpt>
      <trkpt lat="47.26143" lon="-2.33432">
        <ele>26.799999237061</ele>
        <time>2020-12-20T11:24:48.000Z</time>
      </trkpt>
      <trkpt lat="47.26141" lon="-2.33435">
        <ele>26.799999237061</ele>
        <time>2020-12-20T11:24:49.000Z</time>
      </trkpt>
      <trkpt lat="47.26137" lon="-2.33448">
        <ele>26.799999237061</ele>
        <time>2020-12-20T11:24:53.000Z</time>
      </trkpt>
      <trkpt lat="47.26132" lon="-2.33456">
        <ele>26.799999237061</ele>
        <time>2020-12-20T11:24:55.000Z</time>
      </trkpt>
      <trkpt lat="47.26127" lon="-2.3347">
        <ele>26.799999237061</ele>
        <time>2020-12-20T11:24:58.000Z</time>
      </trkpt>
      <trkpt lat="47.26117" lon="-2.33493">
        <ele>26.799999237061</ele>
        <time>2020-12-20T11:25:03.000Z</time>
      </trkpt>
      <trkpt lat="47.26112" lon="-2.33492">
        <ele>26.799999237061</ele>
        <time>2020-12-20T11:25:04.000Z</time>
      </trkpt>
      <trkpt lat="47.26095" lon="-2.33487">
        <ele>26.799999237061</ele>
        <time>2020-12-20T11:25:09.000Z</time>
      </trkpt>
      <trkpt lat="47.26075" lon="-2.33483">
        <ele>26.799999237061</ele>
        <time>2020-12-20T11:25:15.000Z</time>
      </trkpt>
      <trkpt lat="47.26057" lon="-2.33487">
        <ele>26.799999237061</ele>
        <time>2020-12-20T11:25:19.000Z</time>
      </trkpt>
      <trkpt lat="47.26044" lon="-2.33478">
        <ele>26.799999237061</ele>
        <time>2020-12-20T11:25:23.000Z</time>
      </trkpt>
      <trkpt lat="47.2603" lon="-2.33491">
        <ele>26.799999237061</ele>
        <time>2020-12-20T11:25:27.000Z</time>
      </trkpt>
      <trkpt lat="47.26009" lon="-2.33495">
        <ele>26.799999237061</ele>
        <time>2020-12-20T11:25:31.000Z</time>
      </trkpt>
      <trkpt lat="47.26004" lon="-2.33495">
        <ele>26.799999237061</ele>
        <time>2020-12-20T11:25:32.000Z</time>
      </trkpt>
      <trkpt lat="47.25994" lon="-2.33498">
        <ele>26.799999237061</ele>
        <time>2020-12-20T11:25:34.000Z</time>
      </trkpt>
      <trkpt lat="47.2598" lon="-2.33506">
        <ele>26.799999237061</ele>
        <time>2020-12-20T11:25:37.000Z</time>
      </trkpt>
      <trkpt lat="47.2596" lon="-2.33511">
        <ele>26.799999237061</ele>
        <time>2020-12-20T11:25:41.000Z</time>
      </trkpt>
      <trkpt lat="47.25955" lon="-2.33514">
        <ele>26.799999237061</ele>
        <time>2020-12-20T11:25:42.000Z</time>
      </trkpt>
      <trkpt lat="47.25934" lon="-2.33533">
        <ele>26.799999237061</ele>
        <time>2020-12-20T11:25:47.000Z</time>
      </trkpt>
      <trkpt lat="47.25913" lon="-2.33552">
        <ele>26.799999237061</ele>
        <time>2020-12-20T11:25:52.000Z</time>
      </trkpt>
      <trkpt lat="47.25886" lon="-2.33573">
        <ele>26.799999237061</ele>
        <time>2020-12-20T11:25:58.000Z</time>
      </trkpt>
      <trkpt lat="47.25881" lon="-2.33576">
        <ele>26.799999237061</ele>
        <time>2020-12-20T11:25:59.000Z</time>
      </trkpt>
      <trkpt lat="47.25859" lon="-2.3358">
        <ele>26.799999237061</ele>
        <time>2020-12-20T11:26:03.000Z</time>
      </trkpt>
      <trkpt lat="47.25818" lon="-2.3358">
        <ele>27.39999961853</ele>
        <time>2020-12-20T11:26:10.000Z</time>
      </trkpt>
      <trkpt lat="47.25812" lon="-2.33581">
        <ele>27.799999237061</ele>
        <time>2020-12-20T11:26:11.000Z</time>
      </trkpt>
      <trkpt lat="47.25807" lon="-2.33581">
        <ele>28.200000762939</ele>
        <time>2020-12-20T11:26:12.000Z</time>
      </trkpt>
      <trkpt lat="47.25801" lon="-2.33581">
        <ele>28.60000038147</ele>
        <time>2020-12-20T11:26:13.000Z</time>
      </trkpt>
      <trkpt lat="47.25796" lon="-2.33582">
        <ele>29</ele>
        <time>2020-12-20T11:26:14.000Z</time>
      </trkpt>
      <trkpt lat="47.25774" lon="-2.33583">
        <ele>29</ele>
        <time>2020-12-20T11:26:18.000Z</time>
      </trkpt>
      <trkpt lat="47.25753" lon="-2.33585">
        <ele>29</ele>
        <time>2020-12-20T11:26:22.000Z</time>
      </trkpt>
      <trkpt lat="47.25749" lon="-2.33588">
        <ele>29</ele>
        <time>2020-12-20T11:26:23.000Z</time>
      </trkpt>
      <trkpt lat="47.25733" lon="-2.33588">
        <ele>29</ele>
        <time>2020-12-20T11:26:26.000Z</time>
      </trkpt>
      <trkpt lat="47.25722" lon="-2.33587">
        <ele>29</ele>
        <time>2020-12-20T11:26:28.000Z</time>
      </trkpt>
      <trkpt lat="47.25704" lon="-2.33587">
        <ele>29</ele>
        <time>2020-12-20T11:26:31.000Z</time>
      </trkpt>
      <trkpt lat="47.25662" lon="-2.33582">
        <ele>29</ele>
        <time>2020-12-20T11:26:38.000Z</time>
      </trkpt>
      <trkpt lat="47.25629" lon="-2.33566">
        <ele>29</ele>
        <time>2020-12-20T11:26:44.000Z</time>
      </trkpt>
      <trkpt lat="47.25614" lon="-2.33555">
        <ele>29</ele>
        <time>2020-12-20T11:26:47.000Z</time>
      </trkpt>
      <trkpt lat="47.256" lon="-2.33542">
        <ele>29</ele>
        <time>2020-12-20T11:26:50.000Z</time>
      </trkpt>
      <trkpt lat="47.25571" lon="-2.33502">
        <ele>29</ele>
        <time>2020-12-20T11:26:57.000Z</time>
      </trkpt>
      <trkpt lat="47.2555" lon="-2.33461">
        <ele>29</ele>
        <time>2020-12-20T11:27:03.000Z</time>
      </trkpt>
      <trkpt lat="47.25531" lon="-2.33397">
        <ele>29</ele>
        <time>2020-12-20T11:27:11.000Z</time>
      </trkpt>
      <trkpt lat="47.25523" lon="-2.33334">
        <ele>29</ele>
        <time>2020-12-20T11:27:18.000Z</time>
      </trkpt>
      <trkpt lat="47.25514" lon="-2.33262">
        <ele>29</ele>
        <time>2020-12-20T11:27:26.000Z</time>
      </trkpt>
      <trkpt lat="47.25506" lon="-2.33207">
        <ele>29</ele>
        <time>2020-12-20T11:27:33.000Z</time>
      </trkpt>
      <trkpt lat="47.25497" lon="-2.33137">
        <ele>29</ele>
        <time>2020-12-20T11:27:42.000Z</time>
      </trkpt>
      <trkpt lat="47.25492" lon="-2.331">
        <ele>29</ele>
        <time>2020-12-20T11:27:47.000Z</time>
      </trkpt>
      <trkpt lat="47.25487" lon="-2.33092">
        <ele>29</ele>
        <time>2020-12-20T11:27:49.000Z</time>
      </trkpt>
      <trkpt lat="47.25479" lon="-2.33096">
        <ele>29</ele>
        <time>2020-12-20T11:27:51.000Z</time>
      </trkpt>
      <trkpt lat="47.25465" lon="-2.33104">
        <ele>29</ele>
        <time>2020-12-20T11:27:54.000Z</time>
      </trkpt>
      <trkpt lat="47.2546" lon="-2.33108">
        <ele>29</ele>
        <time>2020-12-20T11:27:55.000Z</time>
      </trkpt>
      <trkpt lat="47.25455" lon="-2.33111">
        <ele>29</ele>
        <time>2020-12-20T11:27:56.000Z</time>
      </trkpt>
      <trkpt lat="47.25444" lon="-2.33116">
        <ele>29</ele>
        <time>2020-12-20T11:27:58.000Z</time>
      </trkpt>
      <trkpt lat="47.25429" lon="-2.33122">
        <ele>29</ele>
        <time>2020-12-20T11:28:01.000Z</time>
      </trkpt>
      <trkpt lat="47.25407" lon="-2.33132">
        <ele>29.60000038147</ele>
        <time>2020-12-20T11:28:05.000Z</time>
      </trkpt>
      <trkpt lat="47.25402" lon="-2.33134">
        <ele>30</ele>
        <time>2020-12-20T11:28:06.000Z</time>
      </trkpt>
      <trkpt lat="47.25397" lon="-2.33137">
        <ele>30.39999961853</ele>
        <time>2020-12-20T11:28:07.000Z</time>
      </trkpt>
      <trkpt lat="47.25392" lon="-2.3314">
        <ele>31</ele>
        <time>2020-12-20T11:28:08.000Z</time>
      </trkpt>
      <trkpt lat="47.25388" lon="-2.3314">
        <ele>31.39999961853</ele>
        <time>2020-12-20T11:28:09.000Z</time>
      </trkpt>
      <trkpt lat="47.25384" lon="-2.33139">
        <ele>31.39999961853</ele>
        <time>2020-12-20T11:28:10.000Z</time>
      </trkpt>
      <trkpt lat="47.25379" lon="-2.33128">
        <ele>31.39999961853</ele>
        <time>2020-12-20T11:28:13.000Z</time>
      </trkpt>
      <trkpt lat="47.25376" lon="-2.33123">
        <ele>31.39999961853</ele>
        <time>2020-12-20T11:28:15.000Z</time>
      </trkpt>
      <trkpt lat="47.25375" lon="-2.33121">
        <ele>31.39999961853</ele>
        <time>2020-12-20T11:28:17.000Z</time>
      </trkpt>
      <trkpt lat="47.25373" lon="-2.33113">
        <ele>27.39999961853</ele>
        <time>2020-12-20T11:36:18.000Z</time>
      </trkpt>
      <trkpt lat="47.2537" lon="-2.33105">
        <ele>27.39999961853</ele>
        <time>2020-12-20T11:36:21.000Z</time>
      </trkpt>
      <trkpt lat="47.25361" lon="-2.33082">
        <ele>27.39999961853</ele>
        <time>2020-12-20T11:36:27.000Z</time>
      </trkpt>
      <trkpt lat="47.2535" lon="-2.33051">
        <ele>27.39999961853</ele>
        <time>2020-12-20T11:36:33.000Z</time>
      </trkpt>
      <trkpt lat="47.2534" lon="-2.33026">
        <ele>27.39999961853</ele>
        <time>2020-12-20T11:36:37.000Z</time>
      </trkpt>
      <trkpt lat="47.25335" lon="-2.33014">
        <ele>27.39999961853</ele>
        <time>2020-12-20T11:36:39.000Z</time>
      </trkpt>
      <trkpt lat="47.2532" lon="-2.32974">
        <ele>27.39999961853</ele>
        <time>2020-12-20T11:36:45.000Z</time>
      </trkpt>
      <trkpt lat="47.25309" lon="-2.32941">
        <ele>27.39999961853</ele>
        <time>2020-12-20T11:36:50.000Z</time>
      </trkpt>
      <trkpt lat="47.25308" lon="-2.32934">
        <ele>27.39999961853</ele>
        <time>2020-12-20T11:36:51.000Z</time>
      </trkpt>
      <trkpt lat="47.25316" lon="-2.32915">
        <ele>27.39999961853</ele>
        <time>2020-12-20T11:36:54.000Z</time>
      </trkpt>
      <trkpt lat="47.25325" lon="-2.32906">
        <ele>27.39999961853</ele>
        <time>2020-12-20T11:36:56.000Z</time>
      </trkpt>
      <trkpt lat="47.25343" lon="-2.32889">
        <ele>27.39999961853</ele>
        <time>2020-12-20T11:37:00.000Z</time>
      </trkpt>
      <trkpt lat="47.25352" lon="-2.32881">
        <ele>27.799999237061</ele>
        <time>2020-12-20T11:37:02.000Z</time>
      </trkpt>
      <trkpt lat="47.25356" lon="-2.32877">
        <ele>28.39999961853</ele>
        <time>2020-12-20T11:37:03.000Z</time>
      </trkpt>
      <trkpt lat="47.2536" lon="-2.32873">
        <ele>28.799999237061</ele>
        <time>2020-12-20T11:37:04.000Z</time>
      </trkpt>
      <trkpt lat="47.25364" lon="-2.32869">
        <ele>29.200000762939</ele>
        <time>2020-12-20T11:37:05.000Z</time>
      </trkpt>
      <trkpt lat="47.25368" lon="-2.32865">
        <ele>29.60000038147</ele>
        <time>2020-12-20T11:37:06.000Z</time>
      </trkpt>
      <trkpt lat="47.25372" lon="-2.32861">
        <ele>29.60000038147</ele>
        <time>2020-12-20T11:37:07.000Z</time>
      </trkpt>
      <trkpt lat="47.25405" lon="-2.32822">
        <ele>29.60000038147</ele>
        <time>2020-12-20T11:37:15.000Z</time>
      </trkpt>
      <trkpt lat="47.25424" lon="-2.3279">
        <ele>29.60000038147</ele>
        <time>2020-12-20T11:37:21.000Z</time>
      </trkpt>
      <trkpt lat="47.25426" lon="-2.32784">
        <ele>29.60000038147</ele>
        <time>2020-12-20T11:37:22.000Z</time>
      </trkpt>
      <trkpt lat="47.25432" lon="-2.32768">
        <ele>29.60000038147</ele>
        <time>2020-12-20T11:37:25.000Z</time>
      </trkpt>
      <trkpt lat="47.25442" lon="-2.32755">
        <ele>29.60000038147</ele>
        <time>2020-12-20T11:37:28.000Z</time>
      </trkpt>
      <trkpt lat="47.25445" lon="-2.3275">
        <ele>29.60000038147</ele>
        <time>2020-12-20T11:37:29.000Z</time>
      </trkpt>
      <trkpt lat="47.2547" lon="-2.32716">
        <ele>29.60000038147</ele>
        <time>2020-12-20T11:37:36.000Z</time>
      </trkpt>
      <trkpt lat="47.25484" lon="-2.32695">
        <ele>29.60000038147</ele>
        <time>2020-12-20T11:37:40.000Z</time>
      </trkpt>
      <trkpt lat="47.25489" lon="-2.32682">
        <ele>29.60000038147</ele>
        <time>2020-12-20T11:37:42.000Z</time>
      </trkpt>
      <trkpt lat="47.25488" lon="-2.32661">
        <ele>30</ele>
        <time>2020-12-20T11:37:45.000Z</time>
      </trkpt>
      <trkpt lat="47.25487" lon="-2.32654">
        <ele>30.39999961853</ele>
        <time>2020-12-20T11:37:46.000Z</time>
      </trkpt>
      <trkpt lat="47.25487" lon="-2.32647">
        <ele>30.799999237061</ele>
        <time>2020-12-20T11:37:47.000Z</time>
      </trkpt>
      <trkpt lat="47.25486" lon="-2.3264">
        <ele>31.200000762939</ele>
        <time>2020-12-20T11:37:48.000Z</time>
      </trkpt>
      <trkpt lat="47.25484" lon="-2.32633">
        <ele>31.60000038147</ele>
        <time>2020-12-20T11:37:49.000Z</time>
      </trkpt>
      <trkpt lat="47.25481" lon="-2.32612">
        <ele>31.60000038147</ele>
        <time>2020-12-20T11:37:52.000Z</time>
      </trkpt>
      <trkpt lat="47.2548" lon="-2.32585">
        <ele>31.60000038147</ele>
        <time>2020-12-20T11:37:56.000Z</time>
      </trkpt>
      <trkpt lat="47.25482" lon="-2.32572">
        <ele>31.60000038147</ele>
        <time>2020-12-20T11:37:58.000Z</time>
      </trkpt>
      <trkpt lat="47.25491" lon="-2.32556">
        <ele>31.60000038147</ele>
        <time>2020-12-20T11:38:01.000Z</time>
      </trkpt>
      <trkpt lat="47.255" lon="-2.32547">
        <ele>31.60000038147</ele>
        <time>2020-12-20T11:38:03.000Z</time>
      </trkpt>
      <trkpt lat="47.25513" lon="-2.32532">
        <ele>31.60000038147</ele>
        <time>2020-12-20T11:38:06.000Z</time>
      </trkpt>
      <trkpt lat="47.25518" lon="-2.32527">
        <ele>31.60000038147</ele>
        <time>2020-12-20T11:38:07.000Z</time>
      </trkpt>
      <trkpt lat="47.25544" lon="-2.32502">
        <ele>31.60000038147</ele>
        <time>2020-12-20T11:38:12.000Z</time>
      </trkpt>
      <trkpt lat="47.25556" lon="-2.32492">
        <ele>31.60000038147</ele>
        <time>2020-12-20T11:38:14.000Z</time>
      </trkpt>
      <trkpt lat="47.25562" lon="-2.32486">
        <ele>31</ele>
        <time>2020-12-20T11:38:15.000Z</time>
      </trkpt>
      <trkpt lat="47.25568" lon="-2.3248">
        <ele>30.60000038147</ele>
        <time>2020-12-20T11:38:16.000Z</time>
      </trkpt>
      <trkpt lat="47.25575" lon="-2.32474">
        <ele>30.200000762939</ele>
        <time>2020-12-20T11:38:17.000Z</time>
      </trkpt>
      <trkpt lat="47.25581" lon="-2.32468">
        <ele>29.60000038147</ele>
        <time>2020-12-20T11:38:18.000Z</time>
      </trkpt>
      <trkpt lat="47.25587" lon="-2.32461">
        <ele>29.200000762939</ele>
        <time>2020-12-20T11:38:19.000Z</time>
      </trkpt>
      <trkpt lat="47.25593" lon="-2.32454">
        <ele>29.200000762939</ele>
        <time>2020-12-20T11:38:20.000Z</time>
      </trkpt>
      <trkpt lat="47.25631" lon="-2.32413">
        <ele>28.60000038147</ele>
        <time>2020-12-20T11:38:26.000Z</time>
      </trkpt>
      <trkpt lat="47.25637" lon="-2.32408">
        <ele>28</ele>
        <time>2020-12-20T11:38:27.000Z</time>
      </trkpt>
      <trkpt lat="47.25642" lon="-2.32406">
        <ele>27.39999961853</ele>
        <time>2020-12-20T11:38:28.000Z</time>
      </trkpt>
      <trkpt lat="47.25648" lon="-2.32404">
        <ele>27</ele>
        <time>2020-12-20T11:38:29.000Z</time>
      </trkpt>
      <trkpt lat="47.25653" lon="-2.32404">
        <ele>26.39999961853</ele>
        <time>2020-12-20T11:38:30.000Z</time>
      </trkpt>
      <trkpt lat="47.2567" lon="-2.32413">
        <ele>26.39999961853</ele>
        <time>2020-12-20T11:38:33.000Z</time>
      </trkpt>
      <trkpt lat="47.25682" lon="-2.3242">
        <ele>26.39999961853</ele>
        <time>2020-12-20T11:38:35.000Z</time>
      </trkpt>
      <trkpt lat="47.25695" lon="-2.32421">
        <ele>26.39999961853</ele>
        <time>2020-12-20T11:38:37.000Z</time>
      </trkpt>
      <trkpt lat="47.25708" lon="-2.32422">
        <ele>26</ele>
        <time>2020-12-20T11:38:39.000Z</time>
      </trkpt>
      <trkpt lat="47.25715" lon="-2.32422">
        <ele>25.60000038147</ele>
        <time>2020-12-20T11:38:40.000Z</time>
      </trkpt>
      <trkpt lat="47.25721" lon="-2.32423">
        <ele>25.200000762939</ele>
        <time>2020-12-20T11:38:41.000Z</time>
      </trkpt>
      <trkpt lat="47.25727" lon="-2.32423">
        <ele>24.799999237061</ele>
        <time>2020-12-20T11:38:42.000Z</time>
      </trkpt>
      <trkpt lat="47.25733" lon="-2.32423">
        <ele>24.39999961853</ele>
        <time>2020-12-20T11:38:43.000Z</time>
      </trkpt>
      <trkpt lat="47.25767" lon="-2.32418">
        <ele>24.39999961853</ele>
        <time>2020-12-20T11:38:49.000Z</time>
      </trkpt>
      <trkpt lat="47.25783" lon="-2.32418">
        <ele>24.39999961853</ele>
        <time>2020-12-20T11:38:53.000Z</time>
      </trkpt>
      <trkpt lat="47.2579" lon="-2.32429">
        <ele>24.799999237061</ele>
        <time>2020-12-20T11:38:55.000Z</time>
      </trkpt>
      <trkpt lat="47.25793" lon="-2.32435">
        <ele>25.39999961853</ele>
        <time>2020-12-20T11:38:56.000Z</time>
      </trkpt>
      <trkpt lat="47.25796" lon="-2.32441">
        <ele>26</ele>
        <time>2020-12-20T11:38:57.000Z</time>
      </trkpt>
      <trkpt lat="47.258" lon="-2.32447">
        <ele>26.39999961853</ele>
        <time>2020-12-20T11:38:58.000Z</time>
      </trkpt>
      <trkpt lat="47.25805" lon="-2.32451">
        <ele>27</ele>
        <time>2020-12-20T11:38:59.000Z</time>
      </trkpt>
      <trkpt lat="47.25815" lon="-2.32458">
        <ele>26.60000038147</ele>
        <time>2020-12-20T11:39:01.000Z</time>
      </trkpt>
      <trkpt lat="47.25821" lon="-2.32462">
        <ele>26</ele>
        <time>2020-12-20T11:39:02.000Z</time>
      </trkpt>
      <trkpt lat="47.25826" lon="-2.32465">
        <ele>25.60000038147</ele>
        <time>2020-12-20T11:39:03.000Z</time>
      </trkpt>
      <trkpt lat="47.25832" lon="-2.32468">
        <ele>25.200000762939</ele>
        <time>2020-12-20T11:39:04.000Z</time>
      </trkpt>
      <trkpt lat="47.25838" lon="-2.3247">
        <ele>24.60000038147</ele>
        <time>2020-12-20T11:39:05.000Z</time>
      </trkpt>
      <trkpt lat="47.25849" lon="-2.32473">
        <ele>24.60000038147</ele>
        <time>2020-12-20T11:39:07.000Z</time>
      </trkpt>
      <trkpt lat="47.25855" lon="-2.32474">
        <ele>24.60000038147</ele>
        <time>2020-12-20T11:39:08.000Z</time>
      </trkpt>
      <trkpt lat="47.25877" lon="-2.32471">
        <ele>24.60000038147</ele>
        <time>2020-12-20T11:39:12.000Z</time>
      </trkpt>
      <trkpt lat="47.25894" lon="-2.32465">
        <ele>24.60000038147</ele>
        <time>2020-12-20T11:39:15.000Z</time>
      </trkpt>
      <trkpt lat="47.25904" lon="-2.32456">
        <ele>24.60000038147</ele>
        <time>2020-12-20T11:39:17.000Z</time>
      </trkpt>
      <trkpt lat="47.25918" lon="-2.32439">
        <ele>24.60000038147</ele>
        <time>2020-12-20T11:39:20.000Z</time>
      </trkpt>
      <trkpt lat="47.25923" lon="-2.32433">
        <ele>24.200000762939</ele>
        <time>2020-12-20T11:39:21.000Z</time>
      </trkpt>
      <trkpt lat="47.25927" lon="-2.32426">
        <ele>23.799999237061</ele>
        <time>2020-12-20T11:39:22.000Z</time>
      </trkpt>
      <trkpt lat="47.25932" lon="-2.3242">
        <ele>23.39999961853</ele>
        <time>2020-12-20T11:39:23.000Z</time>
      </trkpt>
      <trkpt lat="47.25937" lon="-2.32414">
        <ele>23</ele>
        <time>2020-12-20T11:39:24.000Z</time>
      </trkpt>
      <trkpt lat="47.25941" lon="-2.32408">
        <ele>22.39999961853</ele>
        <time>2020-12-20T11:39:25.000Z</time>
      </trkpt>
      <trkpt lat="47.25964" lon="-2.32377">
        <ele>22.39999961853</ele>
        <time>2020-12-20T11:39:30.000Z</time>
      </trkpt>
      <trkpt lat="47.26007" lon="-2.32319">
        <ele>22.39999961853</ele>
        <time>2020-12-20T11:39:39.000Z</time>
      </trkpt>
      <trkpt lat="47.26012" lon="-2.32314">
        <ele>22.39999961853</ele>
        <time>2020-12-20T11:39:40.000Z</time>
      </trkpt>
      <trkpt lat="47.2604" lon="-2.32279">
        <ele>22.39999961853</ele>
        <time>2020-12-20T11:39:46.000Z</time>
      </trkpt>
      <trkpt lat="47.26082" lon="-2.3223">
        <ele>22.39999961853</ele>
        <time>2020-12-20T11:39:55.000Z</time>
      </trkpt>
      <trkpt lat="47.26102" lon="-2.322">
        <ele>22.39999961853</ele>
        <time>2020-12-20T11:40:00.000Z</time>
      </trkpt>
      <trkpt lat="47.26109" lon="-2.32185">
        <ele>22.39999961853</ele>
        <time>2020-12-20T11:40:02.000Z</time>
      </trkpt>
      <trkpt lat="47.26127" lon="-2.32139">
        <ele>22.39999961853</ele>
        <time>2020-12-20T11:40:08.000Z</time>
      </trkpt>
      <trkpt lat="47.26144" lon="-2.32077">
        <ele>22.39999961853</ele>
        <time>2020-12-20T11:40:15.000Z</time>
      </trkpt>
      <trkpt lat="47.2616" lon="-2.32017">
        <ele>22.39999961853</ele>
        <time>2020-12-20T11:40:22.000Z</time>
      </trkpt>
      <trkpt lat="47.26161" lon="-2.31972">
        <ele>22.39999961853</ele>
        <time>2020-12-20T11:40:27.000Z</time>
      </trkpt>
      <trkpt lat="47.26152" lon="-2.3191">
        <ele>22.39999961853</ele>
        <time>2020-12-20T11:40:34.000Z</time>
      </trkpt>
      <trkpt lat="47.26144" lon="-2.31838">
        <ele>22.39999961853</ele>
        <time>2020-12-20T11:40:42.000Z</time>
      </trkpt>
      <trkpt lat="47.26138" lon="-2.31794">
        <ele>22.799999237061</ele>
        <time>2020-12-20T11:40:47.000Z</time>
      </trkpt>
      <trkpt lat="47.26137" lon="-2.31785">
        <ele>23.200000762939</ele>
        <time>2020-12-20T11:40:48.000Z</time>
      </trkpt>
      <trkpt lat="47.26136" lon="-2.31776">
        <ele>23.60000038147</ele>
        <time>2020-12-20T11:40:49.000Z</time>
      </trkpt>
      <trkpt lat="47.26135" lon="-2.31767">
        <ele>24</ele>
        <time>2020-12-20T11:40:50.000Z</time>
      </trkpt>
      <trkpt lat="47.26133" lon="-2.31758">
        <ele>24.39999961853</ele>
        <time>2020-12-20T11:40:51.000Z</time>
      </trkpt>
      <trkpt lat="47.2613" lon="-2.31722">
        <ele>24.39999961853</ele>
        <time>2020-12-20T11:40:55.000Z</time>
      </trkpt>
      <trkpt lat="47.26125" lon="-2.3168">
        <ele>24.799999237061</ele>
        <time>2020-12-20T11:41:00.000Z</time>
      </trkpt>
      <trkpt lat="47.26124" lon="-2.31672">
        <ele>25.200000762939</ele>
        <time>2020-12-20T11:41:01.000Z</time>
      </trkpt>
      <trkpt lat="47.26122" lon="-2.31664">
        <ele>25.60000038147</ele>
        <time>2020-12-20T11:41:02.000Z</time>
      </trkpt>
      <trkpt lat="47.26119" lon="-2.31656">
        <ele>26</ele>
        <time>2020-12-20T11:41:03.000Z</time>
      </trkpt>
      <trkpt lat="47.26118" lon="-2.31648">
        <ele>26.60000038147</ele>
        <time>2020-12-20T11:41:04.000Z</time>
      </trkpt>
      <trkpt lat="47.26114" lon="-2.31633">
        <ele>26.60000038147</ele>
        <time>2020-12-20T11:41:06.000Z</time>
      </trkpt>
      <trkpt lat="47.26113" lon="-2.31626">
        <ele>26.60000038147</ele>
        <time>2020-12-20T11:41:07.000Z</time>
      </trkpt>
      <trkpt lat="47.26122" lon="-2.31612">
        <ele>26.60000038147</ele>
        <time>2020-12-20T11:41:10.000Z</time>
      </trkpt>
      <trkpt lat="47.26135" lon="-2.31612">
        <ele>26.60000038147</ele>
        <time>2020-12-20T11:41:13.000Z</time>
      </trkpt>
      <trkpt lat="47.2614" lon="-2.31612">
        <ele>26.60000038147</ele>
        <time>2020-12-20T11:41:14.000Z</time>
      </trkpt>
      <trkpt lat="47.26145" lon="-2.31611">
        <ele>26.60000038147</ele>
        <time>2020-12-20T11:41:15.000Z</time>
      </trkpt>
      <trkpt lat="47.26156" lon="-2.31608">
        <ele>27</ele>
        <time>2020-12-20T11:41:17.000Z</time>
      </trkpt>
      <trkpt lat="47.26161" lon="-2.31606">
        <ele>27.39999961853</ele>
        <time>2020-12-20T11:41:18.000Z</time>
      </trkpt>
      <trkpt lat="47.26166" lon="-2.31604">
        <ele>27.799999237061</ele>
        <time>2020-12-20T11:41:19.000Z</time>
      </trkpt>
      <trkpt lat="47.26171" lon="-2.31602">
        <ele>28.200000762939</ele>
        <time>2020-12-20T11:41:20.000Z</time>
      </trkpt>
      <trkpt lat="47.26176" lon="-2.316">
        <ele>28.60000038147</ele>
        <time>2020-12-20T11:41:21.000Z</time>
      </trkpt>
      <trkpt lat="47.26206" lon="-2.31589">
        <ele>28.60000038147</ele>
        <time>2020-12-20T11:41:27.000Z</time>
      </trkpt>
      <trkpt lat="47.26222" lon="-2.31591">
        <ele>28.60000038147</ele>
        <time>2020-12-20T11:41:30.000Z</time>
      </trkpt>
      <trkpt lat="47.26226" lon="-2.31592">
        <ele>29</ele>
        <time>2020-12-20T11:41:31.000Z</time>
      </trkpt>
      <trkpt lat="47.26231" lon="-2.31594">
        <ele>29.39999961853</ele>
        <time>2020-12-20T11:41:32.000Z</time>
      </trkpt>
      <trkpt lat="47.26236" lon="-2.31597">
        <ele>29.799999237061</ele>
        <time>2020-12-20T11:41:33.000Z</time>
      </trkpt>
      <trkpt lat="47.26239" lon="-2.31601">
        <ele>30.200000762939</ele>
        <time>2020-12-20T11:41:34.000Z</time>
      </trkpt>
      <trkpt lat="47.26244" lon="-2.31605">
        <ele>30.60000038147</ele>
        <time>2020-12-20T11:41:35.000Z</time>
      </trkpt>
      <trkpt lat="47.26253" lon="-2.31616">
        <ele>30.60000038147</ele>
        <time>2020-12-20T11:41:37.000Z</time>
      </trkpt>
      <trkpt lat="47.26264" lon="-2.31632">
        <ele>30.60000038147</ele>
        <time>2020-12-20T11:41:40.000Z</time>
      </trkpt>
      <trkpt lat="47.26279" lon="-2.31665">
        <ele>30.60000038147</ele>
        <time>2020-12-20T11:41:46.000Z</time>
      </trkpt>
      <trkpt lat="47.26283" lon="-2.31677">
        <ele>31</ele>
        <time>2020-12-20T11:41:48.000Z</time>
      </trkpt>
      <trkpt lat="47.26286" lon="-2.31683">
        <ele>31.39999961853</ele>
        <time>2020-12-20T11:41:49.000Z</time>
      </trkpt>
      <trkpt lat="47.26289" lon="-2.31689">
        <ele>31.799999237061</ele>
        <time>2020-12-20T11:41:50.000Z</time>
      </trkpt>
      <trkpt lat="47.26291" lon="-2.31695">
        <ele>32.200000762939</ele>
        <time>2020-12-20T11:41:51.000Z</time>
      </trkpt>
      <trkpt lat="47.26294" lon="-2.31701">
        <ele>32.599998474121</ele>
        <time>2020-12-20T11:41:52.000Z</time>
      </trkpt>
      <trkpt lat="47.26297" lon="-2.31705">
        <ele>32.599998474121</ele>
        <time>2020-12-20T11:41:53.000Z</time>
      </trkpt>
      <trkpt lat="47.26304" lon="-2.3171">
        <ele>32.599998474121</ele>
        <time>2020-12-20T11:41:55.000Z</time>
      </trkpt>
      <trkpt lat="47.26309" lon="-2.31709">
        <ele>32.599998474121</ele>
        <time>2020-12-20T11:41:56.000Z</time>
      </trkpt>
      <trkpt lat="47.26329" lon="-2.31696">
        <ele>33.200000762939</ele>
        <time>2020-12-20T11:42:01.000Z</time>
      </trkpt>
      <trkpt lat="47.26331" lon="-2.31692">
        <ele>33.599998474121</ele>
        <time>2020-12-20T11:42:02.000Z</time>
      </trkpt>
      <trkpt lat="47.26334" lon="-2.31688">
        <ele>34</ele>
        <time>2020-12-20T11:42:03.000Z</time>
      </trkpt>
      <trkpt lat="47.26337" lon="-2.31686">
        <ele>34.400001525879</ele>
        <time>2020-12-20T11:42:04.000Z</time>
      </trkpt>
      <trkpt lat="47.2634" lon="-2.31684">
        <ele>34.799999237061</ele>
        <time>2020-12-20T11:42:05.000Z</time>
      </trkpt>
      <trkpt lat="47.2635" lon="-2.31679">
        <ele>34.799999237061</ele>
        <time>2020-12-20T11:42:08.000Z</time>
      </trkpt>
      <trkpt lat="47.26361" lon="-2.31675">
        <ele>34.799999237061</ele>
        <time>2020-12-20T11:42:11.000Z</time>
      </trkpt>
      <trkpt lat="47.26377" lon="-2.3167">
        <ele>35.200000762939</ele>
        <time>2020-12-20T11:42:15.000Z</time>
      </trkpt>
      <trkpt lat="47.26382" lon="-2.31667">
        <ele>35.599998474121</ele>
        <time>2020-12-20T11:42:16.000Z</time>
      </trkpt>
      <trkpt lat="47.26385" lon="-2.31665">
        <ele>36</ele>
        <time>2020-12-20T11:42:17.000Z</time>
      </trkpt>
      <trkpt lat="47.26389" lon="-2.31663">
        <ele>36.400001525879</ele>
        <time>2020-12-20T11:42:18.000Z</time>
      </trkpt>
      <trkpt lat="47.26393" lon="-2.31661">
        <ele>36.799999237061</ele>
        <time>2020-12-20T11:42:19.000Z</time>
      </trkpt>
      <trkpt lat="47.2641" lon="-2.3165">
        <ele>36.799999237061</ele>
        <time>2020-12-20T11:42:24.000Z</time>
      </trkpt>
      <trkpt lat="47.26412" lon="-2.31645">
        <ele>36.799999237061</ele>
        <time>2020-12-20T11:42:25.000Z</time>
      </trkpt>
      <trkpt lat="47.26411" lon="-2.3164">
        <ele>37.200000762939</ele>
        <time>2020-12-20T11:42:26.000Z</time>
      </trkpt>
      <trkpt lat="47.26411" lon="-2.31635">
        <ele>37.599998474121</ele>
        <time>2020-12-20T11:42:27.000Z</time>
      </trkpt>
      <trkpt lat="47.2641" lon="-2.31629">
        <ele>38</ele>
        <time>2020-12-20T11:42:28.000Z</time>
      </trkpt>
      <trkpt lat="47.2641" lon="-2.31623">
        <ele>38.599998474121</ele>
        <time>2020-12-20T11:42:29.000Z</time>
      </trkpt>
      <trkpt lat="47.2641" lon="-2.31618">
        <ele>39</ele>
        <time>2020-12-20T11:42:30.000Z</time>
      </trkpt>
      <trkpt lat="47.2641" lon="-2.31607">
        <ele>39</ele>
        <time>2020-12-20T11:42:32.000Z</time>
      </trkpt>
      <trkpt lat="47.2641" lon="-2.31574">
        <ele>39</ele>
        <time>2020-12-20T11:42:38.000Z</time>
      </trkpt>
      <trkpt lat="47.26411" lon="-2.31552">
        <ele>39.400001525879</ele>
        <time>2020-12-20T11:42:43.000Z</time>
      </trkpt>
      <trkpt lat="47.26413" lon="-2.31551">
        <ele>39.799999237061</ele>
        <time>2020-12-20T11:42:44.000Z</time>
      </trkpt>
      <trkpt lat="47.26415" lon="-2.31551">
        <ele>40.200000762939</ele>
        <time>2020-12-20T11:42:45.000Z</time>
      </trkpt>
      <trkpt lat="47.26416" lon="-2.3155">
        <ele>40.599998474121</ele>
        <time>2020-12-20T11:42:46.000Z</time>
      </trkpt>
      <trkpt lat="47.26416" lon="-2.31551">
        <ele>41</ele>
        <time>2020-12-20T11:42:47.000Z</time>
      </trkpt>
      <trkpt lat="47.26416" lon="-2.31552">
        <ele>41</ele>
        <time>2020-12-20T11:42:48.000Z</time>
      </trkpt>
    </trkseg>
  </trk>
</gpx>